<?xml version="1.0" encoding="UTF-8" standalone="no" ?>
<gpx xmlns="http://www.topografix.com/GPX/1/1" xmlns:xsi="http://www.w3.org/2001/XMLSchema-instance" xsi:schemaLocation="http://www.topografix.com/GPX/1/1 http://www.topografix.com/GPX/1/1/gpx.xsd" version="1.1" creator="VisuGPX - https://www.visugpx.com">
  <metadata>
    <name>VERNOIL Circuit vert</name>
    <desc><![CDATA[Circuit de Vernoil balisé en vert clair. Bon balisage.]]></desc>
  </metadata>
  <trk>
    <name><![CDATA[17/02/2013 9:21]]></name>
    <desc><![CDATA[]]></desc>
    <trkseg>
      <trkpt lat="47.38629" lon="0.07714">
        <ele>71</ele>
        <time>2013-02-17T08:21:23.539Z</time>
      </trkpt>
      <trkpt lat="47.3863" lon="0.07714">
        <ele>71</ele>
        <time>2013-02-17T08:21:29.999Z</time>
      </trkpt>
      <trkpt lat="47.38629" lon="0.07705">
        <ele>71</ele>
        <time>2013-02-17T08:21:30.999Z</time>
      </trkpt>
      <trkpt lat="47.38628" lon="0.07699">
        <ele>71</ele>
        <time>2013-02-17T08:21:36.999Z</time>
      </trkpt>
      <trkpt lat="47.38628" lon="0.07691">
        <ele>71</ele>
        <time>2013-02-17T08:21:37.999Z</time>
      </trkpt>
      <trkpt lat="47.38628" lon="0.07691">
        <ele>71</ele>
        <time>2013-02-17T08:21:52.999Z</time>
      </trkpt>
      <trkpt lat="47.38627" lon="0.07668">
        <ele>71</ele>
        <time>2013-02-17T08:21:53.999Z</time>
      </trkpt>
      <trkpt lat="47.38625" lon="0.07663">
        <ele>71</ele>
        <time>2013-02-17T08:21:57.999Z</time>
      </trkpt>
      <trkpt lat="47.38625" lon="0.07662">
        <ele>71</ele>
        <time>2013-02-17T08:21:58.999Z</time>
      </trkpt>
      <trkpt lat="47.38625" lon="0.07656">
        <ele>71</ele>
        <time>2013-02-17T08:22:03.999Z</time>
      </trkpt>
      <trkpt lat="47.38625" lon="0.07654">
        <ele>71</ele>
        <time>2013-02-17T08:22:04.999Z</time>
      </trkpt>
      <trkpt lat="47.38625" lon="0.07649">
        <ele>71</ele>
        <time>2013-02-17T08:22:06.999Z</time>
      </trkpt>
      <trkpt lat="47.38625" lon="0.07647">
        <ele>71</ele>
        <time>2013-02-17T08:22:07.999Z</time>
      </trkpt>
      <trkpt lat="47.38626" lon="0.07641">
        <ele>71</ele>
        <time>2013-02-17T08:22:12.999Z</time>
      </trkpt>
      <trkpt lat="47.38626" lon="0.07639">
        <ele>71</ele>
        <time>2013-02-17T08:22:13.999Z</time>
      </trkpt>
      <trkpt lat="47.38625" lon="0.07634">
        <ele>71</ele>
        <time>2013-02-17T08:22:15.999Z</time>
      </trkpt>
      <trkpt lat="47.38625" lon="0.07632">
        <ele>71</ele>
        <time>2013-02-17T08:22:16.999Z</time>
      </trkpt>
      <trkpt lat="47.38624" lon="0.07627">
        <ele>71</ele>
        <time>2013-02-17T08:22:20.999Z</time>
      </trkpt>
      <trkpt lat="47.38624" lon="0.07625">
        <ele>71</ele>
        <time>2013-02-17T08:22:21.999Z</time>
      </trkpt>
      <trkpt lat="47.38623" lon="0.07619">
        <ele>70</ele>
        <time>2013-02-17T08:22:23.999Z</time>
      </trkpt>
      <trkpt lat="47.38623" lon="0.07618">
        <ele>70</ele>
        <time>2013-02-17T08:22:24.999Z</time>
      </trkpt>
      <trkpt lat="47.38624" lon="0.07611">
        <ele>70</ele>
        <time>2013-02-17T08:22:28.999Z</time>
      </trkpt>
      <trkpt lat="47.38624" lon="0.0761">
        <ele>70</ele>
        <time>2013-02-17T08:22:29.999Z</time>
      </trkpt>
      <trkpt lat="47.38624" lon="0.07604">
        <ele>70</ele>
        <time>2013-02-17T08:22:33.999Z</time>
      </trkpt>
      <trkpt lat="47.38624" lon="0.07602">
        <ele>70</ele>
        <time>2013-02-17T08:22:34.999Z</time>
      </trkpt>
      <trkpt lat="47.38625" lon="0.07597">
        <ele>70</ele>
        <time>2013-02-17T08:22:37.999Z</time>
      </trkpt>
      <trkpt lat="47.38625" lon="0.07596">
        <ele>70</ele>
        <time>2013-02-17T08:22:38.999Z</time>
      </trkpt>
      <trkpt lat="47.38627" lon="0.07591">
        <ele>70</ele>
        <time>2013-02-17T08:22:41.999Z</time>
      </trkpt>
      <trkpt lat="47.38628" lon="0.0759">
        <ele>70</ele>
        <time>2013-02-17T08:22:42.999Z</time>
      </trkpt>
      <trkpt lat="47.38628" lon="0.07584">
        <ele>70</ele>
        <time>2013-02-17T08:22:45.999Z</time>
      </trkpt>
      <trkpt lat="47.38627" lon="0.07582">
        <ele>70</ele>
        <time>2013-02-17T08:22:46.999Z</time>
      </trkpt>
      <trkpt lat="47.3863" lon="0.07577">
        <ele>70</ele>
        <time>2013-02-17T08:22:50.999Z</time>
      </trkpt>
      <trkpt lat="47.38631" lon="0.07576">
        <ele>69</ele>
        <time>2013-02-17T08:22:51.999Z</time>
      </trkpt>
      <trkpt lat="47.38632" lon="0.07572">
        <ele>69</ele>
        <time>2013-02-17T08:22:53.999Z</time>
      </trkpt>
      <trkpt lat="47.38633" lon="0.0757">
        <ele>69</ele>
        <time>2013-02-17T08:22:54.999Z</time>
      </trkpt>
      <trkpt lat="47.38632" lon="0.07565">
        <ele>69</ele>
        <time>2013-02-17T08:22:57.999Z</time>
      </trkpt>
      <trkpt lat="47.38632" lon="0.07563">
        <ele>69</ele>
        <time>2013-02-17T08:22:58.999Z</time>
      </trkpt>
      <trkpt lat="47.38629" lon="0.07558">
        <ele>69</ele>
        <time>2013-02-17T08:23:02.999Z</time>
      </trkpt>
      <trkpt lat="47.38628" lon="0.07557">
        <ele>69</ele>
        <time>2013-02-17T08:23:03.999Z</time>
      </trkpt>
      <trkpt lat="47.38625" lon="0.07555">
        <ele>69</ele>
        <time>2013-02-17T08:23:07.999Z</time>
      </trkpt>
      <trkpt lat="47.38623" lon="0.07555">
        <ele>69</ele>
        <time>2013-02-17T08:23:08.999Z</time>
      </trkpt>
      <trkpt lat="47.38619" lon="0.07555">
        <ele>69</ele>
        <time>2013-02-17T08:23:12.999Z</time>
      </trkpt>
      <trkpt lat="47.38618" lon="0.07555">
        <ele>69</ele>
        <time>2013-02-17T08:23:13.999Z</time>
      </trkpt>
      <trkpt lat="47.38614" lon="0.07554">
        <ele>69</ele>
        <time>2013-02-17T08:23:16.999Z</time>
      </trkpt>
      <trkpt lat="47.38613" lon="0.07554">
        <ele>69</ele>
        <time>2013-02-17T08:23:17.999Z</time>
      </trkpt>
      <trkpt lat="47.38609" lon="0.07555">
        <ele>69</ele>
        <time>2013-02-17T08:23:21.999Z</time>
      </trkpt>
      <trkpt lat="47.38608" lon="0.07555">
        <ele>69</ele>
        <time>2013-02-17T08:23:22.999Z</time>
      </trkpt>
      <trkpt lat="47.38604" lon="0.07556">
        <ele>70</ele>
        <time>2013-02-17T08:23:25.999Z</time>
      </trkpt>
      <trkpt lat="47.38602" lon="0.07557">
        <ele>70</ele>
        <time>2013-02-17T08:23:26.999Z</time>
      </trkpt>
      <trkpt lat="47.38599" lon="0.07555">
        <ele>70</ele>
        <time>2013-02-17T08:23:30.999Z</time>
      </trkpt>
      <trkpt lat="47.38598" lon="0.07554">
        <ele>70</ele>
        <time>2013-02-17T08:23:31.999Z</time>
      </trkpt>
      <trkpt lat="47.38594" lon="0.07554">
        <ele>70</ele>
        <time>2013-02-17T08:23:35.999Z</time>
      </trkpt>
      <trkpt lat="47.38592" lon="0.07555">
        <ele>70</ele>
        <time>2013-02-17T08:23:36.999Z</time>
      </trkpt>
      <trkpt lat="47.38589" lon="0.07554">
        <ele>70</ele>
        <time>2013-02-17T08:23:39.999Z</time>
      </trkpt>
      <trkpt lat="47.38587" lon="0.07554">
        <ele>70</ele>
        <time>2013-02-17T08:23:40.999Z</time>
      </trkpt>
      <trkpt lat="47.38583" lon="0.07554">
        <ele>71</ele>
        <time>2013-02-17T08:23:44.999Z</time>
      </trkpt>
      <trkpt lat="47.38582" lon="0.07554">
        <ele>71</ele>
        <time>2013-02-17T08:23:45.999Z</time>
      </trkpt>
      <trkpt lat="47.38578" lon="0.07555">
        <ele>71</ele>
        <time>2013-02-17T08:23:48.999Z</time>
      </trkpt>
      <trkpt lat="47.38577" lon="0.07555">
        <ele>71</ele>
        <time>2013-02-17T08:23:49.999Z</time>
      </trkpt>
      <trkpt lat="47.38572" lon="0.07556">
        <ele>71</ele>
        <time>2013-02-17T08:23:52.999Z</time>
      </trkpt>
      <trkpt lat="47.38571" lon="0.07556">
        <ele>71</ele>
        <time>2013-02-17T08:23:53.999Z</time>
      </trkpt>
      <trkpt lat="47.38568" lon="0.07554">
        <ele>71</ele>
        <time>2013-02-17T08:23:56.999Z</time>
      </trkpt>
      <trkpt lat="47.38566" lon="0.07554">
        <ele>71</ele>
        <time>2013-02-17T08:23:57.999Z</time>
      </trkpt>
      <trkpt lat="47.38563" lon="0.07553">
        <ele>71</ele>
        <time>2013-02-17T08:24:01.999Z</time>
      </trkpt>
      <trkpt lat="47.38562" lon="0.07553">
        <ele>71</ele>
        <time>2013-02-17T08:24:02.999Z</time>
      </trkpt>
      <trkpt lat="47.38557" lon="0.07553">
        <ele>71</ele>
        <time>2013-02-17T08:24:06.999Z</time>
      </trkpt>
      <trkpt lat="47.38556" lon="0.07553">
        <ele>71</ele>
        <time>2013-02-17T08:24:07.999Z</time>
      </trkpt>
      <trkpt lat="47.38553" lon="0.07553">
        <ele>72</ele>
        <time>2013-02-17T08:24:10.999Z</time>
      </trkpt>
      <trkpt lat="47.38551" lon="0.07553">
        <ele>72</ele>
        <time>2013-02-17T08:24:11.999Z</time>
      </trkpt>
      <trkpt lat="47.38548" lon="0.07552">
        <ele>72</ele>
        <time>2013-02-17T08:24:14.999Z</time>
      </trkpt>
      <trkpt lat="47.38546" lon="0.07552">
        <ele>72</ele>
        <time>2013-02-17T08:24:15.999Z</time>
      </trkpt>
      <trkpt lat="47.38542" lon="0.07552">
        <ele>72</ele>
        <time>2013-02-17T08:24:18.999Z</time>
      </trkpt>
      <trkpt lat="47.3854" lon="0.07552">
        <ele>72</ele>
        <time>2013-02-17T08:24:19.999Z</time>
      </trkpt>
      <trkpt lat="47.38537" lon="0.07553">
        <ele>72</ele>
        <time>2013-02-17T08:24:22.999Z</time>
      </trkpt>
      <trkpt lat="47.38536" lon="0.07553">
        <ele>72</ele>
        <time>2013-02-17T08:24:23.999Z</time>
      </trkpt>
      <trkpt lat="47.38532" lon="0.07553">
        <ele>72</ele>
        <time>2013-02-17T08:24:27.999Z</time>
      </trkpt>
      <trkpt lat="47.38531" lon="0.07553">
        <ele>72</ele>
        <time>2013-02-17T08:24:28.999Z</time>
      </trkpt>
      <trkpt lat="47.38528" lon="0.07554">
        <ele>72</ele>
        <time>2013-02-17T08:24:30.999Z</time>
      </trkpt>
      <trkpt lat="47.38526" lon="0.07554">
        <ele>72</ele>
        <time>2013-02-17T08:24:31.999Z</time>
      </trkpt>
      <trkpt lat="47.38522" lon="0.07554">
        <ele>72</ele>
        <time>2013-02-17T08:24:34.999Z</time>
      </trkpt>
      <trkpt lat="47.38521" lon="0.07554">
        <ele>72</ele>
        <time>2013-02-17T08:24:35.999Z</time>
      </trkpt>
      <trkpt lat="47.38518" lon="0.07553">
        <ele>72</ele>
        <time>2013-02-17T08:24:39.999Z</time>
      </trkpt>
      <trkpt lat="47.38516" lon="0.07553">
        <ele>72</ele>
        <time>2013-02-17T08:24:40.999Z</time>
      </trkpt>
      <trkpt lat="47.38512" lon="0.07554">
        <ele>72</ele>
        <time>2013-02-17T08:24:44.999Z</time>
      </trkpt>
      <trkpt lat="47.38511" lon="0.07554">
        <ele>72</ele>
        <time>2013-02-17T08:24:45.999Z</time>
      </trkpt>
      <trkpt lat="47.38507" lon="0.07552">
        <ele>72</ele>
        <time>2013-02-17T08:24:49.999Z</time>
      </trkpt>
      <trkpt lat="47.38506" lon="0.07552">
        <ele>72</ele>
        <time>2013-02-17T08:24:50.999Z</time>
      </trkpt>
      <trkpt lat="47.38502" lon="0.07552">
        <ele>73</ele>
        <time>2013-02-17T08:24:54.999Z</time>
      </trkpt>
      <trkpt lat="47.38501" lon="0.07552">
        <ele>73</ele>
        <time>2013-02-17T08:24:55.999Z</time>
      </trkpt>
      <trkpt lat="47.38498" lon="0.07549">
        <ele>76</ele>
        <time>2013-02-17T08:24:59.999Z</time>
      </trkpt>
      <trkpt lat="47.38497" lon="0.07548">
        <ele>76</ele>
        <time>2013-02-17T08:25:00.999Z</time>
      </trkpt>
      <trkpt lat="47.38493" lon="0.07545">
        <ele>76</ele>
        <time>2013-02-17T08:25:04.999Z</time>
      </trkpt>
      <trkpt lat="47.38492" lon="0.07545">
        <ele>76</ele>
        <time>2013-02-17T08:25:05.999Z</time>
      </trkpt>
      <trkpt lat="47.38488" lon="0.07543">
        <ele>76</ele>
        <time>2013-02-17T08:25:09.999Z</time>
      </trkpt>
      <trkpt lat="47.38487" lon="0.07543">
        <ele>76</ele>
        <time>2013-02-17T08:25:10.999Z</time>
      </trkpt>
      <trkpt lat="47.38482" lon="0.07542">
        <ele>76</ele>
        <time>2013-02-17T08:25:14.999Z</time>
      </trkpt>
      <trkpt lat="47.38481" lon="0.07543">
        <ele>76</ele>
        <time>2013-02-17T08:25:15.999Z</time>
      </trkpt>
      <trkpt lat="47.38477" lon="0.07543">
        <ele>76</ele>
        <time>2013-02-17T08:25:19.999Z</time>
      </trkpt>
      <trkpt lat="47.38476" lon="0.07543">
        <ele>76</ele>
        <time>2013-02-17T08:25:20.999Z</time>
      </trkpt>
      <trkpt lat="47.38472" lon="0.0754">
        <ele>76</ele>
        <time>2013-02-17T08:25:24.999Z</time>
      </trkpt>
      <trkpt lat="47.38471" lon="0.07539">
        <ele>76</ele>
        <time>2013-02-17T08:25:25.999Z</time>
      </trkpt>
      <trkpt lat="47.38468" lon="0.07537">
        <ele>76</ele>
        <time>2013-02-17T08:25:28.999Z</time>
      </trkpt>
      <trkpt lat="47.38467" lon="0.07536">
        <ele>76</ele>
        <time>2013-02-17T08:25:29.999Z</time>
      </trkpt>
      <trkpt lat="47.38464" lon="0.07532">
        <ele>76</ele>
        <time>2013-02-17T08:25:33.999Z</time>
      </trkpt>
      <trkpt lat="47.38463" lon="0.07531">
        <ele>76</ele>
        <time>2013-02-17T08:25:34.999Z</time>
      </trkpt>
      <trkpt lat="47.38461" lon="0.07526">
        <ele>76</ele>
        <time>2013-02-17T08:25:39.999Z</time>
      </trkpt>
      <trkpt lat="47.38461" lon="0.07524">
        <ele>77</ele>
        <time>2013-02-17T08:25:40.999Z</time>
      </trkpt>
      <trkpt lat="47.3846" lon="0.07518">
        <ele>76</ele>
        <time>2013-02-17T08:25:45.999Z</time>
      </trkpt>
      <trkpt lat="47.3846" lon="0.07516">
        <ele>76</ele>
        <time>2013-02-17T08:25:46.999Z</time>
      </trkpt>
      <trkpt lat="47.38458" lon="0.07511">
        <ele>77</ele>
        <time>2013-02-17T08:25:49.999Z</time>
      </trkpt>
      <trkpt lat="47.38458" lon="0.0751">
        <ele>76</ele>
        <time>2013-02-17T08:25:51.000Z</time>
      </trkpt>
      <trkpt lat="47.38458" lon="0.07503">
        <ele>77</ele>
        <time>2013-02-17T08:26:00.000Z</time>
      </trkpt>
      <trkpt lat="47.38458" lon="0.07502">
        <ele>77</ele>
        <time>2013-02-17T08:26:01.000Z</time>
      </trkpt>
      <trkpt lat="47.38457" lon="0.07496">
        <ele>76</ele>
        <time>2013-02-17T08:26:06.000Z</time>
      </trkpt>
      <trkpt lat="47.38456" lon="0.07495">
        <ele>76</ele>
        <time>2013-02-17T08:26:07.000Z</time>
      </trkpt>
      <trkpt lat="47.38454" lon="0.0749">
        <ele>76</ele>
        <time>2013-02-17T08:26:11.000Z</time>
      </trkpt>
      <trkpt lat="47.38453" lon="0.07488">
        <ele>76</ele>
        <time>2013-02-17T08:26:12.000Z</time>
      </trkpt>
      <trkpt lat="47.38452" lon="0.07482">
        <ele>76</ele>
        <time>2013-02-17T08:26:15.000Z</time>
      </trkpt>
      <trkpt lat="47.38452" lon="0.0748">
        <ele>76</ele>
        <time>2013-02-17T08:26:16.000Z</time>
      </trkpt>
      <trkpt lat="47.38451" lon="0.07475">
        <ele>76</ele>
        <time>2013-02-17T08:26:18.000Z</time>
      </trkpt>
      <trkpt lat="47.38451" lon="0.07473">
        <ele>76</ele>
        <time>2013-02-17T08:26:19.000Z</time>
      </trkpt>
      <trkpt lat="47.3845" lon="0.07468">
        <ele>76</ele>
        <time>2013-02-17T08:26:21.000Z</time>
      </trkpt>
      <trkpt lat="47.38449" lon="0.07466">
        <ele>76</ele>
        <time>2013-02-17T08:26:22.000Z</time>
      </trkpt>
      <trkpt lat="47.38448" lon="0.0746">
        <ele>76</ele>
        <time>2013-02-17T08:26:25.000Z</time>
      </trkpt>
      <trkpt lat="47.38447" lon="0.07458">
        <ele>76</ele>
        <time>2013-02-17T08:26:26.000Z</time>
      </trkpt>
      <trkpt lat="47.38447" lon="0.07453">
        <ele>76</ele>
        <time>2013-02-17T08:26:29.000Z</time>
      </trkpt>
      <trkpt lat="47.38447" lon="0.07452">
        <ele>76</ele>
        <time>2013-02-17T08:26:30.000Z</time>
      </trkpt>
      <trkpt lat="47.38447" lon="0.07445">
        <ele>76</ele>
        <time>2013-02-17T08:26:36.000Z</time>
      </trkpt>
      <trkpt lat="47.38447" lon="0.07444">
        <ele>76</ele>
        <time>2013-02-17T08:26:37.000Z</time>
      </trkpt>
      <trkpt lat="47.38447" lon="0.07439">
        <ele>76</ele>
        <time>2013-02-17T08:26:40.000Z</time>
      </trkpt>
      <trkpt lat="47.38446" lon="0.07437">
        <ele>76</ele>
        <time>2013-02-17T08:26:41.000Z</time>
      </trkpt>
      <trkpt lat="47.38446" lon="0.07432">
        <ele>76</ele>
        <time>2013-02-17T08:26:44.000Z</time>
      </trkpt>
      <trkpt lat="47.38446" lon="0.0743">
        <ele>76</ele>
        <time>2013-02-17T08:26:45.000Z</time>
      </trkpt>
      <trkpt lat="47.38446" lon="0.07424">
        <ele>76</ele>
        <time>2013-02-17T08:26:50.000Z</time>
      </trkpt>
      <trkpt lat="47.38446" lon="0.07422">
        <ele>76</ele>
        <time>2013-02-17T08:26:51.000Z</time>
      </trkpt>
      <trkpt lat="47.38445" lon="0.07416">
        <ele>76</ele>
        <time>2013-02-17T08:26:54.000Z</time>
      </trkpt>
      <trkpt lat="47.38445" lon="0.07414">
        <ele>76</ele>
        <time>2013-02-17T08:26:55.000Z</time>
      </trkpt>
      <trkpt lat="47.38445" lon="0.07409">
        <ele>76</ele>
        <time>2013-02-17T08:26:58.000Z</time>
      </trkpt>
      <trkpt lat="47.38445" lon="0.07407">
        <ele>76</ele>
        <time>2013-02-17T08:26:59.000Z</time>
      </trkpt>
      <trkpt lat="47.38445" lon="0.07401">
        <ele>75</ele>
        <time>2013-02-17T08:27:04.000Z</time>
      </trkpt>
      <trkpt lat="47.38445" lon="0.074">
        <ele>75</ele>
        <time>2013-02-17T08:27:05.000Z</time>
      </trkpt>
      <trkpt lat="47.38445" lon="0.07395">
        <ele>75</ele>
        <time>2013-02-17T08:27:08.000Z</time>
      </trkpt>
      <trkpt lat="47.38445" lon="0.07393">
        <ele>75</ele>
        <time>2013-02-17T08:27:09.000Z</time>
      </trkpt>
      <trkpt lat="47.38446" lon="0.07387">
        <ele>75</ele>
        <time>2013-02-17T08:27:14.000Z</time>
      </trkpt>
      <trkpt lat="47.38447" lon="0.07386">
        <ele>75</ele>
        <time>2013-02-17T08:27:15.000Z</time>
      </trkpt>
      <trkpt lat="47.38447" lon="0.0738">
        <ele>75</ele>
        <time>2013-02-17T08:27:21.000Z</time>
      </trkpt>
      <trkpt lat="47.38447" lon="0.07378">
        <ele>75</ele>
        <time>2013-02-17T08:27:22.000Z</time>
      </trkpt>
      <trkpt lat="47.38446" lon="0.07373">
        <ele>75</ele>
        <time>2013-02-17T08:27:24.000Z</time>
      </trkpt>
      <trkpt lat="47.38446" lon="0.07371">
        <ele>75</ele>
        <time>2013-02-17T08:27:25.000Z</time>
      </trkpt>
      <trkpt lat="47.38445" lon="0.07365">
        <ele>75</ele>
        <time>2013-02-17T08:27:27.000Z</time>
      </trkpt>
      <trkpt lat="47.38444" lon="0.07361">
        <ele>75</ele>
        <time>2013-02-17T08:27:28.000Z</time>
      </trkpt>
      <trkpt lat="47.38443" lon="0.07355">
        <ele>75</ele>
        <time>2013-02-17T08:27:30.000Z</time>
      </trkpt>
      <trkpt lat="47.38443" lon="0.07353">
        <ele>75</ele>
        <time>2013-02-17T08:27:31.000Z</time>
      </trkpt>
      <trkpt lat="47.38443" lon="0.07347">
        <ele>75</ele>
        <time>2013-02-17T08:27:34.000Z</time>
      </trkpt>
      <trkpt lat="47.38443" lon="0.07346">
        <ele>75</ele>
        <time>2013-02-17T08:27:35.000Z</time>
      </trkpt>
      <trkpt lat="47.38443" lon="0.07339">
        <ele>75</ele>
        <time>2013-02-17T08:27:38.000Z</time>
      </trkpt>
      <trkpt lat="47.38443" lon="0.07338">
        <ele>75</ele>
        <time>2013-02-17T08:27:39.000Z</time>
      </trkpt>
      <trkpt lat="47.38444" lon="0.07333">
        <ele>74</ele>
        <time>2013-02-17T08:27:43.000Z</time>
      </trkpt>
      <trkpt lat="47.38444" lon="0.07331">
        <ele>74</ele>
        <time>2013-02-17T08:27:44.000Z</time>
      </trkpt>
      <trkpt lat="47.38444" lon="0.07325">
        <ele>74</ele>
        <time>2013-02-17T08:27:49.000Z</time>
      </trkpt>
      <trkpt lat="47.38444" lon="0.07324">
        <ele>74</ele>
        <time>2013-02-17T08:27:50.000Z</time>
      </trkpt>
      <trkpt lat="47.38443" lon="0.07318">
        <ele>74</ele>
        <time>2013-02-17T08:27:56.000Z</time>
      </trkpt>
      <trkpt lat="47.38445" lon="0.07317">
        <ele>74</ele>
        <time>2013-02-17T08:27:57.000Z</time>
      </trkpt>
      <trkpt lat="47.38446" lon="0.07312">
        <ele>73</ele>
        <time>2013-02-17T08:27:59.000Z</time>
      </trkpt>
      <trkpt lat="47.38446" lon="0.0731">
        <ele>73</ele>
        <time>2013-02-17T08:28:00.000Z</time>
      </trkpt>
      <trkpt lat="47.38445" lon="0.07305">
        <ele>73</ele>
        <time>2013-02-17T08:28:02.000Z</time>
      </trkpt>
      <trkpt lat="47.38445" lon="0.07303">
        <ele>73</ele>
        <time>2013-02-17T08:28:03.000Z</time>
      </trkpt>
      <trkpt lat="47.38443" lon="0.07298">
        <ele>73</ele>
        <time>2013-02-17T08:28:08.000Z</time>
      </trkpt>
      <trkpt lat="47.38442" lon="0.07297">
        <ele>73</ele>
        <time>2013-02-17T08:28:09.000Z</time>
      </trkpt>
      <trkpt lat="47.38438" lon="0.07296">
        <ele>73</ele>
        <time>2013-02-17T08:28:12.000Z</time>
      </trkpt>
      <trkpt lat="47.38437" lon="0.07295">
        <ele>73</ele>
        <time>2013-02-17T08:28:13.000Z</time>
      </trkpt>
      <trkpt lat="47.38435" lon="0.07295">
        <ele>73</ele>
        <time>2013-02-17T08:28:15.000Z</time>
      </trkpt>
      <trkpt lat="47.38432" lon="0.07295">
        <ele>73</ele>
        <time>2013-02-17T08:28:16.000Z</time>
      </trkpt>
      <trkpt lat="47.3843" lon="0.07295">
        <ele>73</ele>
        <time>2013-02-17T08:28:18.000Z</time>
      </trkpt>
      <trkpt lat="47.38427" lon="0.07295">
        <ele>74</ele>
        <time>2013-02-17T08:28:19.000Z</time>
      </trkpt>
      <trkpt lat="47.38423" lon="0.07295">
        <ele>74</ele>
        <time>2013-02-17T08:28:23.000Z</time>
      </trkpt>
      <trkpt lat="47.38422" lon="0.07296">
        <ele>74</ele>
        <time>2013-02-17T08:28:24.000Z</time>
      </trkpt>
      <trkpt lat="47.38418" lon="0.07298">
        <ele>74</ele>
        <time>2013-02-17T08:28:27.000Z</time>
      </trkpt>
      <trkpt lat="47.38417" lon="0.07298">
        <ele>74</ele>
        <time>2013-02-17T08:28:28.000Z</time>
      </trkpt>
      <trkpt lat="47.38414" lon="0.07298">
        <ele>77</ele>
        <time>2013-02-17T08:28:30.000Z</time>
      </trkpt>
      <trkpt lat="47.38412" lon="0.07299">
        <ele>77</ele>
        <time>2013-02-17T08:28:31.000Z</time>
      </trkpt>
      <trkpt lat="47.38408" lon="0.07301">
        <ele>77</ele>
        <time>2013-02-17T08:28:35.000Z</time>
      </trkpt>
      <trkpt lat="47.38408" lon="0.07301">
        <ele>77</ele>
        <time>2013-02-17T08:28:36.000Z</time>
      </trkpt>
      <trkpt lat="47.38403" lon="0.07302">
        <ele>77</ele>
        <time>2013-02-17T08:28:46.000Z</time>
      </trkpt>
      <trkpt lat="47.38403" lon="0.07302">
        <ele>77</ele>
        <time>2013-02-17T08:28:47.000Z</time>
      </trkpt>
      <trkpt lat="47.38399" lon="0.07305">
        <ele>77</ele>
        <time>2013-02-17T08:28:50.000Z</time>
      </trkpt>
      <trkpt lat="47.38398" lon="0.07306">
        <ele>77</ele>
        <time>2013-02-17T08:28:51.000Z</time>
      </trkpt>
      <trkpt lat="47.38394" lon="0.07308">
        <ele>78</ele>
        <time>2013-02-17T08:28:55.000Z</time>
      </trkpt>
      <trkpt lat="47.38392" lon="0.07309">
        <ele>78</ele>
        <time>2013-02-17T08:28:56.000Z</time>
      </trkpt>
      <trkpt lat="47.38388" lon="0.0731">
        <ele>78</ele>
        <time>2013-02-17T08:28:58.000Z</time>
      </trkpt>
      <trkpt lat="47.38386" lon="0.0731">
        <ele>78</ele>
        <time>2013-02-17T08:28:59.000Z</time>
      </trkpt>
      <trkpt lat="47.38382" lon="0.07311">
        <ele>78</ele>
        <time>2013-02-17T08:29:01.000Z</time>
      </trkpt>
      <trkpt lat="47.3838" lon="0.07312">
        <ele>78</ele>
        <time>2013-02-17T08:29:02.000Z</time>
      </trkpt>
      <trkpt lat="47.38377" lon="0.07312">
        <ele>78</ele>
        <time>2013-02-17T08:29:06.000Z</time>
      </trkpt>
      <trkpt lat="47.38375" lon="0.07313">
        <ele>78</ele>
        <time>2013-02-17T08:29:07.000Z</time>
      </trkpt>
      <trkpt lat="47.38371" lon="0.07314">
        <ele>79</ele>
        <time>2013-02-17T08:29:11.000Z</time>
      </trkpt>
      <trkpt lat="47.3837" lon="0.07314">
        <ele>79</ele>
        <time>2013-02-17T08:29:12.000Z</time>
      </trkpt>
      <trkpt lat="47.38366" lon="0.07313">
        <ele>79</ele>
        <time>2013-02-17T08:29:16.000Z</time>
      </trkpt>
      <trkpt lat="47.38365" lon="0.07312">
        <ele>79</ele>
        <time>2013-02-17T08:29:17.000Z</time>
      </trkpt>
      <trkpt lat="47.38361" lon="0.0731">
        <ele>79</ele>
        <time>2013-02-17T08:29:21.000Z</time>
      </trkpt>
      <trkpt lat="47.38359" lon="0.07309">
        <ele>79</ele>
        <time>2013-02-17T08:29:22.000Z</time>
      </trkpt>
      <trkpt lat="47.38356" lon="0.07309">
        <ele>79</ele>
        <time>2013-02-17T08:29:27.000Z</time>
      </trkpt>
      <trkpt lat="47.38353" lon="0.07309">
        <ele>79</ele>
        <time>2013-02-17T08:29:28.000Z</time>
      </trkpt>
      <trkpt lat="47.38349" lon="0.0731">
        <ele>80</ele>
        <time>2013-02-17T08:29:31.000Z</time>
      </trkpt>
      <trkpt lat="47.38348" lon="0.07309">
        <ele>80</ele>
        <time>2013-02-17T08:29:32.000Z</time>
      </trkpt>
      <trkpt lat="47.38345" lon="0.07309">
        <ele>80</ele>
        <time>2013-02-17T08:29:36.000Z</time>
      </trkpt>
      <trkpt lat="47.38343" lon="0.0731">
        <ele>80</ele>
        <time>2013-02-17T08:29:37.000Z</time>
      </trkpt>
      <trkpt lat="47.38339" lon="0.07308">
        <ele>80</ele>
        <time>2013-02-17T08:29:40.000Z</time>
      </trkpt>
      <trkpt lat="47.38337" lon="0.07308">
        <ele>80</ele>
        <time>2013-02-17T08:29:41.000Z</time>
      </trkpt>
      <trkpt lat="47.38334" lon="0.07309">
        <ele>80</ele>
        <time>2013-02-17T08:29:43.000Z</time>
      </trkpt>
      <trkpt lat="47.38332" lon="0.07309">
        <ele>85</ele>
        <time>2013-02-17T08:29:44.000Z</time>
      </trkpt>
      <trkpt lat="47.38328" lon="0.07309">
        <ele>85</ele>
        <time>2013-02-17T08:29:48.000Z</time>
      </trkpt>
      <trkpt lat="47.38326" lon="0.07309">
        <ele>85</ele>
        <time>2013-02-17T08:29:49.000Z</time>
      </trkpt>
      <trkpt lat="47.38323" lon="0.07313">
        <ele>85</ele>
        <time>2013-02-17T08:29:51.000Z</time>
      </trkpt>
      <trkpt lat="47.38322" lon="0.07314">
        <ele>85</ele>
        <time>2013-02-17T08:29:52.000Z</time>
      </trkpt>
      <trkpt lat="47.38319" lon="0.07316">
        <ele>85</ele>
        <time>2013-02-17T08:29:55.000Z</time>
      </trkpt>
      <trkpt lat="47.38318" lon="0.07315">
        <ele>85</ele>
        <time>2013-02-17T08:29:56.000Z</time>
      </trkpt>
      <trkpt lat="47.38314" lon="0.07314">
        <ele>85</ele>
        <time>2013-02-17T08:29:59.000Z</time>
      </trkpt>
      <trkpt lat="47.38313" lon="0.07314">
        <ele>85</ele>
        <time>2013-02-17T08:30:00.000Z</time>
      </trkpt>
      <trkpt lat="47.38309" lon="0.07311">
        <ele>86</ele>
        <time>2013-02-17T08:30:05.000Z</time>
      </trkpt>
      <trkpt lat="47.38308" lon="0.0731">
        <ele>86</ele>
        <time>2013-02-17T08:30:06.000Z</time>
      </trkpt>
      <trkpt lat="47.38304" lon="0.07308">
        <ele>86</ele>
        <time>2013-02-17T08:30:10.000Z</time>
      </trkpt>
      <trkpt lat="47.38303" lon="0.07307">
        <ele>86</ele>
        <time>2013-02-17T08:30:11.000Z</time>
      </trkpt>
      <trkpt lat="47.383" lon="0.07306">
        <ele>86</ele>
        <time>2013-02-17T08:30:14.000Z</time>
      </trkpt>
      <trkpt lat="47.38299" lon="0.07306">
        <ele>86</ele>
        <time>2013-02-17T08:30:15.000Z</time>
      </trkpt>
      <trkpt lat="47.38295" lon="0.07305">
        <ele>86</ele>
        <time>2013-02-17T08:30:18.000Z</time>
      </trkpt>
      <trkpt lat="47.38293" lon="0.07305">
        <ele>87</ele>
        <time>2013-02-17T08:30:19.000Z</time>
      </trkpt>
      <trkpt lat="47.38289" lon="0.07304">
        <ele>87</ele>
        <time>2013-02-17T08:30:21.000Z</time>
      </trkpt>
      <trkpt lat="47.38287" lon="0.07304">
        <ele>87</ele>
        <time>2013-02-17T08:30:22.000Z</time>
      </trkpt>
      <trkpt lat="47.38282" lon="0.07304">
        <ele>87</ele>
        <time>2013-02-17T08:30:25.000Z</time>
      </trkpt>
      <trkpt lat="47.38282" lon="0.07304">
        <ele>87</ele>
        <time>2013-02-17T08:30:26.000Z</time>
      </trkpt>
      <trkpt lat="47.38278" lon="0.07304">
        <ele>88</ele>
        <time>2013-02-17T08:30:30.000Z</time>
      </trkpt>
      <trkpt lat="47.38277" lon="0.07303">
        <ele>88</ele>
        <time>2013-02-17T08:30:31.000Z</time>
      </trkpt>
      <trkpt lat="47.38273" lon="0.073">
        <ele>88</ele>
        <time>2013-02-17T08:30:34.000Z</time>
      </trkpt>
      <trkpt lat="47.38273" lon="0.073">
        <ele>88</ele>
        <time>2013-02-17T08:30:35.000Z</time>
      </trkpt>
      <trkpt lat="47.38269" lon="0.07299">
        <ele>88</ele>
        <time>2013-02-17T08:30:40.000Z</time>
      </trkpt>
      <trkpt lat="47.38267" lon="0.07298">
        <ele>88</ele>
        <time>2013-02-17T08:30:41.000Z</time>
      </trkpt>
      <trkpt lat="47.38264" lon="0.07295">
        <ele>88</ele>
        <time>2013-02-17T08:30:45.000Z</time>
      </trkpt>
      <trkpt lat="47.38263" lon="0.07294">
        <ele>88</ele>
        <time>2013-02-17T08:30:46.000Z</time>
      </trkpt>
      <trkpt lat="47.38261" lon="0.07291">
        <ele>88</ele>
        <time>2013-02-17T08:30:49.000Z</time>
      </trkpt>
      <trkpt lat="47.38259" lon="0.07288">
        <ele>88</ele>
        <time>2013-02-17T08:30:50.000Z</time>
      </trkpt>
      <trkpt lat="47.38257" lon="0.07284">
        <ele>88</ele>
        <time>2013-02-17T08:30:56.000Z</time>
      </trkpt>
      <trkpt lat="47.38256" lon="0.07281">
        <ele>88</ele>
        <time>2013-02-17T08:30:57.000Z</time>
      </trkpt>
      <trkpt lat="47.38255" lon="0.07274">
        <ele>89</ele>
        <time>2013-02-17T08:31:01.000Z</time>
      </trkpt>
      <trkpt lat="47.38256" lon="0.07273">
        <ele>89</ele>
        <time>2013-02-17T08:31:02.000Z</time>
      </trkpt>
      <trkpt lat="47.38254" lon="0.07267">
        <ele>89</ele>
        <time>2013-02-17T08:31:09.000Z</time>
      </trkpt>
      <trkpt lat="47.38254" lon="0.07266">
        <ele>89</ele>
        <time>2013-02-17T08:31:10.000Z</time>
      </trkpt>
      <trkpt lat="47.38251" lon="0.0726">
        <ele>90</ele>
        <time>2013-02-17T08:31:14.000Z</time>
      </trkpt>
      <trkpt lat="47.3825" lon="0.07257">
        <ele>90</ele>
        <time>2013-02-17T08:31:15.000Z</time>
      </trkpt>
      <trkpt lat="47.38249" lon="0.07254">
        <ele>92</ele>
        <time>2013-02-17T08:31:16.000Z</time>
      </trkpt>
      <trkpt lat="47.38247" lon="0.07249">
        <ele>92</ele>
        <time>2013-02-17T08:31:17.000Z</time>
      </trkpt>
      <trkpt lat="47.38245" lon="0.07244">
        <ele>92</ele>
        <time>2013-02-17T08:31:21.000Z</time>
      </trkpt>
      <trkpt lat="47.38245" lon="0.07242">
        <ele>92</ele>
        <time>2013-02-17T08:31:22.000Z</time>
      </trkpt>
      <trkpt lat="47.38243" lon="0.07236">
        <ele>93</ele>
        <time>2013-02-17T08:31:27.000Z</time>
      </trkpt>
      <trkpt lat="47.38242" lon="0.07235">
        <ele>93</ele>
        <time>2013-02-17T08:31:28.000Z</time>
      </trkpt>
      <trkpt lat="47.38239" lon="0.07231">
        <ele>93</ele>
        <time>2013-02-17T08:31:37.000Z</time>
      </trkpt>
      <trkpt lat="47.38238" lon="0.07228">
        <ele>93</ele>
        <time>2013-02-17T08:31:38.000Z</time>
      </trkpt>
      <trkpt lat="47.38236" lon="0.07222">
        <ele>94</ele>
        <time>2013-02-17T08:31:41.000Z</time>
      </trkpt>
      <trkpt lat="47.38236" lon="0.0722">
        <ele>94</ele>
        <time>2013-02-17T08:31:42.000Z</time>
      </trkpt>
      <trkpt lat="47.38234" lon="0.07215">
        <ele>94</ele>
        <time>2013-02-17T08:31:44.000Z</time>
      </trkpt>
      <trkpt lat="47.38233" lon="0.07213">
        <ele>94</ele>
        <time>2013-02-17T08:31:45.000Z</time>
      </trkpt>
      <trkpt lat="47.3823" lon="0.0721">
        <ele>94</ele>
        <time>2013-02-17T08:31:48.000Z</time>
      </trkpt>
      <trkpt lat="47.3823" lon="0.07209">
        <ele>94</ele>
        <time>2013-02-17T08:31:49.000Z</time>
      </trkpt>
      <trkpt lat="47.38228" lon="0.07204">
        <ele>94</ele>
        <time>2013-02-17T08:31:51.000Z</time>
      </trkpt>
      <trkpt lat="47.38228" lon="0.07202">
        <ele>94</ele>
        <time>2013-02-17T08:31:52.000Z</time>
      </trkpt>
      <trkpt lat="47.38226" lon="0.07197">
        <ele>94</ele>
        <time>2013-02-17T08:31:55.000Z</time>
      </trkpt>
      <trkpt lat="47.38225" lon="0.07194">
        <ele>94</ele>
        <time>2013-02-17T08:31:56.000Z</time>
      </trkpt>
      <trkpt lat="47.38223" lon="0.07189">
        <ele>94</ele>
        <time>2013-02-17T08:31:59.000Z</time>
      </trkpt>
      <trkpt lat="47.38222" lon="0.07187">
        <ele>94</ele>
        <time>2013-02-17T08:32:00.000Z</time>
      </trkpt>
      <trkpt lat="47.3822" lon="0.07181">
        <ele>94</ele>
        <time>2013-02-17T08:32:02.000Z</time>
      </trkpt>
      <trkpt lat="47.38219" lon="0.07179">
        <ele>94</ele>
        <time>2013-02-17T08:32:03.000Z</time>
      </trkpt>
      <trkpt lat="47.38217" lon="0.07173">
        <ele>94</ele>
        <time>2013-02-17T08:32:07.000Z</time>
      </trkpt>
      <trkpt lat="47.38217" lon="0.07173">
        <ele>94</ele>
        <time>2013-02-17T08:32:08.000Z</time>
      </trkpt>
      <trkpt lat="47.38215" lon="0.07167">
        <ele>94</ele>
        <time>2013-02-17T08:32:13.000Z</time>
      </trkpt>
      <trkpt lat="47.38214" lon="0.07165">
        <ele>91</ele>
        <time>2013-02-17T08:32:14.000Z</time>
      </trkpt>
      <trkpt lat="47.38212" lon="0.07159">
        <ele>91</ele>
        <time>2013-02-17T08:32:18.000Z</time>
      </trkpt>
      <trkpt lat="47.38211" lon="0.07158">
        <ele>91</ele>
        <time>2013-02-17T08:32:19.000Z</time>
      </trkpt>
      <trkpt lat="47.38209" lon="0.07154">
        <ele>91</ele>
        <time>2013-02-17T08:32:22.000Z</time>
      </trkpt>
      <trkpt lat="47.38208" lon="0.07153">
        <ele>91</ele>
        <time>2013-02-17T08:32:23.000Z</time>
      </trkpt>
      <trkpt lat="47.38205" lon="0.07149">
        <ele>91</ele>
        <time>2013-02-17T08:32:26.000Z</time>
      </trkpt>
      <trkpt lat="47.38204" lon="0.07148">
        <ele>91</ele>
        <time>2013-02-17T08:32:27.000Z</time>
      </trkpt>
      <trkpt lat="47.38201" lon="0.07143">
        <ele>91</ele>
        <time>2013-02-17T08:32:31.000Z</time>
      </trkpt>
      <trkpt lat="47.382" lon="0.07141">
        <ele>91</ele>
        <time>2013-02-17T08:32:32.000Z</time>
      </trkpt>
      <trkpt lat="47.38198" lon="0.07138">
        <ele>91</ele>
        <time>2013-02-17T08:32:34.000Z</time>
      </trkpt>
      <trkpt lat="47.38197" lon="0.07137">
        <ele>91</ele>
        <time>2013-02-17T08:32:35.000Z</time>
      </trkpt>
      <trkpt lat="47.38193" lon="0.07133">
        <ele>91</ele>
        <time>2013-02-17T08:32:38.000Z</time>
      </trkpt>
      <trkpt lat="47.38192" lon="0.07132">
        <ele>91</ele>
        <time>2013-02-17T08:32:39.000Z</time>
      </trkpt>
      <trkpt lat="47.38189" lon="0.07128">
        <ele>91</ele>
        <time>2013-02-17T08:32:43.000Z</time>
      </trkpt>
      <trkpt lat="47.38189" lon="0.07128">
        <ele>91</ele>
        <time>2013-02-17T08:32:44.000Z</time>
      </trkpt>
      <trkpt lat="47.38185" lon="0.07125">
        <ele>92</ele>
        <time>2013-02-17T08:32:48.000Z</time>
      </trkpt>
      <trkpt lat="47.38184" lon="0.07124">
        <ele>92</ele>
        <time>2013-02-17T08:32:49.000Z</time>
      </trkpt>
      <trkpt lat="47.3818" lon="0.07121">
        <ele>92</ele>
        <time>2013-02-17T08:32:53.000Z</time>
      </trkpt>
      <trkpt lat="47.38179" lon="0.07121">
        <ele>92</ele>
        <time>2013-02-17T08:32:54.000Z</time>
      </trkpt>
      <trkpt lat="47.38176" lon="0.07119">
        <ele>92</ele>
        <time>2013-02-17T08:32:58.000Z</time>
      </trkpt>
      <trkpt lat="47.38175" lon="0.07118">
        <ele>92</ele>
        <time>2013-02-17T08:32:59.000Z</time>
      </trkpt>
      <trkpt lat="47.38172" lon="0.07114">
        <ele>92</ele>
        <time>2013-02-17T08:33:03.000Z</time>
      </trkpt>
      <trkpt lat="47.38171" lon="0.07113">
        <ele>92</ele>
        <time>2013-02-17T08:33:04.000Z</time>
      </trkpt>
      <trkpt lat="47.38168" lon="0.07108">
        <ele>92</ele>
        <time>2013-02-17T08:33:08.000Z</time>
      </trkpt>
      <trkpt lat="47.38167" lon="0.07107">
        <ele>92</ele>
        <time>2013-02-17T08:33:09.000Z</time>
      </trkpt>
      <trkpt lat="47.38165" lon="0.07104">
        <ele>95</ele>
        <time>2013-02-17T08:33:11.000Z</time>
      </trkpt>
      <trkpt lat="47.38164" lon="0.07102">
        <ele>94</ele>
        <time>2013-02-17T08:33:12.000Z</time>
      </trkpt>
      <trkpt lat="47.3816" lon="0.07104">
        <ele>95</ele>
        <time>2013-02-17T08:33:20.000Z</time>
      </trkpt>
      <trkpt lat="47.38159" lon="0.07104">
        <ele>95</ele>
        <time>2013-02-17T08:33:21.000Z</time>
      </trkpt>
      <trkpt lat="47.38156" lon="0.07103">
        <ele>95</ele>
        <time>2013-02-17T08:33:23.000Z</time>
      </trkpt>
      <trkpt lat="47.38154" lon="0.07102">
        <ele>95</ele>
        <time>2013-02-17T08:33:24.000Z</time>
      </trkpt>
      <trkpt lat="47.38151" lon="0.07098">
        <ele>94</ele>
        <time>2013-02-17T08:33:26.000Z</time>
      </trkpt>
      <trkpt lat="47.38149" lon="0.07097">
        <ele>94</ele>
        <time>2013-02-17T08:33:27.000Z</time>
      </trkpt>
      <trkpt lat="47.38145" lon="0.07096">
        <ele>95</ele>
        <time>2013-02-17T08:33:30.000Z</time>
      </trkpt>
      <trkpt lat="47.38144" lon="0.07094">
        <ele>95</ele>
        <time>2013-02-17T08:33:31.000Z</time>
      </trkpt>
      <trkpt lat="47.38141" lon="0.07091">
        <ele>95</ele>
        <time>2013-02-17T08:33:33.000Z</time>
      </trkpt>
      <trkpt lat="47.38139" lon="0.0709">
        <ele>95</ele>
        <time>2013-02-17T08:33:34.000Z</time>
      </trkpt>
      <trkpt lat="47.38135" lon="0.0709">
        <ele>95</ele>
        <time>2013-02-17T08:33:38.000Z</time>
      </trkpt>
      <trkpt lat="47.38135" lon="0.07089">
        <ele>95</ele>
        <time>2013-02-17T08:33:39.000Z</time>
      </trkpt>
      <trkpt lat="47.38131" lon="0.07086">
        <ele>95</ele>
        <time>2013-02-17T08:33:42.000Z</time>
      </trkpt>
      <trkpt lat="47.3813" lon="0.07085">
        <ele>95</ele>
        <time>2013-02-17T08:33:43.000Z</time>
      </trkpt>
      <trkpt lat="47.38126" lon="0.07084">
        <ele>95</ele>
        <time>2013-02-17T08:33:46.000Z</time>
      </trkpt>
      <trkpt lat="47.38125" lon="0.07083">
        <ele>93</ele>
        <time>2013-02-17T08:33:47.000Z</time>
      </trkpt>
      <trkpt lat="47.38123" lon="0.07079">
        <ele>93</ele>
        <time>2013-02-17T08:33:51.000Z</time>
      </trkpt>
      <trkpt lat="47.38122" lon="0.07078">
        <ele>93</ele>
        <time>2013-02-17T08:33:52.000Z</time>
      </trkpt>
      <trkpt lat="47.38118" lon="0.07076">
        <ele>93</ele>
        <time>2013-02-17T08:33:57.000Z</time>
      </trkpt>
      <trkpt lat="47.38117" lon="0.07075">
        <ele>93</ele>
        <time>2013-02-17T08:33:58.000Z</time>
      </trkpt>
      <trkpt lat="47.38114" lon="0.07073">
        <ele>93</ele>
        <time>2013-02-17T08:34:00.000Z</time>
      </trkpt>
      <trkpt lat="47.38113" lon="0.07071">
        <ele>93</ele>
        <time>2013-02-17T08:34:01.000Z</time>
      </trkpt>
      <trkpt lat="47.38109" lon="0.07068">
        <ele>93</ele>
        <time>2013-02-17T08:34:04.000Z</time>
      </trkpt>
      <trkpt lat="47.38108" lon="0.07068">
        <ele>93</ele>
        <time>2013-02-17T08:34:05.000Z</time>
      </trkpt>
      <trkpt lat="47.38105" lon="0.07065">
        <ele>93</ele>
        <time>2013-02-17T08:34:09.000Z</time>
      </trkpt>
      <trkpt lat="47.38104" lon="0.07064">
        <ele>93</ele>
        <time>2013-02-17T08:34:10.000Z</time>
      </trkpt>
      <trkpt lat="47.381" lon="0.07063">
        <ele>93</ele>
        <time>2013-02-17T08:34:13.000Z</time>
      </trkpt>
      <trkpt lat="47.38099" lon="0.07063">
        <ele>93</ele>
        <time>2013-02-17T08:34:14.000Z</time>
      </trkpt>
      <trkpt lat="47.38095" lon="0.07062">
        <ele>93</ele>
        <time>2013-02-17T08:34:17.000Z</time>
      </trkpt>
      <trkpt lat="47.38094" lon="0.07061">
        <ele>93</ele>
        <time>2013-02-17T08:34:18.000Z</time>
      </trkpt>
      <trkpt lat="47.38091" lon="0.0706">
        <ele>93</ele>
        <time>2013-02-17T08:34:19.000Z</time>
      </trkpt>
      <trkpt lat="47.38089" lon="0.07058">
        <ele>93</ele>
        <time>2013-02-17T08:34:20.000Z</time>
      </trkpt>
      <trkpt lat="47.38086" lon="0.07054">
        <ele>93</ele>
        <time>2013-02-17T08:34:24.000Z</time>
      </trkpt>
      <trkpt lat="47.38085" lon="0.07053">
        <ele>93</ele>
        <time>2013-02-17T08:34:25.000Z</time>
      </trkpt>
      <trkpt lat="47.38082" lon="0.07052">
        <ele>93</ele>
        <time>2013-02-17T08:34:27.000Z</time>
      </trkpt>
      <trkpt lat="47.3808" lon="0.07051">
        <ele>93</ele>
        <time>2013-02-17T08:34:28.000Z</time>
      </trkpt>
      <trkpt lat="47.38076" lon="0.07049">
        <ele>93</ele>
        <time>2013-02-17T08:34:30.000Z</time>
      </trkpt>
      <trkpt lat="47.38075" lon="0.07048">
        <ele>93</ele>
        <time>2013-02-17T08:34:31.000Z</time>
      </trkpt>
      <trkpt lat="47.38071" lon="0.07045">
        <ele>93</ele>
        <time>2013-02-17T08:34:36.000Z</time>
      </trkpt>
      <trkpt lat="47.38071" lon="0.07044">
        <ele>93</ele>
        <time>2013-02-17T08:34:37.000Z</time>
      </trkpt>
      <trkpt lat="47.38067" lon="0.07042">
        <ele>93</ele>
        <time>2013-02-17T08:34:49.000Z</time>
      </trkpt>
      <trkpt lat="47.38066" lon="0.0704">
        <ele>93</ele>
        <time>2013-02-17T08:34:50.000Z</time>
      </trkpt>
      <trkpt lat="47.38062" lon="0.07039">
        <ele>93</ele>
        <time>2013-02-17T08:34:54.000Z</time>
      </trkpt>
      <trkpt lat="47.38061" lon="0.07038">
        <ele>93</ele>
        <time>2013-02-17T08:34:55.000Z</time>
      </trkpt>
      <trkpt lat="47.38058" lon="0.07036">
        <ele>92</ele>
        <time>2013-02-17T08:34:57.000Z</time>
      </trkpt>
      <trkpt lat="47.38057" lon="0.07035">
        <ele>92</ele>
        <time>2013-02-17T08:34:58.000Z</time>
      </trkpt>
      <trkpt lat="47.38054" lon="0.07034">
        <ele>92</ele>
        <time>2013-02-17T08:35:00.000Z</time>
      </trkpt>
      <trkpt lat="47.38051" lon="0.07035">
        <ele>92</ele>
        <time>2013-02-17T08:35:01.000Z</time>
      </trkpt>
      <trkpt lat="47.38047" lon="0.07034">
        <ele>92</ele>
        <time>2013-02-17T08:35:04.000Z</time>
      </trkpt>
      <trkpt lat="47.38046" lon="0.07032">
        <ele>92</ele>
        <time>2013-02-17T08:35:05.000Z</time>
      </trkpt>
      <trkpt lat="47.38043" lon="0.07029">
        <ele>92</ele>
        <time>2013-02-17T08:35:08.000Z</time>
      </trkpt>
      <trkpt lat="47.38041" lon="0.07027">
        <ele>92</ele>
        <time>2013-02-17T08:35:09.000Z</time>
      </trkpt>
      <trkpt lat="47.38038" lon="0.07027">
        <ele>92</ele>
        <time>2013-02-17T08:35:12.000Z</time>
      </trkpt>
      <trkpt lat="47.38036" lon="0.07027">
        <ele>92</ele>
        <time>2013-02-17T08:35:13.000Z</time>
      </trkpt>
      <trkpt lat="47.38033" lon="0.07027">
        <ele>92</ele>
        <time>2013-02-17T08:35:15.000Z</time>
      </trkpt>
      <trkpt lat="47.3803" lon="0.07027">
        <ele>92</ele>
        <time>2013-02-17T08:35:16.000Z</time>
      </trkpt>
      <trkpt lat="47.38027" lon="0.07027">
        <ele>92</ele>
        <time>2013-02-17T08:35:17.000Z</time>
      </trkpt>
      <trkpt lat="47.38026" lon="0.07026">
        <ele>92</ele>
        <time>2013-02-17T08:35:18.000Z</time>
      </trkpt>
      <trkpt lat="47.38023" lon="0.0702">
        <ele>92</ele>
        <time>2013-02-17T08:35:20.000Z</time>
      </trkpt>
      <trkpt lat="47.38021" lon="0.0702">
        <ele>92</ele>
        <time>2013-02-17T08:35:21.000Z</time>
      </trkpt>
      <trkpt lat="47.38017" lon="0.07017">
        <ele>91</ele>
        <time>2013-02-17T08:35:27.000Z</time>
      </trkpt>
      <trkpt lat="47.38017" lon="0.07017">
        <ele>91</ele>
        <time>2013-02-17T08:35:28.000Z</time>
      </trkpt>
      <trkpt lat="47.38014" lon="0.07012">
        <ele>91</ele>
        <time>2013-02-17T08:35:31.000Z</time>
      </trkpt>
      <trkpt lat="47.38014" lon="0.07012">
        <ele>91</ele>
        <time>2013-02-17T08:35:32.000Z</time>
      </trkpt>
      <trkpt lat="47.3801" lon="0.07014">
        <ele>91</ele>
        <time>2013-02-17T08:35:34.000Z</time>
      </trkpt>
      <trkpt lat="47.38008" lon="0.07014">
        <ele>91</ele>
        <time>2013-02-17T08:35:35.000Z</time>
      </trkpt>
      <trkpt lat="47.38005" lon="0.07012">
        <ele>91</ele>
        <time>2013-02-17T08:35:41.000Z</time>
      </trkpt>
      <trkpt lat="47.38003" lon="0.07011">
        <ele>91</ele>
        <time>2013-02-17T08:35:42.000Z</time>
      </trkpt>
      <trkpt lat="47.38" lon="0.0701">
        <ele>91</ele>
        <time>2013-02-17T08:35:43.000Z</time>
      </trkpt>
      <trkpt lat="47.37997" lon="0.07009">
        <ele>91</ele>
        <time>2013-02-17T08:35:44.000Z</time>
      </trkpt>
      <trkpt lat="47.37993" lon="0.07008">
        <ele>91</ele>
        <time>2013-02-17T08:35:46.000Z</time>
      </trkpt>
      <trkpt lat="47.37991" lon="0.07007">
        <ele>91</ele>
        <time>2013-02-17T08:35:47.000Z</time>
      </trkpt>
      <trkpt lat="47.37987" lon="0.07006">
        <ele>91</ele>
        <time>2013-02-17T08:35:49.000Z</time>
      </trkpt>
      <trkpt lat="47.37986" lon="0.07005">
        <ele>91</ele>
        <time>2013-02-17T08:35:50.000Z</time>
      </trkpt>
      <trkpt lat="47.37984" lon="0.07001">
        <ele>91</ele>
        <time>2013-02-17T08:35:53.000Z</time>
      </trkpt>
      <trkpt lat="47.37983" lon="0.07">
        <ele>90</ele>
        <time>2013-02-17T08:35:54.000Z</time>
      </trkpt>
      <trkpt lat="47.3798" lon="0.06995">
        <ele>90</ele>
        <time>2013-02-17T08:35:58.000Z</time>
      </trkpt>
      <trkpt lat="47.37979" lon="0.06993">
        <ele>90</ele>
        <time>2013-02-17T08:35:59.000Z</time>
      </trkpt>
      <trkpt lat="47.37976" lon="0.06989">
        <ele>90</ele>
        <time>2013-02-17T08:36:04.000Z</time>
      </trkpt>
      <trkpt lat="47.37973" lon="0.06988">
        <ele>90</ele>
        <time>2013-02-17T08:36:05.000Z</time>
      </trkpt>
      <trkpt lat="47.37972" lon="0.06981">
        <ele>90</ele>
        <time>2013-02-17T08:36:09.000Z</time>
      </trkpt>
      <trkpt lat="47.37971" lon="0.0698">
        <ele>90</ele>
        <time>2013-02-17T08:36:10.000Z</time>
      </trkpt>
      <trkpt lat="47.37968" lon="0.06977">
        <ele>90</ele>
        <time>2013-02-17T08:36:14.000Z</time>
      </trkpt>
      <trkpt lat="47.37968" lon="0.06975">
        <ele>90</ele>
        <time>2013-02-17T08:36:15.000Z</time>
      </trkpt>
      <trkpt lat="47.37966" lon="0.06974">
        <ele>90</ele>
        <time>2013-02-17T08:36:16.000Z</time>
      </trkpt>
      <trkpt lat="47.37963" lon="0.06973">
        <ele>90</ele>
        <time>2013-02-17T08:36:17.000Z</time>
      </trkpt>
      <trkpt lat="47.3796" lon="0.0697">
        <ele>90</ele>
        <time>2013-02-17T08:36:19.000Z</time>
      </trkpt>
      <trkpt lat="47.3796" lon="0.06968">
        <ele>90</ele>
        <time>2013-02-17T08:36:20.000Z</time>
      </trkpt>
      <trkpt lat="47.37957" lon="0.06964">
        <ele>90</ele>
        <time>2013-02-17T08:36:27.000Z</time>
      </trkpt>
      <trkpt lat="47.37956" lon="0.06962">
        <ele>90</ele>
        <time>2013-02-17T08:36:28.000Z</time>
      </trkpt>
      <trkpt lat="47.37954" lon="0.06956">
        <ele>89</ele>
        <time>2013-02-17T08:36:32.000Z</time>
      </trkpt>
      <trkpt lat="47.37954" lon="0.06954">
        <ele>89</ele>
        <time>2013-02-17T08:36:33.000Z</time>
      </trkpt>
      <trkpt lat="47.37952" lon="0.06948">
        <ele>89</ele>
        <time>2013-02-17T08:36:37.000Z</time>
      </trkpt>
      <trkpt lat="47.37952" lon="0.06948">
        <ele>89</ele>
        <time>2013-02-17T08:36:38.000Z</time>
      </trkpt>
      <trkpt lat="47.3795" lon="0.06943">
        <ele>89</ele>
        <time>2013-02-17T08:36:42.000Z</time>
      </trkpt>
      <trkpt lat="47.37949" lon="0.06941">
        <ele>89</ele>
        <time>2013-02-17T08:36:43.000Z</time>
      </trkpt>
      <trkpt lat="47.37946" lon="0.06936">
        <ele>89</ele>
        <time>2013-02-17T08:36:46.000Z</time>
      </trkpt>
      <trkpt lat="47.37945" lon="0.06935">
        <ele>89</ele>
        <time>2013-02-17T08:36:47.000Z</time>
      </trkpt>
      <trkpt lat="47.37944" lon="0.0693">
        <ele>89</ele>
        <time>2013-02-17T08:36:50.000Z</time>
      </trkpt>
      <trkpt lat="47.37943" lon="0.06928">
        <ele>89</ele>
        <time>2013-02-17T08:36:51.000Z</time>
      </trkpt>
      <trkpt lat="47.37941" lon="0.06923">
        <ele>89</ele>
        <time>2013-02-17T08:36:54.000Z</time>
      </trkpt>
      <trkpt lat="47.3794" lon="0.06922">
        <ele>89</ele>
        <time>2013-02-17T08:36:55.000Z</time>
      </trkpt>
      <trkpt lat="47.37937" lon="0.06919">
        <ele>88</ele>
        <time>2013-02-17T08:36:58.000Z</time>
      </trkpt>
      <trkpt lat="47.37937" lon="0.06917">
        <ele>88</ele>
        <time>2013-02-17T08:36:59.000Z</time>
      </trkpt>
      <trkpt lat="47.37934" lon="0.06914">
        <ele>87</ele>
        <time>2013-02-17T08:37:01.000Z</time>
      </trkpt>
      <trkpt lat="47.37933" lon="0.06913">
        <ele>87</ele>
        <time>2013-02-17T08:37:02.000Z</time>
      </trkpt>
      <trkpt lat="47.3793" lon="0.0691">
        <ele>87</ele>
        <time>2013-02-17T08:37:04.000Z</time>
      </trkpt>
      <trkpt lat="47.37928" lon="0.06908">
        <ele>87</ele>
        <time>2013-02-17T08:37:05.000Z</time>
      </trkpt>
      <trkpt lat="47.37925" lon="0.06904">
        <ele>86</ele>
        <time>2013-02-17T08:37:08.000Z</time>
      </trkpt>
      <trkpt lat="47.37924" lon="0.06902">
        <ele>86</ele>
        <time>2013-02-17T08:37:09.000Z</time>
      </trkpt>
      <trkpt lat="47.37921" lon="0.06899">
        <ele>86</ele>
        <time>2013-02-17T08:37:13.000Z</time>
      </trkpt>
      <trkpt lat="47.3792" lon="0.06897">
        <ele>86</ele>
        <time>2013-02-17T08:37:14.000Z</time>
      </trkpt>
      <trkpt lat="47.37917" lon="0.06893">
        <ele>86</ele>
        <time>2013-02-17T08:37:18.000Z</time>
      </trkpt>
      <trkpt lat="47.37916" lon="0.06892">
        <ele>87</ele>
        <time>2013-02-17T08:37:19.000Z</time>
      </trkpt>
      <trkpt lat="47.37912" lon="0.06889">
        <ele>87</ele>
        <time>2013-02-17T08:37:22.000Z</time>
      </trkpt>
      <trkpt lat="47.37911" lon="0.06887">
        <ele>87</ele>
        <time>2013-02-17T08:37:23.000Z</time>
      </trkpt>
      <trkpt lat="47.37909" lon="0.06883">
        <ele>87</ele>
        <time>2013-02-17T08:37:26.000Z</time>
      </trkpt>
      <trkpt lat="47.37909" lon="0.06881">
        <ele>87</ele>
        <time>2013-02-17T08:37:27.000Z</time>
      </trkpt>
      <trkpt lat="47.37905" lon="0.06878">
        <ele>87</ele>
        <time>2013-02-17T08:37:32.000Z</time>
      </trkpt>
      <trkpt lat="47.37904" lon="0.06877">
        <ele>87</ele>
        <time>2013-02-17T08:37:33.000Z</time>
      </trkpt>
      <trkpt lat="47.37902" lon="0.06873">
        <ele>87</ele>
        <time>2013-02-17T08:37:37.000Z</time>
      </trkpt>
      <trkpt lat="47.37902" lon="0.06872">
        <ele>86</ele>
        <time>2013-02-17T08:37:38.000Z</time>
      </trkpt>
      <trkpt lat="47.37901" lon="0.06867">
        <ele>86</ele>
        <time>2013-02-17T08:37:44.000Z</time>
      </trkpt>
      <trkpt lat="47.379" lon="0.06864">
        <ele>86</ele>
        <time>2013-02-17T08:37:45.000Z</time>
      </trkpt>
      <trkpt lat="47.37898" lon="0.06861">
        <ele>86</ele>
        <time>2013-02-17T08:37:46.000Z</time>
      </trkpt>
      <trkpt lat="47.37896" lon="0.06858">
        <ele>86</ele>
        <time>2013-02-17T08:37:47.000Z</time>
      </trkpt>
      <trkpt lat="47.37893" lon="0.06855">
        <ele>86</ele>
        <time>2013-02-17T08:37:49.000Z</time>
      </trkpt>
      <trkpt lat="47.37892" lon="0.06854">
        <ele>86</ele>
        <time>2013-02-17T08:37:50.000Z</time>
      </trkpt>
      <trkpt lat="47.37889" lon="0.0685">
        <ele>86</ele>
        <time>2013-02-17T08:37:53.000Z</time>
      </trkpt>
      <trkpt lat="47.37888" lon="0.06849">
        <ele>86</ele>
        <time>2013-02-17T08:37:54.000Z</time>
      </trkpt>
      <trkpt lat="47.37886" lon="0.06845">
        <ele>86</ele>
        <time>2013-02-17T08:37:56.000Z</time>
      </trkpt>
      <trkpt lat="47.37885" lon="0.06843">
        <ele>86</ele>
        <time>2013-02-17T08:37:57.000Z</time>
      </trkpt>
      <trkpt lat="47.37882" lon="0.0684">
        <ele>86</ele>
        <time>2013-02-17T08:38:02.000Z</time>
      </trkpt>
      <trkpt lat="47.37881" lon="0.06839">
        <ele>86</ele>
        <time>2013-02-17T08:38:03.000Z</time>
      </trkpt>
      <trkpt lat="47.37879" lon="0.06834">
        <ele>86</ele>
        <time>2013-02-17T08:38:05.000Z</time>
      </trkpt>
      <trkpt lat="47.37877" lon="0.06831">
        <ele>87</ele>
        <time>2013-02-17T08:38:06.000Z</time>
      </trkpt>
      <trkpt lat="47.37876" lon="0.06827">
        <ele>87</ele>
        <time>2013-02-17T08:38:08.000Z</time>
      </trkpt>
      <trkpt lat="47.37875" lon="0.06825">
        <ele>87</ele>
        <time>2013-02-17T08:38:09.000Z</time>
      </trkpt>
      <trkpt lat="47.37873" lon="0.0682">
        <ele>87</ele>
        <time>2013-02-17T08:38:12.000Z</time>
      </trkpt>
      <trkpt lat="47.37872" lon="0.06819">
        <ele>87</ele>
        <time>2013-02-17T08:38:13.000Z</time>
      </trkpt>
      <trkpt lat="47.3787" lon="0.06814">
        <ele>87</ele>
        <time>2013-02-17T08:38:16.000Z</time>
      </trkpt>
      <trkpt lat="47.37869" lon="0.06813">
        <ele>87</ele>
        <time>2013-02-17T08:38:17.000Z</time>
      </trkpt>
      <trkpt lat="47.37867" lon="0.06808">
        <ele>87</ele>
        <time>2013-02-17T08:38:22.000Z</time>
      </trkpt>
      <trkpt lat="47.37867" lon="0.06807">
        <ele>87</ele>
        <time>2013-02-17T08:38:23.000Z</time>
      </trkpt>
      <trkpt lat="47.37864" lon="0.06804">
        <ele>88</ele>
        <time>2013-02-17T08:38:26.000Z</time>
      </trkpt>
      <trkpt lat="47.37863" lon="0.06803">
        <ele>88</ele>
        <time>2013-02-17T08:38:27.000Z</time>
      </trkpt>
      <trkpt lat="47.37859" lon="0.06801">
        <ele>88</ele>
        <time>2013-02-17T08:38:30.000Z</time>
      </trkpt>
      <trkpt lat="47.37859" lon="0.06799">
        <ele>88</ele>
        <time>2013-02-17T08:38:31.000Z</time>
      </trkpt>
      <trkpt lat="47.37856" lon="0.06796">
        <ele>88</ele>
        <time>2013-02-17T08:38:34.000Z</time>
      </trkpt>
      <trkpt lat="47.37856" lon="0.06794">
        <ele>88</ele>
        <time>2013-02-17T08:38:35.000Z</time>
      </trkpt>
      <trkpt lat="47.37856" lon="0.06789">
        <ele>88</ele>
        <time>2013-02-17T08:38:38.000Z</time>
      </trkpt>
      <trkpt lat="47.37858" lon="0.06788">
        <ele>88</ele>
        <time>2013-02-17T08:38:39.000Z</time>
      </trkpt>
      <trkpt lat="47.37858" lon="0.06782">
        <ele>88</ele>
        <time>2013-02-17T08:38:42.000Z</time>
      </trkpt>
      <trkpt lat="47.37858" lon="0.0678">
        <ele>88</ele>
        <time>2013-02-17T08:38:43.000Z</time>
      </trkpt>
      <trkpt lat="47.37855" lon="0.06777">
        <ele>89</ele>
        <time>2013-02-17T08:38:46.000Z</time>
      </trkpt>
      <trkpt lat="47.37854" lon="0.06775">
        <ele>89</ele>
        <time>2013-02-17T08:38:47.000Z</time>
      </trkpt>
      <trkpt lat="47.37851" lon="0.0677">
        <ele>89</ele>
        <time>2013-02-17T08:38:50.000Z</time>
      </trkpt>
      <trkpt lat="47.37851" lon="0.0677">
        <ele>89</ele>
        <time>2013-02-17T08:38:51.000Z</time>
      </trkpt>
      <trkpt lat="47.37849" lon="0.06764">
        <ele>89</ele>
        <time>2013-02-17T08:38:53.000Z</time>
      </trkpt>
      <trkpt lat="47.37849" lon="0.06762">
        <ele>90</ele>
        <time>2013-02-17T08:38:54.000Z</time>
      </trkpt>
      <trkpt lat="47.37848" lon="0.06756">
        <ele>90</ele>
        <time>2013-02-17T08:38:57.000Z</time>
      </trkpt>
      <trkpt lat="47.37848" lon="0.06755">
        <ele>90</ele>
        <time>2013-02-17T08:38:58.000Z</time>
      </trkpt>
      <trkpt lat="47.37845" lon="0.06751">
        <ele>90</ele>
        <time>2013-02-17T08:39:01.000Z</time>
      </trkpt>
      <trkpt lat="47.37844" lon="0.0675">
        <ele>91</ele>
        <time>2013-02-17T08:39:02.000Z</time>
      </trkpt>
      <trkpt lat="47.37841" lon="0.06747">
        <ele>91</ele>
        <time>2013-02-17T08:39:03.000Z</time>
      </trkpt>
      <trkpt lat="47.37839" lon="0.06745">
        <ele>91</ele>
        <time>2013-02-17T08:39:04.000Z</time>
      </trkpt>
      <trkpt lat="47.37839" lon="0.06739">
        <ele>91</ele>
        <time>2013-02-17T08:39:08.000Z</time>
      </trkpt>
      <trkpt lat="47.37837" lon="0.06738">
        <ele>91</ele>
        <time>2013-02-17T08:39:09.000Z</time>
      </trkpt>
      <trkpt lat="47.37835" lon="0.06732">
        <ele>91</ele>
        <time>2013-02-17T08:39:14.000Z</time>
      </trkpt>
      <trkpt lat="47.37834" lon="0.06729">
        <ele>91</ele>
        <time>2013-02-17T08:39:15.000Z</time>
      </trkpt>
      <trkpt lat="47.37832" lon="0.06724">
        <ele>93</ele>
        <time>2013-02-17T08:39:18.000Z</time>
      </trkpt>
      <trkpt lat="47.37831" lon="0.06722">
        <ele>94</ele>
        <time>2013-02-17T08:39:19.000Z</time>
      </trkpt>
      <trkpt lat="47.3783" lon="0.06718">
        <ele>94</ele>
        <time>2013-02-17T08:39:22.000Z</time>
      </trkpt>
      <trkpt lat="47.37829" lon="0.06716">
        <ele>94</ele>
        <time>2013-02-17T08:39:23.000Z</time>
      </trkpt>
      <trkpt lat="47.37827" lon="0.06711">
        <ele>94</ele>
        <time>2013-02-17T08:39:25.000Z</time>
      </trkpt>
      <trkpt lat="47.37827" lon="0.0671">
        <ele>94</ele>
        <time>2013-02-17T08:39:26.000Z</time>
      </trkpt>
      <trkpt lat="47.37827" lon="0.06705">
        <ele>94</ele>
        <time>2013-02-17T08:39:29.000Z</time>
      </trkpt>
      <trkpt lat="47.37826" lon="0.06703">
        <ele>94</ele>
        <time>2013-02-17T08:39:30.000Z</time>
      </trkpt>
      <trkpt lat="47.37824" lon="0.06698">
        <ele>94</ele>
        <time>2013-02-17T08:39:33.000Z</time>
      </trkpt>
      <trkpt lat="47.37824" lon="0.06696">
        <ele>94</ele>
        <time>2013-02-17T08:39:34.000Z</time>
      </trkpt>
      <trkpt lat="47.37823" lon="0.06692">
        <ele>94</ele>
        <time>2013-02-17T08:39:37.000Z</time>
      </trkpt>
      <trkpt lat="47.37824" lon="0.0669">
        <ele>94</ele>
        <time>2013-02-17T08:39:38.000Z</time>
      </trkpt>
      <trkpt lat="47.37822" lon="0.06684">
        <ele>94</ele>
        <time>2013-02-17T08:39:41.000Z</time>
      </trkpt>
      <trkpt lat="47.37822" lon="0.06682">
        <ele>94</ele>
        <time>2013-02-17T08:39:42.000Z</time>
      </trkpt>
      <trkpt lat="47.37822" lon="0.06676">
        <ele>94</ele>
        <time>2013-02-17T08:39:44.000Z</time>
      </trkpt>
      <trkpt lat="47.37823" lon="0.06674">
        <ele>94</ele>
        <time>2013-02-17T08:39:45.000Z</time>
      </trkpt>
      <trkpt lat="47.37823" lon="0.06668">
        <ele>94</ele>
        <time>2013-02-17T08:39:49.000Z</time>
      </trkpt>
      <trkpt lat="47.37823" lon="0.06667">
        <ele>94</ele>
        <time>2013-02-17T08:39:50.000Z</time>
      </trkpt>
      <trkpt lat="47.37823" lon="0.06663">
        <ele>95</ele>
        <time>2013-02-17T08:39:53.000Z</time>
      </trkpt>
      <trkpt lat="47.37821" lon="0.06661">
        <ele>95</ele>
        <time>2013-02-17T08:39:54.000Z</time>
      </trkpt>
      <trkpt lat="47.37819" lon="0.06656">
        <ele>96</ele>
        <time>2013-02-17T08:40:01.000Z</time>
      </trkpt>
      <trkpt lat="47.37819" lon="0.06654">
        <ele>96</ele>
        <time>2013-02-17T08:40:02.000Z</time>
      </trkpt>
      <trkpt lat="47.37819" lon="0.0665">
        <ele>96</ele>
        <time>2013-02-17T08:40:06.000Z</time>
      </trkpt>
      <trkpt lat="47.37818" lon="0.06647">
        <ele>96</ele>
        <time>2013-02-17T08:40:07.000Z</time>
      </trkpt>
      <trkpt lat="47.37817" lon="0.06643">
        <ele>97</ele>
        <time>2013-02-17T08:40:09.000Z</time>
      </trkpt>
      <trkpt lat="47.37816" lon="0.06641">
        <ele>97</ele>
        <time>2013-02-17T08:40:10.000Z</time>
      </trkpt>
      <trkpt lat="47.37814" lon="0.06635">
        <ele>97</ele>
        <time>2013-02-17T08:40:13.000Z</time>
      </trkpt>
      <trkpt lat="47.37814" lon="0.06634">
        <ele>97</ele>
        <time>2013-02-17T08:40:14.000Z</time>
      </trkpt>
      <trkpt lat="47.37813" lon="0.06629">
        <ele>97</ele>
        <time>2013-02-17T08:40:16.000Z</time>
      </trkpt>
      <trkpt lat="47.37812" lon="0.06627">
        <ele>97</ele>
        <time>2013-02-17T08:40:17.000Z</time>
      </trkpt>
      <trkpt lat="47.3781" lon="0.06624">
        <ele>98</ele>
        <time>2013-02-17T08:40:19.000Z</time>
      </trkpt>
      <trkpt lat="47.37809" lon="0.06621">
        <ele>98</ele>
        <time>2013-02-17T08:40:20.000Z</time>
      </trkpt>
      <trkpt lat="47.37807" lon="0.06615">
        <ele>98</ele>
        <time>2013-02-17T08:40:24.000Z</time>
      </trkpt>
      <trkpt lat="47.37807" lon="0.06613">
        <ele>98</ele>
        <time>2013-02-17T08:40:25.000Z</time>
      </trkpt>
      <trkpt lat="47.37804" lon="0.06609">
        <ele>98</ele>
        <time>2013-02-17T08:40:30.000Z</time>
      </trkpt>
      <trkpt lat="47.37803" lon="0.06608">
        <ele>98</ele>
        <time>2013-02-17T08:40:31.000Z</time>
      </trkpt>
      <trkpt lat="47.37801" lon="0.06604">
        <ele>98</ele>
        <time>2013-02-17T08:40:39.000Z</time>
      </trkpt>
      <trkpt lat="47.37801" lon="0.06603">
        <ele>98</ele>
        <time>2013-02-17T08:40:40.000Z</time>
      </trkpt>
      <trkpt lat="47.37799" lon="0.06599">
        <ele>99</ele>
        <time>2013-02-17T08:40:42.000Z</time>
      </trkpt>
      <trkpt lat="47.37797" lon="0.06596">
        <ele>99</ele>
        <time>2013-02-17T08:40:43.000Z</time>
      </trkpt>
      <trkpt lat="47.37796" lon="0.06592">
        <ele>99</ele>
        <time>2013-02-17T08:40:46.000Z</time>
      </trkpt>
      <trkpt lat="47.37795" lon="0.06589">
        <ele>99</ele>
        <time>2013-02-17T08:40:47.000Z</time>
      </trkpt>
      <trkpt lat="47.37794" lon="0.06584">
        <ele>99</ele>
        <time>2013-02-17T08:40:49.000Z</time>
      </trkpt>
      <trkpt lat="47.37794" lon="0.06582">
        <ele>101</ele>
        <time>2013-02-17T08:40:50.000Z</time>
      </trkpt>
      <trkpt lat="47.37793" lon="0.06579">
        <ele>101</ele>
        <time>2013-02-17T08:40:51.000Z</time>
      </trkpt>
      <trkpt lat="47.37791" lon="0.06576">
        <ele>101</ele>
        <time>2013-02-17T08:40:52.000Z</time>
      </trkpt>
      <trkpt lat="47.37789" lon="0.06571">
        <ele>101</ele>
        <time>2013-02-17T08:40:55.000Z</time>
      </trkpt>
      <trkpt lat="47.37788" lon="0.06569">
        <ele>101</ele>
        <time>2013-02-17T08:40:56.000Z</time>
      </trkpt>
      <trkpt lat="47.37786" lon="0.06563">
        <ele>101</ele>
        <time>2013-02-17T08:41:05.000Z</time>
      </trkpt>
      <trkpt lat="47.37785" lon="0.06561">
        <ele>101</ele>
        <time>2013-02-17T08:41:06.000Z</time>
      </trkpt>
      <trkpt lat="47.37785" lon="0.06555">
        <ele>101</ele>
        <time>2013-02-17T08:41:13.000Z</time>
      </trkpt>
      <trkpt lat="47.37784" lon="0.06552">
        <ele>101</ele>
        <time>2013-02-17T08:41:14.000Z</time>
      </trkpt>
      <trkpt lat="47.37783" lon="0.06548">
        <ele>101</ele>
        <time>2013-02-17T08:41:15.000Z</time>
      </trkpt>
      <trkpt lat="47.3778" lon="0.06542">
        <ele>102</ele>
        <time>2013-02-17T08:41:16.000Z</time>
      </trkpt>
      <trkpt lat="47.37778" lon="0.06538">
        <ele>102</ele>
        <time>2013-02-17T08:41:19.000Z</time>
      </trkpt>
      <trkpt lat="47.37775" lon="0.06534">
        <ele>102</ele>
        <time>2013-02-17T08:41:20.000Z</time>
      </trkpt>
      <trkpt lat="47.37773" lon="0.0653">
        <ele>102</ele>
        <time>2013-02-17T08:41:24.000Z</time>
      </trkpt>
      <trkpt lat="47.37772" lon="0.06528">
        <ele>102</ele>
        <time>2013-02-17T08:41:25.000Z</time>
      </trkpt>
      <trkpt lat="47.37771" lon="0.06524">
        <ele>102</ele>
        <time>2013-02-17T08:41:31.000Z</time>
      </trkpt>
      <trkpt lat="47.37769" lon="0.06522">
        <ele>103</ele>
        <time>2013-02-17T08:41:32.000Z</time>
      </trkpt>
      <trkpt lat="47.37766" lon="0.06519">
        <ele>103</ele>
        <time>2013-02-17T08:41:40.000Z</time>
      </trkpt>
      <trkpt lat="47.37766" lon="0.06518">
        <ele>103</ele>
        <time>2013-02-17T08:41:41.000Z</time>
      </trkpt>
      <trkpt lat="47.37762" lon="0.06516">
        <ele>103</ele>
        <time>2013-02-17T08:41:49.000Z</time>
      </trkpt>
      <trkpt lat="47.37761" lon="0.06515">
        <ele>103</ele>
        <time>2013-02-17T08:41:50.000Z</time>
      </trkpt>
      <trkpt lat="47.37759" lon="0.06513">
        <ele>104</ele>
        <time>2013-02-17T08:41:51.000Z</time>
      </trkpt>
      <trkpt lat="47.37758" lon="0.0651">
        <ele>104</ele>
        <time>2013-02-17T08:41:52.000Z</time>
      </trkpt>
      <trkpt lat="47.37756" lon="0.06505">
        <ele>105</ele>
        <time>2013-02-17T08:41:54.000Z</time>
      </trkpt>
      <trkpt lat="47.37755" lon="0.06503">
        <ele>105</ele>
        <time>2013-02-17T08:41:55.000Z</time>
      </trkpt>
      <trkpt lat="47.37753" lon="0.06497">
        <ele>106</ele>
        <time>2013-02-17T08:41:58.000Z</time>
      </trkpt>
      <trkpt lat="47.37753" lon="0.06496">
        <ele>105</ele>
        <time>2013-02-17T08:41:59.000Z</time>
      </trkpt>
      <trkpt lat="47.37749" lon="0.06495">
        <ele>107</ele>
        <time>2013-02-17T08:42:12.000Z</time>
      </trkpt>
      <trkpt lat="47.37747" lon="0.06496">
        <ele>107</ele>
        <time>2013-02-17T08:42:13.000Z</time>
      </trkpt>
      <trkpt lat="47.37743" lon="0.06495">
        <ele>107</ele>
        <time>2013-02-17T08:42:15.000Z</time>
      </trkpt>
      <trkpt lat="47.37741" lon="0.06493">
        <ele>107</ele>
        <time>2013-02-17T08:42:16.000Z</time>
      </trkpt>
      <trkpt lat="47.37738" lon="0.06489">
        <ele>108</ele>
        <time>2013-02-17T08:42:18.000Z</time>
      </trkpt>
      <trkpt lat="47.37737" lon="0.06488">
        <ele>108</ele>
        <time>2013-02-17T08:42:19.000Z</time>
      </trkpt>
      <trkpt lat="47.37735" lon="0.06484">
        <ele>108</ele>
        <time>2013-02-17T08:42:24.000Z</time>
      </trkpt>
      <trkpt lat="47.37733" lon="0.06482">
        <ele>109</ele>
        <time>2013-02-17T08:42:25.000Z</time>
      </trkpt>
      <trkpt lat="47.3773" lon="0.06479">
        <ele>109</ele>
        <time>2013-02-17T08:42:29.000Z</time>
      </trkpt>
      <trkpt lat="47.37727" lon="0.0648">
        <ele>109</ele>
        <time>2013-02-17T08:42:30.000Z</time>
      </trkpt>
      <trkpt lat="47.37724" lon="0.06479">
        <ele>109</ele>
        <time>2013-02-17T08:42:33.000Z</time>
      </trkpt>
      <trkpt lat="47.37723" lon="0.06479">
        <ele>109</ele>
        <time>2013-02-17T08:42:34.000Z</time>
      </trkpt>
      <trkpt lat="47.37718" lon="0.06479">
        <ele>109</ele>
        <time>2013-02-17T08:42:42.000Z</time>
      </trkpt>
      <trkpt lat="47.37718" lon="0.06479">
        <ele>109</ele>
        <time>2013-02-17T08:42:43.000Z</time>
      </trkpt>
      <trkpt lat="47.37715" lon="0.06477">
        <ele>109</ele>
        <time>2013-02-17T08:42:47.000Z</time>
      </trkpt>
      <trkpt lat="47.37713" lon="0.06476">
        <ele>109</ele>
        <time>2013-02-17T08:42:48.000Z</time>
      </trkpt>
      <trkpt lat="47.3771" lon="0.06474">
        <ele>110</ele>
        <time>2013-02-17T08:42:51.000Z</time>
      </trkpt>
      <trkpt lat="47.37709" lon="0.06473">
        <ele>110</ele>
        <time>2013-02-17T08:42:52.000Z</time>
      </trkpt>
      <trkpt lat="47.37706" lon="0.0647">
        <ele>110</ele>
        <time>2013-02-17T08:42:54.000Z</time>
      </trkpt>
      <trkpt lat="47.37705" lon="0.06468">
        <ele>110</ele>
        <time>2013-02-17T08:42:55.000Z</time>
      </trkpt>
      <trkpt lat="47.37701" lon="0.06464">
        <ele>110</ele>
        <time>2013-02-17T08:42:58.000Z</time>
      </trkpt>
      <trkpt lat="47.37701" lon="0.06462">
        <ele>110</ele>
        <time>2013-02-17T08:42:59.000Z</time>
      </trkpt>
      <trkpt lat="47.37698" lon="0.06461">
        <ele>110</ele>
        <time>2013-02-17T08:43:01.000Z</time>
      </trkpt>
      <trkpt lat="47.37696" lon="0.06461">
        <ele>110</ele>
        <time>2013-02-17T08:43:02.000Z</time>
      </trkpt>
      <trkpt lat="47.37693" lon="0.0646">
        <ele>110</ele>
        <time>2013-02-17T08:43:03.000Z</time>
      </trkpt>
      <trkpt lat="47.37692" lon="0.06459">
        <ele>110</ele>
        <time>2013-02-17T08:43:04.000Z</time>
      </trkpt>
      <trkpt lat="47.37689" lon="0.06458">
        <ele>110</ele>
        <time>2013-02-17T08:43:08.000Z</time>
      </trkpt>
      <trkpt lat="47.37686" lon="0.06458">
        <ele>111</ele>
        <time>2013-02-17T08:43:09.000Z</time>
      </trkpt>
      <trkpt lat="47.37684" lon="0.06456">
        <ele>111</ele>
        <time>2013-02-17T08:43:11.000Z</time>
      </trkpt>
      <trkpt lat="47.37682" lon="0.06455">
        <ele>111</ele>
        <time>2013-02-17T08:43:12.000Z</time>
      </trkpt>
      <trkpt lat="47.37679" lon="0.06451">
        <ele>111</ele>
        <time>2013-02-17T08:43:14.000Z</time>
      </trkpt>
      <trkpt lat="47.37677" lon="0.0645">
        <ele>111</ele>
        <time>2013-02-17T08:43:15.000Z</time>
      </trkpt>
      <trkpt lat="47.37674" lon="0.0645">
        <ele>111</ele>
        <time>2013-02-17T08:43:16.000Z</time>
      </trkpt>
      <trkpt lat="47.37672" lon="0.06449">
        <ele>111</ele>
        <time>2013-02-17T08:43:17.000Z</time>
      </trkpt>
      <trkpt lat="47.37669" lon="0.06446">
        <ele>111</ele>
        <time>2013-02-17T08:43:19.000Z</time>
      </trkpt>
      <trkpt lat="47.37667" lon="0.06445">
        <ele>111</ele>
        <time>2013-02-17T08:43:20.000Z</time>
      </trkpt>
      <trkpt lat="47.37664" lon="0.06444">
        <ele>113</ele>
        <time>2013-02-17T08:43:22.000Z</time>
      </trkpt>
      <trkpt lat="47.37662" lon="0.06444">
        <ele>113</ele>
        <time>2013-02-17T08:43:23.000Z</time>
      </trkpt>
      <trkpt lat="47.37658" lon="0.06445">
        <ele>113</ele>
        <time>2013-02-17T08:43:34.000Z</time>
      </trkpt>
      <trkpt lat="47.37657" lon="0.06444">
        <ele>113</ele>
        <time>2013-02-17T08:43:35.000Z</time>
      </trkpt>
      <trkpt lat="47.37655" lon="0.06442">
        <ele>113</ele>
        <time>2013-02-17T08:43:36.000Z</time>
      </trkpt>
      <trkpt lat="47.37653" lon="0.06439">
        <ele>113</ele>
        <time>2013-02-17T08:43:37.000Z</time>
      </trkpt>
      <trkpt lat="47.3765" lon="0.06437">
        <ele>113</ele>
        <time>2013-02-17T08:43:41.000Z</time>
      </trkpt>
      <trkpt lat="47.37649" lon="0.06435">
        <ele>113</ele>
        <time>2013-02-17T08:43:42.000Z</time>
      </trkpt>
      <trkpt lat="47.37646" lon="0.06432">
        <ele>113</ele>
        <time>2013-02-17T08:43:50.000Z</time>
      </trkpt>
      <trkpt lat="47.37644" lon="0.06431">
        <ele>113</ele>
        <time>2013-02-17T08:43:51.000Z</time>
      </trkpt>
      <trkpt lat="47.37642" lon="0.06429">
        <ele>113</ele>
        <time>2013-02-17T08:43:55.000Z</time>
      </trkpt>
      <trkpt lat="47.37641" lon="0.06426">
        <ele>113</ele>
        <time>2013-02-17T08:43:56.000Z</time>
      </trkpt>
      <trkpt lat="47.37638" lon="0.06421">
        <ele>113</ele>
        <time>2013-02-17T08:44:02.000Z</time>
      </trkpt>
      <trkpt lat="47.37637" lon="0.06422">
        <ele>113</ele>
        <time>2013-02-17T08:44:03.000Z</time>
      </trkpt>
      <trkpt lat="47.37635" lon="0.06421">
        <ele>113</ele>
        <time>2013-02-17T08:44:10.000Z</time>
      </trkpt>
      <trkpt lat="47.37633" lon="0.06418">
        <ele>113</ele>
        <time>2013-02-17T08:44:11.000Z</time>
      </trkpt>
      <trkpt lat="47.37631" lon="0.06417">
        <ele>113</ele>
        <time>2013-02-17T08:44:12.000Z</time>
      </trkpt>
      <trkpt lat="47.37629" lon="0.06415">
        <ele>113</ele>
        <time>2013-02-17T08:44:13.000Z</time>
      </trkpt>
      <trkpt lat="47.37624" lon="0.06414">
        <ele>113</ele>
        <time>2013-02-17T08:44:17.000Z</time>
      </trkpt>
      <trkpt lat="47.37623" lon="0.06413">
        <ele>113</ele>
        <time>2013-02-17T08:44:18.000Z</time>
      </trkpt>
      <trkpt lat="47.3762" lon="0.06411">
        <ele>113</ele>
        <time>2013-02-17T08:44:22.000Z</time>
      </trkpt>
      <trkpt lat="47.37618" lon="0.06409">
        <ele>113</ele>
        <time>2013-02-17T08:44:23.000Z</time>
      </trkpt>
      <trkpt lat="47.37615" lon="0.06407">
        <ele>113</ele>
        <time>2013-02-17T08:44:27.000Z</time>
      </trkpt>
      <trkpt lat="47.37612" lon="0.06405">
        <ele>113</ele>
        <time>2013-02-17T08:44:28.000Z</time>
      </trkpt>
      <trkpt lat="47.3761" lon="0.06401">
        <ele>113</ele>
        <time>2013-02-17T08:44:31.000Z</time>
      </trkpt>
      <trkpt lat="47.37609" lon="0.064">
        <ele>113</ele>
        <time>2013-02-17T08:44:32.000Z</time>
      </trkpt>
      <trkpt lat="47.37606" lon="0.06399">
        <ele>113</ele>
        <time>2013-02-17T08:44:36.000Z</time>
      </trkpt>
      <trkpt lat="47.37603" lon="0.06399">
        <ele>113</ele>
        <time>2013-02-17T08:44:37.000Z</time>
      </trkpt>
      <trkpt lat="47.37599" lon="0.06396">
        <ele>113</ele>
        <time>2013-02-17T08:44:42.000Z</time>
      </trkpt>
      <trkpt lat="47.37599" lon="0.06394">
        <ele>113</ele>
        <time>2013-02-17T08:44:43.000Z</time>
      </trkpt>
      <trkpt lat="47.37598" lon="0.0639">
        <ele>113</ele>
        <time>2013-02-17T08:44:46.000Z</time>
      </trkpt>
      <trkpt lat="47.37597" lon="0.06387">
        <ele>113</ele>
        <time>2013-02-17T08:44:47.000Z</time>
      </trkpt>
      <trkpt lat="47.37596" lon="0.06383">
        <ele>113</ele>
        <time>2013-02-17T08:44:48.000Z</time>
      </trkpt>
      <trkpt lat="47.37595" lon="0.06381">
        <ele>113</ele>
        <time>2013-02-17T08:44:49.000Z</time>
      </trkpt>
      <trkpt lat="47.37591" lon="0.06377">
        <ele>113</ele>
        <time>2013-02-17T08:44:54.000Z</time>
      </trkpt>
      <trkpt lat="47.3759" lon="0.06376">
        <ele>113</ele>
        <time>2013-02-17T08:44:55.000Z</time>
      </trkpt>
      <trkpt lat="47.37589" lon="0.06373">
        <ele>113</ele>
        <time>2013-02-17T08:44:56.000Z</time>
      </trkpt>
      <trkpt lat="47.37587" lon="0.0637">
        <ele>113</ele>
        <time>2013-02-17T08:44:57.000Z</time>
      </trkpt>
      <trkpt lat="47.37584" lon="0.06367">
        <ele>113</ele>
        <time>2013-02-17T08:44:59.000Z</time>
      </trkpt>
      <trkpt lat="47.37583" lon="0.06367">
        <ele>113</ele>
        <time>2013-02-17T08:45:00.000Z</time>
      </trkpt>
      <trkpt lat="47.37579" lon="0.06364">
        <ele>113</ele>
        <time>2013-02-17T08:45:04.000Z</time>
      </trkpt>
      <trkpt lat="47.37577" lon="0.06362">
        <ele>113</ele>
        <time>2013-02-17T08:45:05.000Z</time>
      </trkpt>
      <trkpt lat="47.37573" lon="0.06359">
        <ele>113</ele>
        <time>2013-02-17T08:45:09.000Z</time>
      </trkpt>
      <trkpt lat="47.37573" lon="0.06358">
        <ele>113</ele>
        <time>2013-02-17T08:45:10.000Z</time>
      </trkpt>
      <trkpt lat="47.37569" lon="0.06354">
        <ele>113</ele>
        <time>2013-02-17T08:45:14.000Z</time>
      </trkpt>
      <trkpt lat="47.37568" lon="0.06353">
        <ele>113</ele>
        <time>2013-02-17T08:45:15.000Z</time>
      </trkpt>
      <trkpt lat="47.37566" lon="0.0635">
        <ele>113</ele>
        <time>2013-02-17T08:45:17.000Z</time>
      </trkpt>
      <trkpt lat="47.37565" lon="0.06348">
        <ele>113</ele>
        <time>2013-02-17T08:45:18.000Z</time>
      </trkpt>
      <trkpt lat="47.37562" lon="0.06344">
        <ele>113</ele>
        <time>2013-02-17T08:45:23.000Z</time>
      </trkpt>
      <trkpt lat="47.37561" lon="0.06343">
        <ele>113</ele>
        <time>2013-02-17T08:45:24.000Z</time>
      </trkpt>
      <trkpt lat="47.37557" lon="0.06343">
        <ele>113</ele>
        <time>2013-02-17T08:45:28.000Z</time>
      </trkpt>
      <trkpt lat="47.37556" lon="0.06343">
        <ele>113</ele>
        <time>2013-02-17T08:45:29.000Z</time>
      </trkpt>
      <trkpt lat="47.37554" lon="0.06339">
        <ele>113</ele>
        <time>2013-02-17T08:45:32.000Z</time>
      </trkpt>
      <trkpt lat="47.37553" lon="0.06336">
        <ele>113</ele>
        <time>2013-02-17T08:45:33.000Z</time>
      </trkpt>
      <trkpt lat="47.37552" lon="0.06332">
        <ele>113</ele>
        <time>2013-02-17T08:45:34.000Z</time>
      </trkpt>
      <trkpt lat="47.37551" lon="0.0633">
        <ele>113</ele>
        <time>2013-02-17T08:45:35.000Z</time>
      </trkpt>
      <trkpt lat="47.3755" lon="0.06324">
        <ele>113</ele>
        <time>2013-02-17T08:45:38.000Z</time>
      </trkpt>
      <trkpt lat="47.37549" lon="0.06322">
        <ele>113</ele>
        <time>2013-02-17T08:45:39.000Z</time>
      </trkpt>
      <trkpt lat="47.37546" lon="0.06317">
        <ele>113</ele>
        <time>2013-02-17T08:45:44.000Z</time>
      </trkpt>
      <trkpt lat="47.37545" lon="0.06316">
        <ele>113</ele>
        <time>2013-02-17T08:45:45.000Z</time>
      </trkpt>
      <trkpt lat="47.37543" lon="0.0631">
        <ele>113</ele>
        <time>2013-02-17T08:45:48.000Z</time>
      </trkpt>
      <trkpt lat="47.37543" lon="0.06308">
        <ele>113</ele>
        <time>2013-02-17T08:45:49.000Z</time>
      </trkpt>
      <trkpt lat="47.3754" lon="0.06304">
        <ele>113</ele>
        <time>2013-02-17T08:45:53.000Z</time>
      </trkpt>
      <trkpt lat="47.37539" lon="0.06303">
        <ele>113</ele>
        <time>2013-02-17T08:45:54.000Z</time>
      </trkpt>
      <trkpt lat="47.37536" lon="0.06299">
        <ele>113</ele>
        <time>2013-02-17T08:45:57.000Z</time>
      </trkpt>
      <trkpt lat="47.37534" lon="0.06298">
        <ele>113</ele>
        <time>2013-02-17T08:45:58.000Z</time>
      </trkpt>
      <trkpt lat="47.37533" lon="0.06292">
        <ele>113</ele>
        <time>2013-02-17T08:46:01.000Z</time>
      </trkpt>
      <trkpt lat="47.37533" lon="0.0629">
        <ele>113</ele>
        <time>2013-02-17T08:46:02.000Z</time>
      </trkpt>
      <trkpt lat="47.3753" lon="0.06285">
        <ele>113</ele>
        <time>2013-02-17T08:46:05.000Z</time>
      </trkpt>
      <trkpt lat="47.37529" lon="0.06284">
        <ele>114</ele>
        <time>2013-02-17T08:46:06.000Z</time>
      </trkpt>
      <trkpt lat="47.37526" lon="0.0628">
        <ele>114</ele>
        <time>2013-02-17T08:46:12.000Z</time>
      </trkpt>
      <trkpt lat="47.37525" lon="0.06279">
        <ele>114</ele>
        <time>2013-02-17T08:46:13.000Z</time>
      </trkpt>
      <trkpt lat="47.37522" lon="0.06275">
        <ele>114</ele>
        <time>2013-02-17T08:46:18.000Z</time>
      </trkpt>
      <trkpt lat="47.37521" lon="0.06274">
        <ele>114</ele>
        <time>2013-02-17T08:46:19.000Z</time>
      </trkpt>
      <trkpt lat="47.37517" lon="0.06271">
        <ele>114</ele>
        <time>2013-02-17T08:46:22.000Z</time>
      </trkpt>
      <trkpt lat="47.37517" lon="0.0627">
        <ele>114</ele>
        <time>2013-02-17T08:46:23.000Z</time>
      </trkpt>
      <trkpt lat="47.37516" lon="0.06264">
        <ele>114</ele>
        <time>2013-02-17T08:46:29.000Z</time>
      </trkpt>
      <trkpt lat="47.37517" lon="0.06263">
        <ele>114</ele>
        <time>2013-02-17T08:46:30.000Z</time>
      </trkpt>
      <trkpt lat="47.37514" lon="0.06257">
        <ele>114</ele>
        <time>2013-02-17T08:46:35.000Z</time>
      </trkpt>
      <trkpt lat="47.37513" lon="0.06256">
        <ele>114</ele>
        <time>2013-02-17T08:46:36.000Z</time>
      </trkpt>
      <trkpt lat="47.37509" lon="0.06252">
        <ele>114</ele>
        <time>2013-02-17T08:46:41.000Z</time>
      </trkpt>
      <trkpt lat="47.37509" lon="0.0625">
        <ele>114</ele>
        <time>2013-02-17T08:46:42.000Z</time>
      </trkpt>
      <trkpt lat="47.37505" lon="0.06247">
        <ele>114</ele>
        <time>2013-02-17T08:46:45.000Z</time>
      </trkpt>
      <trkpt lat="47.37505" lon="0.06246">
        <ele>114</ele>
        <time>2013-02-17T08:46:46.000Z</time>
      </trkpt>
      <trkpt lat="47.37502" lon="0.06241">
        <ele>114</ele>
        <time>2013-02-17T08:46:49.000Z</time>
      </trkpt>
      <trkpt lat="47.37501" lon="0.0624">
        <ele>114</ele>
        <time>2013-02-17T08:46:50.000Z</time>
      </trkpt>
      <trkpt lat="47.37498" lon="0.06237">
        <ele>114</ele>
        <time>2013-02-17T08:46:54.000Z</time>
      </trkpt>
      <trkpt lat="47.37497" lon="0.06236">
        <ele>114</ele>
        <time>2013-02-17T08:46:55.000Z</time>
      </trkpt>
      <trkpt lat="47.37495" lon="0.06233">
        <ele>113</ele>
        <time>2013-02-17T08:46:57.000Z</time>
      </trkpt>
      <trkpt lat="47.37493" lon="0.06231">
        <ele>113</ele>
        <time>2013-02-17T08:46:58.000Z</time>
      </trkpt>
      <trkpt lat="47.3749" lon="0.06227">
        <ele>113</ele>
        <time>2013-02-17T08:47:01.000Z</time>
      </trkpt>
      <trkpt lat="47.3749" lon="0.06225">
        <ele>113</ele>
        <time>2013-02-17T08:47:02.000Z</time>
      </trkpt>
      <trkpt lat="47.37487" lon="0.06222">
        <ele>113</ele>
        <time>2013-02-17T08:47:07.000Z</time>
      </trkpt>
      <trkpt lat="47.37486" lon="0.06221">
        <ele>113</ele>
        <time>2013-02-17T08:47:08.000Z</time>
      </trkpt>
      <trkpt lat="47.37483" lon="0.06218">
        <ele>112</ele>
        <time>2013-02-17T08:47:10.000Z</time>
      </trkpt>
      <trkpt lat="47.37482" lon="0.06215">
        <ele>112</ele>
        <time>2013-02-17T08:47:11.000Z</time>
      </trkpt>
      <trkpt lat="47.37479" lon="0.06211">
        <ele>112</ele>
        <time>2013-02-17T08:47:16.000Z</time>
      </trkpt>
      <trkpt lat="47.37478" lon="0.06209">
        <ele>112</ele>
        <time>2013-02-17T08:47:17.000Z</time>
      </trkpt>
      <trkpt lat="47.37476" lon="0.06204">
        <ele>112</ele>
        <time>2013-02-17T08:47:20.000Z</time>
      </trkpt>
      <trkpt lat="47.37476" lon="0.06203">
        <ele>112</ele>
        <time>2013-02-17T08:47:21.000Z</time>
      </trkpt>
      <trkpt lat="47.37475" lon="0.06196">
        <ele>112</ele>
        <time>2013-02-17T08:47:24.000Z</time>
      </trkpt>
      <trkpt lat="47.37474" lon="0.06194">
        <ele>112</ele>
        <time>2013-02-17T08:47:25.000Z</time>
      </trkpt>
      <trkpt lat="47.37471" lon="0.06189">
        <ele>112</ele>
        <time>2013-02-17T08:47:28.000Z</time>
      </trkpt>
      <trkpt lat="47.37471" lon="0.06188">
        <ele>112</ele>
        <time>2013-02-17T08:47:29.000Z</time>
      </trkpt>
      <trkpt lat="47.37468" lon="0.06183">
        <ele>112</ele>
        <time>2013-02-17T08:47:33.000Z</time>
      </trkpt>
      <trkpt lat="47.37467" lon="0.06181">
        <ele>112</ele>
        <time>2013-02-17T08:47:34.000Z</time>
      </trkpt>
      <trkpt lat="47.37465" lon="0.06178">
        <ele>112</ele>
        <time>2013-02-17T08:47:36.000Z</time>
      </trkpt>
      <trkpt lat="47.37464" lon="0.06176">
        <ele>112</ele>
        <time>2013-02-17T08:47:37.000Z</time>
      </trkpt>
      <trkpt lat="47.37461" lon="0.06174">
        <ele>111</ele>
        <time>2013-02-17T08:47:39.000Z</time>
      </trkpt>
      <trkpt lat="47.3746" lon="0.06173">
        <ele>111</ele>
        <time>2013-02-17T08:47:40.000Z</time>
      </trkpt>
      <trkpt lat="47.37457" lon="0.06168">
        <ele>111</ele>
        <time>2013-02-17T08:47:42.000Z</time>
      </trkpt>
      <trkpt lat="47.37456" lon="0.06166">
        <ele>111</ele>
        <time>2013-02-17T08:47:43.000Z</time>
      </trkpt>
      <trkpt lat="47.37453" lon="0.06161">
        <ele>111</ele>
        <time>2013-02-17T08:47:46.000Z</time>
      </trkpt>
      <trkpt lat="47.37452" lon="0.0616">
        <ele>111</ele>
        <time>2013-02-17T08:47:47.000Z</time>
      </trkpt>
      <trkpt lat="47.37449" lon="0.06157">
        <ele>111</ele>
        <time>2013-02-17T08:47:49.000Z</time>
      </trkpt>
      <trkpt lat="47.37448" lon="0.06155">
        <ele>111</ele>
        <time>2013-02-17T08:47:50.000Z</time>
      </trkpt>
      <trkpt lat="47.37445" lon="0.06151">
        <ele>111</ele>
        <time>2013-02-17T08:47:54.000Z</time>
      </trkpt>
      <trkpt lat="47.37444" lon="0.0615">
        <ele>111</ele>
        <time>2013-02-17T08:47:55.000Z</time>
      </trkpt>
      <trkpt lat="47.37442" lon="0.06144">
        <ele>111</ele>
        <time>2013-02-17T08:48:01.000Z</time>
      </trkpt>
      <trkpt lat="47.37442" lon="0.06143">
        <ele>111</ele>
        <time>2013-02-17T08:48:02.000Z</time>
      </trkpt>
      <trkpt lat="47.37441" lon="0.06137">
        <ele>111</ele>
        <time>2013-02-17T08:48:05.000Z</time>
      </trkpt>
      <trkpt lat="47.37441" lon="0.06136">
        <ele>111</ele>
        <time>2013-02-17T08:48:06.000Z</time>
      </trkpt>
      <trkpt lat="47.37439" lon="0.0613">
        <ele>111</ele>
        <time>2013-02-17T08:48:11.000Z</time>
      </trkpt>
      <trkpt lat="47.37439" lon="0.06129">
        <ele>111</ele>
        <time>2013-02-17T08:48:12.000Z</time>
      </trkpt>
      <trkpt lat="47.37438" lon="0.06123">
        <ele>111</ele>
        <time>2013-02-17T08:48:18.000Z</time>
      </trkpt>
      <trkpt lat="47.37438" lon="0.06122">
        <ele>111</ele>
        <time>2013-02-17T08:48:19.000Z</time>
      </trkpt>
      <trkpt lat="47.37435" lon="0.06117">
        <ele>111</ele>
        <time>2013-02-17T08:48:25.000Z</time>
      </trkpt>
      <trkpt lat="47.37435" lon="0.06116">
        <ele>111</ele>
        <time>2013-02-17T08:48:26.000Z</time>
      </trkpt>
      <trkpt lat="47.37434" lon="0.06112">
        <ele>111</ele>
        <time>2013-02-17T08:48:30.000Z</time>
      </trkpt>
      <trkpt lat="47.37433" lon="0.0611">
        <ele>111</ele>
        <time>2013-02-17T08:48:31.000Z</time>
      </trkpt>
      <trkpt lat="47.37431" lon="0.06105">
        <ele>111</ele>
        <time>2013-02-17T08:48:35.000Z</time>
      </trkpt>
      <trkpt lat="47.3743" lon="0.06103">
        <ele>111</ele>
        <time>2013-02-17T08:48:36.000Z</time>
      </trkpt>
      <trkpt lat="47.37427" lon="0.06099">
        <ele>111</ele>
        <time>2013-02-17T08:48:39.000Z</time>
      </trkpt>
      <trkpt lat="47.37426" lon="0.06097">
        <ele>111</ele>
        <time>2013-02-17T08:48:40.000Z</time>
      </trkpt>
      <trkpt lat="47.37424" lon="0.06092">
        <ele>111</ele>
        <time>2013-02-17T08:48:42.000Z</time>
      </trkpt>
      <trkpt lat="47.37423" lon="0.0609">
        <ele>111</ele>
        <time>2013-02-17T08:48:43.000Z</time>
      </trkpt>
      <trkpt lat="47.37421" lon="0.06085">
        <ele>111</ele>
        <time>2013-02-17T08:48:46.000Z</time>
      </trkpt>
      <trkpt lat="47.3742" lon="0.06083">
        <ele>111</ele>
        <time>2013-02-17T08:48:47.000Z</time>
      </trkpt>
      <trkpt lat="47.37417" lon="0.06079">
        <ele>111</ele>
        <time>2013-02-17T08:48:49.000Z</time>
      </trkpt>
      <trkpt lat="47.37416" lon="0.06078">
        <ele>111</ele>
        <time>2013-02-17T08:48:50.000Z</time>
      </trkpt>
      <trkpt lat="47.37415" lon="0.06072">
        <ele>111</ele>
        <time>2013-02-17T08:48:55.000Z</time>
      </trkpt>
      <trkpt lat="47.37414" lon="0.0607">
        <ele>111</ele>
        <time>2013-02-17T08:48:56.000Z</time>
      </trkpt>
      <trkpt lat="47.37412" lon="0.06067">
        <ele>111</ele>
        <time>2013-02-17T08:48:57.000Z</time>
      </trkpt>
      <trkpt lat="47.3741" lon="0.06066">
        <ele>111</ele>
        <time>2013-02-17T08:48:58.000Z</time>
      </trkpt>
      <trkpt lat="47.37406" lon="0.06065">
        <ele>111</ele>
        <time>2013-02-17T08:49:01.000Z</time>
      </trkpt>
      <trkpt lat="47.37405" lon="0.06064">
        <ele>111</ele>
        <time>2013-02-17T08:49:02.000Z</time>
      </trkpt>
      <trkpt lat="47.37402" lon="0.0606">
        <ele>111</ele>
        <time>2013-02-17T08:49:06.000Z</time>
      </trkpt>
      <trkpt lat="47.37401" lon="0.06058">
        <ele>111</ele>
        <time>2013-02-17T08:49:07.000Z</time>
      </trkpt>
      <trkpt lat="47.37401" lon="0.06053">
        <ele>111</ele>
        <time>2013-02-17T08:49:21.000Z</time>
      </trkpt>
      <trkpt lat="47.374" lon="0.06052">
        <ele>111</ele>
        <time>2013-02-17T08:49:22.000Z</time>
      </trkpt>
      <trkpt lat="47.37397" lon="0.06047">
        <ele>110</ele>
        <time>2013-02-17T08:49:24.000Z</time>
      </trkpt>
      <trkpt lat="47.37395" lon="0.06045">
        <ele>110</ele>
        <time>2013-02-17T08:49:25.000Z</time>
      </trkpt>
      <trkpt lat="47.37392" lon="0.06042">
        <ele>110</ele>
        <time>2013-02-17T08:49:29.000Z</time>
      </trkpt>
      <trkpt lat="47.37392" lon="0.0604">
        <ele>110</ele>
        <time>2013-02-17T08:49:30.000Z</time>
      </trkpt>
      <trkpt lat="47.37389" lon="0.06036">
        <ele>110</ele>
        <time>2013-02-17T08:49:37.000Z</time>
      </trkpt>
      <trkpt lat="47.37388" lon="0.06035">
        <ele>110</ele>
        <time>2013-02-17T08:49:38.000Z</time>
      </trkpt>
      <trkpt lat="47.37386" lon="0.06031">
        <ele>110</ele>
        <time>2013-02-17T08:49:40.000Z</time>
      </trkpt>
      <trkpt lat="47.37385" lon="0.06029">
        <ele>110</ele>
        <time>2013-02-17T08:49:41.000Z</time>
      </trkpt>
      <trkpt lat="47.37384" lon="0.06025">
        <ele>110</ele>
        <time>2013-02-17T08:49:43.000Z</time>
      </trkpt>
      <trkpt lat="47.37383" lon="0.06022">
        <ele>110</ele>
        <time>2013-02-17T08:49:44.000Z</time>
      </trkpt>
      <trkpt lat="47.3738" lon="0.06017">
        <ele>110</ele>
        <time>2013-02-17T08:49:46.000Z</time>
      </trkpt>
      <trkpt lat="47.37379" lon="0.06014">
        <ele>110</ele>
        <time>2013-02-17T08:49:47.000Z</time>
      </trkpt>
      <trkpt lat="47.37378" lon="0.06009">
        <ele>110</ele>
        <time>2013-02-17T08:49:50.000Z</time>
      </trkpt>
      <trkpt lat="47.37377" lon="0.06007">
        <ele>110</ele>
        <time>2013-02-17T08:49:51.000Z</time>
      </trkpt>
      <trkpt lat="47.37373" lon="0.06003">
        <ele>110</ele>
        <time>2013-02-17T08:49:55.000Z</time>
      </trkpt>
      <trkpt lat="47.37373" lon="0.06002">
        <ele>110</ele>
        <time>2013-02-17T08:49:56.000Z</time>
      </trkpt>
      <trkpt lat="47.37369" lon="0.05998">
        <ele>109</ele>
        <time>2013-02-17T08:49:59.000Z</time>
      </trkpt>
      <trkpt lat="47.37367" lon="0.05997">
        <ele>109</ele>
        <time>2013-02-17T08:50:00.000Z</time>
      </trkpt>
      <trkpt lat="47.37366" lon="0.05992">
        <ele>109</ele>
        <time>2013-02-17T08:50:02.000Z</time>
      </trkpt>
      <trkpt lat="47.37365" lon="0.0599">
        <ele>109</ele>
        <time>2013-02-17T08:50:03.000Z</time>
      </trkpt>
      <trkpt lat="47.37362" lon="0.05985">
        <ele>109</ele>
        <time>2013-02-17T08:50:08.000Z</time>
      </trkpt>
      <trkpt lat="47.37361" lon="0.05984">
        <ele>109</ele>
        <time>2013-02-17T08:50:09.000Z</time>
      </trkpt>
      <trkpt lat="47.3736" lon="0.05978">
        <ele>109</ele>
        <time>2013-02-17T08:50:16.000Z</time>
      </trkpt>
      <trkpt lat="47.3736" lon="0.05976">
        <ele>109</ele>
        <time>2013-02-17T08:50:17.000Z</time>
      </trkpt>
      <trkpt lat="47.37359" lon="0.05969">
        <ele>109</ele>
        <time>2013-02-17T08:50:53.000Z</time>
      </trkpt>
      <trkpt lat="47.37359" lon="0.05969">
        <ele>109</ele>
        <time>2013-02-17T08:50:54.000Z</time>
      </trkpt>
      <trkpt lat="47.3736" lon="0.05963">
        <ele>109</ele>
        <time>2013-02-17T08:52:32.000Z</time>
      </trkpt>
      <trkpt lat="47.37362" lon="0.05963">
        <ele>109</ele>
        <time>2013-02-17T08:52:33.000Z</time>
      </trkpt>
      <trkpt lat="47.37363" lon="0.05969">
        <ele>109</ele>
        <time>2013-02-17T08:53:23.000Z</time>
      </trkpt>
      <trkpt lat="47.37363" lon="0.05969">
        <ele>109</ele>
        <time>2013-02-17T08:53:24.000Z</time>
      </trkpt>
      <trkpt lat="47.37365" lon="0.05972">
        <ele>109</ele>
        <time>2013-02-17T08:55:09.000Z</time>
      </trkpt>
      <trkpt lat="47.37367" lon="0.05974">
        <ele>109</ele>
        <time>2013-02-17T08:55:10.000Z</time>
      </trkpt>
      <trkpt lat="47.37365" lon="0.05969">
        <ele>109</ele>
        <time>2013-02-17T08:55:48.000Z</time>
      </trkpt>
      <trkpt lat="47.37364" lon="0.05968">
        <ele>109</ele>
        <time>2013-02-17T08:55:49.000Z</time>
      </trkpt>
      <trkpt lat="47.37359" lon="0.05967">
        <ele>109</ele>
        <time>2013-02-17T08:55:53.000Z</time>
      </trkpt>
      <trkpt lat="47.37358" lon="0.05966">
        <ele>109</ele>
        <time>2013-02-17T08:55:54.000Z</time>
      </trkpt>
      <trkpt lat="47.37355" lon="0.05962">
        <ele>109</ele>
        <time>2013-02-17T08:56:00.000Z</time>
      </trkpt>
      <trkpt lat="47.37355" lon="0.0596">
        <ele>109</ele>
        <time>2013-02-17T08:56:01.000Z</time>
      </trkpt>
      <trkpt lat="47.37352" lon="0.05957">
        <ele>109</ele>
        <time>2013-02-17T08:56:03.000Z</time>
      </trkpt>
      <trkpt lat="47.37351" lon="0.05955">
        <ele>109</ele>
        <time>2013-02-17T08:56:04.000Z</time>
      </trkpt>
      <trkpt lat="47.37349" lon="0.0595">
        <ele>109</ele>
        <time>2013-02-17T08:56:06.000Z</time>
      </trkpt>
      <trkpt lat="47.37348" lon="0.05949">
        <ele>109</ele>
        <time>2013-02-17T08:56:07.000Z</time>
      </trkpt>
      <trkpt lat="47.37347" lon="0.05945">
        <ele>109</ele>
        <time>2013-02-17T08:56:12.000Z</time>
      </trkpt>
      <trkpt lat="47.37346" lon="0.05943">
        <ele>109</ele>
        <time>2013-02-17T08:56:13.000Z</time>
      </trkpt>
      <trkpt lat="47.37343" lon="0.05938">
        <ele>109</ele>
        <time>2013-02-17T08:56:15.000Z</time>
      </trkpt>
      <trkpt lat="47.37341" lon="0.05935">
        <ele>109</ele>
        <time>2013-02-17T08:56:16.000Z</time>
      </trkpt>
      <trkpt lat="47.37339" lon="0.05931">
        <ele>109</ele>
        <time>2013-02-17T08:56:19.000Z</time>
      </trkpt>
      <trkpt lat="47.37339" lon="0.05928">
        <ele>109</ele>
        <time>2013-02-17T08:56:20.000Z</time>
      </trkpt>
      <trkpt lat="47.37337" lon="0.05926">
        <ele>110</ele>
        <time>2013-02-17T08:56:21.000Z</time>
      </trkpt>
      <trkpt lat="47.37335" lon="0.05924">
        <ele>110</ele>
        <time>2013-02-17T08:56:22.000Z</time>
      </trkpt>
      <trkpt lat="47.37332" lon="0.05921">
        <ele>110</ele>
        <time>2013-02-17T08:56:29.000Z</time>
      </trkpt>
      <trkpt lat="47.37331" lon="0.0592">
        <ele>110</ele>
        <time>2013-02-17T08:56:30.000Z</time>
      </trkpt>
      <trkpt lat="47.37327" lon="0.05917">
        <ele>110</ele>
        <time>2013-02-17T08:56:32.000Z</time>
      </trkpt>
      <trkpt lat="47.37325" lon="0.05914">
        <ele>110</ele>
        <time>2013-02-17T08:56:33.000Z</time>
      </trkpt>
      <trkpt lat="47.37323" lon="0.05911">
        <ele>109</ele>
        <time>2013-02-17T08:56:34.000Z</time>
      </trkpt>
      <trkpt lat="47.37321" lon="0.05908">
        <ele>109</ele>
        <time>2013-02-17T08:56:35.000Z</time>
      </trkpt>
      <trkpt lat="47.37319" lon="0.05906">
        <ele>109</ele>
        <time>2013-02-17T08:56:36.000Z</time>
      </trkpt>
      <trkpt lat="47.37317" lon="0.05904">
        <ele>109</ele>
        <time>2013-02-17T08:56:37.000Z</time>
      </trkpt>
      <trkpt lat="47.37316" lon="0.05897">
        <ele>109</ele>
        <time>2013-02-17T08:56:43.000Z</time>
      </trkpt>
      <trkpt lat="47.37315" lon="0.05896">
        <ele>109</ele>
        <time>2013-02-17T08:56:44.000Z</time>
      </trkpt>
      <trkpt lat="47.37314" lon="0.05892">
        <ele>109</ele>
        <time>2013-02-17T08:56:46.000Z</time>
      </trkpt>
      <trkpt lat="47.37312" lon="0.05889">
        <ele>109</ele>
        <time>2013-02-17T08:56:47.000Z</time>
      </trkpt>
      <trkpt lat="47.37309" lon="0.05887">
        <ele>109</ele>
        <time>2013-02-17T08:56:51.000Z</time>
      </trkpt>
      <trkpt lat="47.37307" lon="0.05885">
        <ele>109</ele>
        <time>2013-02-17T08:56:52.000Z</time>
      </trkpt>
      <trkpt lat="47.37304" lon="0.0588">
        <ele>109</ele>
        <time>2013-02-17T08:56:55.000Z</time>
      </trkpt>
      <trkpt lat="47.37304" lon="0.05879">
        <ele>109</ele>
        <time>2013-02-17T08:56:56.000Z</time>
      </trkpt>
      <trkpt lat="47.37302" lon="0.05875">
        <ele>108</ele>
        <time>2013-02-17T08:57:00.000Z</time>
      </trkpt>
      <trkpt lat="47.37301" lon="0.05873">
        <ele>108</ele>
        <time>2013-02-17T08:57:01.000Z</time>
      </trkpt>
      <trkpt lat="47.37299" lon="0.05869">
        <ele>108</ele>
        <time>2013-02-17T08:57:04.000Z</time>
      </trkpt>
      <trkpt lat="47.37298" lon="0.05867">
        <ele>108</ele>
        <time>2013-02-17T08:57:05.000Z</time>
      </trkpt>
      <trkpt lat="47.37297" lon="0.05863">
        <ele>108</ele>
        <time>2013-02-17T08:57:11.000Z</time>
      </trkpt>
      <trkpt lat="47.37296" lon="0.05862">
        <ele>108</ele>
        <time>2013-02-17T08:57:12.000Z</time>
      </trkpt>
      <trkpt lat="47.37294" lon="0.05858">
        <ele>108</ele>
        <time>2013-02-17T08:57:14.000Z</time>
      </trkpt>
      <trkpt lat="47.37292" lon="0.05856">
        <ele>108</ele>
        <time>2013-02-17T08:57:15.000Z</time>
      </trkpt>
      <trkpt lat="47.37288" lon="0.05855">
        <ele>108</ele>
        <time>2013-02-17T08:57:17.000Z</time>
      </trkpt>
      <trkpt lat="47.37288" lon="0.05854">
        <ele>108</ele>
        <time>2013-02-17T08:57:18.000Z</time>
      </trkpt>
      <trkpt lat="47.37285" lon="0.0585">
        <ele>108</ele>
        <time>2013-02-17T08:57:23.000Z</time>
      </trkpt>
      <trkpt lat="47.37284" lon="0.05849">
        <ele>108</ele>
        <time>2013-02-17T08:57:24.000Z</time>
      </trkpt>
      <trkpt lat="47.37281" lon="0.05845">
        <ele>108</ele>
        <time>2013-02-17T08:57:27.000Z</time>
      </trkpt>
      <trkpt lat="47.3728" lon="0.05844">
        <ele>108</ele>
        <time>2013-02-17T08:57:28.000Z</time>
      </trkpt>
      <trkpt lat="47.37277" lon="0.0584">
        <ele>108</ele>
        <time>2013-02-17T08:57:31.000Z</time>
      </trkpt>
      <trkpt lat="47.37276" lon="0.05839">
        <ele>108</ele>
        <time>2013-02-17T08:57:32.000Z</time>
      </trkpt>
      <trkpt lat="47.37272" lon="0.05838">
        <ele>107</ele>
        <time>2013-02-17T08:57:35.000Z</time>
      </trkpt>
      <trkpt lat="47.3727" lon="0.05838">
        <ele>107</ele>
        <time>2013-02-17T08:57:36.000Z</time>
      </trkpt>
      <trkpt lat="47.37268" lon="0.05836">
        <ele>107</ele>
        <time>2013-02-17T08:57:38.000Z</time>
      </trkpt>
      <trkpt lat="47.37266" lon="0.05834">
        <ele>107</ele>
        <time>2013-02-17T08:57:39.000Z</time>
      </trkpt>
      <trkpt lat="47.37264" lon="0.05829">
        <ele>107</ele>
        <time>2013-02-17T08:57:42.000Z</time>
      </trkpt>
      <trkpt lat="47.37263" lon="0.05827">
        <ele>107</ele>
        <time>2013-02-17T08:57:43.000Z</time>
      </trkpt>
      <trkpt lat="47.37261" lon="0.05822">
        <ele>107</ele>
        <time>2013-02-17T08:57:47.000Z</time>
      </trkpt>
      <trkpt lat="47.37261" lon="0.05821">
        <ele>107</ele>
        <time>2013-02-17T08:57:48.000Z</time>
      </trkpt>
      <trkpt lat="47.37259" lon="0.05816">
        <ele>107</ele>
        <time>2013-02-17T08:57:50.000Z</time>
      </trkpt>
      <trkpt lat="47.37258" lon="0.05813">
        <ele>107</ele>
        <time>2013-02-17T08:57:51.000Z</time>
      </trkpt>
      <trkpt lat="47.37256" lon="0.05807">
        <ele>107</ele>
        <time>2013-02-17T08:57:55.000Z</time>
      </trkpt>
      <trkpt lat="47.37255" lon="0.05807">
        <ele>107</ele>
        <time>2013-02-17T08:57:56.000Z</time>
      </trkpt>
      <trkpt lat="47.37252" lon="0.05802">
        <ele>107</ele>
        <time>2013-02-17T08:57:59.000Z</time>
      </trkpt>
      <trkpt lat="47.3725" lon="0.05799">
        <ele>107</ele>
        <time>2013-02-17T08:58:00.000Z</time>
      </trkpt>
      <trkpt lat="47.37247" lon="0.05795">
        <ele>106</ele>
        <time>2013-02-17T08:58:03.000Z</time>
      </trkpt>
      <trkpt lat="47.37245" lon="0.05794">
        <ele>106</ele>
        <time>2013-02-17T08:58:04.000Z</time>
      </trkpt>
      <trkpt lat="47.37242" lon="0.0579">
        <ele>106</ele>
        <time>2013-02-17T08:58:07.000Z</time>
      </trkpt>
      <trkpt lat="47.37242" lon="0.05788">
        <ele>106</ele>
        <time>2013-02-17T08:58:08.000Z</time>
      </trkpt>
      <trkpt lat="47.37239" lon="0.05784">
        <ele>106</ele>
        <time>2013-02-17T08:58:12.000Z</time>
      </trkpt>
      <trkpt lat="47.37238" lon="0.05783">
        <ele>106</ele>
        <time>2013-02-17T08:58:13.000Z</time>
      </trkpt>
      <trkpt lat="47.37236" lon="0.05777">
        <ele>106</ele>
        <time>2013-02-17T08:58:16.000Z</time>
      </trkpt>
      <trkpt lat="47.37236" lon="0.05776">
        <ele>106</ele>
        <time>2013-02-17T08:58:17.000Z</time>
      </trkpt>
      <trkpt lat="47.37232" lon="0.05775">
        <ele>106</ele>
        <time>2013-02-17T08:58:23.000Z</time>
      </trkpt>
      <trkpt lat="47.37231" lon="0.05775">
        <ele>106</ele>
        <time>2013-02-17T08:58:24.000Z</time>
      </trkpt>
      <trkpt lat="47.37227" lon="0.05771">
        <ele>106</ele>
        <time>2013-02-17T08:58:30.000Z</time>
      </trkpt>
      <trkpt lat="47.37227" lon="0.0577">
        <ele>105</ele>
        <time>2013-02-17T08:58:31.000Z</time>
      </trkpt>
      <trkpt lat="47.37224" lon="0.05765">
        <ele>105</ele>
        <time>2013-02-17T08:58:36.000Z</time>
      </trkpt>
      <trkpt lat="47.37224" lon="0.05762">
        <ele>105</ele>
        <time>2013-02-17T08:58:37.000Z</time>
      </trkpt>
      <trkpt lat="47.37224" lon="0.05758">
        <ele>106</ele>
        <time>2013-02-17T08:58:39.000Z</time>
      </trkpt>
      <trkpt lat="47.37223" lon="0.05755">
        <ele>106</ele>
        <time>2013-02-17T08:58:40.000Z</time>
      </trkpt>
      <trkpt lat="47.3722" lon="0.05751">
        <ele>105</ele>
        <time>2013-02-17T08:58:44.000Z</time>
      </trkpt>
      <trkpt lat="47.37219" lon="0.05749">
        <ele>106</ele>
        <time>2013-02-17T08:58:45.000Z</time>
      </trkpt>
      <trkpt lat="47.37217" lon="0.05744">
        <ele>106</ele>
        <time>2013-02-17T08:58:48.000Z</time>
      </trkpt>
      <trkpt lat="47.37216" lon="0.05741">
        <ele>106</ele>
        <time>2013-02-17T08:58:49.000Z</time>
      </trkpt>
      <trkpt lat="47.37215" lon="0.05737">
        <ele>106</ele>
        <time>2013-02-17T08:58:51.000Z</time>
      </trkpt>
      <trkpt lat="47.37214" lon="0.05733">
        <ele>106</ele>
        <time>2013-02-17T08:58:52.000Z</time>
      </trkpt>
      <trkpt lat="47.37212" lon="0.05729">
        <ele>106</ele>
        <time>2013-02-17T08:58:54.000Z</time>
      </trkpt>
      <trkpt lat="47.37211" lon="0.05727">
        <ele>106</ele>
        <time>2013-02-17T08:58:55.000Z</time>
      </trkpt>
      <trkpt lat="47.37208" lon="0.05723">
        <ele>106</ele>
        <time>2013-02-17T08:58:58.000Z</time>
      </trkpt>
      <trkpt lat="47.37207" lon="0.05722">
        <ele>106</ele>
        <time>2013-02-17T08:58:59.000Z</time>
      </trkpt>
      <trkpt lat="47.37205" lon="0.05717">
        <ele>106</ele>
        <time>2013-02-17T08:59:03.000Z</time>
      </trkpt>
      <trkpt lat="47.37205" lon="0.05715">
        <ele>106</ele>
        <time>2013-02-17T08:59:04.000Z</time>
      </trkpt>
      <trkpt lat="47.37203" lon="0.0571">
        <ele>106</ele>
        <time>2013-02-17T08:59:09.000Z</time>
      </trkpt>
      <trkpt lat="47.37202" lon="0.05708">
        <ele>106</ele>
        <time>2013-02-17T08:59:10.000Z</time>
      </trkpt>
      <trkpt lat="47.37198" lon="0.05706">
        <ele>106</ele>
        <time>2013-02-17T08:59:15.000Z</time>
      </trkpt>
      <trkpt lat="47.37198" lon="0.05703">
        <ele>106</ele>
        <time>2013-02-17T08:59:16.000Z</time>
      </trkpt>
      <trkpt lat="47.37196" lon="0.05699">
        <ele>106</ele>
        <time>2013-02-17T08:59:19.000Z</time>
      </trkpt>
      <trkpt lat="47.37195" lon="0.05697">
        <ele>106</ele>
        <time>2013-02-17T08:59:20.000Z</time>
      </trkpt>
      <trkpt lat="47.37193" lon="0.05691">
        <ele>106</ele>
        <time>2013-02-17T08:59:23.000Z</time>
      </trkpt>
      <trkpt lat="47.37192" lon="0.0569">
        <ele>106</ele>
        <time>2013-02-17T08:59:24.000Z</time>
      </trkpt>
      <trkpt lat="47.37192" lon="0.05685">
        <ele>106</ele>
        <time>2013-02-17T08:59:26.000Z</time>
      </trkpt>
      <trkpt lat="47.37191" lon="0.05682">
        <ele>106</ele>
        <time>2013-02-17T08:59:27.000Z</time>
      </trkpt>
      <trkpt lat="47.3719" lon="0.05677">
        <ele>106</ele>
        <time>2013-02-17T08:59:30.000Z</time>
      </trkpt>
      <trkpt lat="47.37189" lon="0.05675">
        <ele>106</ele>
        <time>2013-02-17T08:59:31.000Z</time>
      </trkpt>
      <trkpt lat="47.37187" lon="0.0567">
        <ele>105</ele>
        <time>2013-02-17T08:59:35.000Z</time>
      </trkpt>
      <trkpt lat="47.37186" lon="0.05668">
        <ele>105</ele>
        <time>2013-02-17T08:59:36.000Z</time>
      </trkpt>
      <trkpt lat="47.37184" lon="0.05663">
        <ele>106</ele>
        <time>2013-02-17T08:59:39.000Z</time>
      </trkpt>
      <trkpt lat="47.37182" lon="0.05662">
        <ele>106</ele>
        <time>2013-02-17T08:59:40.000Z</time>
      </trkpt>
      <trkpt lat="47.3718" lon="0.05659">
        <ele>106</ele>
        <time>2013-02-17T08:59:42.000Z</time>
      </trkpt>
      <trkpt lat="47.3718" lon="0.05655">
        <ele>106</ele>
        <time>2013-02-17T08:59:43.000Z</time>
      </trkpt>
      <trkpt lat="47.37177" lon="0.0565">
        <ele>106</ele>
        <time>2013-02-17T08:59:46.000Z</time>
      </trkpt>
      <trkpt lat="47.37177" lon="0.05647">
        <ele>106</ele>
        <time>2013-02-17T08:59:47.000Z</time>
      </trkpt>
      <trkpt lat="47.37173" lon="0.05643">
        <ele>106</ele>
        <time>2013-02-17T08:59:51.000Z</time>
      </trkpt>
      <trkpt lat="47.37173" lon="0.05641">
        <ele>106</ele>
        <time>2013-02-17T08:59:52.000Z</time>
      </trkpt>
      <trkpt lat="47.3717" lon="0.05638">
        <ele>106</ele>
        <time>2013-02-17T08:59:57.000Z</time>
      </trkpt>
      <trkpt lat="47.37169" lon="0.05636">
        <ele>106</ele>
        <time>2013-02-17T08:59:58.000Z</time>
      </trkpt>
      <trkpt lat="47.37168" lon="0.0563">
        <ele>106</ele>
        <time>2013-02-17T09:00:05.000Z</time>
      </trkpt>
      <trkpt lat="47.37167" lon="0.05629">
        <ele>106</ele>
        <time>2013-02-17T09:00:06.000Z</time>
      </trkpt>
      <trkpt lat="47.37165" lon="0.05623">
        <ele>106</ele>
        <time>2013-02-17T09:00:10.000Z</time>
      </trkpt>
      <trkpt lat="47.37164" lon="0.05622">
        <ele>106</ele>
        <time>2013-02-17T09:00:11.000Z</time>
      </trkpt>
      <trkpt lat="47.37162" lon="0.05617">
        <ele>106</ele>
        <time>2013-02-17T09:00:14.000Z</time>
      </trkpt>
      <trkpt lat="47.37161" lon="0.05615">
        <ele>106</ele>
        <time>2013-02-17T09:00:15.000Z</time>
      </trkpt>
      <trkpt lat="47.37158" lon="0.0561">
        <ele>106</ele>
        <time>2013-02-17T09:00:21.000Z</time>
      </trkpt>
      <trkpt lat="47.37158" lon="0.0561">
        <ele>106</ele>
        <time>2013-02-17T09:00:22.000Z</time>
      </trkpt>
      <trkpt lat="47.37154" lon="0.05608">
        <ele>106</ele>
        <time>2013-02-17T09:00:24.000Z</time>
      </trkpt>
      <trkpt lat="47.37153" lon="0.05607">
        <ele>106</ele>
        <time>2013-02-17T09:00:25.000Z</time>
      </trkpt>
      <trkpt lat="47.3715" lon="0.05603">
        <ele>106</ele>
        <time>2013-02-17T09:00:30.000Z</time>
      </trkpt>
      <trkpt lat="47.37149" lon="0.05602">
        <ele>106</ele>
        <time>2013-02-17T09:00:31.000Z</time>
      </trkpt>
      <trkpt lat="47.37147" lon="0.05596">
        <ele>106</ele>
        <time>2013-02-17T09:00:37.000Z</time>
      </trkpt>
      <trkpt lat="47.37146" lon="0.05593">
        <ele>106</ele>
        <time>2013-02-17T09:00:38.000Z</time>
      </trkpt>
      <trkpt lat="47.37143" lon="0.05588">
        <ele>106</ele>
        <time>2013-02-17T09:00:43.000Z</time>
      </trkpt>
      <trkpt lat="47.37143" lon="0.05588">
        <ele>106</ele>
        <time>2013-02-17T09:00:44.000Z</time>
      </trkpt>
      <trkpt lat="47.3714" lon="0.05584">
        <ele>106</ele>
        <time>2013-02-17T09:00:47.000Z</time>
      </trkpt>
      <trkpt lat="47.3714" lon="0.05582">
        <ele>105</ele>
        <time>2013-02-17T09:00:48.000Z</time>
      </trkpt>
      <trkpt lat="47.37138" lon="0.05576">
        <ele>105</ele>
        <time>2013-02-17T09:00:52.000Z</time>
      </trkpt>
      <trkpt lat="47.37136" lon="0.05573">
        <ele>105</ele>
        <time>2013-02-17T09:00:53.000Z</time>
      </trkpt>
      <trkpt lat="47.37134" lon="0.05568">
        <ele>105</ele>
        <time>2013-02-17T09:00:57.000Z</time>
      </trkpt>
      <trkpt lat="47.37133" lon="0.05567">
        <ele>105</ele>
        <time>2013-02-17T09:00:58.000Z</time>
      </trkpt>
      <trkpt lat="47.37133" lon="0.05563">
        <ele>105</ele>
        <time>2013-02-17T09:01:00.000Z</time>
      </trkpt>
      <trkpt lat="47.37133" lon="0.0556">
        <ele>105</ele>
        <time>2013-02-17T09:01:01.000Z</time>
      </trkpt>
      <trkpt lat="47.37131" lon="0.05556">
        <ele>105</ele>
        <time>2013-02-17T09:01:03.000Z</time>
      </trkpt>
      <trkpt lat="47.3713" lon="0.05555">
        <ele>105</ele>
        <time>2013-02-17T09:01:04.000Z</time>
      </trkpt>
      <trkpt lat="47.37129" lon="0.05552">
        <ele>105</ele>
        <time>2013-02-17T09:01:06.000Z</time>
      </trkpt>
      <trkpt lat="47.37128" lon="0.05549">
        <ele>105</ele>
        <time>2013-02-17T09:01:07.000Z</time>
      </trkpt>
      <trkpt lat="47.37126" lon="0.05544">
        <ele>105</ele>
        <time>2013-02-17T09:01:11.000Z</time>
      </trkpt>
      <trkpt lat="47.37125" lon="0.05542">
        <ele>105</ele>
        <time>2013-02-17T09:01:12.000Z</time>
      </trkpt>
      <trkpt lat="47.37123" lon="0.05538">
        <ele>105</ele>
        <time>2013-02-17T09:01:15.000Z</time>
      </trkpt>
      <trkpt lat="47.37123" lon="0.05536">
        <ele>105</ele>
        <time>2013-02-17T09:01:16.000Z</time>
      </trkpt>
      <trkpt lat="47.37122" lon="0.0553">
        <ele>105</ele>
        <time>2013-02-17T09:01:23.000Z</time>
      </trkpt>
      <trkpt lat="47.37121" lon="0.05529">
        <ele>105</ele>
        <time>2013-02-17T09:01:24.000Z</time>
      </trkpt>
      <trkpt lat="47.37118" lon="0.05525">
        <ele>105</ele>
        <time>2013-02-17T09:01:35.000Z</time>
      </trkpt>
      <trkpt lat="47.37116" lon="0.05525">
        <ele>105</ele>
        <time>2013-02-17T09:01:36.000Z</time>
      </trkpt>
      <trkpt lat="47.37113" lon="0.05521">
        <ele>105</ele>
        <time>2013-02-17T09:01:42.000Z</time>
      </trkpt>
      <trkpt lat="47.37113" lon="0.05519">
        <ele>105</ele>
        <time>2013-02-17T09:01:43.000Z</time>
      </trkpt>
      <trkpt lat="47.3711" lon="0.05515">
        <ele>105</ele>
        <time>2013-02-17T09:01:50.000Z</time>
      </trkpt>
      <trkpt lat="47.37109" lon="0.05513">
        <ele>105</ele>
        <time>2013-02-17T09:01:51.000Z</time>
      </trkpt>
      <trkpt lat="47.37108" lon="0.05509">
        <ele>104</ele>
        <time>2013-02-17T09:01:54.000Z</time>
      </trkpt>
      <trkpt lat="47.37107" lon="0.05506">
        <ele>104</ele>
        <time>2013-02-17T09:01:55.000Z</time>
      </trkpt>
      <trkpt lat="47.37106" lon="0.055">
        <ele>104</ele>
        <time>2013-02-17T09:01:57.000Z</time>
      </trkpt>
      <trkpt lat="47.37105" lon="0.05498">
        <ele>105</ele>
        <time>2013-02-17T09:01:58.000Z</time>
      </trkpt>
      <trkpt lat="47.37105" lon="0.05494">
        <ele>105</ele>
        <time>2013-02-17T09:02:01.000Z</time>
      </trkpt>
      <trkpt lat="47.37104" lon="0.05492">
        <ele>105</ele>
        <time>2013-02-17T09:02:02.000Z</time>
      </trkpt>
      <trkpt lat="47.37104" lon="0.05487">
        <ele>105</ele>
        <time>2013-02-17T09:02:05.000Z</time>
      </trkpt>
      <trkpt lat="47.37103" lon="0.05483">
        <ele>105</ele>
        <time>2013-02-17T09:02:06.000Z</time>
      </trkpt>
      <trkpt lat="47.37102" lon="0.05477">
        <ele>105</ele>
        <time>2013-02-17T09:02:08.000Z</time>
      </trkpt>
      <trkpt lat="47.37102" lon="0.05474">
        <ele>105</ele>
        <time>2013-02-17T09:02:09.000Z</time>
      </trkpt>
      <trkpt lat="47.37101" lon="0.0547">
        <ele>105</ele>
        <time>2013-02-17T09:02:11.000Z</time>
      </trkpt>
      <trkpt lat="47.371" lon="0.05468">
        <ele>105</ele>
        <time>2013-02-17T09:02:12.000Z</time>
      </trkpt>
      <trkpt lat="47.37098" lon="0.05463">
        <ele>105</ele>
        <time>2013-02-17T09:02:16.000Z</time>
      </trkpt>
      <trkpt lat="47.37098" lon="0.05461">
        <ele>105</ele>
        <time>2013-02-17T09:02:17.000Z</time>
      </trkpt>
      <trkpt lat="47.37096" lon="0.05455">
        <ele>105</ele>
        <time>2013-02-17T09:02:19.000Z</time>
      </trkpt>
      <trkpt lat="47.37096" lon="0.05453">
        <ele>105</ele>
        <time>2013-02-17T09:02:20.000Z</time>
      </trkpt>
      <trkpt lat="47.37097" lon="0.05447">
        <ele>106</ele>
        <time>2013-02-17T09:02:25.000Z</time>
      </trkpt>
      <trkpt lat="47.37096" lon="0.05446">
        <ele>106</ele>
        <time>2013-02-17T09:02:26.000Z</time>
      </trkpt>
      <trkpt lat="47.37094" lon="0.05442">
        <ele>106</ele>
        <time>2013-02-17T09:02:28.000Z</time>
      </trkpt>
      <trkpt lat="47.37093" lon="0.0544">
        <ele>106</ele>
        <time>2013-02-17T09:02:29.000Z</time>
      </trkpt>
      <trkpt lat="47.37093" lon="0.05435">
        <ele>105</ele>
        <time>2013-02-17T09:02:32.000Z</time>
      </trkpt>
      <trkpt lat="47.37092" lon="0.05433">
        <ele>105</ele>
        <time>2013-02-17T09:02:33.000Z</time>
      </trkpt>
      <trkpt lat="47.37091" lon="0.05427">
        <ele>105</ele>
        <time>2013-02-17T09:02:38.000Z</time>
      </trkpt>
      <trkpt lat="47.37091" lon="0.05425">
        <ele>105</ele>
        <time>2013-02-17T09:02:39.000Z</time>
      </trkpt>
      <trkpt lat="47.37089" lon="0.05421">
        <ele>105</ele>
        <time>2013-02-17T09:02:42.000Z</time>
      </trkpt>
      <trkpt lat="47.37087" lon="0.05419">
        <ele>105</ele>
        <time>2013-02-17T09:02:43.000Z</time>
      </trkpt>
      <trkpt lat="47.37086" lon="0.05414">
        <ele>105</ele>
        <time>2013-02-17T09:02:47.000Z</time>
      </trkpt>
      <trkpt lat="47.37085" lon="0.05412">
        <ele>105</ele>
        <time>2013-02-17T09:02:48.000Z</time>
      </trkpt>
      <trkpt lat="47.37082" lon="0.05407">
        <ele>104</ele>
        <time>2013-02-17T09:02:52.000Z</time>
      </trkpt>
      <trkpt lat="47.37082" lon="0.05406">
        <ele>104</ele>
        <time>2013-02-17T09:02:53.000Z</time>
      </trkpt>
      <trkpt lat="47.37081" lon="0.05399">
        <ele>103</ele>
        <time>2013-02-17T09:02:58.000Z</time>
      </trkpt>
      <trkpt lat="47.37081" lon="0.05397">
        <ele>103</ele>
        <time>2013-02-17T09:02:59.000Z</time>
      </trkpt>
      <trkpt lat="47.37079" lon="0.05393">
        <ele>103</ele>
        <time>2013-02-17T09:03:05.000Z</time>
      </trkpt>
      <trkpt lat="47.37078" lon="0.05391">
        <ele>103</ele>
        <time>2013-02-17T09:03:06.000Z</time>
      </trkpt>
      <trkpt lat="47.37077" lon="0.05386">
        <ele>103</ele>
        <time>2013-02-17T09:03:09.000Z</time>
      </trkpt>
      <trkpt lat="47.37077" lon="0.05384">
        <ele>103</ele>
        <time>2013-02-17T09:03:10.000Z</time>
      </trkpt>
      <trkpt lat="47.37075" lon="0.0538">
        <ele>103</ele>
        <time>2013-02-17T09:03:12.000Z</time>
      </trkpt>
      <trkpt lat="47.37075" lon="0.05377">
        <ele>103</ele>
        <time>2013-02-17T09:03:13.000Z</time>
      </trkpt>
      <trkpt lat="47.37074" lon="0.05372">
        <ele>103</ele>
        <time>2013-02-17T09:03:19.000Z</time>
      </trkpt>
      <trkpt lat="47.37073" lon="0.05371">
        <ele>103</ele>
        <time>2013-02-17T09:03:20.000Z</time>
      </trkpt>
      <trkpt lat="47.3707" lon="0.05366">
        <ele>103</ele>
        <time>2013-02-17T09:03:25.000Z</time>
      </trkpt>
      <trkpt lat="47.3707" lon="0.05364">
        <ele>103</ele>
        <time>2013-02-17T09:03:26.000Z</time>
      </trkpt>
      <trkpt lat="47.3707" lon="0.05359">
        <ele>103</ele>
        <time>2013-02-17T09:03:28.000Z</time>
      </trkpt>
      <trkpt lat="47.3707" lon="0.05356">
        <ele>103</ele>
        <time>2013-02-17T09:03:29.000Z</time>
      </trkpt>
      <trkpt lat="47.37069" lon="0.05353">
        <ele>103</ele>
        <time>2013-02-17T09:03:30.000Z</time>
      </trkpt>
      <trkpt lat="47.37068" lon="0.05349">
        <ele>103</ele>
        <time>2013-02-17T09:03:31.000Z</time>
      </trkpt>
      <trkpt lat="47.37067" lon="0.05343">
        <ele>103</ele>
        <time>2013-02-17T09:03:33.000Z</time>
      </trkpt>
      <trkpt lat="47.37067" lon="0.05341">
        <ele>103</ele>
        <time>2013-02-17T09:03:34.000Z</time>
      </trkpt>
      <trkpt lat="47.37065" lon="0.05337">
        <ele>103</ele>
        <time>2013-02-17T09:03:36.000Z</time>
      </trkpt>
      <trkpt lat="47.37064" lon="0.05335">
        <ele>103</ele>
        <time>2013-02-17T09:03:37.000Z</time>
      </trkpt>
      <trkpt lat="47.37062" lon="0.05329">
        <ele>102</ele>
        <time>2013-02-17T09:03:42.000Z</time>
      </trkpt>
      <trkpt lat="47.37061" lon="0.05327">
        <ele>102</ele>
        <time>2013-02-17T09:03:43.000Z</time>
      </trkpt>
      <trkpt lat="47.3706" lon="0.05321">
        <ele>102</ele>
        <time>2013-02-17T09:03:47.000Z</time>
      </trkpt>
      <trkpt lat="47.37059" lon="0.05319">
        <ele>102</ele>
        <time>2013-02-17T09:03:48.000Z</time>
      </trkpt>
      <trkpt lat="47.37057" lon="0.05313">
        <ele>102</ele>
        <time>2013-02-17T09:03:54.000Z</time>
      </trkpt>
      <trkpt lat="47.37056" lon="0.0531">
        <ele>102</ele>
        <time>2013-02-17T09:03:55.000Z</time>
      </trkpt>
      <trkpt lat="47.37055" lon="0.05305">
        <ele>102</ele>
        <time>2013-02-17T09:03:58.000Z</time>
      </trkpt>
      <trkpt lat="47.37054" lon="0.05302">
        <ele>102</ele>
        <time>2013-02-17T09:03:59.000Z</time>
      </trkpt>
      <trkpt lat="47.37052" lon="0.05296">
        <ele>101</ele>
        <time>2013-02-17T09:04:02.000Z</time>
      </trkpt>
      <trkpt lat="47.37052" lon="0.05294">
        <ele>101</ele>
        <time>2013-02-17T09:04:03.000Z</time>
      </trkpt>
      <trkpt lat="47.37051" lon="0.05289">
        <ele>101</ele>
        <time>2013-02-17T09:04:07.000Z</time>
      </trkpt>
      <trkpt lat="47.3705" lon="0.05286">
        <ele>101</ele>
        <time>2013-02-17T09:04:08.000Z</time>
      </trkpt>
      <trkpt lat="47.3705" lon="0.05282">
        <ele>101</ele>
        <time>2013-02-17T09:04:10.000Z</time>
      </trkpt>
      <trkpt lat="47.3705" lon="0.05279">
        <ele>101</ele>
        <time>2013-02-17T09:04:11.000Z</time>
      </trkpt>
      <trkpt lat="47.37049" lon="0.05276">
        <ele>101</ele>
        <time>2013-02-17T09:04:12.000Z</time>
      </trkpt>
      <trkpt lat="47.37049" lon="0.05272">
        <ele>101</ele>
        <time>2013-02-17T09:04:13.000Z</time>
      </trkpt>
      <trkpt lat="47.37048" lon="0.05266">
        <ele>101</ele>
        <time>2013-02-17T09:04:16.000Z</time>
      </trkpt>
      <trkpt lat="47.37047" lon="0.05265">
        <ele>101</ele>
        <time>2013-02-17T09:04:17.000Z</time>
      </trkpt>
      <trkpt lat="47.37045" lon="0.05259">
        <ele>101</ele>
        <time>2013-02-17T09:04:20.000Z</time>
      </trkpt>
      <trkpt lat="47.37045" lon="0.05257">
        <ele>101</ele>
        <time>2013-02-17T09:04:21.000Z</time>
      </trkpt>
      <trkpt lat="47.37045" lon="0.05251">
        <ele>101</ele>
        <time>2013-02-17T09:04:25.000Z</time>
      </trkpt>
      <trkpt lat="47.37045" lon="0.05249">
        <ele>101</ele>
        <time>2013-02-17T09:04:26.000Z</time>
      </trkpt>
      <trkpt lat="47.37046" lon="0.05244">
        <ele>101</ele>
        <time>2013-02-17T09:04:30.000Z</time>
      </trkpt>
      <trkpt lat="47.37046" lon="0.05241">
        <ele>101</ele>
        <time>2013-02-17T09:04:31.000Z</time>
      </trkpt>
      <trkpt lat="47.37045" lon="0.05235">
        <ele>101</ele>
        <time>2013-02-17T09:04:34.000Z</time>
      </trkpt>
      <trkpt lat="47.37046" lon="0.05234">
        <ele>101</ele>
        <time>2013-02-17T09:04:35.000Z</time>
      </trkpt>
      <trkpt lat="47.37045" lon="0.05229">
        <ele>101</ele>
        <time>2013-02-17T09:04:38.000Z</time>
      </trkpt>
      <trkpt lat="47.37044" lon="0.05227">
        <ele>101</ele>
        <time>2013-02-17T09:04:39.000Z</time>
      </trkpt>
      <trkpt lat="47.37043" lon="0.05222">
        <ele>101</ele>
        <time>2013-02-17T09:04:42.000Z</time>
      </trkpt>
      <trkpt lat="47.37043" lon="0.0522">
        <ele>101</ele>
        <time>2013-02-17T09:04:43.000Z</time>
      </trkpt>
      <trkpt lat="47.37041" lon="0.05213">
        <ele>100</ele>
        <time>2013-02-17T09:04:49.000Z</time>
      </trkpt>
      <trkpt lat="47.37041" lon="0.05212">
        <ele>100</ele>
        <time>2013-02-17T09:04:50.000Z</time>
      </trkpt>
      <trkpt lat="47.37041" lon="0.05206">
        <ele>100</ele>
        <time>2013-02-17T09:04:53.000Z</time>
      </trkpt>
      <trkpt lat="47.37041" lon="0.05204">
        <ele>100</ele>
        <time>2013-02-17T09:04:54.000Z</time>
      </trkpt>
      <trkpt lat="47.37039" lon="0.052">
        <ele>100</ele>
        <time>2013-02-17T09:04:56.000Z</time>
      </trkpt>
      <trkpt lat="47.37039" lon="0.05198">
        <ele>100</ele>
        <time>2013-02-17T09:04:57.000Z</time>
      </trkpt>
      <trkpt lat="47.37038" lon="0.05192">
        <ele>100</ele>
        <time>2013-02-17T09:05:01.000Z</time>
      </trkpt>
      <trkpt lat="47.37038" lon="0.0519">
        <ele>100</ele>
        <time>2013-02-17T09:05:02.000Z</time>
      </trkpt>
      <trkpt lat="47.37038" lon="0.05184">
        <ele>100</ele>
        <time>2013-02-17T09:05:06.000Z</time>
      </trkpt>
      <trkpt lat="47.37038" lon="0.05182">
        <ele>100</ele>
        <time>2013-02-17T09:05:07.000Z</time>
      </trkpt>
      <trkpt lat="47.37038" lon="0.05176">
        <ele>100</ele>
        <time>2013-02-17T09:05:11.000Z</time>
      </trkpt>
      <trkpt lat="47.37038" lon="0.05174">
        <ele>100</ele>
        <time>2013-02-17T09:05:12.000Z</time>
      </trkpt>
      <trkpt lat="47.37039" lon="0.05169">
        <ele>100</ele>
        <time>2013-02-17T09:05:16.000Z</time>
      </trkpt>
      <trkpt lat="47.37038" lon="0.05167">
        <ele>100</ele>
        <time>2013-02-17T09:05:17.000Z</time>
      </trkpt>
      <trkpt lat="47.37037" lon="0.05161">
        <ele>101</ele>
        <time>2013-02-17T09:05:20.000Z</time>
      </trkpt>
      <trkpt lat="47.37037" lon="0.05159">
        <ele>101</ele>
        <time>2013-02-17T09:05:21.000Z</time>
      </trkpt>
      <trkpt lat="47.37036" lon="0.05153">
        <ele>101</ele>
        <time>2013-02-17T09:05:24.000Z</time>
      </trkpt>
      <trkpt lat="47.37036" lon="0.05151">
        <ele>101</ele>
        <time>2013-02-17T09:05:25.000Z</time>
      </trkpt>
      <trkpt lat="47.37035" lon="0.05146">
        <ele>101</ele>
        <time>2013-02-17T09:05:28.000Z</time>
      </trkpt>
      <trkpt lat="47.37035" lon="0.05144">
        <ele>101</ele>
        <time>2013-02-17T09:05:29.000Z</time>
      </trkpt>
      <trkpt lat="47.37035" lon="0.05138">
        <ele>101</ele>
        <time>2013-02-17T09:05:32.000Z</time>
      </trkpt>
      <trkpt lat="47.37035" lon="0.05136">
        <ele>101</ele>
        <time>2013-02-17T09:05:33.000Z</time>
      </trkpt>
      <trkpt lat="47.37035" lon="0.0513">
        <ele>101</ele>
        <time>2013-02-17T09:05:37.000Z</time>
      </trkpt>
      <trkpt lat="47.37034" lon="0.05128">
        <ele>101</ele>
        <time>2013-02-17T09:05:38.000Z</time>
      </trkpt>
      <trkpt lat="47.37034" lon="0.05124">
        <ele>101</ele>
        <time>2013-02-17T09:05:42.000Z</time>
      </trkpt>
      <trkpt lat="47.37033" lon="0.05121">
        <ele>101</ele>
        <time>2013-02-17T09:05:43.000Z</time>
      </trkpt>
      <trkpt lat="47.37033" lon="0.05115">
        <ele>102</ele>
        <time>2013-02-17T09:05:49.000Z</time>
      </trkpt>
      <trkpt lat="47.37032" lon="0.05114">
        <ele>102</ele>
        <time>2013-02-17T09:05:50.000Z</time>
      </trkpt>
      <trkpt lat="47.37031" lon="0.05109">
        <ele>102</ele>
        <time>2013-02-17T09:05:54.000Z</time>
      </trkpt>
      <trkpt lat="47.37031" lon="0.05107">
        <ele>102</ele>
        <time>2013-02-17T09:05:55.000Z</time>
      </trkpt>
      <trkpt lat="47.3703" lon="0.05101">
        <ele>102</ele>
        <time>2013-02-17T09:05:59.000Z</time>
      </trkpt>
      <trkpt lat="47.37029" lon="0.05099">
        <ele>102</ele>
        <time>2013-02-17T09:06:00.000Z</time>
      </trkpt>
      <trkpt lat="47.37029" lon="0.05093">
        <ele>102</ele>
        <time>2013-02-17T09:06:03.000Z</time>
      </trkpt>
      <trkpt lat="47.37029" lon="0.05091">
        <ele>102</ele>
        <time>2013-02-17T09:06:04.000Z</time>
      </trkpt>
      <trkpt lat="47.37029" lon="0.05085">
        <ele>102</ele>
        <time>2013-02-17T09:06:07.000Z</time>
      </trkpt>
      <trkpt lat="47.37028" lon="0.05083">
        <ele>102</ele>
        <time>2013-02-17T09:06:08.000Z</time>
      </trkpt>
      <trkpt lat="47.37027" lon="0.05079">
        <ele>102</ele>
        <time>2013-02-17T09:06:10.000Z</time>
      </trkpt>
      <trkpt lat="47.37026" lon="0.05077">
        <ele>102</ele>
        <time>2013-02-17T09:06:11.000Z</time>
      </trkpt>
      <trkpt lat="47.37025" lon="0.05072">
        <ele>102</ele>
        <time>2013-02-17T09:06:15.000Z</time>
      </trkpt>
      <trkpt lat="47.37024" lon="0.0507">
        <ele>102</ele>
        <time>2013-02-17T09:06:16.000Z</time>
      </trkpt>
      <trkpt lat="47.37023" lon="0.05065">
        <ele>102</ele>
        <time>2013-02-17T09:06:19.000Z</time>
      </trkpt>
      <trkpt lat="47.37022" lon="0.05063">
        <ele>102</ele>
        <time>2013-02-17T09:06:20.000Z</time>
      </trkpt>
      <trkpt lat="47.37022" lon="0.05057">
        <ele>102</ele>
        <time>2013-02-17T09:06:23.000Z</time>
      </trkpt>
      <trkpt lat="47.37021" lon="0.05054">
        <ele>102</ele>
        <time>2013-02-17T09:06:24.000Z</time>
      </trkpt>
      <trkpt lat="47.37021" lon="0.05049">
        <ele>102</ele>
        <time>2013-02-17T09:06:27.000Z</time>
      </trkpt>
      <trkpt lat="47.37021" lon="0.05048">
        <ele>102</ele>
        <time>2013-02-17T09:06:28.000Z</time>
      </trkpt>
      <trkpt lat="47.37019" lon="0.05041">
        <ele>102</ele>
        <time>2013-02-17T09:06:31.000Z</time>
      </trkpt>
      <trkpt lat="47.37019" lon="0.05038">
        <ele>102</ele>
        <time>2013-02-17T09:06:32.000Z</time>
      </trkpt>
      <trkpt lat="47.37017" lon="0.05032">
        <ele>102</ele>
        <time>2013-02-17T09:06:36.000Z</time>
      </trkpt>
      <trkpt lat="47.37017" lon="0.05031">
        <ele>102</ele>
        <time>2013-02-17T09:06:37.000Z</time>
      </trkpt>
      <trkpt lat="47.37017" lon="0.05024">
        <ele>102</ele>
        <time>2013-02-17T09:06:42.000Z</time>
      </trkpt>
      <trkpt lat="47.37018" lon="0.05023">
        <ele>102</ele>
        <time>2013-02-17T09:06:43.000Z</time>
      </trkpt>
      <trkpt lat="47.37017" lon="0.05017">
        <ele>102</ele>
        <time>2013-02-17T09:06:47.000Z</time>
      </trkpt>
      <trkpt lat="47.37017" lon="0.05015">
        <ele>102</ele>
        <time>2013-02-17T09:06:48.000Z</time>
      </trkpt>
      <trkpt lat="47.37014" lon="0.0501">
        <ele>102</ele>
        <time>2013-02-17T09:06:52.000Z</time>
      </trkpt>
      <trkpt lat="47.37014" lon="0.05008">
        <ele>102</ele>
        <time>2013-02-17T09:06:53.000Z</time>
      </trkpt>
      <trkpt lat="47.37014" lon="0.05002">
        <ele>102</ele>
        <time>2013-02-17T09:06:59.000Z</time>
      </trkpt>
      <trkpt lat="47.37013" lon="0.05001">
        <ele>102</ele>
        <time>2013-02-17T09:07:00.000Z</time>
      </trkpt>
      <trkpt lat="47.37012" lon="0.04996">
        <ele>102</ele>
        <time>2013-02-17T09:07:02.000Z</time>
      </trkpt>
      <trkpt lat="47.37012" lon="0.04994">
        <ele>102</ele>
        <time>2013-02-17T09:07:03.000Z</time>
      </trkpt>
      <trkpt lat="47.37011" lon="0.04988">
        <ele>102</ele>
        <time>2013-02-17T09:07:07.000Z</time>
      </trkpt>
      <trkpt lat="47.3701" lon="0.04986">
        <ele>102</ele>
        <time>2013-02-17T09:07:08.000Z</time>
      </trkpt>
      <trkpt lat="47.3701" lon="0.0498">
        <ele>102</ele>
        <time>2013-02-17T09:07:11.000Z</time>
      </trkpt>
      <trkpt lat="47.37009" lon="0.04978">
        <ele>102</ele>
        <time>2013-02-17T09:07:12.000Z</time>
      </trkpt>
      <trkpt lat="47.37008" lon="0.04973">
        <ele>102</ele>
        <time>2013-02-17T09:07:16.000Z</time>
      </trkpt>
      <trkpt lat="47.37007" lon="0.04971">
        <ele>102</ele>
        <time>2013-02-17T09:07:17.000Z</time>
      </trkpt>
      <trkpt lat="47.37006" lon="0.04965">
        <ele>102</ele>
        <time>2013-02-17T09:07:21.000Z</time>
      </trkpt>
      <trkpt lat="47.37006" lon="0.04965">
        <ele>102</ele>
        <time>2013-02-17T09:07:22.000Z</time>
      </trkpt>
      <trkpt lat="47.37005" lon="0.04958">
        <ele>102</ele>
        <time>2013-02-17T09:07:28.000Z</time>
      </trkpt>
      <trkpt lat="47.37004" lon="0.04958">
        <ele>102</ele>
        <time>2013-02-17T09:07:29.000Z</time>
      </trkpt>
      <trkpt lat="47.37005" lon="0.04952">
        <ele>102</ele>
        <time>2013-02-17T09:07:41.000Z</time>
      </trkpt>
      <trkpt lat="47.37005" lon="0.04952">
        <ele>102</ele>
        <time>2013-02-17T09:07:42.000Z</time>
      </trkpt>
      <trkpt lat="47.37006" lon="0.04958">
        <ele>102</ele>
        <time>2013-02-17T09:08:12.000Z</time>
      </trkpt>
      <trkpt lat="47.37007" lon="0.04958">
        <ele>102</ele>
        <time>2013-02-17T09:08:13.000Z</time>
      </trkpt>
      <trkpt lat="47.37008" lon="0.04964">
        <ele>102</ele>
        <time>2013-02-17T09:08:25.000Z</time>
      </trkpt>
      <trkpt lat="47.37008" lon="0.04965">
        <ele>102</ele>
        <time>2013-02-17T09:08:27.000Z</time>
      </trkpt>
      <trkpt lat="47.37012" lon="0.04962">
        <ele>102</ele>
        <time>2013-02-17T09:09:18.000Z</time>
      </trkpt>
      <trkpt lat="47.37013" lon="0.0496">
        <ele>102</ele>
        <time>2013-02-17T09:09:19.000Z</time>
      </trkpt>
      <trkpt lat="47.3701" lon="0.04965">
        <ele>102</ele>
        <time>2013-02-17T09:09:33.000Z</time>
      </trkpt>
      <trkpt lat="47.3701" lon="0.04966">
        <ele>102</ele>
        <time>2013-02-17T09:09:34.000Z</time>
      </trkpt>
      <trkpt lat="47.37006" lon="0.04967">
        <ele>102</ele>
        <time>2013-02-17T09:10:41.000Z</time>
      </trkpt>
      <trkpt lat="47.37005" lon="0.04967">
        <ele>102</ele>
        <time>2013-02-17T09:10:42.000Z</time>
      </trkpt>
      <trkpt lat="47.37003" lon="0.04972">
        <ele>102</ele>
        <time>2013-02-17T09:11:29.000Z</time>
      </trkpt>
      <trkpt lat="47.37003" lon="0.04973">
        <ele>102</ele>
        <time>2013-02-17T09:11:30.000Z</time>
      </trkpt>
      <trkpt lat="47.37006" lon="0.04972">
        <ele>102</ele>
        <time>2013-02-17T09:11:52.000Z</time>
      </trkpt>
      <trkpt lat="47.37007" lon="0.0497">
        <ele>102</ele>
        <time>2013-02-17T09:11:53.000Z</time>
      </trkpt>
      <trkpt lat="47.37006" lon="0.04963">
        <ele>102</ele>
        <time>2013-02-17T09:12:08.000Z</time>
      </trkpt>
      <trkpt lat="47.37005" lon="0.04962">
        <ele>102</ele>
        <time>2013-02-17T09:12:09.000Z</time>
      </trkpt>
      <trkpt lat="47.37007" lon="0.04956">
        <ele>102</ele>
        <time>2013-02-17T09:12:35.000Z</time>
      </trkpt>
      <trkpt lat="47.37007" lon="0.04955">
        <ele>102</ele>
        <time>2013-02-17T09:12:36.000Z</time>
      </trkpt>
      <trkpt lat="47.37011" lon="0.04951">
        <ele>102</ele>
        <time>2013-02-17T09:14:00.000Z</time>
      </trkpt>
      <trkpt lat="47.37011" lon="0.0495">
        <ele>102</ele>
        <time>2013-02-17T09:14:01.000Z</time>
      </trkpt>
      <trkpt lat="47.37012" lon="0.04945">
        <ele>102</ele>
        <time>2013-02-17T09:14:06.000Z</time>
      </trkpt>
      <trkpt lat="47.37012" lon="0.04943">
        <ele>102</ele>
        <time>2013-02-17T09:14:07.000Z</time>
      </trkpt>
      <trkpt lat="47.37013" lon="0.04937">
        <ele>102</ele>
        <time>2013-02-17T09:14:11.000Z</time>
      </trkpt>
      <trkpt lat="47.37013" lon="0.04936">
        <ele>102</ele>
        <time>2013-02-17T09:14:12.000Z</time>
      </trkpt>
      <trkpt lat="47.37015" lon="0.04932">
        <ele>102</ele>
        <time>2013-02-17T09:14:16.000Z</time>
      </trkpt>
      <trkpt lat="47.37016" lon="0.04928">
        <ele>102</ele>
        <time>2013-02-17T09:14:17.000Z</time>
      </trkpt>
      <trkpt lat="47.3702" lon="0.04927">
        <ele>102</ele>
        <time>2013-02-17T09:14:19.000Z</time>
      </trkpt>
      <trkpt lat="47.37021" lon="0.04926">
        <ele>102</ele>
        <time>2013-02-17T09:14:20.000Z</time>
      </trkpt>
      <trkpt lat="47.37024" lon="0.04921">
        <ele>102</ele>
        <time>2013-02-17T09:14:22.000Z</time>
      </trkpt>
      <trkpt lat="47.37025" lon="0.04921">
        <ele>102</ele>
        <time>2013-02-17T09:14:23.000Z</time>
      </trkpt>
      <trkpt lat="47.37028" lon="0.04918">
        <ele>102</ele>
        <time>2013-02-17T09:14:28.000Z</time>
      </trkpt>
      <trkpt lat="47.37029" lon="0.04917">
        <ele>102</ele>
        <time>2013-02-17T09:14:29.000Z</time>
      </trkpt>
      <trkpt lat="47.37031" lon="0.04912">
        <ele>102</ele>
        <time>2013-02-17T09:14:31.000Z</time>
      </trkpt>
      <trkpt lat="47.37032" lon="0.0491">
        <ele>102</ele>
        <time>2013-02-17T09:14:32.000Z</time>
      </trkpt>
      <trkpt lat="47.37031" lon="0.04905">
        <ele>102</ele>
        <time>2013-02-17T09:14:36.000Z</time>
      </trkpt>
      <trkpt lat="47.37031" lon="0.04904">
        <ele>102</ele>
        <time>2013-02-17T09:14:37.000Z</time>
      </trkpt>
      <trkpt lat="47.37034" lon="0.049">
        <ele>103</ele>
        <time>2013-02-17T09:14:40.000Z</time>
      </trkpt>
      <trkpt lat="47.37034" lon="0.04899">
        <ele>103</ele>
        <time>2013-02-17T09:14:41.000Z</time>
      </trkpt>
      <trkpt lat="47.37036" lon="0.04893">
        <ele>103</ele>
        <time>2013-02-17T09:14:43.000Z</time>
      </trkpt>
      <trkpt lat="47.37037" lon="0.04892">
        <ele>103</ele>
        <time>2013-02-17T09:14:44.000Z</time>
      </trkpt>
      <trkpt lat="47.37039" lon="0.04886">
        <ele>103</ele>
        <time>2013-02-17T09:14:48.000Z</time>
      </trkpt>
      <trkpt lat="47.3704" lon="0.04886">
        <ele>103</ele>
        <time>2013-02-17T09:14:49.000Z</time>
      </trkpt>
      <trkpt lat="47.37044" lon="0.04883">
        <ele>103</ele>
        <time>2013-02-17T09:14:53.000Z</time>
      </trkpt>
      <trkpt lat="47.37045" lon="0.04881">
        <ele>103</ele>
        <time>2013-02-17T09:14:54.000Z</time>
      </trkpt>
      <trkpt lat="47.37047" lon="0.04877">
        <ele>103</ele>
        <time>2013-02-17T09:14:57.000Z</time>
      </trkpt>
      <trkpt lat="47.37047" lon="0.04876">
        <ele>103</ele>
        <time>2013-02-17T09:14:58.000Z</time>
      </trkpt>
      <trkpt lat="47.3705" lon="0.04871">
        <ele>103</ele>
        <time>2013-02-17T09:15:04.000Z</time>
      </trkpt>
      <trkpt lat="47.37051" lon="0.0487">
        <ele>103</ele>
        <time>2013-02-17T09:15:05.000Z</time>
      </trkpt>
      <trkpt lat="47.37051" lon="0.04864">
        <ele>103</ele>
        <time>2013-02-17T09:15:10.000Z</time>
      </trkpt>
      <trkpt lat="47.37051" lon="0.0486">
        <ele>103</ele>
        <time>2013-02-17T09:15:11.000Z</time>
      </trkpt>
      <trkpt lat="47.37049" lon="0.04854">
        <ele>103</ele>
        <time>2013-02-17T09:15:13.000Z</time>
      </trkpt>
      <trkpt lat="47.37047" lon="0.04853">
        <ele>103</ele>
        <time>2013-02-17T09:15:14.000Z</time>
      </trkpt>
      <trkpt lat="47.37045" lon="0.04847">
        <ele>103</ele>
        <time>2013-02-17T09:15:18.000Z</time>
      </trkpt>
      <trkpt lat="47.37044" lon="0.04847">
        <ele>103</ele>
        <time>2013-02-17T09:15:19.000Z</time>
      </trkpt>
      <trkpt lat="47.3704" lon="0.04845">
        <ele>103</ele>
        <time>2013-02-17T09:15:23.000Z</time>
      </trkpt>
      <trkpt lat="47.37039" lon="0.04844">
        <ele>103</ele>
        <time>2013-02-17T09:15:24.000Z</time>
      </trkpt>
      <trkpt lat="47.37036" lon="0.04841">
        <ele>103</ele>
        <time>2013-02-17T09:15:27.000Z</time>
      </trkpt>
      <trkpt lat="47.37034" lon="0.0484">
        <ele>103</ele>
        <time>2013-02-17T09:15:28.000Z</time>
      </trkpt>
      <trkpt lat="47.37031" lon="0.04839">
        <ele>103</ele>
        <time>2013-02-17T09:15:32.000Z</time>
      </trkpt>
      <trkpt lat="47.3703" lon="0.04838">
        <ele>103</ele>
        <time>2013-02-17T09:15:33.000Z</time>
      </trkpt>
      <trkpt lat="47.37026" lon="0.04834">
        <ele>103</ele>
        <time>2013-02-17T09:15:37.000Z</time>
      </trkpt>
      <trkpt lat="47.37025" lon="0.04833">
        <ele>103</ele>
        <time>2013-02-17T09:15:38.000Z</time>
      </trkpt>
      <trkpt lat="47.37021" lon="0.04831">
        <ele>103</ele>
        <time>2013-02-17T09:15:44.000Z</time>
      </trkpt>
      <trkpt lat="47.37021" lon="0.0483">
        <ele>103</ele>
        <time>2013-02-17T09:15:45.000Z</time>
      </trkpt>
      <trkpt lat="47.37017" lon="0.04829">
        <ele>103</ele>
        <time>2013-02-17T09:15:48.000Z</time>
      </trkpt>
      <trkpt lat="47.37015" lon="0.0483">
        <ele>103</ele>
        <time>2013-02-17T09:15:49.000Z</time>
      </trkpt>
      <trkpt lat="47.37011" lon="0.04832">
        <ele>103</ele>
        <time>2013-02-17T09:15:52.000Z</time>
      </trkpt>
      <trkpt lat="47.3701" lon="0.04832">
        <ele>103</ele>
        <time>2013-02-17T09:15:53.000Z</time>
      </trkpt>
      <trkpt lat="47.37007" lon="0.04835">
        <ele>103</ele>
        <time>2013-02-17T09:15:57.000Z</time>
      </trkpt>
      <trkpt lat="47.37005" lon="0.04833">
        <ele>103</ele>
        <time>2013-02-17T09:15:58.000Z</time>
      </trkpt>
      <trkpt lat="47.37001" lon="0.04832">
        <ele>103</ele>
        <time>2013-02-17T09:16:02.000Z</time>
      </trkpt>
      <trkpt lat="47.37001" lon="0.04832">
        <ele>103</ele>
        <time>2013-02-17T09:16:03.000Z</time>
      </trkpt>
      <trkpt lat="47.36997" lon="0.04829">
        <ele>103</ele>
        <time>2013-02-17T09:16:08.000Z</time>
      </trkpt>
      <trkpt lat="47.36996" lon="0.04829">
        <ele>103</ele>
        <time>2013-02-17T09:16:09.000Z</time>
      </trkpt>
      <trkpt lat="47.36992" lon="0.0483">
        <ele>103</ele>
        <time>2013-02-17T09:16:14.000Z</time>
      </trkpt>
      <trkpt lat="47.36991" lon="0.0483">
        <ele>103</ele>
        <time>2013-02-17T09:16:15.000Z</time>
      </trkpt>
      <trkpt lat="47.36988" lon="0.04826">
        <ele>103</ele>
        <time>2013-02-17T09:16:17.000Z</time>
      </trkpt>
      <trkpt lat="47.36987" lon="0.04825">
        <ele>103</ele>
        <time>2013-02-17T09:16:18.000Z</time>
      </trkpt>
      <trkpt lat="47.36984" lon="0.04822">
        <ele>103</ele>
        <time>2013-02-17T09:16:21.000Z</time>
      </trkpt>
      <trkpt lat="47.36983" lon="0.04821">
        <ele>103</ele>
        <time>2013-02-17T09:16:22.000Z</time>
      </trkpt>
      <trkpt lat="47.3698" lon="0.04819">
        <ele>102</ele>
        <time>2013-02-17T09:16:24.000Z</time>
      </trkpt>
      <trkpt lat="47.36979" lon="0.04818">
        <ele>102</ele>
        <time>2013-02-17T09:16:25.000Z</time>
      </trkpt>
      <trkpt lat="47.36975" lon="0.04815">
        <ele>102</ele>
        <time>2013-02-17T09:16:28.000Z</time>
      </trkpt>
      <trkpt lat="47.36974" lon="0.04815">
        <ele>102</ele>
        <time>2013-02-17T09:16:29.000Z</time>
      </trkpt>
      <trkpt lat="47.3697" lon="0.04814">
        <ele>102</ele>
        <time>2013-02-17T09:16:32.000Z</time>
      </trkpt>
      <trkpt lat="47.36969" lon="0.04814">
        <ele>102</ele>
        <time>2013-02-17T09:16:33.000Z</time>
      </trkpt>
      <trkpt lat="47.36966" lon="0.04814">
        <ele>102</ele>
        <time>2013-02-17T09:16:35.000Z</time>
      </trkpt>
      <trkpt lat="47.36964" lon="0.04814">
        <ele>102</ele>
        <time>2013-02-17T09:16:36.000Z</time>
      </trkpt>
      <trkpt lat="47.3696" lon="0.04815">
        <ele>102</ele>
        <time>2013-02-17T09:16:38.000Z</time>
      </trkpt>
      <trkpt lat="47.36959" lon="0.04815">
        <ele>102</ele>
        <time>2013-02-17T09:16:39.000Z</time>
      </trkpt>
      <trkpt lat="47.36955" lon="0.04812">
        <ele>102</ele>
        <time>2013-02-17T09:16:43.000Z</time>
      </trkpt>
      <trkpt lat="47.36954" lon="0.04811">
        <ele>102</ele>
        <time>2013-02-17T09:16:44.000Z</time>
      </trkpt>
      <trkpt lat="47.3695" lon="0.0481">
        <ele>102</ele>
        <time>2013-02-17T09:16:47.000Z</time>
      </trkpt>
      <trkpt lat="47.36949" lon="0.04809">
        <ele>102</ele>
        <time>2013-02-17T09:16:48.000Z</time>
      </trkpt>
      <trkpt lat="47.36946" lon="0.04807">
        <ele>102</ele>
        <time>2013-02-17T09:16:50.000Z</time>
      </trkpt>
      <trkpt lat="47.36944" lon="0.04806">
        <ele>102</ele>
        <time>2013-02-17T09:16:51.000Z</time>
      </trkpt>
      <trkpt lat="47.36941" lon="0.04806">
        <ele>102</ele>
        <time>2013-02-17T09:16:54.000Z</time>
      </trkpt>
      <trkpt lat="47.36939" lon="0.04806">
        <ele>102</ele>
        <time>2013-02-17T09:16:55.000Z</time>
      </trkpt>
      <trkpt lat="47.36935" lon="0.04807">
        <ele>102</ele>
        <time>2013-02-17T09:17:00.000Z</time>
      </trkpt>
      <trkpt lat="47.36934" lon="0.04807">
        <ele>102</ele>
        <time>2013-02-17T09:17:01.000Z</time>
      </trkpt>
      <trkpt lat="47.36931" lon="0.04805">
        <ele>102</ele>
        <time>2013-02-17T09:17:05.000Z</time>
      </trkpt>
      <trkpt lat="47.3693" lon="0.04806">
        <ele>102</ele>
        <time>2013-02-17T09:17:06.000Z</time>
      </trkpt>
      <trkpt lat="47.36926" lon="0.04806">
        <ele>102</ele>
        <time>2013-02-17T09:17:08.000Z</time>
      </trkpt>
      <trkpt lat="47.36925" lon="0.04805">
        <ele>102</ele>
        <time>2013-02-17T09:17:09.000Z</time>
      </trkpt>
      <trkpt lat="47.36922" lon="0.04805">
        <ele>102</ele>
        <time>2013-02-17T09:17:11.000Z</time>
      </trkpt>
      <trkpt lat="47.3692" lon="0.04805">
        <ele>102</ele>
        <time>2013-02-17T09:17:12.000Z</time>
      </trkpt>
      <trkpt lat="47.36916" lon="0.04803">
        <ele>100</ele>
        <time>2013-02-17T09:17:15.000Z</time>
      </trkpt>
      <trkpt lat="47.36915" lon="0.04803">
        <ele>100</ele>
        <time>2013-02-17T09:17:16.000Z</time>
      </trkpt>
      <trkpt lat="47.36911" lon="0.04802">
        <ele>100</ele>
        <time>2013-02-17T09:17:19.000Z</time>
      </trkpt>
      <trkpt lat="47.3691" lon="0.04802">
        <ele>100</ele>
        <time>2013-02-17T09:17:20.000Z</time>
      </trkpt>
      <trkpt lat="47.36907" lon="0.04801">
        <ele>100</ele>
        <time>2013-02-17T09:17:24.000Z</time>
      </trkpt>
      <trkpt lat="47.36906" lon="0.048">
        <ele>100</ele>
        <time>2013-02-17T09:17:25.000Z</time>
      </trkpt>
      <trkpt lat="47.36902" lon="0.04801">
        <ele>100</ele>
        <time>2013-02-17T09:17:28.000Z</time>
      </trkpt>
      <trkpt lat="47.36901" lon="0.04801">
        <ele>100</ele>
        <time>2013-02-17T09:17:29.000Z</time>
      </trkpt>
      <trkpt lat="47.36897" lon="0.04798">
        <ele>100</ele>
        <time>2013-02-17T09:17:34.000Z</time>
      </trkpt>
      <trkpt lat="47.36896" lon="0.04798">
        <ele>100</ele>
        <time>2013-02-17T09:17:35.000Z</time>
      </trkpt>
      <trkpt lat="47.36892" lon="0.04798">
        <ele>100</ele>
        <time>2013-02-17T09:17:38.000Z</time>
      </trkpt>
      <trkpt lat="47.3689" lon="0.04797">
        <ele>100</ele>
        <time>2013-02-17T09:17:39.000Z</time>
      </trkpt>
      <trkpt lat="47.36886" lon="0.04795">
        <ele>100</ele>
        <time>2013-02-17T09:17:43.000Z</time>
      </trkpt>
      <trkpt lat="47.36885" lon="0.04796">
        <ele>100</ele>
        <time>2013-02-17T09:17:44.000Z</time>
      </trkpt>
      <trkpt lat="47.36882" lon="0.04796">
        <ele>100</ele>
        <time>2013-02-17T09:17:47.000Z</time>
      </trkpt>
      <trkpt lat="47.3688" lon="0.04796">
        <ele>100</ele>
        <time>2013-02-17T09:17:48.000Z</time>
      </trkpt>
      <trkpt lat="47.36876" lon="0.04795">
        <ele>100</ele>
        <time>2013-02-17T09:17:52.000Z</time>
      </trkpt>
      <trkpt lat="47.36875" lon="0.04794">
        <ele>100</ele>
        <time>2013-02-17T09:17:53.000Z</time>
      </trkpt>
      <trkpt lat="47.36871" lon="0.04794">
        <ele>100</ele>
        <time>2013-02-17T09:17:57.000Z</time>
      </trkpt>
      <trkpt lat="47.3687" lon="0.04794">
        <ele>100</ele>
        <time>2013-02-17T09:17:58.000Z</time>
      </trkpt>
      <trkpt lat="47.36866" lon="0.04793">
        <ele>100</ele>
        <time>2013-02-17T09:18:01.000Z</time>
      </trkpt>
      <trkpt lat="47.36865" lon="0.04793">
        <ele>100</ele>
        <time>2013-02-17T09:18:02.000Z</time>
      </trkpt>
      <trkpt lat="47.36861" lon="0.04792">
        <ele>100</ele>
        <time>2013-02-17T09:18:05.000Z</time>
      </trkpt>
      <trkpt lat="47.3686" lon="0.04793">
        <ele>100</ele>
        <time>2013-02-17T09:18:06.000Z</time>
      </trkpt>
      <trkpt lat="47.36856" lon="0.04794">
        <ele>99</ele>
        <time>2013-02-17T09:18:09.000Z</time>
      </trkpt>
      <trkpt lat="47.36855" lon="0.04794">
        <ele>99</ele>
        <time>2013-02-17T09:18:10.000Z</time>
      </trkpt>
      <trkpt lat="47.36851" lon="0.04795">
        <ele>99</ele>
        <time>2013-02-17T09:18:14.000Z</time>
      </trkpt>
      <trkpt lat="47.36849" lon="0.04796">
        <ele>99</ele>
        <time>2013-02-17T09:18:15.000Z</time>
      </trkpt>
      <trkpt lat="47.36845" lon="0.04796">
        <ele>99</ele>
        <time>2013-02-17T09:18:18.000Z</time>
      </trkpt>
      <trkpt lat="47.36844" lon="0.04796">
        <ele>99</ele>
        <time>2013-02-17T09:18:19.000Z</time>
      </trkpt>
      <trkpt lat="47.36841" lon="0.04795">
        <ele>99</ele>
        <time>2013-02-17T09:18:23.000Z</time>
      </trkpt>
      <trkpt lat="47.3684" lon="0.04795">
        <ele>99</ele>
        <time>2013-02-17T09:18:24.000Z</time>
      </trkpt>
      <trkpt lat="47.36836" lon="0.04796">
        <ele>99</ele>
        <time>2013-02-17T09:18:27.000Z</time>
      </trkpt>
      <trkpt lat="47.36835" lon="0.04796">
        <ele>99</ele>
        <time>2013-02-17T09:18:28.000Z</time>
      </trkpt>
      <trkpt lat="47.36831" lon="0.04797">
        <ele>100</ele>
        <time>2013-02-17T09:18:32.000Z</time>
      </trkpt>
      <trkpt lat="47.36829" lon="0.04797">
        <ele>100</ele>
        <time>2013-02-17T09:18:33.000Z</time>
      </trkpt>
      <trkpt lat="47.36825" lon="0.04798">
        <ele>100</ele>
        <time>2013-02-17T09:18:37.000Z</time>
      </trkpt>
      <trkpt lat="47.36824" lon="0.04798">
        <ele>100</ele>
        <time>2013-02-17T09:18:38.000Z</time>
      </trkpt>
      <trkpt lat="47.3682" lon="0.04798">
        <ele>100</ele>
        <time>2013-02-17T09:18:42.000Z</time>
      </trkpt>
      <trkpt lat="47.36819" lon="0.04798">
        <ele>100</ele>
        <time>2013-02-17T09:18:43.000Z</time>
      </trkpt>
      <trkpt lat="47.36816" lon="0.04797">
        <ele>100</ele>
        <time>2013-02-17T09:18:46.000Z</time>
      </trkpt>
      <trkpt lat="47.36815" lon="0.04797">
        <ele>100</ele>
        <time>2013-02-17T09:18:47.000Z</time>
      </trkpt>
      <trkpt lat="47.36811" lon="0.04797">
        <ele>100</ele>
        <time>2013-02-17T09:18:50.000Z</time>
      </trkpt>
      <trkpt lat="47.3681" lon="0.04797">
        <ele>100</ele>
        <time>2013-02-17T09:18:51.000Z</time>
      </trkpt>
      <trkpt lat="47.36807" lon="0.04798">
        <ele>100</ele>
        <time>2013-02-17T09:18:54.000Z</time>
      </trkpt>
      <trkpt lat="47.36805" lon="0.04798">
        <ele>100</ele>
        <time>2013-02-17T09:18:55.000Z</time>
      </trkpt>
      <trkpt lat="47.36802" lon="0.048">
        <ele>100</ele>
        <time>2013-02-17T09:18:58.000Z</time>
      </trkpt>
      <trkpt lat="47.368" lon="0.048">
        <ele>100</ele>
        <time>2013-02-17T09:18:59.000Z</time>
      </trkpt>
      <trkpt lat="47.36796" lon="0.04801">
        <ele>100</ele>
        <time>2013-02-17T09:19:02.000Z</time>
      </trkpt>
      <trkpt lat="47.36794" lon="0.04801">
        <ele>100</ele>
        <time>2013-02-17T09:19:03.000Z</time>
      </trkpt>
      <trkpt lat="47.3679" lon="0.04802">
        <ele>100</ele>
        <time>2013-02-17T09:19:06.000Z</time>
      </trkpt>
      <trkpt lat="47.36789" lon="0.04803">
        <ele>100</ele>
        <time>2013-02-17T09:19:07.000Z</time>
      </trkpt>
      <trkpt lat="47.36785" lon="0.04803">
        <ele>101</ele>
        <time>2013-02-17T09:19:11.000Z</time>
      </trkpt>
      <trkpt lat="47.36784" lon="0.04804">
        <ele>101</ele>
        <time>2013-02-17T09:19:12.000Z</time>
      </trkpt>
      <trkpt lat="47.3678" lon="0.04804">
        <ele>101</ele>
        <time>2013-02-17T09:19:15.000Z</time>
      </trkpt>
      <trkpt lat="47.36778" lon="0.04805">
        <ele>101</ele>
        <time>2013-02-17T09:19:16.000Z</time>
      </trkpt>
      <trkpt lat="47.36774" lon="0.04804">
        <ele>101</ele>
        <time>2013-02-17T09:19:20.000Z</time>
      </trkpt>
      <trkpt lat="47.36773" lon="0.04804">
        <ele>101</ele>
        <time>2013-02-17T09:19:21.000Z</time>
      </trkpt>
      <trkpt lat="47.3677" lon="0.04805">
        <ele>101</ele>
        <time>2013-02-17T09:19:26.000Z</time>
      </trkpt>
      <trkpt lat="47.36769" lon="0.04805">
        <ele>101</ele>
        <time>2013-02-17T09:19:27.000Z</time>
      </trkpt>
      <trkpt lat="47.36765" lon="0.04805">
        <ele>101</ele>
        <time>2013-02-17T09:19:31.000Z</time>
      </trkpt>
      <trkpt lat="47.36764" lon="0.04806">
        <ele>101</ele>
        <time>2013-02-17T09:19:32.000Z</time>
      </trkpt>
      <trkpt lat="47.36759" lon="0.04806">
        <ele>101</ele>
        <time>2013-02-17T09:19:37.000Z</time>
      </trkpt>
      <trkpt lat="47.36759" lon="0.04806">
        <ele>101</ele>
        <time>2013-02-17T09:19:38.000Z</time>
      </trkpt>
      <trkpt lat="47.36755" lon="0.04805">
        <ele>101</ele>
        <time>2013-02-17T09:19:42.000Z</time>
      </trkpt>
      <trkpt lat="47.36754" lon="0.04805">
        <ele>101</ele>
        <time>2013-02-17T09:19:43.000Z</time>
      </trkpt>
      <trkpt lat="47.3675" lon="0.04804">
        <ele>101</ele>
        <time>2013-02-17T09:19:46.000Z</time>
      </trkpt>
      <trkpt lat="47.36749" lon="0.04804">
        <ele>103</ele>
        <time>2013-02-17T09:19:47.000Z</time>
      </trkpt>
      <trkpt lat="47.36746" lon="0.04805">
        <ele>103</ele>
        <time>2013-02-17T09:19:49.000Z</time>
      </trkpt>
      <trkpt lat="47.36744" lon="0.04805">
        <ele>103</ele>
        <time>2013-02-17T09:19:50.000Z</time>
      </trkpt>
      <trkpt lat="47.3674" lon="0.04805">
        <ele>103</ele>
        <time>2013-02-17T09:19:54.000Z</time>
      </trkpt>
      <trkpt lat="47.36739" lon="0.04806">
        <ele>103</ele>
        <time>2013-02-17T09:19:55.000Z</time>
      </trkpt>
      <trkpt lat="47.36735" lon="0.04808">
        <ele>103</ele>
        <time>2013-02-17T09:19:59.000Z</time>
      </trkpt>
      <trkpt lat="47.36733" lon="0.04808">
        <ele>103</ele>
        <time>2013-02-17T09:20:00.000Z</time>
      </trkpt>
      <trkpt lat="47.36729" lon="0.04807">
        <ele>103</ele>
        <time>2013-02-17T09:20:05.000Z</time>
      </trkpt>
      <trkpt lat="47.36728" lon="0.04807">
        <ele>103</ele>
        <time>2013-02-17T09:20:06.000Z</time>
      </trkpt>
      <trkpt lat="47.36724" lon="0.04806">
        <ele>103</ele>
        <time>2013-02-17T09:20:10.000Z</time>
      </trkpt>
      <trkpt lat="47.36723" lon="0.04806">
        <ele>103</ele>
        <time>2013-02-17T09:20:11.000Z</time>
      </trkpt>
      <trkpt lat="47.36719" lon="0.04807">
        <ele>103</ele>
        <time>2013-02-17T09:20:13.000Z</time>
      </trkpt>
      <trkpt lat="47.36718" lon="0.04807">
        <ele>103</ele>
        <time>2013-02-17T09:20:14.000Z</time>
      </trkpt>
      <trkpt lat="47.36714" lon="0.04808">
        <ele>103</ele>
        <time>2013-02-17T09:20:16.000Z</time>
      </trkpt>
      <trkpt lat="47.36713" lon="0.04808">
        <ele>103</ele>
        <time>2013-02-17T09:20:17.000Z</time>
      </trkpt>
      <trkpt lat="47.36709" lon="0.04808">
        <ele>103</ele>
        <time>2013-02-17T09:20:21.000Z</time>
      </trkpt>
      <trkpt lat="47.36708" lon="0.04808">
        <ele>103</ele>
        <time>2013-02-17T09:20:22.000Z</time>
      </trkpt>
      <trkpt lat="47.36704" lon="0.04809">
        <ele>103</ele>
        <time>2013-02-17T09:20:27.000Z</time>
      </trkpt>
      <trkpt lat="47.36703" lon="0.0481">
        <ele>103</ele>
        <time>2013-02-17T09:20:28.000Z</time>
      </trkpt>
      <trkpt lat="47.367" lon="0.04809">
        <ele>103</ele>
        <time>2013-02-17T09:20:32.000Z</time>
      </trkpt>
      <trkpt lat="47.36698" lon="0.0481">
        <ele>103</ele>
        <time>2013-02-17T09:20:33.000Z</time>
      </trkpt>
      <trkpt lat="47.36694" lon="0.0481">
        <ele>104</ele>
        <time>2013-02-17T09:20:37.000Z</time>
      </trkpt>
      <trkpt lat="47.36693" lon="0.0481">
        <ele>104</ele>
        <time>2013-02-17T09:20:38.000Z</time>
      </trkpt>
      <trkpt lat="47.36689" lon="0.04812">
        <ele>104</ele>
        <time>2013-02-17T09:20:41.000Z</time>
      </trkpt>
      <trkpt lat="47.36688" lon="0.04811">
        <ele>104</ele>
        <time>2013-02-17T09:20:42.000Z</time>
      </trkpt>
      <trkpt lat="47.36684" lon="0.04812">
        <ele>104</ele>
        <time>2013-02-17T09:20:46.000Z</time>
      </trkpt>
      <trkpt lat="47.36682" lon="0.04813">
        <ele>104</ele>
        <time>2013-02-17T09:20:47.000Z</time>
      </trkpt>
      <trkpt lat="47.3668" lon="0.04813">
        <ele>104</ele>
        <time>2013-02-17T09:20:49.000Z</time>
      </trkpt>
      <trkpt lat="47.36678" lon="0.04812">
        <ele>104</ele>
        <time>2013-02-17T09:20:50.000Z</time>
      </trkpt>
      <trkpt lat="47.36673" lon="0.04811">
        <ele>104</ele>
        <time>2013-02-17T09:20:57.000Z</time>
      </trkpt>
      <trkpt lat="47.36673" lon="0.04811">
        <ele>104</ele>
        <time>2013-02-17T09:20:58.000Z</time>
      </trkpt>
      <trkpt lat="47.36669" lon="0.04813">
        <ele>104</ele>
        <time>2013-02-17T09:21:00.000Z</time>
      </trkpt>
      <trkpt lat="47.36668" lon="0.04814">
        <ele>104</ele>
        <time>2013-02-17T09:21:01.000Z</time>
      </trkpt>
      <trkpt lat="47.36664" lon="0.04815">
        <ele>105</ele>
        <time>2013-02-17T09:21:05.000Z</time>
      </trkpt>
      <trkpt lat="47.36663" lon="0.04815">
        <ele>105</ele>
        <time>2013-02-17T09:21:06.000Z</time>
      </trkpt>
      <trkpt lat="47.3666" lon="0.04814">
        <ele>105</ele>
        <time>2013-02-17T09:21:11.000Z</time>
      </trkpt>
      <trkpt lat="47.36659" lon="0.04813">
        <ele>105</ele>
        <time>2013-02-17T09:21:12.000Z</time>
      </trkpt>
      <trkpt lat="47.36655" lon="0.04814">
        <ele>105</ele>
        <time>2013-02-17T09:21:15.000Z</time>
      </trkpt>
      <trkpt lat="47.36654" lon="0.04814">
        <ele>105</ele>
        <time>2013-02-17T09:21:16.000Z</time>
      </trkpt>
      <trkpt lat="47.3665" lon="0.04815">
        <ele>105</ele>
        <time>2013-02-17T09:21:20.000Z</time>
      </trkpt>
      <trkpt lat="47.36649" lon="0.04816">
        <ele>105</ele>
        <time>2013-02-17T09:21:21.000Z</time>
      </trkpt>
      <trkpt lat="47.36646" lon="0.04819">
        <ele>105</ele>
        <time>2013-02-17T09:21:23.000Z</time>
      </trkpt>
      <trkpt lat="47.36645" lon="0.0482">
        <ele>105</ele>
        <time>2013-02-17T09:21:24.000Z</time>
      </trkpt>
      <trkpt lat="47.36641" lon="0.04824">
        <ele>105</ele>
        <time>2013-02-17T09:21:27.000Z</time>
      </trkpt>
      <trkpt lat="47.3664" lon="0.04825">
        <ele>105</ele>
        <time>2013-02-17T09:21:28.000Z</time>
      </trkpt>
      <trkpt lat="47.36636" lon="0.04826">
        <ele>106</ele>
        <time>2013-02-17T09:21:31.000Z</time>
      </trkpt>
      <trkpt lat="47.36635" lon="0.04826">
        <ele>106</ele>
        <time>2013-02-17T09:21:32.000Z</time>
      </trkpt>
      <trkpt lat="47.36631" lon="0.04826">
        <ele>106</ele>
        <time>2013-02-17T09:21:35.000Z</time>
      </trkpt>
      <trkpt lat="47.3663" lon="0.04827">
        <ele>106</ele>
        <time>2013-02-17T09:21:36.000Z</time>
      </trkpt>
      <trkpt lat="47.36626" lon="0.04828">
        <ele>106</ele>
        <time>2013-02-17T09:21:38.000Z</time>
      </trkpt>
      <trkpt lat="47.36624" lon="0.04829">
        <ele>106</ele>
        <time>2013-02-17T09:21:39.000Z</time>
      </trkpt>
      <trkpt lat="47.36621" lon="0.0483">
        <ele>106</ele>
        <time>2013-02-17T09:21:42.000Z</time>
      </trkpt>
      <trkpt lat="47.36619" lon="0.04832">
        <ele>106</ele>
        <time>2013-02-17T09:21:43.000Z</time>
      </trkpt>
      <trkpt lat="47.36616" lon="0.04834">
        <ele>106</ele>
        <time>2013-02-17T09:21:45.000Z</time>
      </trkpt>
      <trkpt lat="47.36615" lon="0.04835">
        <ele>106</ele>
        <time>2013-02-17T09:21:46.000Z</time>
      </trkpt>
      <trkpt lat="47.3661" lon="0.04835">
        <ele>106</ele>
        <time>2013-02-17T09:21:49.000Z</time>
      </trkpt>
      <trkpt lat="47.36609" lon="0.04836">
        <ele>106</ele>
        <time>2013-02-17T09:21:50.000Z</time>
      </trkpt>
      <trkpt lat="47.36605" lon="0.04839">
        <ele>106</ele>
        <time>2013-02-17T09:21:52.000Z</time>
      </trkpt>
      <trkpt lat="47.36604" lon="0.0484">
        <ele>106</ele>
        <time>2013-02-17T09:21:53.000Z</time>
      </trkpt>
      <trkpt lat="47.36599" lon="0.0484">
        <ele>106</ele>
        <time>2013-02-17T09:21:55.000Z</time>
      </trkpt>
      <trkpt lat="47.36597" lon="0.04841">
        <ele>106</ele>
        <time>2013-02-17T09:21:56.000Z</time>
      </trkpt>
      <trkpt lat="47.36593" lon="0.04841">
        <ele>106</ele>
        <time>2013-02-17T09:21:58.000Z</time>
      </trkpt>
      <trkpt lat="47.36592" lon="0.04842">
        <ele>106</ele>
        <time>2013-02-17T09:21:59.000Z</time>
      </trkpt>
      <trkpt lat="47.36589" lon="0.04841">
        <ele>107</ele>
        <time>2013-02-17T09:22:01.000Z</time>
      </trkpt>
      <trkpt lat="47.36587" lon="0.04841">
        <ele>107</ele>
        <time>2013-02-17T09:22:02.000Z</time>
      </trkpt>
      <trkpt lat="47.36583" lon="0.04841">
        <ele>107</ele>
        <time>2013-02-17T09:22:06.000Z</time>
      </trkpt>
      <trkpt lat="47.36582" lon="0.0484">
        <ele>107</ele>
        <time>2013-02-17T09:22:07.000Z</time>
      </trkpt>
      <trkpt lat="47.36579" lon="0.04839">
        <ele>107</ele>
        <time>2013-02-17T09:22:10.000Z</time>
      </trkpt>
      <trkpt lat="47.36577" lon="0.0484">
        <ele>107</ele>
        <time>2013-02-17T09:22:11.000Z</time>
      </trkpt>
      <trkpt lat="47.36574" lon="0.04842">
        <ele>106</ele>
        <time>2013-02-17T09:22:14.000Z</time>
      </trkpt>
      <trkpt lat="47.36573" lon="0.04842">
        <ele>106</ele>
        <time>2013-02-17T09:22:15.000Z</time>
      </trkpt>
      <trkpt lat="47.36569" lon="0.04844">
        <ele>106</ele>
        <time>2013-02-17T09:22:18.000Z</time>
      </trkpt>
      <trkpt lat="47.36568" lon="0.04845">
        <ele>106</ele>
        <time>2013-02-17T09:22:19.000Z</time>
      </trkpt>
      <trkpt lat="47.36564" lon="0.04846">
        <ele>106</ele>
        <time>2013-02-17T09:22:23.000Z</time>
      </trkpt>
      <trkpt lat="47.36563" lon="0.04847">
        <ele>106</ele>
        <time>2013-02-17T09:22:24.000Z</time>
      </trkpt>
      <trkpt lat="47.3656" lon="0.04851">
        <ele>106</ele>
        <time>2013-02-17T09:22:32.000Z</time>
      </trkpt>
      <trkpt lat="47.3656" lon="0.04852">
        <ele>106</ele>
        <time>2013-02-17T09:22:33.000Z</time>
      </trkpt>
      <trkpt lat="47.36557" lon="0.04855">
        <ele>106</ele>
        <time>2013-02-17T09:22:36.000Z</time>
      </trkpt>
      <trkpt lat="47.36556" lon="0.04855">
        <ele>106</ele>
        <time>2013-02-17T09:22:37.000Z</time>
      </trkpt>
      <trkpt lat="47.36553" lon="0.04857">
        <ele>106</ele>
        <time>2013-02-17T09:22:39.000Z</time>
      </trkpt>
      <trkpt lat="47.36551" lon="0.04858">
        <ele>106</ele>
        <time>2013-02-17T09:22:40.000Z</time>
      </trkpt>
      <trkpt lat="47.36548" lon="0.04859">
        <ele>106</ele>
        <time>2013-02-17T09:22:44.000Z</time>
      </trkpt>
      <trkpt lat="47.36546" lon="0.0486">
        <ele>106</ele>
        <time>2013-02-17T09:22:45.000Z</time>
      </trkpt>
      <trkpt lat="47.36543" lon="0.04861">
        <ele>106</ele>
        <time>2013-02-17T09:22:49.000Z</time>
      </trkpt>
      <trkpt lat="47.36541" lon="0.04862">
        <ele>106</ele>
        <time>2013-02-17T09:22:50.000Z</time>
      </trkpt>
      <trkpt lat="47.36537" lon="0.04863">
        <ele>106</ele>
        <time>2013-02-17T09:22:54.000Z</time>
      </trkpt>
      <trkpt lat="47.36536" lon="0.04863">
        <ele>106</ele>
        <time>2013-02-17T09:22:55.000Z</time>
      </trkpt>
      <trkpt lat="47.36533" lon="0.04866">
        <ele>106</ele>
        <time>2013-02-17T09:22:58.000Z</time>
      </trkpt>
      <trkpt lat="47.36532" lon="0.04868">
        <ele>105</ele>
        <time>2013-02-17T09:22:59.000Z</time>
      </trkpt>
      <trkpt lat="47.36527" lon="0.0487">
        <ele>105</ele>
        <time>2013-02-17T09:23:03.000Z</time>
      </trkpt>
      <trkpt lat="47.36527" lon="0.0487">
        <ele>105</ele>
        <time>2013-02-17T09:23:04.000Z</time>
      </trkpt>
      <trkpt lat="47.36523" lon="0.0487">
        <ele>105</ele>
        <time>2013-02-17T09:23:08.000Z</time>
      </trkpt>
      <trkpt lat="47.36522" lon="0.0487">
        <ele>105</ele>
        <time>2013-02-17T09:23:09.000Z</time>
      </trkpt>
      <trkpt lat="47.36518" lon="0.04872">
        <ele>105</ele>
        <time>2013-02-17T09:23:15.000Z</time>
      </trkpt>
      <trkpt lat="47.36517" lon="0.04874">
        <ele>105</ele>
        <time>2013-02-17T09:23:16.000Z</time>
      </trkpt>
      <trkpt lat="47.36513" lon="0.04874">
        <ele>105</ele>
        <time>2013-02-17T09:23:21.000Z</time>
      </trkpt>
      <trkpt lat="47.36511" lon="0.04876">
        <ele>105</ele>
        <time>2013-02-17T09:23:22.000Z</time>
      </trkpt>
      <trkpt lat="47.36507" lon="0.04877">
        <ele>105</ele>
        <time>2013-02-17T09:23:26.000Z</time>
      </trkpt>
      <trkpt lat="47.36506" lon="0.04877">
        <ele>105</ele>
        <time>2013-02-17T09:23:27.000Z</time>
      </trkpt>
      <trkpt lat="47.36502" lon="0.04878">
        <ele>105</ele>
        <time>2013-02-17T09:23:32.000Z</time>
      </trkpt>
      <trkpt lat="47.365" lon="0.04879">
        <ele>105</ele>
        <time>2013-02-17T09:23:33.000Z</time>
      </trkpt>
      <trkpt lat="47.36496" lon="0.04881">
        <ele>103</ele>
        <time>2013-02-17T09:23:36.000Z</time>
      </trkpt>
      <trkpt lat="47.36495" lon="0.04882">
        <ele>103</ele>
        <time>2013-02-17T09:23:37.000Z</time>
      </trkpt>
      <trkpt lat="47.36491" lon="0.04883">
        <ele>103</ele>
        <time>2013-02-17T09:23:39.000Z</time>
      </trkpt>
      <trkpt lat="47.36489" lon="0.04884">
        <ele>103</ele>
        <time>2013-02-17T09:23:40.000Z</time>
      </trkpt>
      <trkpt lat="47.36485" lon="0.04886">
        <ele>103</ele>
        <time>2013-02-17T09:23:42.000Z</time>
      </trkpt>
      <trkpt lat="47.36483" lon="0.04887">
        <ele>103</ele>
        <time>2013-02-17T09:23:43.000Z</time>
      </trkpt>
      <trkpt lat="47.3648" lon="0.0489">
        <ele>103</ele>
        <time>2013-02-17T09:23:45.000Z</time>
      </trkpt>
      <trkpt lat="47.36479" lon="0.0489">
        <ele>103</ele>
        <time>2013-02-17T09:23:46.000Z</time>
      </trkpt>
      <trkpt lat="47.36474" lon="0.04891">
        <ele>102</ele>
        <time>2013-02-17T09:23:49.000Z</time>
      </trkpt>
      <trkpt lat="47.36473" lon="0.04891">
        <ele>102</ele>
        <time>2013-02-17T09:23:50.000Z</time>
      </trkpt>
      <trkpt lat="47.3647" lon="0.04894">
        <ele>102</ele>
        <time>2013-02-17T09:23:53.000Z</time>
      </trkpt>
      <trkpt lat="47.36469" lon="0.04896">
        <ele>102</ele>
        <time>2013-02-17T09:23:54.000Z</time>
      </trkpt>
      <trkpt lat="47.36465" lon="0.04897">
        <ele>102</ele>
        <time>2013-02-17T09:23:56.000Z</time>
      </trkpt>
      <trkpt lat="47.36464" lon="0.04896">
        <ele>102</ele>
        <time>2013-02-17T09:23:57.000Z</time>
      </trkpt>
      <trkpt lat="47.36462" lon="0.04901">
        <ele>102</ele>
        <time>2013-02-17T09:24:00.000Z</time>
      </trkpt>
      <trkpt lat="47.36461" lon="0.04902">
        <ele>102</ele>
        <time>2013-02-17T09:24:01.000Z</time>
      </trkpt>
      <trkpt lat="47.36457" lon="0.04901">
        <ele>102</ele>
        <time>2013-02-17T09:24:04.000Z</time>
      </trkpt>
      <trkpt lat="47.36455" lon="0.04901">
        <ele>102</ele>
        <time>2013-02-17T09:24:05.000Z</time>
      </trkpt>
      <trkpt lat="47.36452" lon="0.04901">
        <ele>102</ele>
        <time>2013-02-17T09:24:07.000Z</time>
      </trkpt>
      <trkpt lat="47.36451" lon="0.04901">
        <ele>102</ele>
        <time>2013-02-17T09:24:08.000Z</time>
      </trkpt>
      <trkpt lat="47.36447" lon="0.04901">
        <ele>102</ele>
        <time>2013-02-17T09:24:11.000Z</time>
      </trkpt>
      <trkpt lat="47.36446" lon="0.049">
        <ele>101</ele>
        <time>2013-02-17T09:24:12.000Z</time>
      </trkpt>
      <trkpt lat="47.36442" lon="0.049">
        <ele>101</ele>
        <time>2013-02-17T09:24:17.000Z</time>
      </trkpt>
      <trkpt lat="47.36441" lon="0.04901">
        <ele>101</ele>
        <time>2013-02-17T09:24:18.000Z</time>
      </trkpt>
      <trkpt lat="47.36437" lon="0.04902">
        <ele>101</ele>
        <time>2013-02-17T09:24:22.000Z</time>
      </trkpt>
      <trkpt lat="47.36436" lon="0.04901">
        <ele>101</ele>
        <time>2013-02-17T09:24:23.000Z</time>
      </trkpt>
      <trkpt lat="47.36433" lon="0.04904">
        <ele>101</ele>
        <time>2013-02-17T09:24:25.000Z</time>
      </trkpt>
      <trkpt lat="47.36432" lon="0.04904">
        <ele>101</ele>
        <time>2013-02-17T09:24:26.000Z</time>
      </trkpt>
      <trkpt lat="47.36428" lon="0.04905">
        <ele>101</ele>
        <time>2013-02-17T09:24:31.000Z</time>
      </trkpt>
      <trkpt lat="47.36427" lon="0.04908">
        <ele>100</ele>
        <time>2013-02-17T09:24:32.000Z</time>
      </trkpt>
      <trkpt lat="47.36424" lon="0.04911">
        <ele>100</ele>
        <time>2013-02-17T09:24:36.000Z</time>
      </trkpt>
      <trkpt lat="47.36422" lon="0.04912">
        <ele>100</ele>
        <time>2013-02-17T09:24:37.000Z</time>
      </trkpt>
      <trkpt lat="47.3642" lon="0.04913">
        <ele>100</ele>
        <time>2013-02-17T09:24:39.000Z</time>
      </trkpt>
      <trkpt lat="47.36418" lon="0.04914">
        <ele>99</ele>
        <time>2013-02-17T09:24:40.000Z</time>
      </trkpt>
      <trkpt lat="47.36414" lon="0.04914">
        <ele>99</ele>
        <time>2013-02-17T09:24:43.000Z</time>
      </trkpt>
      <trkpt lat="47.36413" lon="0.04914">
        <ele>99</ele>
        <time>2013-02-17T09:24:44.000Z</time>
      </trkpt>
      <trkpt lat="47.36409" lon="0.04917">
        <ele>98</ele>
        <time>2013-02-17T09:24:47.000Z</time>
      </trkpt>
      <trkpt lat="47.36409" lon="0.04916">
        <ele>98</ele>
        <time>2013-02-17T09:24:48.000Z</time>
      </trkpt>
      <trkpt lat="47.36405" lon="0.04919">
        <ele>97</ele>
        <time>2013-02-17T09:24:52.000Z</time>
      </trkpt>
      <trkpt lat="47.36404" lon="0.0492">
        <ele>97</ele>
        <time>2013-02-17T09:24:53.000Z</time>
      </trkpt>
      <trkpt lat="47.364" lon="0.04922">
        <ele>97</ele>
        <time>2013-02-17T09:24:58.000Z</time>
      </trkpt>
      <trkpt lat="47.36398" lon="0.04924">
        <ele>97</ele>
        <time>2013-02-17T09:24:59.000Z</time>
      </trkpt>
      <trkpt lat="47.36395" lon="0.04923">
        <ele>96</ele>
        <time>2013-02-17T09:25:02.000Z</time>
      </trkpt>
      <trkpt lat="47.36393" lon="0.04924">
        <ele>96</ele>
        <time>2013-02-17T09:25:03.000Z</time>
      </trkpt>
      <trkpt lat="47.36389" lon="0.04924">
        <ele>96</ele>
        <time>2013-02-17T09:25:09.000Z</time>
      </trkpt>
      <trkpt lat="47.36388" lon="0.04924">
        <ele>96</ele>
        <time>2013-02-17T09:25:10.000Z</time>
      </trkpt>
      <trkpt lat="47.36384" lon="0.04927">
        <ele>96</ele>
        <time>2013-02-17T09:25:13.000Z</time>
      </trkpt>
      <trkpt lat="47.36383" lon="0.0493">
        <ele>95</ele>
        <time>2013-02-17T09:25:14.000Z</time>
      </trkpt>
      <trkpt lat="47.3638" lon="0.04934">
        <ele>95</ele>
        <time>2013-02-17T09:25:16.000Z</time>
      </trkpt>
      <trkpt lat="47.36379" lon="0.04936">
        <ele>95</ele>
        <time>2013-02-17T09:25:17.000Z</time>
      </trkpt>
      <trkpt lat="47.36377" lon="0.04938">
        <ele>95</ele>
        <time>2013-02-17T09:25:20.000Z</time>
      </trkpt>
      <trkpt lat="47.36375" lon="0.04939">
        <ele>95</ele>
        <time>2013-02-17T09:25:21.000Z</time>
      </trkpt>
      <trkpt lat="47.36372" lon="0.04942">
        <ele>95</ele>
        <time>2013-02-17T09:25:26.000Z</time>
      </trkpt>
      <trkpt lat="47.3637" lon="0.04943">
        <ele>95</ele>
        <time>2013-02-17T09:25:27.000Z</time>
      </trkpt>
      <trkpt lat="47.36366" lon="0.04946">
        <ele>94</ele>
        <time>2013-02-17T09:25:29.000Z</time>
      </trkpt>
      <trkpt lat="47.36365" lon="0.04946">
        <ele>94</ele>
        <time>2013-02-17T09:25:30.000Z</time>
      </trkpt>
      <trkpt lat="47.36362" lon="0.04944">
        <ele>94</ele>
        <time>2013-02-17T09:25:34.000Z</time>
      </trkpt>
      <trkpt lat="47.36361" lon="0.04944">
        <ele>94</ele>
        <time>2013-02-17T09:25:35.000Z</time>
      </trkpt>
      <trkpt lat="47.36357" lon="0.04945">
        <ele>94</ele>
        <time>2013-02-17T09:25:50.000Z</time>
      </trkpt>
      <trkpt lat="47.36354" lon="0.04946">
        <ele>94</ele>
        <time>2013-02-17T09:25:51.000Z</time>
      </trkpt>
      <trkpt lat="47.3635" lon="0.04949">
        <ele>94</ele>
        <time>2013-02-17T09:25:54.000Z</time>
      </trkpt>
      <trkpt lat="47.36349" lon="0.04949">
        <ele>94</ele>
        <time>2013-02-17T09:25:55.000Z</time>
      </trkpt>
      <trkpt lat="47.36344" lon="0.04948">
        <ele>94</ele>
        <time>2013-02-17T09:25:58.000Z</time>
      </trkpt>
      <trkpt lat="47.36343" lon="0.04949">
        <ele>94</ele>
        <time>2013-02-17T09:25:59.000Z</time>
      </trkpt>
      <trkpt lat="47.36339" lon="0.04951">
        <ele>94</ele>
        <time>2013-02-17T09:26:02.000Z</time>
      </trkpt>
      <trkpt lat="47.36337" lon="0.04951">
        <ele>94</ele>
        <time>2013-02-17T09:26:03.000Z</time>
      </trkpt>
      <trkpt lat="47.36333" lon="0.04953">
        <ele>90</ele>
        <time>2013-02-17T09:26:08.000Z</time>
      </trkpt>
      <trkpt lat="47.36333" lon="0.04953">
        <ele>90</ele>
        <time>2013-02-17T09:26:09.000Z</time>
      </trkpt>
      <trkpt lat="47.36329" lon="0.04955">
        <ele>90</ele>
        <time>2013-02-17T09:26:16.000Z</time>
      </trkpt>
      <trkpt lat="47.36328" lon="0.04956">
        <ele>90</ele>
        <time>2013-02-17T09:26:17.000Z</time>
      </trkpt>
      <trkpt lat="47.36324" lon="0.04957">
        <ele>90</ele>
        <time>2013-02-17T09:26:21.000Z</time>
      </trkpt>
      <trkpt lat="47.36323" lon="0.04957">
        <ele>89</ele>
        <time>2013-02-17T09:26:22.000Z</time>
      </trkpt>
      <trkpt lat="47.36319" lon="0.04955">
        <ele>89</ele>
        <time>2013-02-17T09:26:25.000Z</time>
      </trkpt>
      <trkpt lat="47.36318" lon="0.04955">
        <ele>89</ele>
        <time>2013-02-17T09:26:26.000Z</time>
      </trkpt>
      <trkpt lat="47.36314" lon="0.04955">
        <ele>89</ele>
        <time>2013-02-17T09:26:29.000Z</time>
      </trkpt>
      <trkpt lat="47.36313" lon="0.04956">
        <ele>89</ele>
        <time>2013-02-17T09:26:30.000Z</time>
      </trkpt>
      <trkpt lat="47.36309" lon="0.04957">
        <ele>89</ele>
        <time>2013-02-17T09:26:35.000Z</time>
      </trkpt>
      <trkpt lat="47.36308" lon="0.04957">
        <ele>89</ele>
        <time>2013-02-17T09:26:36.000Z</time>
      </trkpt>
      <trkpt lat="47.36305" lon="0.04959">
        <ele>89</ele>
        <time>2013-02-17T09:26:40.000Z</time>
      </trkpt>
      <trkpt lat="47.36304" lon="0.04959">
        <ele>89</ele>
        <time>2013-02-17T09:26:41.000Z</time>
      </trkpt>
      <trkpt lat="47.36299" lon="0.04959">
        <ele>89</ele>
        <time>2013-02-17T09:26:45.000Z</time>
      </trkpt>
      <trkpt lat="47.36298" lon="0.04958">
        <ele>89</ele>
        <time>2013-02-17T09:26:46.000Z</time>
      </trkpt>
      <trkpt lat="47.36294" lon="0.04958">
        <ele>89</ele>
        <time>2013-02-17T09:26:48.000Z</time>
      </trkpt>
      <trkpt lat="47.36293" lon="0.04958">
        <ele>89</ele>
        <time>2013-02-17T09:26:49.000Z</time>
      </trkpt>
      <trkpt lat="47.3629" lon="0.04958">
        <ele>88</ele>
        <time>2013-02-17T09:26:52.000Z</time>
      </trkpt>
      <trkpt lat="47.36288" lon="0.04958">
        <ele>88</ele>
        <time>2013-02-17T09:26:53.000Z</time>
      </trkpt>
      <trkpt lat="47.36284" lon="0.04958">
        <ele>88</ele>
        <time>2013-02-17T09:26:56.000Z</time>
      </trkpt>
      <trkpt lat="47.36283" lon="0.04957">
        <ele>88</ele>
        <time>2013-02-17T09:26:57.000Z</time>
      </trkpt>
      <trkpt lat="47.36279" lon="0.04958">
        <ele>88</ele>
        <time>2013-02-17T09:27:12.000Z</time>
      </trkpt>
      <trkpt lat="47.36278" lon="0.04959">
        <ele>88</ele>
        <time>2013-02-17T09:27:13.000Z</time>
      </trkpt>
      <trkpt lat="47.36274" lon="0.04957">
        <ele>88</ele>
        <time>2013-02-17T09:27:16.000Z</time>
      </trkpt>
      <trkpt lat="47.36273" lon="0.04957">
        <ele>88</ele>
        <time>2013-02-17T09:27:17.000Z</time>
      </trkpt>
      <trkpt lat="47.36269" lon="0.04957">
        <ele>88</ele>
        <time>2013-02-17T09:27:19.000Z</time>
      </trkpt>
      <trkpt lat="47.36268" lon="0.04957">
        <ele>88</ele>
        <time>2013-02-17T09:27:20.000Z</time>
      </trkpt>
      <trkpt lat="47.36263" lon="0.04956">
        <ele>88</ele>
        <time>2013-02-17T09:27:23.000Z</time>
      </trkpt>
      <trkpt lat="47.36263" lon="0.04955">
        <ele>88</ele>
        <time>2013-02-17T09:27:24.000Z</time>
      </trkpt>
      <trkpt lat="47.36259" lon="0.04954">
        <ele>87</ele>
        <time>2013-02-17T09:27:27.000Z</time>
      </trkpt>
      <trkpt lat="47.36258" lon="0.04952">
        <ele>87</ele>
        <time>2013-02-17T09:27:28.000Z</time>
      </trkpt>
      <trkpt lat="47.36255" lon="0.0495">
        <ele>87</ele>
        <time>2013-02-17T09:27:31.000Z</time>
      </trkpt>
      <trkpt lat="47.36254" lon="0.04949">
        <ele>87</ele>
        <time>2013-02-17T09:27:32.000Z</time>
      </trkpt>
      <trkpt lat="47.3625" lon="0.04947">
        <ele>84</ele>
        <time>2013-02-17T09:27:35.000Z</time>
      </trkpt>
      <trkpt lat="47.36248" lon="0.04946">
        <ele>84</ele>
        <time>2013-02-17T09:27:36.000Z</time>
      </trkpt>
      <trkpt lat="47.36245" lon="0.04943">
        <ele>84</ele>
        <time>2013-02-17T09:27:39.000Z</time>
      </trkpt>
      <trkpt lat="47.36243" lon="0.04941">
        <ele>84</ele>
        <time>2013-02-17T09:27:40.000Z</time>
      </trkpt>
      <trkpt lat="47.36241" lon="0.04938">
        <ele>84</ele>
        <time>2013-02-17T09:27:42.000Z</time>
      </trkpt>
      <trkpt lat="47.3624" lon="0.04937">
        <ele>84</ele>
        <time>2013-02-17T09:27:43.000Z</time>
      </trkpt>
      <trkpt lat="47.36237" lon="0.04933">
        <ele>84</ele>
        <time>2013-02-17T09:27:46.000Z</time>
      </trkpt>
      <trkpt lat="47.36236" lon="0.04932">
        <ele>84</ele>
        <time>2013-02-17T09:27:47.000Z</time>
      </trkpt>
      <trkpt lat="47.36232" lon="0.0493">
        <ele>84</ele>
        <time>2013-02-17T09:27:50.000Z</time>
      </trkpt>
      <trkpt lat="47.36231" lon="0.04929">
        <ele>84</ele>
        <time>2013-02-17T09:27:51.000Z</time>
      </trkpt>
      <trkpt lat="47.36227" lon="0.04928">
        <ele>84</ele>
        <time>2013-02-17T09:27:55.000Z</time>
      </trkpt>
      <trkpt lat="47.36226" lon="0.04928">
        <ele>84</ele>
        <time>2013-02-17T09:27:56.000Z</time>
      </trkpt>
      <trkpt lat="47.36222" lon="0.04927">
        <ele>84</ele>
        <time>2013-02-17T09:27:59.000Z</time>
      </trkpt>
      <trkpt lat="47.36221" lon="0.04925">
        <ele>84</ele>
        <time>2013-02-17T09:28:00.000Z</time>
      </trkpt>
      <trkpt lat="47.36218" lon="0.04922">
        <ele>84</ele>
        <time>2013-02-17T09:28:03.000Z</time>
      </trkpt>
      <trkpt lat="47.36217" lon="0.04921">
        <ele>83</ele>
        <time>2013-02-17T09:28:04.000Z</time>
      </trkpt>
      <trkpt lat="47.36213" lon="0.04921">
        <ele>83</ele>
        <time>2013-02-17T09:28:08.000Z</time>
      </trkpt>
      <trkpt lat="47.36211" lon="0.0492">
        <ele>83</ele>
        <time>2013-02-17T09:28:09.000Z</time>
      </trkpt>
      <trkpt lat="47.36208" lon="0.04917">
        <ele>83</ele>
        <time>2013-02-17T09:28:13.000Z</time>
      </trkpt>
      <trkpt lat="47.36206" lon="0.04916">
        <ele>82</ele>
        <time>2013-02-17T09:28:14.000Z</time>
      </trkpt>
      <trkpt lat="47.36203" lon="0.04918">
        <ele>83</ele>
        <time>2013-02-17T09:28:16.000Z</time>
      </trkpt>
      <trkpt lat="47.36201" lon="0.04918">
        <ele>83</ele>
        <time>2013-02-17T09:28:17.000Z</time>
      </trkpt>
      <trkpt lat="47.36197" lon="0.04916">
        <ele>82</ele>
        <time>2013-02-17T09:28:21.000Z</time>
      </trkpt>
      <trkpt lat="47.36196" lon="0.04915">
        <ele>82</ele>
        <time>2013-02-17T09:28:22.000Z</time>
      </trkpt>
      <trkpt lat="47.36192" lon="0.04918">
        <ele>82</ele>
        <time>2013-02-17T09:28:28.000Z</time>
      </trkpt>
      <trkpt lat="47.36191" lon="0.04919">
        <ele>82</ele>
        <time>2013-02-17T09:28:29.000Z</time>
      </trkpt>
      <trkpt lat="47.36188" lon="0.04922">
        <ele>82</ele>
        <time>2013-02-17T09:28:31.000Z</time>
      </trkpt>
      <trkpt lat="47.36187" lon="0.04923">
        <ele>82</ele>
        <time>2013-02-17T09:28:32.000Z</time>
      </trkpt>
      <trkpt lat="47.36184" lon="0.04924">
        <ele>82</ele>
        <time>2013-02-17T09:28:35.000Z</time>
      </trkpt>
      <trkpt lat="47.36182" lon="0.04924">
        <ele>82</ele>
        <time>2013-02-17T09:28:36.000Z</time>
      </trkpt>
      <trkpt lat="47.36178" lon="0.04926">
        <ele>82</ele>
        <time>2013-02-17T09:28:39.000Z</time>
      </trkpt>
      <trkpt lat="47.36176" lon="0.04926">
        <ele>81</ele>
        <time>2013-02-17T09:28:40.000Z</time>
      </trkpt>
      <trkpt lat="47.36172" lon="0.04928">
        <ele>81</ele>
        <time>2013-02-17T09:28:43.000Z</time>
      </trkpt>
      <trkpt lat="47.3617" lon="0.04927">
        <ele>81</ele>
        <time>2013-02-17T09:28:44.000Z</time>
      </trkpt>
      <trkpt lat="47.36166" lon="0.04928">
        <ele>80</ele>
        <time>2013-02-17T09:28:47.000Z</time>
      </trkpt>
      <trkpt lat="47.36165" lon="0.04927">
        <ele>80</ele>
        <time>2013-02-17T09:28:48.000Z</time>
      </trkpt>
      <trkpt lat="47.36162" lon="0.04927">
        <ele>80</ele>
        <time>2013-02-17T09:28:51.000Z</time>
      </trkpt>
      <trkpt lat="47.36161" lon="0.04929">
        <ele>80</ele>
        <time>2013-02-17T09:28:52.000Z</time>
      </trkpt>
      <trkpt lat="47.36157" lon="0.0493">
        <ele>79</ele>
        <time>2013-02-17T09:28:55.000Z</time>
      </trkpt>
      <trkpt lat="47.36156" lon="0.0493">
        <ele>79</ele>
        <time>2013-02-17T09:28:56.000Z</time>
      </trkpt>
      <trkpt lat="47.36151" lon="0.0493">
        <ele>79</ele>
        <time>2013-02-17T09:28:59.000Z</time>
      </trkpt>
      <trkpt lat="47.3615" lon="0.0493">
        <ele>79</ele>
        <time>2013-02-17T09:29:00.000Z</time>
      </trkpt>
      <trkpt lat="47.36146" lon="0.0493">
        <ele>79</ele>
        <time>2013-02-17T09:29:04.000Z</time>
      </trkpt>
      <trkpt lat="47.36145" lon="0.04931">
        <ele>79</ele>
        <time>2013-02-17T09:29:05.000Z</time>
      </trkpt>
      <trkpt lat="47.36141" lon="0.04933">
        <ele>79</ele>
        <time>2013-02-17T09:29:08.000Z</time>
      </trkpt>
      <trkpt lat="47.3614" lon="0.04935">
        <ele>79</ele>
        <time>2013-02-17T09:29:09.000Z</time>
      </trkpt>
      <trkpt lat="47.36137" lon="0.04937">
        <ele>79</ele>
        <time>2013-02-17T09:29:11.000Z</time>
      </trkpt>
      <trkpt lat="47.36136" lon="0.04939">
        <ele>79</ele>
        <time>2013-02-17T09:29:12.000Z</time>
      </trkpt>
      <trkpt lat="47.36133" lon="0.04943">
        <ele>79</ele>
        <time>2013-02-17T09:29:14.000Z</time>
      </trkpt>
      <trkpt lat="47.36132" lon="0.04944">
        <ele>79</ele>
        <time>2013-02-17T09:29:15.000Z</time>
      </trkpt>
      <trkpt lat="47.36129" lon="0.04946">
        <ele>79</ele>
        <time>2013-02-17T09:29:17.000Z</time>
      </trkpt>
      <trkpt lat="47.36127" lon="0.04946">
        <ele>79</ele>
        <time>2013-02-17T09:29:18.000Z</time>
      </trkpt>
      <trkpt lat="47.36124" lon="0.04948">
        <ele>78</ele>
        <time>2013-02-17T09:29:20.000Z</time>
      </trkpt>
      <trkpt lat="47.36123" lon="0.04949">
        <ele>78</ele>
        <time>2013-02-17T09:29:21.000Z</time>
      </trkpt>
      <trkpt lat="47.3612" lon="0.04951">
        <ele>78</ele>
        <time>2013-02-17T09:29:24.000Z</time>
      </trkpt>
      <trkpt lat="47.36118" lon="0.04953">
        <ele>78</ele>
        <time>2013-02-17T09:29:25.000Z</time>
      </trkpt>
      <trkpt lat="47.36115" lon="0.04956">
        <ele>78</ele>
        <time>2013-02-17T09:29:28.000Z</time>
      </trkpt>
      <trkpt lat="47.36114" lon="0.04956">
        <ele>78</ele>
        <time>2013-02-17T09:29:29.000Z</time>
      </trkpt>
      <trkpt lat="47.3611" lon="0.04957">
        <ele>78</ele>
        <time>2013-02-17T09:29:33.000Z</time>
      </trkpt>
      <trkpt lat="47.36108" lon="0.04959">
        <ele>78</ele>
        <time>2013-02-17T09:29:34.000Z</time>
      </trkpt>
      <trkpt lat="47.36105" lon="0.0496">
        <ele>78</ele>
        <time>2013-02-17T09:29:37.000Z</time>
      </trkpt>
      <trkpt lat="47.36104" lon="0.0496">
        <ele>78</ele>
        <time>2013-02-17T09:29:38.000Z</time>
      </trkpt>
      <trkpt lat="47.361" lon="0.0496">
        <ele>78</ele>
        <time>2013-02-17T09:29:41.000Z</time>
      </trkpt>
      <trkpt lat="47.36098" lon="0.04961">
        <ele>78</ele>
        <time>2013-02-17T09:29:42.000Z</time>
      </trkpt>
      <trkpt lat="47.36095" lon="0.04963">
        <ele>78</ele>
        <time>2013-02-17T09:29:45.000Z</time>
      </trkpt>
      <trkpt lat="47.36094" lon="0.04964">
        <ele>78</ele>
        <time>2013-02-17T09:29:46.000Z</time>
      </trkpt>
      <trkpt lat="47.3609" lon="0.04967">
        <ele>78</ele>
        <time>2013-02-17T09:29:49.000Z</time>
      </trkpt>
      <trkpt lat="47.36089" lon="0.04968">
        <ele>78</ele>
        <time>2013-02-17T09:29:50.000Z</time>
      </trkpt>
      <trkpt lat="47.36085" lon="0.04969">
        <ele>78</ele>
        <time>2013-02-17T09:29:54.000Z</time>
      </trkpt>
      <trkpt lat="47.36084" lon="0.04969">
        <ele>78</ele>
        <time>2013-02-17T09:29:55.000Z</time>
      </trkpt>
      <trkpt lat="47.36081" lon="0.04971">
        <ele>75</ele>
        <time>2013-02-17T09:29:58.000Z</time>
      </trkpt>
      <trkpt lat="47.3608" lon="0.04971">
        <ele>75</ele>
        <time>2013-02-17T09:29:59.000Z</time>
      </trkpt>
      <trkpt lat="47.36076" lon="0.04971">
        <ele>75</ele>
        <time>2013-02-17T09:30:03.000Z</time>
      </trkpt>
      <trkpt lat="47.36075" lon="0.0497">
        <ele>75</ele>
        <time>2013-02-17T09:30:04.000Z</time>
      </trkpt>
      <trkpt lat="47.36071" lon="0.04968">
        <ele>75</ele>
        <time>2013-02-17T09:30:08.000Z</time>
      </trkpt>
      <trkpt lat="47.3607" lon="0.04968">
        <ele>75</ele>
        <time>2013-02-17T09:30:09.000Z</time>
      </trkpt>
      <trkpt lat="47.36066" lon="0.04969">
        <ele>75</ele>
        <time>2013-02-17T09:30:12.000Z</time>
      </trkpt>
      <trkpt lat="47.36065" lon="0.0497">
        <ele>75</ele>
        <time>2013-02-17T09:30:13.000Z</time>
      </trkpt>
      <trkpt lat="47.36062" lon="0.04974">
        <ele>75</ele>
        <time>2013-02-17T09:30:17.000Z</time>
      </trkpt>
      <trkpt lat="47.36061" lon="0.04975">
        <ele>75</ele>
        <time>2013-02-17T09:30:18.000Z</time>
      </trkpt>
      <trkpt lat="47.36057" lon="0.04975">
        <ele>75</ele>
        <time>2013-02-17T09:30:22.000Z</time>
      </trkpt>
      <trkpt lat="47.36057" lon="0.04976">
        <ele>75</ele>
        <time>2013-02-17T09:30:23.000Z</time>
      </trkpt>
      <trkpt lat="47.36053" lon="0.04977">
        <ele>75</ele>
        <time>2013-02-17T09:30:27.000Z</time>
      </trkpt>
      <trkpt lat="47.36051" lon="0.04979">
        <ele>75</ele>
        <time>2013-02-17T09:30:28.000Z</time>
      </trkpt>
      <trkpt lat="47.36048" lon="0.04978">
        <ele>75</ele>
        <time>2013-02-17T09:30:31.000Z</time>
      </trkpt>
      <trkpt lat="47.36047" lon="0.0498">
        <ele>75</ele>
        <time>2013-02-17T09:30:32.000Z</time>
      </trkpt>
      <trkpt lat="47.36043" lon="0.04983">
        <ele>74</ele>
        <time>2013-02-17T09:30:35.000Z</time>
      </trkpt>
      <trkpt lat="47.36042" lon="0.04984">
        <ele>74</ele>
        <time>2013-02-17T09:30:36.000Z</time>
      </trkpt>
      <trkpt lat="47.36039" lon="0.04986">
        <ele>74</ele>
        <time>2013-02-17T09:30:38.000Z</time>
      </trkpt>
      <trkpt lat="47.36037" lon="0.04987">
        <ele>74</ele>
        <time>2013-02-17T09:30:39.000Z</time>
      </trkpt>
      <trkpt lat="47.36034" lon="0.0499">
        <ele>74</ele>
        <time>2013-02-17T09:30:42.000Z</time>
      </trkpt>
      <trkpt lat="47.36032" lon="0.04992">
        <ele>74</ele>
        <time>2013-02-17T09:30:43.000Z</time>
      </trkpt>
      <trkpt lat="47.36029" lon="0.04996">
        <ele>74</ele>
        <time>2013-02-17T09:30:45.000Z</time>
      </trkpt>
      <trkpt lat="47.36029" lon="0.04997">
        <ele>74</ele>
        <time>2013-02-17T09:30:46.000Z</time>
      </trkpt>
      <trkpt lat="47.36025" lon="0.05">
        <ele>74</ele>
        <time>2013-02-17T09:30:50.000Z</time>
      </trkpt>
      <trkpt lat="47.36023" lon="0.05">
        <ele>74</ele>
        <time>2013-02-17T09:30:51.000Z</time>
      </trkpt>
      <trkpt lat="47.36021" lon="0.05002">
        <ele>75</ele>
        <time>2013-02-17T09:30:53.000Z</time>
      </trkpt>
      <trkpt lat="47.3602" lon="0.05005">
        <ele>75</ele>
        <time>2013-02-17T09:30:54.000Z</time>
      </trkpt>
      <trkpt lat="47.36018" lon="0.0501">
        <ele>75</ele>
        <time>2013-02-17T09:30:56.000Z</time>
      </trkpt>
      <trkpt lat="47.36017" lon="0.05014">
        <ele>75</ele>
        <time>2013-02-17T09:30:57.000Z</time>
      </trkpt>
      <trkpt lat="47.36014" lon="0.05017">
        <ele>75</ele>
        <time>2013-02-17T09:31:00.000Z</time>
      </trkpt>
      <trkpt lat="47.36013" lon="0.05018">
        <ele>75</ele>
        <time>2013-02-17T09:31:01.000Z</time>
      </trkpt>
      <trkpt lat="47.3601" lon="0.05021">
        <ele>75</ele>
        <time>2013-02-17T09:31:03.000Z</time>
      </trkpt>
      <trkpt lat="47.36009" lon="0.05023">
        <ele>75</ele>
        <time>2013-02-17T09:31:04.000Z</time>
      </trkpt>
      <trkpt lat="47.36006" lon="0.05026">
        <ele>75</ele>
        <time>2013-02-17T09:31:08.000Z</time>
      </trkpt>
      <trkpt lat="47.36005" lon="0.05027">
        <ele>75</ele>
        <time>2013-02-17T09:31:09.000Z</time>
      </trkpt>
      <trkpt lat="47.36003" lon="0.05032">
        <ele>75</ele>
        <time>2013-02-17T09:31:11.000Z</time>
      </trkpt>
      <trkpt lat="47.36002" lon="0.05034">
        <ele>75</ele>
        <time>2013-02-17T09:31:12.000Z</time>
      </trkpt>
      <trkpt lat="47.36" lon="0.05038">
        <ele>74</ele>
        <time>2013-02-17T09:31:15.000Z</time>
      </trkpt>
      <trkpt lat="47.35999" lon="0.0504">
        <ele>74</ele>
        <time>2013-02-17T09:31:16.000Z</time>
      </trkpt>
      <trkpt lat="47.35997" lon="0.05045">
        <ele>74</ele>
        <time>2013-02-17T09:31:22.000Z</time>
      </trkpt>
      <trkpt lat="47.35996" lon="0.05047">
        <ele>74</ele>
        <time>2013-02-17T09:31:23.000Z</time>
      </trkpt>
      <trkpt lat="47.35992" lon="0.05047">
        <ele>74</ele>
        <time>2013-02-17T09:31:27.000Z</time>
      </trkpt>
      <trkpt lat="47.35991" lon="0.05048">
        <ele>74</ele>
        <time>2013-02-17T09:31:28.000Z</time>
      </trkpt>
      <trkpt lat="47.35989" lon="0.05052">
        <ele>74</ele>
        <time>2013-02-17T09:31:31.000Z</time>
      </trkpt>
      <trkpt lat="47.35988" lon="0.05053">
        <ele>74</ele>
        <time>2013-02-17T09:31:32.000Z</time>
      </trkpt>
      <trkpt lat="47.35985" lon="0.05056">
        <ele>74</ele>
        <time>2013-02-17T09:31:35.000Z</time>
      </trkpt>
      <trkpt lat="47.35984" lon="0.05058">
        <ele>74</ele>
        <time>2013-02-17T09:31:36.000Z</time>
      </trkpt>
      <trkpt lat="47.35981" lon="0.05062">
        <ele>74</ele>
        <time>2013-02-17T09:31:39.000Z</time>
      </trkpt>
      <trkpt lat="47.3598" lon="0.05063">
        <ele>74</ele>
        <time>2013-02-17T09:31:40.000Z</time>
      </trkpt>
      <trkpt lat="47.35977" lon="0.05068">
        <ele>74</ele>
        <time>2013-02-17T09:31:42.000Z</time>
      </trkpt>
      <trkpt lat="47.35976" lon="0.05071">
        <ele>75</ele>
        <time>2013-02-17T09:31:43.000Z</time>
      </trkpt>
      <trkpt lat="47.35974" lon="0.05075">
        <ele>75</ele>
        <time>2013-02-17T09:31:45.000Z</time>
      </trkpt>
      <trkpt lat="47.35972" lon="0.05076">
        <ele>75</ele>
        <time>2013-02-17T09:31:46.000Z</time>
      </trkpt>
      <trkpt lat="47.3597" lon="0.0508">
        <ele>75</ele>
        <time>2013-02-17T09:31:48.000Z</time>
      </trkpt>
      <trkpt lat="47.35969" lon="0.05081">
        <ele>75</ele>
        <time>2013-02-17T09:31:49.000Z</time>
      </trkpt>
      <trkpt lat="47.35967" lon="0.05083">
        <ele>75</ele>
        <time>2013-02-17T09:31:51.000Z</time>
      </trkpt>
      <trkpt lat="47.35965" lon="0.05085">
        <ele>75</ele>
        <time>2013-02-17T09:31:52.000Z</time>
      </trkpt>
      <trkpt lat="47.35962" lon="0.05088">
        <ele>75</ele>
        <time>2013-02-17T09:31:55.000Z</time>
      </trkpt>
      <trkpt lat="47.3596" lon="0.05089">
        <ele>75</ele>
        <time>2013-02-17T09:31:56.000Z</time>
      </trkpt>
      <trkpt lat="47.35957" lon="0.05092">
        <ele>75</ele>
        <time>2013-02-17T09:31:58.000Z</time>
      </trkpt>
      <trkpt lat="47.35955" lon="0.05093">
        <ele>75</ele>
        <time>2013-02-17T09:31:59.000Z</time>
      </trkpt>
      <trkpt lat="47.35952" lon="0.05096">
        <ele>76</ele>
        <time>2013-02-17T09:32:01.000Z</time>
      </trkpt>
      <trkpt lat="47.35951" lon="0.05097">
        <ele>76</ele>
        <time>2013-02-17T09:32:02.000Z</time>
      </trkpt>
      <trkpt lat="47.35948" lon="0.05101">
        <ele>76</ele>
        <time>2013-02-17T09:32:05.000Z</time>
      </trkpt>
      <trkpt lat="47.35947" lon="0.05101">
        <ele>76</ele>
        <time>2013-02-17T09:32:06.000Z</time>
      </trkpt>
      <trkpt lat="47.35943" lon="0.05101">
        <ele>76</ele>
        <time>2013-02-17T09:32:13.000Z</time>
      </trkpt>
      <trkpt lat="47.35943" lon="0.05099">
        <ele>75</ele>
        <time>2013-02-17T09:32:14.000Z</time>
      </trkpt>
      <trkpt lat="47.35939" lon="0.05099">
        <ele>75</ele>
        <time>2013-02-17T09:32:18.000Z</time>
      </trkpt>
      <trkpt lat="47.35938" lon="0.05101">
        <ele>75</ele>
        <time>2013-02-17T09:32:19.000Z</time>
      </trkpt>
      <trkpt lat="47.35934" lon="0.05102">
        <ele>75</ele>
        <time>2013-02-17T09:32:22.000Z</time>
      </trkpt>
      <trkpt lat="47.35933" lon="0.05102">
        <ele>75</ele>
        <time>2013-02-17T09:32:23.000Z</time>
      </trkpt>
      <trkpt lat="47.3593" lon="0.05102">
        <ele>75</ele>
        <time>2013-02-17T09:32:27.000Z</time>
      </trkpt>
      <trkpt lat="47.35928" lon="0.05103">
        <ele>75</ele>
        <time>2013-02-17T09:32:28.000Z</time>
      </trkpt>
      <trkpt lat="47.35925" lon="0.05107">
        <ele>75</ele>
        <time>2013-02-17T09:32:31.000Z</time>
      </trkpt>
      <trkpt lat="47.35924" lon="0.05108">
        <ele>75</ele>
        <time>2013-02-17T09:32:32.000Z</time>
      </trkpt>
      <trkpt lat="47.35921" lon="0.05111">
        <ele>76</ele>
        <time>2013-02-17T09:32:35.000Z</time>
      </trkpt>
      <trkpt lat="47.3592" lon="0.05113">
        <ele>76</ele>
        <time>2013-02-17T09:32:36.000Z</time>
      </trkpt>
      <trkpt lat="47.35916" lon="0.05114">
        <ele>75</ele>
        <time>2013-02-17T09:32:40.000Z</time>
      </trkpt>
      <trkpt lat="47.35915" lon="0.05115">
        <ele>75</ele>
        <time>2013-02-17T09:32:41.000Z</time>
      </trkpt>
      <trkpt lat="47.35911" lon="0.05117">
        <ele>75</ele>
        <time>2013-02-17T09:32:45.000Z</time>
      </trkpt>
      <trkpt lat="47.3591" lon="0.05118">
        <ele>75</ele>
        <time>2013-02-17T09:32:46.000Z</time>
      </trkpt>
      <trkpt lat="47.35907" lon="0.05122">
        <ele>75</ele>
        <time>2013-02-17T09:32:49.000Z</time>
      </trkpt>
      <trkpt lat="47.35905" lon="0.05123">
        <ele>75</ele>
        <time>2013-02-17T09:32:50.000Z</time>
      </trkpt>
      <trkpt lat="47.35901" lon="0.05125">
        <ele>75</ele>
        <time>2013-02-17T09:32:53.000Z</time>
      </trkpt>
      <trkpt lat="47.359" lon="0.05125">
        <ele>75</ele>
        <time>2013-02-17T09:32:54.000Z</time>
      </trkpt>
      <trkpt lat="47.35896" lon="0.05125">
        <ele>75</ele>
        <time>2013-02-17T09:33:01.000Z</time>
      </trkpt>
      <trkpt lat="47.35895" lon="0.05125">
        <ele>75</ele>
        <time>2013-02-17T09:33:02.000Z</time>
      </trkpt>
      <trkpt lat="47.35892" lon="0.05128">
        <ele>75</ele>
        <time>2013-02-17T09:33:05.000Z</time>
      </trkpt>
      <trkpt lat="47.35891" lon="0.05129">
        <ele>75</ele>
        <time>2013-02-17T09:33:06.000Z</time>
      </trkpt>
      <trkpt lat="47.35888" lon="0.05132">
        <ele>75</ele>
        <time>2013-02-17T09:33:08.000Z</time>
      </trkpt>
      <trkpt lat="47.35886" lon="0.05134">
        <ele>75</ele>
        <time>2013-02-17T09:33:09.000Z</time>
      </trkpt>
      <trkpt lat="47.35884" lon="0.05135">
        <ele>75</ele>
        <time>2013-02-17T09:33:11.000Z</time>
      </trkpt>
      <trkpt lat="47.35882" lon="0.05137">
        <ele>75</ele>
        <time>2013-02-17T09:33:12.000Z</time>
      </trkpt>
      <trkpt lat="47.35879" lon="0.05137">
        <ele>75</ele>
        <time>2013-02-17T09:33:14.000Z</time>
      </trkpt>
      <trkpt lat="47.35877" lon="0.05139">
        <ele>75</ele>
        <time>2013-02-17T09:33:15.000Z</time>
      </trkpt>
      <trkpt lat="47.35873" lon="0.05142">
        <ele>75</ele>
        <time>2013-02-17T09:33:18.000Z</time>
      </trkpt>
      <trkpt lat="47.35872" lon="0.05143">
        <ele>75</ele>
        <time>2013-02-17T09:33:19.000Z</time>
      </trkpt>
      <trkpt lat="47.35868" lon="0.05146">
        <ele>75</ele>
        <time>2013-02-17T09:33:22.000Z</time>
      </trkpt>
      <trkpt lat="47.35867" lon="0.05146">
        <ele>75</ele>
        <time>2013-02-17T09:33:23.000Z</time>
      </trkpt>
      <trkpt lat="47.35863" lon="0.05148">
        <ele>75</ele>
        <time>2013-02-17T09:33:26.000Z</time>
      </trkpt>
      <trkpt lat="47.35862" lon="0.05148">
        <ele>75</ele>
        <time>2013-02-17T09:33:27.000Z</time>
      </trkpt>
      <trkpt lat="47.35859" lon="0.05149">
        <ele>75</ele>
        <time>2013-02-17T09:33:30.000Z</time>
      </trkpt>
      <trkpt lat="47.35857" lon="0.0515">
        <ele>75</ele>
        <time>2013-02-17T09:33:31.000Z</time>
      </trkpt>
      <trkpt lat="47.35853" lon="0.0515">
        <ele>75</ele>
        <time>2013-02-17T09:33:34.000Z</time>
      </trkpt>
      <trkpt lat="47.35852" lon="0.0515">
        <ele>75</ele>
        <time>2013-02-17T09:33:35.000Z</time>
      </trkpt>
      <trkpt lat="47.35849" lon="0.05152">
        <ele>75</ele>
        <time>2013-02-17T09:33:37.000Z</time>
      </trkpt>
      <trkpt lat="47.35848" lon="0.05154">
        <ele>75</ele>
        <time>2013-02-17T09:33:38.000Z</time>
      </trkpt>
      <trkpt lat="47.35844" lon="0.05155">
        <ele>75</ele>
        <time>2013-02-17T09:33:42.000Z</time>
      </trkpt>
      <trkpt lat="47.35843" lon="0.05155">
        <ele>75</ele>
        <time>2013-02-17T09:33:43.000Z</time>
      </trkpt>
      <trkpt lat="47.35839" lon="0.05159">
        <ele>75</ele>
        <time>2013-02-17T09:33:47.000Z</time>
      </trkpt>
      <trkpt lat="47.35838" lon="0.0516">
        <ele>75</ele>
        <time>2013-02-17T09:33:48.000Z</time>
      </trkpt>
      <trkpt lat="47.35834" lon="0.05163">
        <ele>75</ele>
        <time>2013-02-17T09:33:54.000Z</time>
      </trkpt>
      <trkpt lat="47.35834" lon="0.05164">
        <ele>75</ele>
        <time>2013-02-17T09:33:55.000Z</time>
      </trkpt>
      <trkpt lat="47.35831" lon="0.05167">
        <ele>75</ele>
        <time>2013-02-17T09:33:59.000Z</time>
      </trkpt>
      <trkpt lat="47.3583" lon="0.05168">
        <ele>75</ele>
        <time>2013-02-17T09:34:00.000Z</time>
      </trkpt>
      <trkpt lat="47.35825" lon="0.05168">
        <ele>76</ele>
        <time>2013-02-17T09:34:03.000Z</time>
      </trkpt>
      <trkpt lat="47.35824" lon="0.05168">
        <ele>76</ele>
        <time>2013-02-17T09:34:04.000Z</time>
      </trkpt>
      <trkpt lat="47.35821" lon="0.05169">
        <ele>76</ele>
        <time>2013-02-17T09:34:07.000Z</time>
      </trkpt>
      <trkpt lat="47.3582" lon="0.0517">
        <ele>76</ele>
        <time>2013-02-17T09:34:08.000Z</time>
      </trkpt>
      <trkpt lat="47.35815" lon="0.0517">
        <ele>76</ele>
        <time>2013-02-17T09:34:12.000Z</time>
      </trkpt>
      <trkpt lat="47.35815" lon="0.05171">
        <ele>76</ele>
        <time>2013-02-17T09:34:13.000Z</time>
      </trkpt>
      <trkpt lat="47.35811" lon="0.0517">
        <ele>76</ele>
        <time>2013-02-17T09:34:16.000Z</time>
      </trkpt>
      <trkpt lat="47.3581" lon="0.0517">
        <ele>76</ele>
        <time>2013-02-17T09:34:17.000Z</time>
      </trkpt>
      <trkpt lat="47.35806" lon="0.05172">
        <ele>76</ele>
        <time>2013-02-17T09:34:20.000Z</time>
      </trkpt>
      <trkpt lat="47.35805" lon="0.05172">
        <ele>76</ele>
        <time>2013-02-17T09:34:21.000Z</time>
      </trkpt>
      <trkpt lat="47.35802" lon="0.05176">
        <ele>76</ele>
        <time>2013-02-17T09:34:23.000Z</time>
      </trkpt>
      <trkpt lat="47.35801" lon="0.05177">
        <ele>76</ele>
        <time>2013-02-17T09:34:24.000Z</time>
      </trkpt>
      <trkpt lat="47.35798" lon="0.0518">
        <ele>76</ele>
        <time>2013-02-17T09:34:27.000Z</time>
      </trkpt>
      <trkpt lat="47.35797" lon="0.05181">
        <ele>77</ele>
        <time>2013-02-17T09:34:28.000Z</time>
      </trkpt>
      <trkpt lat="47.35794" lon="0.05184">
        <ele>77</ele>
        <time>2013-02-17T09:34:30.000Z</time>
      </trkpt>
      <trkpt lat="47.35792" lon="0.05184">
        <ele>77</ele>
        <time>2013-02-17T09:34:31.000Z</time>
      </trkpt>
      <trkpt lat="47.35788" lon="0.05186">
        <ele>77</ele>
        <time>2013-02-17T09:34:34.000Z</time>
      </trkpt>
      <trkpt lat="47.35787" lon="0.05187">
        <ele>77</ele>
        <time>2013-02-17T09:34:35.000Z</time>
      </trkpt>
      <trkpt lat="47.35784" lon="0.05189">
        <ele>77</ele>
        <time>2013-02-17T09:34:37.000Z</time>
      </trkpt>
      <trkpt lat="47.35783" lon="0.05192">
        <ele>77</ele>
        <time>2013-02-17T09:34:38.000Z</time>
      </trkpt>
      <trkpt lat="47.3578" lon="0.05194">
        <ele>77</ele>
        <time>2013-02-17T09:34:42.000Z</time>
      </trkpt>
      <trkpt lat="47.35779" lon="0.05195">
        <ele>77</ele>
        <time>2013-02-17T09:34:43.000Z</time>
      </trkpt>
      <trkpt lat="47.35776" lon="0.05199">
        <ele>77</ele>
        <time>2013-02-17T09:34:48.000Z</time>
      </trkpt>
      <trkpt lat="47.35775" lon="0.052">
        <ele>77</ele>
        <time>2013-02-17T09:34:49.000Z</time>
      </trkpt>
      <trkpt lat="47.35771" lon="0.052">
        <ele>77</ele>
        <time>2013-02-17T09:34:53.000Z</time>
      </trkpt>
      <trkpt lat="47.35771" lon="0.05201">
        <ele>77</ele>
        <time>2013-02-17T09:34:54.000Z</time>
      </trkpt>
      <trkpt lat="47.35768" lon="0.05204">
        <ele>77</ele>
        <time>2013-02-17T09:34:59.000Z</time>
      </trkpt>
      <trkpt lat="47.35766" lon="0.05204">
        <ele>77</ele>
        <time>2013-02-17T09:35:00.000Z</time>
      </trkpt>
      <trkpt lat="47.35762" lon="0.05205">
        <ele>77</ele>
        <time>2013-02-17T09:35:04.000Z</time>
      </trkpt>
      <trkpt lat="47.35762" lon="0.05205">
        <ele>77</ele>
        <time>2013-02-17T09:35:05.000Z</time>
      </trkpt>
      <trkpt lat="47.35759" lon="0.05209">
        <ele>77</ele>
        <time>2013-02-17T09:35:08.000Z</time>
      </trkpt>
      <trkpt lat="47.35758" lon="0.05211">
        <ele>77</ele>
        <time>2013-02-17T09:35:09.000Z</time>
      </trkpt>
      <trkpt lat="47.35755" lon="0.05216">
        <ele>77</ele>
        <time>2013-02-17T09:35:11.000Z</time>
      </trkpt>
      <trkpt lat="47.35754" lon="0.05218">
        <ele>77</ele>
        <time>2013-02-17T09:35:12.000Z</time>
      </trkpt>
      <trkpt lat="47.35751" lon="0.05221">
        <ele>78</ele>
        <time>2013-02-17T09:35:16.000Z</time>
      </trkpt>
      <trkpt lat="47.3575" lon="0.05223">
        <ele>78</ele>
        <time>2013-02-17T09:35:17.000Z</time>
      </trkpt>
      <trkpt lat="47.35749" lon="0.05225">
        <ele>78</ele>
        <time>2013-02-17T09:35:19.000Z</time>
      </trkpt>
      <trkpt lat="47.35747" lon="0.05227">
        <ele>78</ele>
        <time>2013-02-17T09:35:20.000Z</time>
      </trkpt>
      <trkpt lat="47.35743" lon="0.05229">
        <ele>78</ele>
        <time>2013-02-17T09:35:24.000Z</time>
      </trkpt>
      <trkpt lat="47.35742" lon="0.0523">
        <ele>78</ele>
        <time>2013-02-17T09:35:25.000Z</time>
      </trkpt>
      <trkpt lat="47.35738" lon="0.05231">
        <ele>78</ele>
        <time>2013-02-17T09:35:30.000Z</time>
      </trkpt>
      <trkpt lat="47.35737" lon="0.05232">
        <ele>78</ele>
        <time>2013-02-17T09:35:31.000Z</time>
      </trkpt>
      <trkpt lat="47.35733" lon="0.05235">
        <ele>78</ele>
        <time>2013-02-17T09:35:36.000Z</time>
      </trkpt>
      <trkpt lat="47.35732" lon="0.05236">
        <ele>78</ele>
        <time>2013-02-17T09:35:37.000Z</time>
      </trkpt>
      <trkpt lat="47.3573" lon="0.05238">
        <ele>78</ele>
        <time>2013-02-17T09:35:40.000Z</time>
      </trkpt>
      <trkpt lat="47.35728" lon="0.05239">
        <ele>78</ele>
        <time>2013-02-17T09:35:41.000Z</time>
      </trkpt>
      <trkpt lat="47.35726" lon="0.05244">
        <ele>78</ele>
        <time>2013-02-17T09:35:45.000Z</time>
      </trkpt>
      <trkpt lat="47.35726" lon="0.05245">
        <ele>78</ele>
        <time>2013-02-17T09:35:46.000Z</time>
      </trkpt>
      <trkpt lat="47.35722" lon="0.05248">
        <ele>79</ele>
        <time>2013-02-17T09:35:51.000Z</time>
      </trkpt>
      <trkpt lat="47.35722" lon="0.05249">
        <ele>79</ele>
        <time>2013-02-17T09:35:52.000Z</time>
      </trkpt>
      <trkpt lat="47.35717" lon="0.05248">
        <ele>79</ele>
        <time>2013-02-17T09:36:02.000Z</time>
      </trkpt>
      <trkpt lat="47.35717" lon="0.05248">
        <ele>79</ele>
        <time>2013-02-17T09:36:03.000Z</time>
      </trkpt>
      <trkpt lat="47.35713" lon="0.05249">
        <ele>79</ele>
        <time>2013-02-17T09:36:10.000Z</time>
      </trkpt>
      <trkpt lat="47.35712" lon="0.05249">
        <ele>79</ele>
        <time>2013-02-17T09:36:11.000Z</time>
      </trkpt>
      <trkpt lat="47.35709" lon="0.0525">
        <ele>79</ele>
        <time>2013-02-17T09:36:15.000Z</time>
      </trkpt>
      <trkpt lat="47.35707" lon="0.05254">
        <ele>79</ele>
        <time>2013-02-17T09:36:16.000Z</time>
      </trkpt>
      <trkpt lat="47.35705" lon="0.05256">
        <ele>79</ele>
        <time>2013-02-17T09:36:19.000Z</time>
      </trkpt>
      <trkpt lat="47.35704" lon="0.05258">
        <ele>79</ele>
        <time>2013-02-17T09:36:20.000Z</time>
      </trkpt>
      <trkpt lat="47.35701" lon="0.05263">
        <ele>79</ele>
        <time>2013-02-17T09:36:22.000Z</time>
      </trkpt>
      <trkpt lat="47.35699" lon="0.05264">
        <ele>79</ele>
        <time>2013-02-17T09:36:23.000Z</time>
      </trkpt>
      <trkpt lat="47.35697" lon="0.05268">
        <ele>79</ele>
        <time>2013-02-17T09:36:26.000Z</time>
      </trkpt>
      <trkpt lat="47.35696" lon="0.0527">
        <ele>79</ele>
        <time>2013-02-17T09:36:27.000Z</time>
      </trkpt>
      <trkpt lat="47.35693" lon="0.05273">
        <ele>79</ele>
        <time>2013-02-17T09:36:30.000Z</time>
      </trkpt>
      <trkpt lat="47.35692" lon="0.05273">
        <ele>79</ele>
        <time>2013-02-17T09:36:31.000Z</time>
      </trkpt>
      <trkpt lat="47.35688" lon="0.05271">
        <ele>79</ele>
        <time>2013-02-17T09:36:37.000Z</time>
      </trkpt>
      <trkpt lat="47.35687" lon="0.05272">
        <ele>79</ele>
        <time>2013-02-17T09:36:38.000Z</time>
      </trkpt>
      <trkpt lat="47.35683" lon="0.05274">
        <ele>79</ele>
        <time>2013-02-17T09:36:42.000Z</time>
      </trkpt>
      <trkpt lat="47.35682" lon="0.05275">
        <ele>79</ele>
        <time>2013-02-17T09:36:43.000Z</time>
      </trkpt>
      <trkpt lat="47.35678" lon="0.05277">
        <ele>79</ele>
        <time>2013-02-17T09:36:46.000Z</time>
      </trkpt>
      <trkpt lat="47.35677" lon="0.0528">
        <ele>79</ele>
        <time>2013-02-17T09:36:47.000Z</time>
      </trkpt>
      <trkpt lat="47.35676" lon="0.05286">
        <ele>79</ele>
        <time>2013-02-17T09:36:50.000Z</time>
      </trkpt>
      <trkpt lat="47.35675" lon="0.05289">
        <ele>79</ele>
        <time>2013-02-17T09:36:51.000Z</time>
      </trkpt>
      <trkpt lat="47.35673" lon="0.05294">
        <ele>79</ele>
        <time>2013-02-17T09:36:53.000Z</time>
      </trkpt>
      <trkpt lat="47.35671" lon="0.05296">
        <ele>79</ele>
        <time>2013-02-17T09:36:54.000Z</time>
      </trkpt>
      <trkpt lat="47.35669" lon="0.05301">
        <ele>79</ele>
        <time>2013-02-17T09:36:57.000Z</time>
      </trkpt>
      <trkpt lat="47.35669" lon="0.05301">
        <ele>79</ele>
        <time>2013-02-17T09:36:58.000Z</time>
      </trkpt>
      <trkpt lat="47.35666" lon="0.05306">
        <ele>79</ele>
        <time>2013-02-17T09:37:04.000Z</time>
      </trkpt>
      <trkpt lat="47.35665" lon="0.05307">
        <ele>79</ele>
        <time>2013-02-17T09:37:05.000Z</time>
      </trkpt>
      <trkpt lat="47.35663" lon="0.05311">
        <ele>79</ele>
        <time>2013-02-17T09:37:07.000Z</time>
      </trkpt>
      <trkpt lat="47.35663" lon="0.05313">
        <ele>79</ele>
        <time>2013-02-17T09:37:08.000Z</time>
      </trkpt>
      <trkpt lat="47.3566" lon="0.05315">
        <ele>79</ele>
        <time>2013-02-17T09:37:10.000Z</time>
      </trkpt>
      <trkpt lat="47.35659" lon="0.05317">
        <ele>79</ele>
        <time>2013-02-17T09:37:11.000Z</time>
      </trkpt>
      <trkpt lat="47.35655" lon="0.05318">
        <ele>78</ele>
        <time>2013-02-17T09:37:13.000Z</time>
      </trkpt>
      <trkpt lat="47.35654" lon="0.05319">
        <ele>78</ele>
        <time>2013-02-17T09:37:14.000Z</time>
      </trkpt>
      <trkpt lat="47.3565" lon="0.05321">
        <ele>78</ele>
        <time>2013-02-17T09:37:17.000Z</time>
      </trkpt>
      <trkpt lat="47.35649" lon="0.05322">
        <ele>78</ele>
        <time>2013-02-17T09:37:18.000Z</time>
      </trkpt>
      <trkpt lat="47.35646" lon="0.05323">
        <ele>78</ele>
        <time>2013-02-17T09:37:21.000Z</time>
      </trkpt>
      <trkpt lat="47.35644" lon="0.05323">
        <ele>78</ele>
        <time>2013-02-17T09:37:22.000Z</time>
      </trkpt>
      <trkpt lat="47.35641" lon="0.05324">
        <ele>78</ele>
        <time>2013-02-17T09:37:25.000Z</time>
      </trkpt>
      <trkpt lat="47.3564" lon="0.05325">
        <ele>78</ele>
        <time>2013-02-17T09:37:26.000Z</time>
      </trkpt>
      <trkpt lat="47.35636" lon="0.05325">
        <ele>78</ele>
        <time>2013-02-17T09:37:30.000Z</time>
      </trkpt>
      <trkpt lat="47.35635" lon="0.05325">
        <ele>78</ele>
        <time>2013-02-17T09:37:31.000Z</time>
      </trkpt>
      <trkpt lat="47.35632" lon="0.05329">
        <ele>78</ele>
        <time>2013-02-17T09:37:35.000Z</time>
      </trkpt>
      <trkpt lat="47.35631" lon="0.05329">
        <ele>78</ele>
        <time>2013-02-17T09:37:36.000Z</time>
      </trkpt>
      <trkpt lat="47.35627" lon="0.05333">
        <ele>78</ele>
        <time>2013-02-17T09:37:39.000Z</time>
      </trkpt>
      <trkpt lat="47.35626" lon="0.05334">
        <ele>77</ele>
        <time>2013-02-17T09:37:40.000Z</time>
      </trkpt>
      <trkpt lat="47.35623" lon="0.05335">
        <ele>77</ele>
        <time>2013-02-17T09:37:43.000Z</time>
      </trkpt>
      <trkpt lat="47.35622" lon="0.05336">
        <ele>77</ele>
        <time>2013-02-17T09:37:44.000Z</time>
      </trkpt>
      <trkpt lat="47.35617" lon="0.05337">
        <ele>77</ele>
        <time>2013-02-17T09:37:48.000Z</time>
      </trkpt>
      <trkpt lat="47.35616" lon="0.05337">
        <ele>77</ele>
        <time>2013-02-17T09:37:49.000Z</time>
      </trkpt>
      <trkpt lat="47.35612" lon="0.05336">
        <ele>77</ele>
        <time>2013-02-17T09:37:52.000Z</time>
      </trkpt>
      <trkpt lat="47.35611" lon="0.05335">
        <ele>77</ele>
        <time>2013-02-17T09:37:53.000Z</time>
      </trkpt>
      <trkpt lat="47.35607" lon="0.05334">
        <ele>77</ele>
        <time>2013-02-17T09:37:56.000Z</time>
      </trkpt>
      <trkpt lat="47.35606" lon="0.05334">
        <ele>77</ele>
        <time>2013-02-17T09:37:57.000Z</time>
      </trkpt>
      <trkpt lat="47.35602" lon="0.0533">
        <ele>77</ele>
        <time>2013-02-17T09:38:00.000Z</time>
      </trkpt>
      <trkpt lat="47.35601" lon="0.05329">
        <ele>77</ele>
        <time>2013-02-17T09:38:01.000Z</time>
      </trkpt>
      <trkpt lat="47.35598" lon="0.05326">
        <ele>77</ele>
        <time>2013-02-17T09:38:04.000Z</time>
      </trkpt>
      <trkpt lat="47.35597" lon="0.05325">
        <ele>77</ele>
        <time>2013-02-17T09:38:05.000Z</time>
      </trkpt>
      <trkpt lat="47.35594" lon="0.0532">
        <ele>77</ele>
        <time>2013-02-17T09:38:08.000Z</time>
      </trkpt>
      <trkpt lat="47.35593" lon="0.05319">
        <ele>77</ele>
        <time>2013-02-17T09:38:09.000Z</time>
      </trkpt>
      <trkpt lat="47.35591" lon="0.05315">
        <ele>77</ele>
        <time>2013-02-17T09:38:14.000Z</time>
      </trkpt>
      <trkpt lat="47.3559" lon="0.05314">
        <ele>77</ele>
        <time>2013-02-17T09:38:15.000Z</time>
      </trkpt>
      <trkpt lat="47.35586" lon="0.0531">
        <ele>77</ele>
        <time>2013-02-17T09:38:18.000Z</time>
      </trkpt>
      <trkpt lat="47.35586" lon="0.05309">
        <ele>77</ele>
        <time>2013-02-17T09:38:19.000Z</time>
      </trkpt>
      <trkpt lat="47.35583" lon="0.05305">
        <ele>76</ele>
        <time>2013-02-17T09:38:21.000Z</time>
      </trkpt>
      <trkpt lat="47.35582" lon="0.05303">
        <ele>76</ele>
        <time>2013-02-17T09:38:22.000Z</time>
      </trkpt>
      <trkpt lat="47.35579" lon="0.05299">
        <ele>76</ele>
        <time>2013-02-17T09:38:25.000Z</time>
      </trkpt>
      <trkpt lat="47.35578" lon="0.05299">
        <ele>76</ele>
        <time>2013-02-17T09:38:26.000Z</time>
      </trkpt>
      <trkpt lat="47.35576" lon="0.05296">
        <ele>76</ele>
        <time>2013-02-17T09:38:28.000Z</time>
      </trkpt>
      <trkpt lat="47.35574" lon="0.05294">
        <ele>76</ele>
        <time>2013-02-17T09:38:29.000Z</time>
      </trkpt>
      <trkpt lat="47.35572" lon="0.0529">
        <ele>76</ele>
        <time>2013-02-17T09:38:32.000Z</time>
      </trkpt>
      <trkpt lat="47.35571" lon="0.05288">
        <ele>76</ele>
        <time>2013-02-17T09:38:33.000Z</time>
      </trkpt>
      <trkpt lat="47.35568" lon="0.05285">
        <ele>76</ele>
        <time>2013-02-17T09:38:36.000Z</time>
      </trkpt>
      <trkpt lat="47.35567" lon="0.05283">
        <ele>76</ele>
        <time>2013-02-17T09:38:37.000Z</time>
      </trkpt>
      <trkpt lat="47.35564" lon="0.0528">
        <ele>76</ele>
        <time>2013-02-17T09:38:39.000Z</time>
      </trkpt>
      <trkpt lat="47.35562" lon="0.05277">
        <ele>76</ele>
        <time>2013-02-17T09:38:40.000Z</time>
      </trkpt>
      <trkpt lat="47.35561" lon="0.05271">
        <ele>76</ele>
        <time>2013-02-17T09:38:42.000Z</time>
      </trkpt>
      <trkpt lat="47.3556" lon="0.0527">
        <ele>76</ele>
        <time>2013-02-17T09:38:43.000Z</time>
      </trkpt>
      <trkpt lat="47.35558" lon="0.05267">
        <ele>76</ele>
        <time>2013-02-17T09:38:45.000Z</time>
      </trkpt>
      <trkpt lat="47.35556" lon="0.05265">
        <ele>76</ele>
        <time>2013-02-17T09:38:46.000Z</time>
      </trkpt>
      <trkpt lat="47.35552" lon="0.05261">
        <ele>76</ele>
        <time>2013-02-17T09:38:48.000Z</time>
      </trkpt>
      <trkpt lat="47.35552" lon="0.05259">
        <ele>76</ele>
        <time>2013-02-17T09:38:49.000Z</time>
      </trkpt>
      <trkpt lat="47.3555" lon="0.05253">
        <ele>76</ele>
        <time>2013-02-17T09:38:56.000Z</time>
      </trkpt>
      <trkpt lat="47.35549" lon="0.05252">
        <ele>76</ele>
        <time>2013-02-17T09:38:57.000Z</time>
      </trkpt>
      <trkpt lat="47.35547" lon="0.05247">
        <ele>76</ele>
        <time>2013-02-17T09:39:00.000Z</time>
      </trkpt>
      <trkpt lat="47.35546" lon="0.05246">
        <ele>76</ele>
        <time>2013-02-17T09:39:01.000Z</time>
      </trkpt>
      <trkpt lat="47.35542" lon="0.05245">
        <ele>76</ele>
        <time>2013-02-17T09:39:04.000Z</time>
      </trkpt>
      <trkpt lat="47.35539" lon="0.05244">
        <ele>76</ele>
        <time>2013-02-17T09:39:05.000Z</time>
      </trkpt>
      <trkpt lat="47.35535" lon="0.05241">
        <ele>76</ele>
        <time>2013-02-17T09:39:10.000Z</time>
      </trkpt>
      <trkpt lat="47.35534" lon="0.0524">
        <ele>76</ele>
        <time>2013-02-17T09:39:11.000Z</time>
      </trkpt>
      <trkpt lat="47.35531" lon="0.05237">
        <ele>76</ele>
        <time>2013-02-17T09:39:16.000Z</time>
      </trkpt>
      <trkpt lat="47.3553" lon="0.05235">
        <ele>75</ele>
        <time>2013-02-17T09:39:17.000Z</time>
      </trkpt>
      <trkpt lat="47.35526" lon="0.05234">
        <ele>75</ele>
        <time>2013-02-17T09:39:21.000Z</time>
      </trkpt>
      <trkpt lat="47.35525" lon="0.05235">
        <ele>75</ele>
        <time>2013-02-17T09:39:22.000Z</time>
      </trkpt>
      <trkpt lat="47.35521" lon="0.05232">
        <ele>75</ele>
        <time>2013-02-17T09:39:25.000Z</time>
      </trkpt>
      <trkpt lat="47.3552" lon="0.0523">
        <ele>75</ele>
        <time>2013-02-17T09:39:26.000Z</time>
      </trkpt>
      <trkpt lat="47.35517" lon="0.05226">
        <ele>75</ele>
        <time>2013-02-17T09:39:29.000Z</time>
      </trkpt>
      <trkpt lat="47.35516" lon="0.05225">
        <ele>75</ele>
        <time>2013-02-17T09:39:30.000Z</time>
      </trkpt>
      <trkpt lat="47.35513" lon="0.0522">
        <ele>75</ele>
        <time>2013-02-17T09:39:33.000Z</time>
      </trkpt>
      <trkpt lat="47.35513" lon="0.05219">
        <ele>75</ele>
        <time>2013-02-17T09:39:34.000Z</time>
      </trkpt>
      <trkpt lat="47.3551" lon="0.05213">
        <ele>75</ele>
        <time>2013-02-17T09:39:38.000Z</time>
      </trkpt>
      <trkpt lat="47.35511" lon="0.0521">
        <ele>75</ele>
        <time>2013-02-17T09:39:39.000Z</time>
      </trkpt>
      <trkpt lat="47.3551" lon="0.05204">
        <ele>75</ele>
        <time>2013-02-17T09:39:45.000Z</time>
      </trkpt>
      <trkpt lat="47.35509" lon="0.05203">
        <ele>75</ele>
        <time>2013-02-17T09:39:46.000Z</time>
      </trkpt>
      <trkpt lat="47.35507" lon="0.05199">
        <ele>75</ele>
        <time>2013-02-17T09:39:50.000Z</time>
      </trkpt>
      <trkpt lat="47.35506" lon="0.05198">
        <ele>75</ele>
        <time>2013-02-17T09:39:51.000Z</time>
      </trkpt>
      <trkpt lat="47.35503" lon="0.05193">
        <ele>75</ele>
        <time>2013-02-17T09:39:53.000Z</time>
      </trkpt>
      <trkpt lat="47.35502" lon="0.05192">
        <ele>75</ele>
        <time>2013-02-17T09:39:54.000Z</time>
      </trkpt>
      <trkpt lat="47.35499" lon="0.05189">
        <ele>75</ele>
        <time>2013-02-17T09:40:00.000Z</time>
      </trkpt>
      <trkpt lat="47.35496" lon="0.05185">
        <ele>75</ele>
        <time>2013-02-17T09:40:01.000Z</time>
      </trkpt>
      <trkpt lat="47.35494" lon="0.05181">
        <ele>75</ele>
        <time>2013-02-17T09:40:07.000Z</time>
      </trkpt>
      <trkpt lat="47.35493" lon="0.05179">
        <ele>75</ele>
        <time>2013-02-17T09:40:08.000Z</time>
      </trkpt>
      <trkpt lat="47.35491" lon="0.05176">
        <ele>75</ele>
        <time>2013-02-17T09:40:10.000Z</time>
      </trkpt>
      <trkpt lat="47.3549" lon="0.05174">
        <ele>75</ele>
        <time>2013-02-17T09:40:11.000Z</time>
      </trkpt>
      <trkpt lat="47.35487" lon="0.05171">
        <ele>75</ele>
        <time>2013-02-17T09:40:13.000Z</time>
      </trkpt>
      <trkpt lat="47.35486" lon="0.0517">
        <ele>75</ele>
        <time>2013-02-17T09:40:14.000Z</time>
      </trkpt>
      <trkpt lat="47.35482" lon="0.05168">
        <ele>75</ele>
        <time>2013-02-17T09:40:17.000Z</time>
      </trkpt>
      <trkpt lat="47.35481" lon="0.05168">
        <ele>75</ele>
        <time>2013-02-17T09:40:18.000Z</time>
      </trkpt>
      <trkpt lat="47.35477" lon="0.05167">
        <ele>75</ele>
        <time>2013-02-17T09:40:24.000Z</time>
      </trkpt>
      <trkpt lat="47.35476" lon="0.05167">
        <ele>75</ele>
        <time>2013-02-17T09:40:25.000Z</time>
      </trkpt>
      <trkpt lat="47.35472" lon="0.0517">
        <ele>75</ele>
        <time>2013-02-17T09:42:01.001Z</time>
      </trkpt>
      <trkpt lat="47.3547" lon="0.0517">
        <ele>75</ele>
        <time>2013-02-17T09:42:02.001Z</time>
      </trkpt>
      <trkpt lat="47.35466" lon="0.05172">
        <ele>75</ele>
        <time>2013-02-17T09:42:10.001Z</time>
      </trkpt>
      <trkpt lat="47.35465" lon="0.05173">
        <ele>75</ele>
        <time>2013-02-17T09:42:11.001Z</time>
      </trkpt>
      <trkpt lat="47.35463" lon="0.05177">
        <ele>75</ele>
        <time>2013-02-17T09:42:15.001Z</time>
      </trkpt>
      <trkpt lat="47.35462" lon="0.0518">
        <ele>75</ele>
        <time>2013-02-17T09:42:16.001Z</time>
      </trkpt>
      <trkpt lat="47.3546" lon="0.05183">
        <ele>75</ele>
        <time>2013-02-17T09:42:19.001Z</time>
      </trkpt>
      <trkpt lat="47.35459" lon="0.05185">
        <ele>75</ele>
        <time>2013-02-17T09:42:20.001Z</time>
      </trkpt>
      <trkpt lat="47.35455" lon="0.05186">
        <ele>75</ele>
        <time>2013-02-17T09:42:28.001Z</time>
      </trkpt>
      <trkpt lat="47.35454" lon="0.05187">
        <ele>75</ele>
        <time>2013-02-17T09:42:29.001Z</time>
      </trkpt>
      <trkpt lat="47.35452" lon="0.0519">
        <ele>75</ele>
        <time>2013-02-17T09:42:38.001Z</time>
      </trkpt>
      <trkpt lat="47.35452" lon="0.05193">
        <ele>75</ele>
        <time>2013-02-17T09:42:39.001Z</time>
      </trkpt>
      <trkpt lat="47.35452" lon="0.05197">
        <ele>75</ele>
        <time>2013-02-17T09:42:40.001Z</time>
      </trkpt>
      <trkpt lat="47.35451" lon="0.052">
        <ele>75</ele>
        <time>2013-02-17T09:42:41.001Z</time>
      </trkpt>
      <trkpt lat="47.3545" lon="0.05205">
        <ele>76</ele>
        <time>2013-02-17T09:42:45.001Z</time>
      </trkpt>
      <trkpt lat="47.35449" lon="0.05207">
        <ele>76</ele>
        <time>2013-02-17T09:42:46.001Z</time>
      </trkpt>
      <trkpt lat="47.35448" lon="0.05211">
        <ele>76</ele>
        <time>2013-02-17T09:42:51.001Z</time>
      </trkpt>
      <trkpt lat="47.35448" lon="0.05214">
        <ele>76</ele>
        <time>2013-02-17T09:42:52.001Z</time>
      </trkpt>
      <trkpt lat="47.35447" lon="0.0522">
        <ele>76</ele>
        <time>2013-02-17T09:42:57.001Z</time>
      </trkpt>
      <trkpt lat="47.35447" lon="0.05221">
        <ele>76</ele>
        <time>2013-02-17T09:42:58.001Z</time>
      </trkpt>
      <trkpt lat="47.35445" lon="0.05227">
        <ele>76</ele>
        <time>2013-02-17T09:43:03.001Z</time>
      </trkpt>
      <trkpt lat="47.35445" lon="0.05229">
        <ele>76</ele>
        <time>2013-02-17T09:43:04.001Z</time>
      </trkpt>
      <trkpt lat="47.35443" lon="0.05234">
        <ele>76</ele>
        <time>2013-02-17T09:43:08.001Z</time>
      </trkpt>
      <trkpt lat="47.35443" lon="0.05235">
        <ele>76</ele>
        <time>2013-02-17T09:43:09.001Z</time>
      </trkpt>
      <trkpt lat="47.35441" lon="0.0524">
        <ele>76</ele>
        <time>2013-02-17T09:43:13.001Z</time>
      </trkpt>
      <trkpt lat="47.3544" lon="0.05242">
        <ele>76</ele>
        <time>2013-02-17T09:43:14.001Z</time>
      </trkpt>
      <trkpt lat="47.35438" lon="0.05247">
        <ele>76</ele>
        <time>2013-02-17T09:43:17.001Z</time>
      </trkpt>
      <trkpt lat="47.35438" lon="0.05248">
        <ele>76</ele>
        <time>2013-02-17T09:43:18.001Z</time>
      </trkpt>
      <trkpt lat="47.35439" lon="0.05252">
        <ele>76</ele>
        <time>2013-02-17T09:43:21.001Z</time>
      </trkpt>
      <trkpt lat="47.35439" lon="0.05254">
        <ele>76</ele>
        <time>2013-02-17T09:43:22.001Z</time>
      </trkpt>
      <trkpt lat="47.35439" lon="0.05261">
        <ele>76</ele>
        <time>2013-02-17T09:43:25.001Z</time>
      </trkpt>
      <trkpt lat="47.35439" lon="0.05263">
        <ele>76</ele>
        <time>2013-02-17T09:43:26.001Z</time>
      </trkpt>
      <trkpt lat="47.35437" lon="0.05268">
        <ele>76</ele>
        <time>2013-02-17T09:43:29.001Z</time>
      </trkpt>
      <trkpt lat="47.35436" lon="0.0527">
        <ele>76</ele>
        <time>2013-02-17T09:43:30.001Z</time>
      </trkpt>
      <trkpt lat="47.35434" lon="0.05275">
        <ele>76</ele>
        <time>2013-02-17T09:43:35.001Z</time>
      </trkpt>
      <trkpt lat="47.35433" lon="0.05276">
        <ele>76</ele>
        <time>2013-02-17T09:43:36.001Z</time>
      </trkpt>
      <trkpt lat="47.35433" lon="0.05282">
        <ele>75</ele>
        <time>2013-02-17T09:43:39.001Z</time>
      </trkpt>
      <trkpt lat="47.35432" lon="0.05284">
        <ele>75</ele>
        <time>2013-02-17T09:43:40.001Z</time>
      </trkpt>
      <trkpt lat="47.3543" lon="0.05289">
        <ele>75</ele>
        <time>2013-02-17T09:43:42.001Z</time>
      </trkpt>
      <trkpt lat="47.3543" lon="0.05291">
        <ele>75</ele>
        <time>2013-02-17T09:43:43.001Z</time>
      </trkpt>
      <trkpt lat="47.35429" lon="0.05297">
        <ele>75</ele>
        <time>2013-02-17T09:43:45.001Z</time>
      </trkpt>
      <trkpt lat="47.35428" lon="0.05298">
        <ele>75</ele>
        <time>2013-02-17T09:43:46.001Z</time>
      </trkpt>
      <trkpt lat="47.35427" lon="0.05303">
        <ele>75</ele>
        <time>2013-02-17T09:43:51.001Z</time>
      </trkpt>
      <trkpt lat="47.35427" lon="0.05305">
        <ele>75</ele>
        <time>2013-02-17T09:43:52.001Z</time>
      </trkpt>
      <trkpt lat="47.35425" lon="0.05309">
        <ele>75</ele>
        <time>2013-02-17T09:43:57.001Z</time>
      </trkpt>
      <trkpt lat="47.35424" lon="0.0531">
        <ele>75</ele>
        <time>2013-02-17T09:43:58.001Z</time>
      </trkpt>
      <trkpt lat="47.35421" lon="0.05314">
        <ele>75</ele>
        <time>2013-02-17T09:44:00.001Z</time>
      </trkpt>
      <trkpt lat="47.3542" lon="0.05314">
        <ele>75</ele>
        <time>2013-02-17T09:44:01.001Z</time>
      </trkpt>
      <trkpt lat="47.35416" lon="0.05316">
        <ele>75</ele>
        <time>2013-02-17T09:44:03.001Z</time>
      </trkpt>
      <trkpt lat="47.35415" lon="0.05317">
        <ele>75</ele>
        <time>2013-02-17T09:44:04.001Z</time>
      </trkpt>
      <trkpt lat="47.35413" lon="0.0532">
        <ele>75</ele>
        <time>2013-02-17T09:44:06.001Z</time>
      </trkpt>
      <trkpt lat="47.35413" lon="0.05322">
        <ele>75</ele>
        <time>2013-02-17T09:44:07.001Z</time>
      </trkpt>
      <trkpt lat="47.35411" lon="0.05326">
        <ele>75</ele>
        <time>2013-02-17T09:44:10.001Z</time>
      </trkpt>
      <trkpt lat="47.35411" lon="0.05329">
        <ele>75</ele>
        <time>2013-02-17T09:44:11.001Z</time>
      </trkpt>
      <trkpt lat="47.35409" lon="0.05334">
        <ele>75</ele>
        <time>2013-02-17T09:44:14.001Z</time>
      </trkpt>
      <trkpt lat="47.35408" lon="0.05336">
        <ele>75</ele>
        <time>2013-02-17T09:44:15.001Z</time>
      </trkpt>
      <trkpt lat="47.35407" lon="0.05341">
        <ele>74</ele>
        <time>2013-02-17T09:44:19.001Z</time>
      </trkpt>
      <trkpt lat="47.35406" lon="0.05342">
        <ele>74</ele>
        <time>2013-02-17T09:44:20.001Z</time>
      </trkpt>
      <trkpt lat="47.35405" lon="0.05348">
        <ele>74</ele>
        <time>2013-02-17T09:44:24.001Z</time>
      </trkpt>
      <trkpt lat="47.35404" lon="0.05349">
        <ele>74</ele>
        <time>2013-02-17T09:44:25.001Z</time>
      </trkpt>
      <trkpt lat="47.35404" lon="0.05356">
        <ele>74</ele>
        <time>2013-02-17T09:44:29.001Z</time>
      </trkpt>
      <trkpt lat="47.35403" lon="0.05357">
        <ele>74</ele>
        <time>2013-02-17T09:44:30.001Z</time>
      </trkpt>
      <trkpt lat="47.35403" lon="0.05362">
        <ele>74</ele>
        <time>2013-02-17T09:44:33.001Z</time>
      </trkpt>
      <trkpt lat="47.35403" lon="0.05364">
        <ele>74</ele>
        <time>2013-02-17T09:44:34.001Z</time>
      </trkpt>
      <trkpt lat="47.35402" lon="0.05369">
        <ele>74</ele>
        <time>2013-02-17T09:44:36.001Z</time>
      </trkpt>
      <trkpt lat="47.35401" lon="0.0537">
        <ele>74</ele>
        <time>2013-02-17T09:44:37.001Z</time>
      </trkpt>
      <trkpt lat="47.354" lon="0.05375">
        <ele>74</ele>
        <time>2013-02-17T09:44:41.001Z</time>
      </trkpt>
      <trkpt lat="47.354" lon="0.05377">
        <ele>74</ele>
        <time>2013-02-17T09:44:42.001Z</time>
      </trkpt>
      <trkpt lat="47.35399" lon="0.05382">
        <ele>73</ele>
        <time>2013-02-17T09:44:45.001Z</time>
      </trkpt>
      <trkpt lat="47.35399" lon="0.05383">
        <ele>73</ele>
        <time>2013-02-17T09:44:46.001Z</time>
      </trkpt>
      <trkpt lat="47.35397" lon="0.05389">
        <ele>73</ele>
        <time>2013-02-17T09:44:51.001Z</time>
      </trkpt>
      <trkpt lat="47.35397" lon="0.05391">
        <ele>73</ele>
        <time>2013-02-17T09:44:52.001Z</time>
      </trkpt>
      <trkpt lat="47.35396" lon="0.05395">
        <ele>73</ele>
        <time>2013-02-17T09:44:57.001Z</time>
      </trkpt>
      <trkpt lat="47.35396" lon="0.05397">
        <ele>73</ele>
        <time>2013-02-17T09:44:58.001Z</time>
      </trkpt>
      <trkpt lat="47.35394" lon="0.05401">
        <ele>73</ele>
        <time>2013-02-17T09:45:00.001Z</time>
      </trkpt>
      <trkpt lat="47.35393" lon="0.05404">
        <ele>73</ele>
        <time>2013-02-17T09:45:01.001Z</time>
      </trkpt>
      <trkpt lat="47.35391" lon="0.05409">
        <ele>73</ele>
        <time>2013-02-17T09:45:09.001Z</time>
      </trkpt>
      <trkpt lat="47.35391" lon="0.05411">
        <ele>73</ele>
        <time>2013-02-17T09:45:10.001Z</time>
      </trkpt>
      <trkpt lat="47.35389" lon="0.05415">
        <ele>73</ele>
        <time>2013-02-17T09:45:12.001Z</time>
      </trkpt>
      <trkpt lat="47.35388" lon="0.05418">
        <ele>72</ele>
        <time>2013-02-17T09:45:13.001Z</time>
      </trkpt>
      <trkpt lat="47.35387" lon="0.05422">
        <ele>72</ele>
        <time>2013-02-17T09:45:17.001Z</time>
      </trkpt>
      <trkpt lat="47.35385" lon="0.05428">
        <ele>72</ele>
        <time>2013-02-17T09:45:18.001Z</time>
      </trkpt>
      <trkpt lat="47.35384" lon="0.05433">
        <ele>72</ele>
        <time>2013-02-17T09:45:21.001Z</time>
      </trkpt>
      <trkpt lat="47.35384" lon="0.05434">
        <ele>72</ele>
        <time>2013-02-17T09:45:22.001Z</time>
      </trkpt>
      <trkpt lat="47.35382" lon="0.05438">
        <ele>72</ele>
        <time>2013-02-17T09:45:24.001Z</time>
      </trkpt>
      <trkpt lat="47.35381" lon="0.05441">
        <ele>72</ele>
        <time>2013-02-17T09:45:25.001Z</time>
      </trkpt>
      <trkpt lat="47.35378" lon="0.05445">
        <ele>72</ele>
        <time>2013-02-17T09:45:29.001Z</time>
      </trkpt>
      <trkpt lat="47.35377" lon="0.05447">
        <ele>72</ele>
        <time>2013-02-17T09:45:30.001Z</time>
      </trkpt>
      <trkpt lat="47.35375" lon="0.05451">
        <ele>72</ele>
        <time>2013-02-17T09:45:32.001Z</time>
      </trkpt>
      <trkpt lat="47.35374" lon="0.05453">
        <ele>72</ele>
        <time>2013-02-17T09:45:33.001Z</time>
      </trkpt>
      <trkpt lat="47.35371" lon="0.05458">
        <ele>72</ele>
        <time>2013-02-17T09:45:40.001Z</time>
      </trkpt>
      <trkpt lat="47.35371" lon="0.0546">
        <ele>72</ele>
        <time>2013-02-17T09:45:41.001Z</time>
      </trkpt>
      <trkpt lat="47.3537" lon="0.05464">
        <ele>72</ele>
        <time>2013-02-17T09:45:44.001Z</time>
      </trkpt>
      <trkpt lat="47.35369" lon="0.05467">
        <ele>72</ele>
        <time>2013-02-17T09:45:45.001Z</time>
      </trkpt>
      <trkpt lat="47.35368" lon="0.05472">
        <ele>72</ele>
        <time>2013-02-17T09:45:47.001Z</time>
      </trkpt>
      <trkpt lat="47.35367" lon="0.05474">
        <ele>72</ele>
        <time>2013-02-17T09:45:48.001Z</time>
      </trkpt>
      <trkpt lat="47.35364" lon="0.05479">
        <ele>72</ele>
        <time>2013-02-17T09:45:50.001Z</time>
      </trkpt>
      <trkpt lat="47.35364" lon="0.05481">
        <ele>72</ele>
        <time>2013-02-17T09:45:51.001Z</time>
      </trkpt>
      <trkpt lat="47.35361" lon="0.05486">
        <ele>72</ele>
        <time>2013-02-17T09:45:56.001Z</time>
      </trkpt>
      <trkpt lat="47.35361" lon="0.05487">
        <ele>72</ele>
        <time>2013-02-17T09:45:57.001Z</time>
      </trkpt>
      <trkpt lat="47.35359" lon="0.05493">
        <ele>72</ele>
        <time>2013-02-17T09:46:02.001Z</time>
      </trkpt>
      <trkpt lat="47.35358" lon="0.05493">
        <ele>72</ele>
        <time>2013-02-17T09:46:03.001Z</time>
      </trkpt>
      <trkpt lat="47.35357" lon="0.05499">
        <ele>72</ele>
        <time>2013-02-17T09:46:07.001Z</time>
      </trkpt>
      <trkpt lat="47.35356" lon="0.055">
        <ele>72</ele>
        <time>2013-02-17T09:46:08.001Z</time>
      </trkpt>
      <trkpt lat="47.35356" lon="0.05506">
        <ele>72</ele>
        <time>2013-02-17T09:46:14.001Z</time>
      </trkpt>
      <trkpt lat="47.35355" lon="0.05508">
        <ele>72</ele>
        <time>2013-02-17T09:46:15.001Z</time>
      </trkpt>
      <trkpt lat="47.35354" lon="0.05512">
        <ele>72</ele>
        <time>2013-02-17T09:46:20.001Z</time>
      </trkpt>
      <trkpt lat="47.35353" lon="0.05514">
        <ele>72</ele>
        <time>2013-02-17T09:46:21.001Z</time>
      </trkpt>
      <trkpt lat="47.35352" lon="0.05518">
        <ele>72</ele>
        <time>2013-02-17T09:46:22.001Z</time>
      </trkpt>
      <trkpt lat="47.3535" lon="0.05521">
        <ele>72</ele>
        <time>2013-02-17T09:46:23.001Z</time>
      </trkpt>
      <trkpt lat="47.35348" lon="0.05526">
        <ele>72</ele>
        <time>2013-02-17T09:46:28.001Z</time>
      </trkpt>
      <trkpt lat="47.35347" lon="0.05528">
        <ele>72</ele>
        <time>2013-02-17T09:46:29.001Z</time>
      </trkpt>
      <trkpt lat="47.35345" lon="0.0553">
        <ele>72</ele>
        <time>2013-02-17T09:46:30.001Z</time>
      </trkpt>
      <trkpt lat="47.35344" lon="0.05533">
        <ele>72</ele>
        <time>2013-02-17T09:46:31.001Z</time>
      </trkpt>
      <trkpt lat="47.35342" lon="0.05537">
        <ele>72</ele>
        <time>2013-02-17T09:46:32.001Z</time>
      </trkpt>
      <trkpt lat="47.35341" lon="0.05543">
        <ele>72</ele>
        <time>2013-02-17T09:46:33.001Z</time>
      </trkpt>
      <trkpt lat="47.35339" lon="0.05549">
        <ele>72</ele>
        <time>2013-02-17T09:46:42.001Z</time>
      </trkpt>
      <trkpt lat="47.35338" lon="0.0555">
        <ele>72</ele>
        <time>2013-02-17T09:46:43.001Z</time>
      </trkpt>
      <trkpt lat="47.35337" lon="0.05556">
        <ele>72</ele>
        <time>2013-02-17T09:46:46.001Z</time>
      </trkpt>
      <trkpt lat="47.35337" lon="0.05557">
        <ele>72</ele>
        <time>2013-02-17T09:46:47.001Z</time>
      </trkpt>
      <trkpt lat="47.35335" lon="0.05563">
        <ele>72</ele>
        <time>2013-02-17T09:46:53.001Z</time>
      </trkpt>
      <trkpt lat="47.35335" lon="0.05565">
        <ele>72</ele>
        <time>2013-02-17T09:46:54.001Z</time>
      </trkpt>
      <trkpt lat="47.35334" lon="0.0557">
        <ele>73</ele>
        <time>2013-02-17T09:46:56.001Z</time>
      </trkpt>
      <trkpt lat="47.35334" lon="0.05572">
        <ele>73</ele>
        <time>2013-02-17T09:46:57.001Z</time>
      </trkpt>
      <trkpt lat="47.35333" lon="0.05577">
        <ele>73</ele>
        <time>2013-02-17T09:47:04.001Z</time>
      </trkpt>
      <trkpt lat="47.35331" lon="0.05581">
        <ele>73</ele>
        <time>2013-02-17T09:47:05.001Z</time>
      </trkpt>
      <trkpt lat="47.3533" lon="0.05586">
        <ele>73</ele>
        <time>2013-02-17T09:47:08.001Z</time>
      </trkpt>
      <trkpt lat="47.3533" lon="0.05587">
        <ele>74</ele>
        <time>2013-02-17T09:47:09.001Z</time>
      </trkpt>
      <trkpt lat="47.35329" lon="0.05592">
        <ele>74</ele>
        <time>2013-02-17T09:47:13.001Z</time>
      </trkpt>
      <trkpt lat="47.35328" lon="0.05594">
        <ele>74</ele>
        <time>2013-02-17T09:47:14.001Z</time>
      </trkpt>
      <trkpt lat="47.35327" lon="0.05598">
        <ele>74</ele>
        <time>2013-02-17T09:47:15.001Z</time>
      </trkpt>
      <trkpt lat="47.35326" lon="0.05601">
        <ele>75</ele>
        <time>2013-02-17T09:47:16.001Z</time>
      </trkpt>
      <trkpt lat="47.35325" lon="0.05606">
        <ele>75</ele>
        <time>2013-02-17T09:47:22.001Z</time>
      </trkpt>
      <trkpt lat="47.35324" lon="0.05609">
        <ele>75</ele>
        <time>2013-02-17T09:47:23.001Z</time>
      </trkpt>
      <trkpt lat="47.35324" lon="0.05612">
        <ele>75</ele>
        <time>2013-02-17T09:47:24.001Z</time>
      </trkpt>
      <trkpt lat="47.35323" lon="0.05616">
        <ele>75</ele>
        <time>2013-02-17T09:47:25.001Z</time>
      </trkpt>
      <trkpt lat="47.35322" lon="0.05621">
        <ele>75</ele>
        <time>2013-02-17T09:47:30.001Z</time>
      </trkpt>
      <trkpt lat="47.35321" lon="0.05624">
        <ele>76</ele>
        <time>2013-02-17T09:47:31.001Z</time>
      </trkpt>
      <trkpt lat="47.3532" lon="0.0563">
        <ele>76</ele>
        <time>2013-02-17T09:47:32.001Z</time>
      </trkpt>
      <trkpt lat="47.35318" lon="0.05633">
        <ele>76</ele>
        <time>2013-02-17T09:47:33.001Z</time>
      </trkpt>
      <trkpt lat="47.35316" lon="0.05637">
        <ele>76</ele>
        <time>2013-02-17T09:47:35.001Z</time>
      </trkpt>
      <trkpt lat="47.35315" lon="0.05639">
        <ele>76</ele>
        <time>2013-02-17T09:47:36.001Z</time>
      </trkpt>
      <trkpt lat="47.35313" lon="0.05641">
        <ele>76</ele>
        <time>2013-02-17T09:47:38.001Z</time>
      </trkpt>
      <trkpt lat="47.35312" lon="0.05644">
        <ele>76</ele>
        <time>2013-02-17T09:47:39.001Z</time>
      </trkpt>
      <trkpt lat="47.35312" lon="0.05649">
        <ele>76</ele>
        <time>2013-02-17T09:47:40.001Z</time>
      </trkpt>
      <trkpt lat="47.35312" lon="0.05653">
        <ele>76</ele>
        <time>2013-02-17T09:47:41.001Z</time>
      </trkpt>
      <trkpt lat="47.3531" lon="0.05658">
        <ele>76</ele>
        <time>2013-02-17T09:47:43.001Z</time>
      </trkpt>
      <trkpt lat="47.3531" lon="0.0566">
        <ele>76</ele>
        <time>2013-02-17T09:47:44.001Z</time>
      </trkpt>
      <trkpt lat="47.35308" lon="0.05664">
        <ele>76</ele>
        <time>2013-02-17T09:47:46.001Z</time>
      </trkpt>
      <trkpt lat="47.35308" lon="0.05666">
        <ele>76</ele>
        <time>2013-02-17T09:47:47.001Z</time>
      </trkpt>
      <trkpt lat="47.35307" lon="0.05672">
        <ele>77</ele>
        <time>2013-02-17T09:47:50.001Z</time>
      </trkpt>
      <trkpt lat="47.35306" lon="0.05674">
        <ele>78</ele>
        <time>2013-02-17T09:47:51.001Z</time>
      </trkpt>
      <trkpt lat="47.35306" lon="0.05677">
        <ele>78</ele>
        <time>2013-02-17T09:47:52.001Z</time>
      </trkpt>
      <trkpt lat="47.35304" lon="0.05681">
        <ele>78</ele>
        <time>2013-02-17T09:47:53.001Z</time>
      </trkpt>
      <trkpt lat="47.35302" lon="0.05686">
        <ele>78</ele>
        <time>2013-02-17T09:47:57.001Z</time>
      </trkpt>
      <trkpt lat="47.35302" lon="0.05687">
        <ele>78</ele>
        <time>2013-02-17T09:47:58.001Z</time>
      </trkpt>
      <trkpt lat="47.35299" lon="0.05691">
        <ele>78</ele>
        <time>2013-02-17T09:48:02.001Z</time>
      </trkpt>
      <trkpt lat="47.35299" lon="0.05692">
        <ele>78</ele>
        <time>2013-02-17T09:48:03.001Z</time>
      </trkpt>
      <trkpt lat="47.35298" lon="0.05698">
        <ele>78</ele>
        <time>2013-02-17T09:48:09.001Z</time>
      </trkpt>
      <trkpt lat="47.35298" lon="0.057">
        <ele>78</ele>
        <time>2013-02-17T09:48:10.001Z</time>
      </trkpt>
      <trkpt lat="47.35296" lon="0.05705">
        <ele>78</ele>
        <time>2013-02-17T09:48:13.001Z</time>
      </trkpt>
      <trkpt lat="47.35295" lon="0.05706">
        <ele>78</ele>
        <time>2013-02-17T09:48:14.001Z</time>
      </trkpt>
      <trkpt lat="47.35294" lon="0.05711">
        <ele>78</ele>
        <time>2013-02-17T09:48:18.001Z</time>
      </trkpt>
      <trkpt lat="47.35293" lon="0.05712">
        <ele>78</ele>
        <time>2013-02-17T09:48:19.001Z</time>
      </trkpt>
      <trkpt lat="47.35291" lon="0.05715">
        <ele>78</ele>
        <time>2013-02-17T09:48:21.001Z</time>
      </trkpt>
      <trkpt lat="47.35289" lon="0.05718">
        <ele>78</ele>
        <time>2013-02-17T09:48:22.001Z</time>
      </trkpt>
      <trkpt lat="47.35288" lon="0.05723">
        <ele>78</ele>
        <time>2013-02-17T09:48:25.001Z</time>
      </trkpt>
      <trkpt lat="47.35288" lon="0.05725">
        <ele>78</ele>
        <time>2013-02-17T09:48:26.001Z</time>
      </trkpt>
      <trkpt lat="47.35285" lon="0.05729">
        <ele>78</ele>
        <time>2013-02-17T09:48:31.001Z</time>
      </trkpt>
      <trkpt lat="47.35285" lon="0.0573">
        <ele>78</ele>
        <time>2013-02-17T09:48:32.001Z</time>
      </trkpt>
      <trkpt lat="47.35284" lon="0.05736">
        <ele>78</ele>
        <time>2013-02-17T09:48:35.001Z</time>
      </trkpt>
      <trkpt lat="47.35284" lon="0.05738">
        <ele>78</ele>
        <time>2013-02-17T09:48:36.001Z</time>
      </trkpt>
      <trkpt lat="47.35282" lon="0.05743">
        <ele>78</ele>
        <time>2013-02-17T09:48:39.001Z</time>
      </trkpt>
      <trkpt lat="47.35281" lon="0.05744">
        <ele>78</ele>
        <time>2013-02-17T09:48:40.001Z</time>
      </trkpt>
      <trkpt lat="47.35277" lon="0.05746">
        <ele>78</ele>
        <time>2013-02-17T09:48:44.001Z</time>
      </trkpt>
      <trkpt lat="47.35276" lon="0.05747">
        <ele>78</ele>
        <time>2013-02-17T09:48:45.001Z</time>
      </trkpt>
      <trkpt lat="47.35274" lon="0.05752">
        <ele>77</ele>
        <time>2013-02-17T09:48:48.001Z</time>
      </trkpt>
      <trkpt lat="47.35273" lon="0.05755">
        <ele>77</ele>
        <time>2013-02-17T09:48:49.001Z</time>
      </trkpt>
      <trkpt lat="47.35272" lon="0.05758">
        <ele>77</ele>
        <time>2013-02-17T09:48:51.001Z</time>
      </trkpt>
      <trkpt lat="47.35271" lon="0.05762">
        <ele>77</ele>
        <time>2013-02-17T09:48:52.001Z</time>
      </trkpt>
      <trkpt lat="47.3527" lon="0.05768">
        <ele>77</ele>
        <time>2013-02-17T09:48:57.001Z</time>
      </trkpt>
      <trkpt lat="47.3527" lon="0.0577">
        <ele>77</ele>
        <time>2013-02-17T09:48:58.001Z</time>
      </trkpt>
      <trkpt lat="47.35268" lon="0.05775">
        <ele>77</ele>
        <time>2013-02-17T09:49:00.001Z</time>
      </trkpt>
      <trkpt lat="47.35268" lon="0.05776">
        <ele>77</ele>
        <time>2013-02-17T09:49:01.001Z</time>
      </trkpt>
      <trkpt lat="47.35266" lon="0.05782">
        <ele>77</ele>
        <time>2013-02-17T09:49:04.001Z</time>
      </trkpt>
      <trkpt lat="47.35266" lon="0.05783">
        <ele>77</ele>
        <time>2013-02-17T09:49:05.001Z</time>
      </trkpt>
      <trkpt lat="47.35265" lon="0.05789">
        <ele>77</ele>
        <time>2013-02-17T09:49:09.001Z</time>
      </trkpt>
      <trkpt lat="47.35265" lon="0.0579">
        <ele>77</ele>
        <time>2013-02-17T09:49:10.001Z</time>
      </trkpt>
      <trkpt lat="47.35263" lon="0.05794">
        <ele>76</ele>
        <time>2013-02-17T09:49:12.001Z</time>
      </trkpt>
      <trkpt lat="47.35262" lon="0.05796">
        <ele>76</ele>
        <time>2013-02-17T09:49:13.001Z</time>
      </trkpt>
      <trkpt lat="47.3526" lon="0.05802">
        <ele>76</ele>
        <time>2013-02-17T09:49:16.001Z</time>
      </trkpt>
      <trkpt lat="47.35259" lon="0.05803">
        <ele>76</ele>
        <time>2013-02-17T09:49:17.001Z</time>
      </trkpt>
      <trkpt lat="47.35257" lon="0.05809">
        <ele>76</ele>
        <time>2013-02-17T09:49:21.001Z</time>
      </trkpt>
      <trkpt lat="47.35257" lon="0.05811">
        <ele>76</ele>
        <time>2013-02-17T09:49:22.001Z</time>
      </trkpt>
      <trkpt lat="47.35256" lon="0.05817">
        <ele>76</ele>
        <time>2013-02-17T09:49:24.001Z</time>
      </trkpt>
      <trkpt lat="47.35255" lon="0.05819">
        <ele>76</ele>
        <time>2013-02-17T09:49:25.001Z</time>
      </trkpt>
      <trkpt lat="47.35254" lon="0.05823">
        <ele>75</ele>
        <time>2013-02-17T09:49:27.001Z</time>
      </trkpt>
      <trkpt lat="47.35253" lon="0.05825">
        <ele>75</ele>
        <time>2013-02-17T09:49:28.001Z</time>
      </trkpt>
      <trkpt lat="47.35252" lon="0.05832">
        <ele>75</ele>
        <time>2013-02-17T09:49:34.001Z</time>
      </trkpt>
      <trkpt lat="47.35252" lon="0.05832">
        <ele>75</ele>
        <time>2013-02-17T09:49:35.001Z</time>
      </trkpt>
      <trkpt lat="47.35252" lon="0.05838">
        <ele>75</ele>
        <time>2013-02-17T09:49:37.001Z</time>
      </trkpt>
      <trkpt lat="47.35252" lon="0.0584">
        <ele>75</ele>
        <time>2013-02-17T09:49:38.001Z</time>
      </trkpt>
      <trkpt lat="47.35251" lon="0.05844">
        <ele>74</ele>
        <time>2013-02-17T09:49:39.001Z</time>
      </trkpt>
      <trkpt lat="47.3525" lon="0.05847">
        <ele>74</ele>
        <time>2013-02-17T09:49:40.001Z</time>
      </trkpt>
      <trkpt lat="47.35248" lon="0.05853">
        <ele>75</ele>
        <time>2013-02-17T09:49:43.001Z</time>
      </trkpt>
      <trkpt lat="47.35248" lon="0.05855">
        <ele>75</ele>
        <time>2013-02-17T09:49:44.001Z</time>
      </trkpt>
      <trkpt lat="47.35246" lon="0.05858">
        <ele>75</ele>
        <time>2013-02-17T09:49:47.001Z</time>
      </trkpt>
      <trkpt lat="47.35245" lon="0.0586">
        <ele>75</ele>
        <time>2013-02-17T09:49:48.001Z</time>
      </trkpt>
      <trkpt lat="47.35244" lon="0.05865">
        <ele>75</ele>
        <time>2013-02-17T09:49:55.001Z</time>
      </trkpt>
      <trkpt lat="47.35244" lon="0.05867">
        <ele>75</ele>
        <time>2013-02-17T09:49:56.001Z</time>
      </trkpt>
      <trkpt lat="47.35243" lon="0.05871">
        <ele>75</ele>
        <time>2013-02-17T09:50:01.001Z</time>
      </trkpt>
      <trkpt lat="47.35241" lon="0.05874">
        <ele>75</ele>
        <time>2013-02-17T09:50:02.001Z</time>
      </trkpt>
      <trkpt lat="47.3524" lon="0.0588">
        <ele>74</ele>
        <time>2013-02-17T09:50:06.001Z</time>
      </trkpt>
      <trkpt lat="47.3524" lon="0.05881">
        <ele>74</ele>
        <time>2013-02-17T09:50:07.001Z</time>
      </trkpt>
      <trkpt lat="47.3524" lon="0.05887">
        <ele>74</ele>
        <time>2013-02-17T09:50:18.001Z</time>
      </trkpt>
      <trkpt lat="47.35238" lon="0.05889">
        <ele>74</ele>
        <time>2013-02-17T09:50:19.001Z</time>
      </trkpt>
      <trkpt lat="47.35236" lon="0.05894">
        <ele>74</ele>
        <time>2013-02-17T09:50:23.001Z</time>
      </trkpt>
      <trkpt lat="47.35235" lon="0.05895">
        <ele>74</ele>
        <time>2013-02-17T09:50:24.001Z</time>
      </trkpt>
      <trkpt lat="47.35236" lon="0.059">
        <ele>74</ele>
        <time>2013-02-17T09:50:30.001Z</time>
      </trkpt>
      <trkpt lat="47.35236" lon="0.05902">
        <ele>74</ele>
        <time>2013-02-17T09:50:31.001Z</time>
      </trkpt>
      <trkpt lat="47.35235" lon="0.05907">
        <ele>74</ele>
        <time>2013-02-17T09:50:34.001Z</time>
      </trkpt>
      <trkpt lat="47.35234" lon="0.05911">
        <ele>74</ele>
        <time>2013-02-17T09:50:35.001Z</time>
      </trkpt>
      <trkpt lat="47.35231" lon="0.05915">
        <ele>74</ele>
        <time>2013-02-17T09:50:37.001Z</time>
      </trkpt>
      <trkpt lat="47.3523" lon="0.05915">
        <ele>74</ele>
        <time>2013-02-17T09:50:38.001Z</time>
      </trkpt>
      <trkpt lat="47.35228" lon="0.0592">
        <ele>73</ele>
        <time>2013-02-17T09:50:42.001Z</time>
      </trkpt>
      <trkpt lat="47.35227" lon="0.05919">
        <ele>73</ele>
        <time>2013-02-17T09:50:43.001Z</time>
      </trkpt>
      <trkpt lat="47.35224" lon="0.05922">
        <ele>73</ele>
        <time>2013-02-17T09:50:45.001Z</time>
      </trkpt>
      <trkpt lat="47.35222" lon="0.05924">
        <ele>73</ele>
        <time>2013-02-17T09:50:46.001Z</time>
      </trkpt>
      <trkpt lat="47.35221" lon="0.05927">
        <ele>73</ele>
        <time>2013-02-17T09:50:47.001Z</time>
      </trkpt>
      <trkpt lat="47.35219" lon="0.0593">
        <ele>73</ele>
        <time>2013-02-17T09:50:48.001Z</time>
      </trkpt>
      <trkpt lat="47.35217" lon="0.05934">
        <ele>73</ele>
        <time>2013-02-17T09:50:50.001Z</time>
      </trkpt>
      <trkpt lat="47.35216" lon="0.05937">
        <ele>73</ele>
        <time>2013-02-17T09:50:51.001Z</time>
      </trkpt>
      <trkpt lat="47.35213" lon="0.05939">
        <ele>73</ele>
        <time>2013-02-17T09:50:54.001Z</time>
      </trkpt>
      <trkpt lat="47.35212" lon="0.05941">
        <ele>73</ele>
        <time>2013-02-17T09:50:55.001Z</time>
      </trkpt>
      <trkpt lat="47.3521" lon="0.05946">
        <ele>73</ele>
        <time>2013-02-17T09:50:59.001Z</time>
      </trkpt>
      <trkpt lat="47.35209" lon="0.05947">
        <ele>73</ele>
        <time>2013-02-17T09:51:00.001Z</time>
      </trkpt>
      <trkpt lat="47.35208" lon="0.05953">
        <ele>73</ele>
        <time>2013-02-17T09:51:02.001Z</time>
      </trkpt>
      <trkpt lat="47.35208" lon="0.05955">
        <ele>73</ele>
        <time>2013-02-17T09:51:03.001Z</time>
      </trkpt>
      <trkpt lat="47.35206" lon="0.05962">
        <ele>73</ele>
        <time>2013-02-17T09:51:06.001Z</time>
      </trkpt>
      <trkpt lat="47.35206" lon="0.05964">
        <ele>73</ele>
        <time>2013-02-17T09:51:07.001Z</time>
      </trkpt>
      <trkpt lat="47.35204" lon="0.0597">
        <ele>73</ele>
        <time>2013-02-17T09:51:10.001Z</time>
      </trkpt>
      <trkpt lat="47.35204" lon="0.05972">
        <ele>73</ele>
        <time>2013-02-17T09:51:11.001Z</time>
      </trkpt>
      <trkpt lat="47.35204" lon="0.05977">
        <ele>73</ele>
        <time>2013-02-17T09:51:13.001Z</time>
      </trkpt>
      <trkpt lat="47.35203" lon="0.05979">
        <ele>73</ele>
        <time>2013-02-17T09:51:14.001Z</time>
      </trkpt>
      <trkpt lat="47.35202" lon="0.05984">
        <ele>73</ele>
        <time>2013-02-17T09:51:19.001Z</time>
      </trkpt>
      <trkpt lat="47.35202" lon="0.05985">
        <ele>73</ele>
        <time>2013-02-17T09:51:20.001Z</time>
      </trkpt>
      <trkpt lat="47.352" lon="0.0599">
        <ele>73</ele>
        <time>2013-02-17T09:51:24.001Z</time>
      </trkpt>
      <trkpt lat="47.352" lon="0.05991">
        <ele>73</ele>
        <time>2013-02-17T09:51:25.001Z</time>
      </trkpt>
      <trkpt lat="47.35197" lon="0.05997">
        <ele>73</ele>
        <time>2013-02-17T09:51:30.001Z</time>
      </trkpt>
      <trkpt lat="47.35196" lon="0.05999">
        <ele>73</ele>
        <time>2013-02-17T09:51:31.001Z</time>
      </trkpt>
      <trkpt lat="47.35194" lon="0.06004">
        <ele>72</ele>
        <time>2013-02-17T09:51:35.001Z</time>
      </trkpt>
      <trkpt lat="47.35194" lon="0.06006">
        <ele>72</ele>
        <time>2013-02-17T09:51:36.001Z</time>
      </trkpt>
      <trkpt lat="47.35193" lon="0.06012">
        <ele>72</ele>
        <time>2013-02-17T09:51:40.001Z</time>
      </trkpt>
      <trkpt lat="47.35192" lon="0.06013">
        <ele>72</ele>
        <time>2013-02-17T09:51:41.001Z</time>
      </trkpt>
      <trkpt lat="47.35191" lon="0.06018">
        <ele>73</ele>
        <time>2013-02-17T09:51:45.001Z</time>
      </trkpt>
      <trkpt lat="47.3519" lon="0.0602">
        <ele>73</ele>
        <time>2013-02-17T09:51:46.001Z</time>
      </trkpt>
      <trkpt lat="47.35189" lon="0.06024">
        <ele>73</ele>
        <time>2013-02-17T09:51:48.001Z</time>
      </trkpt>
      <trkpt lat="47.35187" lon="0.06026">
        <ele>73</ele>
        <time>2013-02-17T09:51:49.001Z</time>
      </trkpt>
      <trkpt lat="47.35186" lon="0.0603">
        <ele>73</ele>
        <time>2013-02-17T09:51:53.001Z</time>
      </trkpt>
      <trkpt lat="47.35185" lon="0.06033">
        <ele>73</ele>
        <time>2013-02-17T09:51:54.001Z</time>
      </trkpt>
      <trkpt lat="47.35183" lon="0.06038">
        <ele>73</ele>
        <time>2013-02-17T09:51:58.001Z</time>
      </trkpt>
      <trkpt lat="47.35181" lon="0.0604">
        <ele>73</ele>
        <time>2013-02-17T09:51:59.001Z</time>
      </trkpt>
      <trkpt lat="47.3518" lon="0.06045">
        <ele>73</ele>
        <time>2013-02-17T09:52:00.001Z</time>
      </trkpt>
      <trkpt lat="47.35179" lon="0.06048">
        <ele>73</ele>
        <time>2013-02-17T09:52:01.001Z</time>
      </trkpt>
      <trkpt lat="47.35178" lon="0.06054">
        <ele>73</ele>
        <time>2013-02-17T09:52:06.001Z</time>
      </trkpt>
      <trkpt lat="47.35177" lon="0.06055">
        <ele>73</ele>
        <time>2013-02-17T09:52:07.001Z</time>
      </trkpt>
      <trkpt lat="47.35176" lon="0.0606">
        <ele>73</ele>
        <time>2013-02-17T09:52:10.001Z</time>
      </trkpt>
      <trkpt lat="47.35177" lon="0.06063">
        <ele>73</ele>
        <time>2013-02-17T09:52:11.001Z</time>
      </trkpt>
      <trkpt lat="47.35176" lon="0.06068">
        <ele>73</ele>
        <time>2013-02-17T09:52:27.001Z</time>
      </trkpt>
      <trkpt lat="47.35175" lon="0.06071">
        <ele>73</ele>
        <time>2013-02-17T09:52:28.001Z</time>
      </trkpt>
      <trkpt lat="47.35171" lon="0.06075">
        <ele>73</ele>
        <time>2013-02-17T09:52:35.001Z</time>
      </trkpt>
      <trkpt lat="47.3517" lon="0.06075">
        <ele>73</ele>
        <time>2013-02-17T09:52:36.001Z</time>
      </trkpt>
      <trkpt lat="47.35168" lon="0.06078">
        <ele>73</ele>
        <time>2013-02-17T09:52:45.001Z</time>
      </trkpt>
      <trkpt lat="47.35167" lon="0.0608">
        <ele>73</ele>
        <time>2013-02-17T09:52:46.001Z</time>
      </trkpt>
      <trkpt lat="47.35166" lon="0.06085">
        <ele>73</ele>
        <time>2013-02-17T09:52:48.001Z</time>
      </trkpt>
      <trkpt lat="47.35165" lon="0.06088">
        <ele>73</ele>
        <time>2013-02-17T09:52:49.001Z</time>
      </trkpt>
      <trkpt lat="47.35163" lon="0.06094">
        <ele>73</ele>
        <time>2013-02-17T09:52:51.001Z</time>
      </trkpt>
      <trkpt lat="47.35163" lon="0.06097">
        <ele>73</ele>
        <time>2013-02-17T09:52:52.001Z</time>
      </trkpt>
      <trkpt lat="47.35163" lon="0.061">
        <ele>73</ele>
        <time>2013-02-17T09:52:53.001Z</time>
      </trkpt>
      <trkpt lat="47.35162" lon="0.06104">
        <ele>73</ele>
        <time>2013-02-17T09:52:54.001Z</time>
      </trkpt>
      <trkpt lat="47.35161" lon="0.06107">
        <ele>74</ele>
        <time>2013-02-17T09:52:55.001Z</time>
      </trkpt>
      <trkpt lat="47.3516" lon="0.0611">
        <ele>74</ele>
        <time>2013-02-17T09:52:56.001Z</time>
      </trkpt>
      <trkpt lat="47.35159" lon="0.06113">
        <ele>74</ele>
        <time>2013-02-17T09:52:57.001Z</time>
      </trkpt>
      <trkpt lat="47.35159" lon="0.06116">
        <ele>74</ele>
        <time>2013-02-17T09:52:58.001Z</time>
      </trkpt>
      <trkpt lat="47.35158" lon="0.0612">
        <ele>74</ele>
        <time>2013-02-17T09:53:01.001Z</time>
      </trkpt>
      <trkpt lat="47.35157" lon="0.06122">
        <ele>74</ele>
        <time>2013-02-17T09:53:02.001Z</time>
      </trkpt>
      <trkpt lat="47.35155" lon="0.06128">
        <ele>74</ele>
        <time>2013-02-17T09:53:04.001Z</time>
      </trkpt>
      <trkpt lat="47.35154" lon="0.06131">
        <ele>74</ele>
        <time>2013-02-17T09:53:05.001Z</time>
      </trkpt>
      <trkpt lat="47.35153" lon="0.06137">
        <ele>74</ele>
        <time>2013-02-17T09:53:07.001Z</time>
      </trkpt>
      <trkpt lat="47.35152" lon="0.06139">
        <ele>74</ele>
        <time>2013-02-17T09:53:08.001Z</time>
      </trkpt>
      <trkpt lat="47.35151" lon="0.06142">
        <ele>74</ele>
        <time>2013-02-17T09:53:09.001Z</time>
      </trkpt>
      <trkpt lat="47.35149" lon="0.06145">
        <ele>74</ele>
        <time>2013-02-17T09:53:10.001Z</time>
      </trkpt>
      <trkpt lat="47.35148" lon="0.06149">
        <ele>74</ele>
        <time>2013-02-17T09:53:13.001Z</time>
      </trkpt>
      <trkpt lat="47.35147" lon="0.06152">
        <ele>74</ele>
        <time>2013-02-17T09:53:14.001Z</time>
      </trkpt>
      <trkpt lat="47.35147" lon="0.06158">
        <ele>74</ele>
        <time>2013-02-17T09:53:20.001Z</time>
      </trkpt>
      <trkpt lat="47.35147" lon="0.06159">
        <ele>74</ele>
        <time>2013-02-17T09:53:21.001Z</time>
      </trkpt>
      <trkpt lat="47.35146" lon="0.06165">
        <ele>74</ele>
        <time>2013-02-17T09:53:25.001Z</time>
      </trkpt>
      <trkpt lat="47.35146" lon="0.06167">
        <ele>73</ele>
        <time>2013-02-17T09:53:26.001Z</time>
      </trkpt>
      <trkpt lat="47.35144" lon="0.06172">
        <ele>73</ele>
        <time>2013-02-17T09:53:30.001Z</time>
      </trkpt>
      <trkpt lat="47.35143" lon="0.06173">
        <ele>73</ele>
        <time>2013-02-17T09:53:31.001Z</time>
      </trkpt>
      <trkpt lat="47.35141" lon="0.06179">
        <ele>74</ele>
        <time>2013-02-17T09:53:34.001Z</time>
      </trkpt>
      <trkpt lat="47.3514" lon="0.0618">
        <ele>74</ele>
        <time>2013-02-17T09:53:35.001Z</time>
      </trkpt>
      <trkpt lat="47.35137" lon="0.06185">
        <ele>74</ele>
        <time>2013-02-17T09:53:39.001Z</time>
      </trkpt>
      <trkpt lat="47.35137" lon="0.06186">
        <ele>74</ele>
        <time>2013-02-17T09:53:40.001Z</time>
      </trkpt>
      <trkpt lat="47.35136" lon="0.06191">
        <ele>74</ele>
        <time>2013-02-17T09:53:44.001Z</time>
      </trkpt>
      <trkpt lat="47.35135" lon="0.06194">
        <ele>74</ele>
        <time>2013-02-17T09:53:45.001Z</time>
      </trkpt>
      <trkpt lat="47.35135" lon="0.062">
        <ele>73</ele>
        <time>2013-02-17T09:53:49.001Z</time>
      </trkpt>
      <trkpt lat="47.35134" lon="0.06201">
        <ele>73</ele>
        <time>2013-02-17T09:53:50.001Z</time>
      </trkpt>
      <trkpt lat="47.35134" lon="0.06205">
        <ele>73</ele>
        <time>2013-02-17T09:53:52.001Z</time>
      </trkpt>
      <trkpt lat="47.35133" lon="0.06208">
        <ele>73</ele>
        <time>2013-02-17T09:53:53.001Z</time>
      </trkpt>
      <trkpt lat="47.35131" lon="0.06212">
        <ele>73</ele>
        <time>2013-02-17T09:53:58.001Z</time>
      </trkpt>
      <trkpt lat="47.3513" lon="0.06213">
        <ele>73</ele>
        <time>2013-02-17T09:53:59.001Z</time>
      </trkpt>
      <trkpt lat="47.3513" lon="0.06218">
        <ele>73</ele>
        <time>2013-02-17T09:54:02.001Z</time>
      </trkpt>
      <trkpt lat="47.3513" lon="0.0622">
        <ele>73</ele>
        <time>2013-02-17T09:54:03.001Z</time>
      </trkpt>
      <trkpt lat="47.35128" lon="0.06225">
        <ele>73</ele>
        <time>2013-02-17T09:54:07.001Z</time>
      </trkpt>
      <trkpt lat="47.35127" lon="0.06227">
        <ele>73</ele>
        <time>2013-02-17T09:54:08.001Z</time>
      </trkpt>
      <trkpt lat="47.35125" lon="0.06231">
        <ele>73</ele>
        <time>2013-02-17T09:54:14.001Z</time>
      </trkpt>
      <trkpt lat="47.35125" lon="0.06233">
        <ele>73</ele>
        <time>2013-02-17T09:54:15.001Z</time>
      </trkpt>
      <trkpt lat="47.35124" lon="0.06237">
        <ele>73</ele>
        <time>2013-02-17T09:54:20.001Z</time>
      </trkpt>
      <trkpt lat="47.35123" lon="0.06239">
        <ele>73</ele>
        <time>2013-02-17T09:54:21.001Z</time>
      </trkpt>
      <trkpt lat="47.35122" lon="0.06243">
        <ele>73</ele>
        <time>2013-02-17T09:54:23.001Z</time>
      </trkpt>
      <trkpt lat="47.35121" lon="0.06245">
        <ele>73</ele>
        <time>2013-02-17T09:54:24.001Z</time>
      </trkpt>
      <trkpt lat="47.35118" lon="0.06248">
        <ele>73</ele>
        <time>2013-02-17T09:54:26.001Z</time>
      </trkpt>
      <trkpt lat="47.35117" lon="0.06251">
        <ele>73</ele>
        <time>2013-02-17T09:54:27.001Z</time>
      </trkpt>
      <trkpt lat="47.35115" lon="0.06257">
        <ele>73</ele>
        <time>2013-02-17T09:54:30.001Z</time>
      </trkpt>
      <trkpt lat="47.35114" lon="0.06258">
        <ele>73</ele>
        <time>2013-02-17T09:54:31.001Z</time>
      </trkpt>
      <trkpt lat="47.35114" lon="0.06264">
        <ele>73</ele>
        <time>2013-02-17T09:54:35.001Z</time>
      </trkpt>
      <trkpt lat="47.35113" lon="0.06267">
        <ele>73</ele>
        <time>2013-02-17T09:54:36.001Z</time>
      </trkpt>
      <trkpt lat="47.35112" lon="0.06273">
        <ele>73</ele>
        <time>2013-02-17T09:54:39.001Z</time>
      </trkpt>
      <trkpt lat="47.35111" lon="0.06275">
        <ele>73</ele>
        <time>2013-02-17T09:54:40.001Z</time>
      </trkpt>
      <trkpt lat="47.3511" lon="0.06281">
        <ele>73</ele>
        <time>2013-02-17T09:54:44.001Z</time>
      </trkpt>
      <trkpt lat="47.35109" lon="0.06283">
        <ele>73</ele>
        <time>2013-02-17T09:54:45.001Z</time>
      </trkpt>
      <trkpt lat="47.35106" lon="0.06288">
        <ele>73</ele>
        <time>2013-02-17T09:54:48.001Z</time>
      </trkpt>
      <trkpt lat="47.35105" lon="0.06289">
        <ele>73</ele>
        <time>2013-02-17T09:54:49.001Z</time>
      </trkpt>
      <trkpt lat="47.35104" lon="0.06293">
        <ele>73</ele>
        <time>2013-02-17T09:54:51.001Z</time>
      </trkpt>
      <trkpt lat="47.35103" lon="0.06295">
        <ele>73</ele>
        <time>2013-02-17T09:54:52.001Z</time>
      </trkpt>
      <trkpt lat="47.35102" lon="0.063">
        <ele>73</ele>
        <time>2013-02-17T09:54:54.001Z</time>
      </trkpt>
      <trkpt lat="47.35101" lon="0.06301">
        <ele>73</ele>
        <time>2013-02-17T09:54:55.001Z</time>
      </trkpt>
      <trkpt lat="47.35099" lon="0.06307">
        <ele>73</ele>
        <time>2013-02-17T09:54:59.001Z</time>
      </trkpt>
      <trkpt lat="47.35098" lon="0.06309">
        <ele>73</ele>
        <time>2013-02-17T09:55:00.001Z</time>
      </trkpt>
      <trkpt lat="47.35096" lon="0.06314">
        <ele>73</ele>
        <time>2013-02-17T09:55:03.001Z</time>
      </trkpt>
      <trkpt lat="47.35096" lon="0.06315">
        <ele>73</ele>
        <time>2013-02-17T09:55:04.001Z</time>
      </trkpt>
      <trkpt lat="47.35094" lon="0.06321">
        <ele>73</ele>
        <time>2013-02-17T09:55:12.001Z</time>
      </trkpt>
      <trkpt lat="47.35093" lon="0.06322">
        <ele>73</ele>
        <time>2013-02-17T09:55:13.001Z</time>
      </trkpt>
      <trkpt lat="47.35092" lon="0.06325">
        <ele>73</ele>
        <time>2013-02-17T09:55:16.001Z</time>
      </trkpt>
      <trkpt lat="47.35092" lon="0.06328">
        <ele>73</ele>
        <time>2013-02-17T09:55:17.001Z</time>
      </trkpt>
      <trkpt lat="47.35091" lon="0.06333">
        <ele>73</ele>
        <time>2013-02-17T09:55:19.001Z</time>
      </trkpt>
      <trkpt lat="47.3509" lon="0.06335">
        <ele>73</ele>
        <time>2013-02-17T09:55:20.001Z</time>
      </trkpt>
      <trkpt lat="47.35089" lon="0.06342">
        <ele>73</ele>
        <time>2013-02-17T09:55:26.001Z</time>
      </trkpt>
      <trkpt lat="47.35089" lon="0.06343">
        <ele>73</ele>
        <time>2013-02-17T09:55:27.001Z</time>
      </trkpt>
      <trkpt lat="47.35088" lon="0.06349">
        <ele>73</ele>
        <time>2013-02-17T09:55:31.001Z</time>
      </trkpt>
      <trkpt lat="47.35088" lon="0.0635">
        <ele>73</ele>
        <time>2013-02-17T09:55:32.001Z</time>
      </trkpt>
      <trkpt lat="47.35086" lon="0.06356">
        <ele>73</ele>
        <time>2013-02-17T09:55:35.001Z</time>
      </trkpt>
      <trkpt lat="47.35086" lon="0.06357">
        <ele>73</ele>
        <time>2013-02-17T09:55:36.001Z</time>
      </trkpt>
      <trkpt lat="47.35083" lon="0.06362">
        <ele>75</ele>
        <time>2013-02-17T09:55:41.001Z</time>
      </trkpt>
      <trkpt lat="47.35082" lon="0.06365">
        <ele>75</ele>
        <time>2013-02-17T09:55:42.001Z</time>
      </trkpt>
      <trkpt lat="47.35077" lon="0.06365">
        <ele>75</ele>
        <time>2013-02-17T09:57:36.001Z</time>
      </trkpt>
      <trkpt lat="47.35077" lon="0.06365">
        <ele>75</ele>
        <time>2013-02-17T09:57:37.001Z</time>
      </trkpt>
      <trkpt lat="47.35075" lon="0.06359">
        <ele>75</ele>
        <time>2013-02-17T09:58:49.001Z</time>
      </trkpt>
      <trkpt lat="47.35074" lon="0.06357">
        <ele>75</ele>
        <time>2013-02-17T09:58:50.001Z</time>
      </trkpt>
      <trkpt lat="47.35071" lon="0.06353">
        <ele>75</ele>
        <time>2013-02-17T09:58:54.001Z</time>
      </trkpt>
      <trkpt lat="47.3507" lon="0.06351">
        <ele>75</ele>
        <time>2013-02-17T09:58:55.001Z</time>
      </trkpt>
      <trkpt lat="47.35066" lon="0.06349">
        <ele>75</ele>
        <time>2013-02-17T09:59:00.001Z</time>
      </trkpt>
      <trkpt lat="47.35065" lon="0.06349">
        <ele>75</ele>
        <time>2013-02-17T09:59:01.001Z</time>
      </trkpt>
      <trkpt lat="47.35062" lon="0.06347">
        <ele>75</ele>
        <time>2013-02-17T09:59:36.001Z</time>
      </trkpt>
      <trkpt lat="47.35061" lon="0.06346">
        <ele>75</ele>
        <time>2013-02-17T09:59:37.001Z</time>
      </trkpt>
      <trkpt lat="47.35065" lon="0.06345">
        <ele>75</ele>
        <time>2013-02-17T09:59:45.001Z</time>
      </trkpt>
      <trkpt lat="47.35066" lon="0.06346">
        <ele>75</ele>
        <time>2013-02-17T09:59:46.001Z</time>
      </trkpt>
      <trkpt lat="47.35071" lon="0.06348">
        <ele>74</ele>
        <time>2013-02-17T09:59:49.001Z</time>
      </trkpt>
      <trkpt lat="47.35072" lon="0.06347">
        <ele>74</ele>
        <time>2013-02-17T09:59:50.001Z</time>
      </trkpt>
      <trkpt lat="47.35076" lon="0.06349">
        <ele>74</ele>
        <time>2013-02-17T09:59:57.001Z</time>
      </trkpt>
      <trkpt lat="47.35077" lon="0.06349">
        <ele>74</ele>
        <time>2013-02-17T09:59:58.001Z</time>
      </trkpt>
      <trkpt lat="47.3508" lon="0.06353">
        <ele>74</ele>
        <time>2013-02-17T10:00:48.001Z</time>
      </trkpt>
      <trkpt lat="47.35081" lon="0.06353">
        <ele>74</ele>
        <time>2013-02-17T10:00:49.001Z</time>
      </trkpt>
      <trkpt lat="47.35083" lon="0.06358">
        <ele>74</ele>
        <time>2013-02-17T10:03:43.001Z</time>
      </trkpt>
      <trkpt lat="47.35082" lon="0.06359">
        <ele>75</ele>
        <time>2013-02-17T10:03:44.001Z</time>
      </trkpt>
      <trkpt lat="47.35081" lon="0.06365">
        <ele>75</ele>
        <time>2013-02-17T10:03:54.001Z</time>
      </trkpt>
      <trkpt lat="47.35081" lon="0.06367">
        <ele>75</ele>
        <time>2013-02-17T10:03:55.001Z</time>
      </trkpt>
      <trkpt lat="47.35082" lon="0.06373">
        <ele>75</ele>
        <time>2013-02-17T10:04:00.001Z</time>
      </trkpt>
      <trkpt lat="47.35082" lon="0.06375">
        <ele>75</ele>
        <time>2013-02-17T10:04:01.001Z</time>
      </trkpt>
      <trkpt lat="47.35083" lon="0.0638">
        <ele>75</ele>
        <time>2013-02-17T10:04:04.001Z</time>
      </trkpt>
      <trkpt lat="47.35083" lon="0.06382">
        <ele>73</ele>
        <time>2013-02-17T10:04:05.001Z</time>
      </trkpt>
      <trkpt lat="47.35087" lon="0.06386">
        <ele>73</ele>
        <time>2013-02-17T10:04:08.001Z</time>
      </trkpt>
      <trkpt lat="47.35087" lon="0.06387">
        <ele>73</ele>
        <time>2013-02-17T10:04:09.001Z</time>
      </trkpt>
      <trkpt lat="47.3509" lon="0.06392">
        <ele>73</ele>
        <time>2013-02-17T10:04:12.001Z</time>
      </trkpt>
      <trkpt lat="47.3509" lon="0.06393">
        <ele>73</ele>
        <time>2013-02-17T10:04:13.001Z</time>
      </trkpt>
      <trkpt lat="47.35092" lon="0.06397">
        <ele>73</ele>
        <time>2013-02-17T10:04:16.001Z</time>
      </trkpt>
      <trkpt lat="47.35093" lon="0.06398">
        <ele>73</ele>
        <time>2013-02-17T10:04:17.001Z</time>
      </trkpt>
      <trkpt lat="47.35095" lon="0.06403">
        <ele>73</ele>
        <time>2013-02-17T10:04:21.001Z</time>
      </trkpt>
      <trkpt lat="47.35095" lon="0.06404">
        <ele>73</ele>
        <time>2013-02-17T10:04:22.001Z</time>
      </trkpt>
      <trkpt lat="47.35097" lon="0.06408">
        <ele>73</ele>
        <time>2013-02-17T10:04:25.001Z</time>
      </trkpt>
      <trkpt lat="47.35098" lon="0.06409">
        <ele>73</ele>
        <time>2013-02-17T10:04:26.001Z</time>
      </trkpt>
      <trkpt lat="47.35101" lon="0.06412">
        <ele>73</ele>
        <time>2013-02-17T10:04:28.001Z</time>
      </trkpt>
      <trkpt lat="47.35102" lon="0.06413">
        <ele>73</ele>
        <time>2013-02-17T10:04:29.001Z</time>
      </trkpt>
      <trkpt lat="47.35104" lon="0.06417">
        <ele>73</ele>
        <time>2013-02-17T10:04:31.001Z</time>
      </trkpt>
      <trkpt lat="47.35105" lon="0.06418">
        <ele>73</ele>
        <time>2013-02-17T10:04:32.001Z</time>
      </trkpt>
      <trkpt lat="47.35109" lon="0.06422">
        <ele>73</ele>
        <time>2013-02-17T10:04:35.001Z</time>
      </trkpt>
      <trkpt lat="47.35109" lon="0.06422">
        <ele>73</ele>
        <time>2013-02-17T10:04:36.001Z</time>
      </trkpt>
      <trkpt lat="47.35113" lon="0.06424">
        <ele>73</ele>
        <time>2013-02-17T10:04:39.001Z</time>
      </trkpt>
      <trkpt lat="47.35114" lon="0.06426">
        <ele>73</ele>
        <time>2013-02-17T10:04:40.001Z</time>
      </trkpt>
      <trkpt lat="47.35113" lon="0.06432">
        <ele>73</ele>
        <time>2013-02-17T10:04:45.001Z</time>
      </trkpt>
      <trkpt lat="47.35113" lon="0.06434">
        <ele>73</ele>
        <time>2013-02-17T10:04:46.001Z</time>
      </trkpt>
      <trkpt lat="47.35114" lon="0.06438">
        <ele>73</ele>
        <time>2013-02-17T10:04:50.001Z</time>
      </trkpt>
      <trkpt lat="47.35115" lon="0.06439">
        <ele>73</ele>
        <time>2013-02-17T10:04:51.001Z</time>
      </trkpt>
      <trkpt lat="47.35117" lon="0.06442">
        <ele>73</ele>
        <time>2013-02-17T10:04:53.001Z</time>
      </trkpt>
      <trkpt lat="47.35119" lon="0.06444">
        <ele>73</ele>
        <time>2013-02-17T10:04:54.001Z</time>
      </trkpt>
      <trkpt lat="47.35121" lon="0.06447">
        <ele>73</ele>
        <time>2013-02-17T10:04:57.001Z</time>
      </trkpt>
      <trkpt lat="47.35122" lon="0.06449">
        <ele>73</ele>
        <time>2013-02-17T10:04:58.001Z</time>
      </trkpt>
      <trkpt lat="47.35124" lon="0.06454">
        <ele>73</ele>
        <time>2013-02-17T10:05:01.001Z</time>
      </trkpt>
      <trkpt lat="47.35124" lon="0.06456">
        <ele>73</ele>
        <time>2013-02-17T10:05:02.001Z</time>
      </trkpt>
      <trkpt lat="47.35127" lon="0.06461">
        <ele>74</ele>
        <time>2013-02-17T10:05:05.001Z</time>
      </trkpt>
      <trkpt lat="47.35128" lon="0.06462">
        <ele>74</ele>
        <time>2013-02-17T10:05:06.001Z</time>
      </trkpt>
      <trkpt lat="47.3513" lon="0.06466">
        <ele>74</ele>
        <time>2013-02-17T10:05:09.001Z</time>
      </trkpt>
      <trkpt lat="47.3513" lon="0.06468">
        <ele>74</ele>
        <time>2013-02-17T10:05:10.001Z</time>
      </trkpt>
      <trkpt lat="47.35131" lon="0.06474">
        <ele>74</ele>
        <time>2013-02-17T10:05:13.001Z</time>
      </trkpt>
      <trkpt lat="47.35132" lon="0.06475">
        <ele>74</ele>
        <time>2013-02-17T10:05:14.001Z</time>
      </trkpt>
      <trkpt lat="47.35135" lon="0.06477">
        <ele>74</ele>
        <time>2013-02-17T10:05:16.001Z</time>
      </trkpt>
      <trkpt lat="47.35136" lon="0.06479">
        <ele>74</ele>
        <time>2013-02-17T10:05:17.001Z</time>
      </trkpt>
      <trkpt lat="47.35138" lon="0.06483">
        <ele>74</ele>
        <time>2013-02-17T10:05:20.001Z</time>
      </trkpt>
      <trkpt lat="47.35139" lon="0.06484">
        <ele>74</ele>
        <time>2013-02-17T10:05:21.001Z</time>
      </trkpt>
      <trkpt lat="47.35141" lon="0.06488">
        <ele>74</ele>
        <time>2013-02-17T10:05:25.001Z</time>
      </trkpt>
      <trkpt lat="47.35142" lon="0.0649">
        <ele>74</ele>
        <time>2013-02-17T10:05:26.001Z</time>
      </trkpt>
      <trkpt lat="47.35146" lon="0.0649">
        <ele>74</ele>
        <time>2013-02-17T10:05:29.001Z</time>
      </trkpt>
      <trkpt lat="47.35147" lon="0.06491">
        <ele>74</ele>
        <time>2013-02-17T10:05:30.001Z</time>
      </trkpt>
      <trkpt lat="47.35147" lon="0.06495">
        <ele>74</ele>
        <time>2013-02-17T10:05:36.001Z</time>
      </trkpt>
      <trkpt lat="47.35148" lon="0.06497">
        <ele>74</ele>
        <time>2013-02-17T10:05:37.001Z</time>
      </trkpt>
      <trkpt lat="47.35149" lon="0.065">
        <ele>74</ele>
        <time>2013-02-17T10:05:38.001Z</time>
      </trkpt>
      <trkpt lat="47.35151" lon="0.06501">
        <ele>75</ele>
        <time>2013-02-17T10:05:39.001Z</time>
      </trkpt>
      <trkpt lat="47.35155" lon="0.06504">
        <ele>75</ele>
        <time>2013-02-17T10:05:41.001Z</time>
      </trkpt>
      <trkpt lat="47.35157" lon="0.06506">
        <ele>75</ele>
        <time>2013-02-17T10:05:42.001Z</time>
      </trkpt>
      <trkpt lat="47.35159" lon="0.0651">
        <ele>75</ele>
        <time>2013-02-17T10:05:46.001Z</time>
      </trkpt>
      <trkpt lat="47.3516" lon="0.06512">
        <ele>75</ele>
        <time>2013-02-17T10:05:47.001Z</time>
      </trkpt>
      <trkpt lat="47.35162" lon="0.06516">
        <ele>75</ele>
        <time>2013-02-17T10:05:51.001Z</time>
      </trkpt>
      <trkpt lat="47.35163" lon="0.06517">
        <ele>75</ele>
        <time>2013-02-17T10:05:52.001Z</time>
      </trkpt>
      <trkpt lat="47.35165" lon="0.06521">
        <ele>75</ele>
        <time>2013-02-17T10:05:55.001Z</time>
      </trkpt>
      <trkpt lat="47.35166" lon="0.06523">
        <ele>75</ele>
        <time>2013-02-17T10:05:56.001Z</time>
      </trkpt>
      <trkpt lat="47.35169" lon="0.06528">
        <ele>76</ele>
        <time>2013-02-17T10:06:01.001Z</time>
      </trkpt>
      <trkpt lat="47.3517" lon="0.06529">
        <ele>76</ele>
        <time>2013-02-17T10:06:02.001Z</time>
      </trkpt>
      <trkpt lat="47.35171" lon="0.06535">
        <ele>76</ele>
        <time>2013-02-17T10:06:06.001Z</time>
      </trkpt>
      <trkpt lat="47.35172" lon="0.06536">
        <ele>76</ele>
        <time>2013-02-17T10:06:07.001Z</time>
      </trkpt>
      <trkpt lat="47.35174" lon="0.06541">
        <ele>76</ele>
        <time>2013-02-17T10:06:11.001Z</time>
      </trkpt>
      <trkpt lat="47.35175" lon="0.06542">
        <ele>76</ele>
        <time>2013-02-17T10:06:12.001Z</time>
      </trkpt>
      <trkpt lat="47.35178" lon="0.06547">
        <ele>77</ele>
        <time>2013-02-17T10:06:18.001Z</time>
      </trkpt>
      <trkpt lat="47.35179" lon="0.06548">
        <ele>77</ele>
        <time>2013-02-17T10:06:19.001Z</time>
      </trkpt>
      <trkpt lat="47.35181" lon="0.06554">
        <ele>77</ele>
        <time>2013-02-17T10:06:22.001Z</time>
      </trkpt>
      <trkpt lat="47.35181" lon="0.06555">
        <ele>77</ele>
        <time>2013-02-17T10:06:23.001Z</time>
      </trkpt>
      <trkpt lat="47.35183" lon="0.06559">
        <ele>77</ele>
        <time>2013-02-17T10:06:27.001Z</time>
      </trkpt>
      <trkpt lat="47.35185" lon="0.0656">
        <ele>77</ele>
        <time>2013-02-17T10:06:28.001Z</time>
      </trkpt>
      <trkpt lat="47.35187" lon="0.06562">
        <ele>77</ele>
        <time>2013-02-17T10:06:30.001Z</time>
      </trkpt>
      <trkpt lat="47.35189" lon="0.06563">
        <ele>77</ele>
        <time>2013-02-17T10:06:31.001Z</time>
      </trkpt>
      <trkpt lat="47.35191" lon="0.06567">
        <ele>77</ele>
        <time>2013-02-17T10:06:35.001Z</time>
      </trkpt>
      <trkpt lat="47.35192" lon="0.06568">
        <ele>77</ele>
        <time>2013-02-17T10:06:36.001Z</time>
      </trkpt>
      <trkpt lat="47.35195" lon="0.06569">
        <ele>77</ele>
        <time>2013-02-17T10:06:38.001Z</time>
      </trkpt>
      <trkpt lat="47.35197" lon="0.0657">
        <ele>77</ele>
        <time>2013-02-17T10:06:39.001Z</time>
      </trkpt>
      <trkpt lat="47.352" lon="0.06572">
        <ele>77</ele>
        <time>2013-02-17T10:06:41.001Z</time>
      </trkpt>
      <trkpt lat="47.35201" lon="0.06573">
        <ele>77</ele>
        <time>2013-02-17T10:06:42.001Z</time>
      </trkpt>
      <trkpt lat="47.35203" lon="0.06577">
        <ele>77</ele>
        <time>2013-02-17T10:06:46.001Z</time>
      </trkpt>
      <trkpt lat="47.35204" lon="0.06578">
        <ele>77</ele>
        <time>2013-02-17T10:06:47.001Z</time>
      </trkpt>
      <trkpt lat="47.35208" lon="0.0658">
        <ele>77</ele>
        <time>2013-02-17T10:06:50.001Z</time>
      </trkpt>
      <trkpt lat="47.35209" lon="0.06581">
        <ele>77</ele>
        <time>2013-02-17T10:06:51.001Z</time>
      </trkpt>
      <trkpt lat="47.35213" lon="0.06581">
        <ele>78</ele>
        <time>2013-02-17T10:06:53.001Z</time>
      </trkpt>
      <trkpt lat="47.35215" lon="0.0658">
        <ele>78</ele>
        <time>2013-02-17T10:06:54.001Z</time>
      </trkpt>
      <trkpt lat="47.35219" lon="0.06581">
        <ele>78</ele>
        <time>2013-02-17T10:07:00.001Z</time>
      </trkpt>
      <trkpt lat="47.35219" lon="0.06582">
        <ele>78</ele>
        <time>2013-02-17T10:07:01.001Z</time>
      </trkpt>
      <trkpt lat="47.35222" lon="0.06586">
        <ele>80</ele>
        <time>2013-02-17T10:07:04.001Z</time>
      </trkpt>
      <trkpt lat="47.35223" lon="0.06587">
        <ele>80</ele>
        <time>2013-02-17T10:07:05.001Z</time>
      </trkpt>
      <trkpt lat="47.35227" lon="0.0659">
        <ele>80</ele>
        <time>2013-02-17T10:07:09.001Z</time>
      </trkpt>
      <trkpt lat="47.35227" lon="0.06591">
        <ele>80</ele>
        <time>2013-02-17T10:07:10.001Z</time>
      </trkpt>
      <trkpt lat="47.35229" lon="0.06596">
        <ele>80</ele>
        <time>2013-02-17T10:07:15.001Z</time>
      </trkpt>
      <trkpt lat="47.3523" lon="0.06597">
        <ele>80</ele>
        <time>2013-02-17T10:07:16.001Z</time>
      </trkpt>
      <trkpt lat="47.35233" lon="0.06599">
        <ele>81</ele>
        <time>2013-02-17T10:07:18.001Z</time>
      </trkpt>
      <trkpt lat="47.35234" lon="0.06601">
        <ele>81</ele>
        <time>2013-02-17T10:07:19.001Z</time>
      </trkpt>
      <trkpt lat="47.35237" lon="0.06602">
        <ele>81</ele>
        <time>2013-02-17T10:07:20.001Z</time>
      </trkpt>
      <trkpt lat="47.35239" lon="0.06603">
        <ele>81</ele>
        <time>2013-02-17T10:07:21.001Z</time>
      </trkpt>
      <trkpt lat="47.35242" lon="0.06606">
        <ele>81</ele>
        <time>2013-02-17T10:07:25.001Z</time>
      </trkpt>
      <trkpt lat="47.35244" lon="0.06608">
        <ele>81</ele>
        <time>2013-02-17T10:07:26.001Z</time>
      </trkpt>
      <trkpt lat="47.35246" lon="0.06612">
        <ele>81</ele>
        <time>2013-02-17T10:07:29.001Z</time>
      </trkpt>
      <trkpt lat="47.35247" lon="0.06613">
        <ele>81</ele>
        <time>2013-02-17T10:07:30.001Z</time>
      </trkpt>
      <trkpt lat="47.3525" lon="0.06616">
        <ele>80</ele>
        <time>2013-02-17T10:07:32.001Z</time>
      </trkpt>
      <trkpt lat="47.35251" lon="0.06617">
        <ele>80</ele>
        <time>2013-02-17T10:07:33.001Z</time>
      </trkpt>
      <trkpt lat="47.35254" lon="0.06621">
        <ele>80</ele>
        <time>2013-02-17T10:07:37.001Z</time>
      </trkpt>
      <trkpt lat="47.35255" lon="0.06622">
        <ele>80</ele>
        <time>2013-02-17T10:07:38.001Z</time>
      </trkpt>
      <trkpt lat="47.35257" lon="0.06625">
        <ele>80</ele>
        <time>2013-02-17T10:07:40.001Z</time>
      </trkpt>
      <trkpt lat="47.35259" lon="0.06626">
        <ele>80</ele>
        <time>2013-02-17T10:07:41.001Z</time>
      </trkpt>
      <trkpt lat="47.35262" lon="0.0663">
        <ele>80</ele>
        <time>2013-02-17T10:07:44.001Z</time>
      </trkpt>
      <trkpt lat="47.35263" lon="0.06631">
        <ele>80</ele>
        <time>2013-02-17T10:07:45.001Z</time>
      </trkpt>
      <trkpt lat="47.35266" lon="0.06633">
        <ele>80</ele>
        <time>2013-02-17T10:07:47.001Z</time>
      </trkpt>
      <trkpt lat="47.35267" lon="0.06634">
        <ele>80</ele>
        <time>2013-02-17T10:07:48.001Z</time>
      </trkpt>
      <trkpt lat="47.35271" lon="0.06637">
        <ele>80</ele>
        <time>2013-02-17T10:07:52.001Z</time>
      </trkpt>
      <trkpt lat="47.35272" lon="0.06638">
        <ele>80</ele>
        <time>2013-02-17T10:07:53.001Z</time>
      </trkpt>
      <trkpt lat="47.35275" lon="0.06641">
        <ele>80</ele>
        <time>2013-02-17T10:07:57.001Z</time>
      </trkpt>
      <trkpt lat="47.35276" lon="0.06642">
        <ele>80</ele>
        <time>2013-02-17T10:07:58.001Z</time>
      </trkpt>
      <trkpt lat="47.3528" lon="0.06646">
        <ele>80</ele>
        <time>2013-02-17T10:08:03.001Z</time>
      </trkpt>
      <trkpt lat="47.3528" lon="0.06647">
        <ele>80</ele>
        <time>2013-02-17T10:08:04.001Z</time>
      </trkpt>
      <trkpt lat="47.35283" lon="0.0665">
        <ele>80</ele>
        <time>2013-02-17T10:08:07.001Z</time>
      </trkpt>
      <trkpt lat="47.35284" lon="0.06651">
        <ele>80</ele>
        <time>2013-02-17T10:08:08.001Z</time>
      </trkpt>
      <trkpt lat="47.35287" lon="0.06655">
        <ele>79</ele>
        <time>2013-02-17T10:08:13.001Z</time>
      </trkpt>
      <trkpt lat="47.35288" lon="0.06656">
        <ele>79</ele>
        <time>2013-02-17T10:08:14.001Z</time>
      </trkpt>
      <trkpt lat="47.3529" lon="0.0666">
        <ele>79</ele>
        <time>2013-02-17T10:08:17.001Z</time>
      </trkpt>
      <trkpt lat="47.35292" lon="0.06662">
        <ele>79</ele>
        <time>2013-02-17T10:08:18.001Z</time>
      </trkpt>
      <trkpt lat="47.35295" lon="0.06664">
        <ele>79</ele>
        <time>2013-02-17T10:08:20.001Z</time>
      </trkpt>
      <trkpt lat="47.35296" lon="0.06665">
        <ele>79</ele>
        <time>2013-02-17T10:08:21.001Z</time>
      </trkpt>
      <trkpt lat="47.35299" lon="0.06668">
        <ele>80</ele>
        <time>2013-02-17T10:08:23.001Z</time>
      </trkpt>
      <trkpt lat="47.35301" lon="0.06668">
        <ele>80</ele>
        <time>2013-02-17T10:08:24.001Z</time>
      </trkpt>
      <trkpt lat="47.35304" lon="0.06671">
        <ele>80</ele>
        <time>2013-02-17T10:08:30.001Z</time>
      </trkpt>
      <trkpt lat="47.35306" lon="0.06673">
        <ele>80</ele>
        <time>2013-02-17T10:08:31.001Z</time>
      </trkpt>
      <trkpt lat="47.35309" lon="0.06677">
        <ele>80</ele>
        <time>2013-02-17T10:08:34.001Z</time>
      </trkpt>
      <trkpt lat="47.3531" lon="0.06678">
        <ele>80</ele>
        <time>2013-02-17T10:08:35.001Z</time>
      </trkpt>
      <trkpt lat="47.35313" lon="0.06681">
        <ele>80</ele>
        <time>2013-02-17T10:08:38.001Z</time>
      </trkpt>
      <trkpt lat="47.35315" lon="0.06684">
        <ele>80</ele>
        <time>2013-02-17T10:08:39.001Z</time>
      </trkpt>
      <trkpt lat="47.35317" lon="0.06689">
        <ele>80</ele>
        <time>2013-02-17T10:08:42.001Z</time>
      </trkpt>
      <trkpt lat="47.35318" lon="0.0669">
        <ele>80</ele>
        <time>2013-02-17T10:08:43.001Z</time>
      </trkpt>
      <trkpt lat="47.3532" lon="0.06692">
        <ele>80</ele>
        <time>2013-02-17T10:08:45.001Z</time>
      </trkpt>
      <trkpt lat="47.35321" lon="0.06694">
        <ele>80</ele>
        <time>2013-02-17T10:08:46.001Z</time>
      </trkpt>
      <trkpt lat="47.35324" lon="0.06699">
        <ele>80</ele>
        <time>2013-02-17T10:08:49.001Z</time>
      </trkpt>
      <trkpt lat="47.35324" lon="0.06701">
        <ele>80</ele>
        <time>2013-02-17T10:08:50.001Z</time>
      </trkpt>
      <trkpt lat="47.35326" lon="0.06706">
        <ele>80</ele>
        <time>2013-02-17T10:08:54.001Z</time>
      </trkpt>
      <trkpt lat="47.35327" lon="0.06707">
        <ele>80</ele>
        <time>2013-02-17T10:08:55.001Z</time>
      </trkpt>
      <trkpt lat="47.35329" lon="0.06713">
        <ele>80</ele>
        <time>2013-02-17T10:08:59.001Z</time>
      </trkpt>
      <trkpt lat="47.3533" lon="0.06715">
        <ele>80</ele>
        <time>2013-02-17T10:09:00.001Z</time>
      </trkpt>
      <trkpt lat="47.35334" lon="0.06718">
        <ele>79</ele>
        <time>2013-02-17T10:09:07.001Z</time>
      </trkpt>
      <trkpt lat="47.35334" lon="0.06719">
        <ele>79</ele>
        <time>2013-02-17T10:09:08.001Z</time>
      </trkpt>
      <trkpt lat="47.35335" lon="0.06723">
        <ele>79</ele>
        <time>2013-02-17T10:09:18.001Z</time>
      </trkpt>
      <trkpt lat="47.35336" lon="0.06726">
        <ele>79</ele>
        <time>2013-02-17T10:09:19.001Z</time>
      </trkpt>
      <trkpt lat="47.35337" lon="0.06731">
        <ele>79</ele>
        <time>2013-02-17T10:09:22.001Z</time>
      </trkpt>
      <trkpt lat="47.35338" lon="0.06733">
        <ele>79</ele>
        <time>2013-02-17T10:09:23.001Z</time>
      </trkpt>
      <trkpt lat="47.35339" lon="0.06736">
        <ele>79</ele>
        <time>2013-02-17T10:09:24.001Z</time>
      </trkpt>
      <trkpt lat="47.35341" lon="0.0674">
        <ele>80</ele>
        <time>2013-02-17T10:09:25.001Z</time>
      </trkpt>
      <trkpt lat="47.35344" lon="0.06743">
        <ele>80</ele>
        <time>2013-02-17T10:09:29.001Z</time>
      </trkpt>
      <trkpt lat="47.35344" lon="0.06745">
        <ele>80</ele>
        <time>2013-02-17T10:09:30.001Z</time>
      </trkpt>
      <trkpt lat="47.35345" lon="0.06751">
        <ele>80</ele>
        <time>2013-02-17T10:09:32.001Z</time>
      </trkpt>
      <trkpt lat="47.35346" lon="0.06754">
        <ele>80</ele>
        <time>2013-02-17T10:09:33.001Z</time>
      </trkpt>
      <trkpt lat="47.35348" lon="0.06758">
        <ele>80</ele>
        <time>2013-02-17T10:09:37.001Z</time>
      </trkpt>
      <trkpt lat="47.35349" lon="0.06762">
        <ele>80</ele>
        <time>2013-02-17T10:09:38.001Z</time>
      </trkpt>
      <trkpt lat="47.35351" lon="0.06766">
        <ele>80</ele>
        <time>2013-02-17T10:09:40.001Z</time>
      </trkpt>
      <trkpt lat="47.35351" lon="0.06768">
        <ele>80</ele>
        <time>2013-02-17T10:09:41.001Z</time>
      </trkpt>
      <trkpt lat="47.35354" lon="0.06773">
        <ele>80</ele>
        <time>2013-02-17T10:09:43.001Z</time>
      </trkpt>
      <trkpt lat="47.35355" lon="0.06776">
        <ele>79</ele>
        <time>2013-02-17T10:09:44.001Z</time>
      </trkpt>
      <trkpt lat="47.35358" lon="0.0678">
        <ele>79</ele>
        <time>2013-02-17T10:09:46.001Z</time>
      </trkpt>
      <trkpt lat="47.35359" lon="0.06781">
        <ele>79</ele>
        <time>2013-02-17T10:09:47.001Z</time>
      </trkpt>
      <trkpt lat="47.3536" lon="0.06785">
        <ele>79</ele>
        <time>2013-02-17T10:09:50.001Z</time>
      </trkpt>
      <trkpt lat="47.35361" lon="0.06787">
        <ele>79</ele>
        <time>2013-02-17T10:09:51.001Z</time>
      </trkpt>
      <trkpt lat="47.35363" lon="0.06791">
        <ele>79</ele>
        <time>2013-02-17T10:09:54.001Z</time>
      </trkpt>
      <trkpt lat="47.35364" lon="0.06794">
        <ele>79</ele>
        <time>2013-02-17T10:09:55.001Z</time>
      </trkpt>
      <trkpt lat="47.35365" lon="0.06799">
        <ele>79</ele>
        <time>2013-02-17T10:10:03.001Z</time>
      </trkpt>
      <trkpt lat="47.35367" lon="0.06801">
        <ele>79</ele>
        <time>2013-02-17T10:10:04.001Z</time>
      </trkpt>
      <trkpt lat="47.35367" lon="0.06805">
        <ele>79</ele>
        <time>2013-02-17T10:10:06.001Z</time>
      </trkpt>
      <trkpt lat="47.35369" lon="0.06808">
        <ele>79</ele>
        <time>2013-02-17T10:10:07.001Z</time>
      </trkpt>
      <trkpt lat="47.35371" lon="0.06812">
        <ele>79</ele>
        <time>2013-02-17T10:10:09.001Z</time>
      </trkpt>
      <trkpt lat="47.35373" lon="0.06814">
        <ele>79</ele>
        <time>2013-02-17T10:10:10.001Z</time>
      </trkpt>
      <trkpt lat="47.35374" lon="0.06816">
        <ele>79</ele>
        <time>2013-02-17T10:10:11.001Z</time>
      </trkpt>
      <trkpt lat="47.35377" lon="0.06818">
        <ele>79</ele>
        <time>2013-02-17T10:10:12.001Z</time>
      </trkpt>
      <trkpt lat="47.35379" lon="0.06822">
        <ele>79</ele>
        <time>2013-02-17T10:10:14.001Z</time>
      </trkpt>
      <trkpt lat="47.3538" lon="0.06823">
        <ele>79</ele>
        <time>2013-02-17T10:10:15.001Z</time>
      </trkpt>
      <trkpt lat="47.35383" lon="0.06827">
        <ele>79</ele>
        <time>2013-02-17T10:10:18.001Z</time>
      </trkpt>
      <trkpt lat="47.35383" lon="0.06829">
        <ele>79</ele>
        <time>2013-02-17T10:10:19.001Z</time>
      </trkpt>
      <trkpt lat="47.35386" lon="0.06833">
        <ele>79</ele>
        <time>2013-02-17T10:10:22.001Z</time>
      </trkpt>
      <trkpt lat="47.35386" lon="0.06834">
        <ele>80</ele>
        <time>2013-02-17T10:10:23.001Z</time>
      </trkpt>
      <trkpt lat="47.35388" lon="0.06838">
        <ele>80</ele>
        <time>2013-02-17T10:10:25.001Z</time>
      </trkpt>
      <trkpt lat="47.35389" lon="0.0684">
        <ele>80</ele>
        <time>2013-02-17T10:10:26.001Z</time>
      </trkpt>
      <trkpt lat="47.35391" lon="0.06845">
        <ele>80</ele>
        <time>2013-02-17T10:10:29.001Z</time>
      </trkpt>
      <trkpt lat="47.35392" lon="0.06846">
        <ele>80</ele>
        <time>2013-02-17T10:10:30.001Z</time>
      </trkpt>
      <trkpt lat="47.35393" lon="0.06852">
        <ele>80</ele>
        <time>2013-02-17T10:10:34.001Z</time>
      </trkpt>
      <trkpt lat="47.35394" lon="0.06853">
        <ele>80</ele>
        <time>2013-02-17T10:10:35.001Z</time>
      </trkpt>
      <trkpt lat="47.35396" lon="0.06858">
        <ele>80</ele>
        <time>2013-02-17T10:10:40.001Z</time>
      </trkpt>
      <trkpt lat="47.35396" lon="0.06859">
        <ele>80</ele>
        <time>2013-02-17T10:10:41.001Z</time>
      </trkpt>
      <trkpt lat="47.35399" lon="0.06865">
        <ele>80</ele>
        <time>2013-02-17T10:10:46.001Z</time>
      </trkpt>
      <trkpt lat="47.354" lon="0.06866">
        <ele>80</ele>
        <time>2013-02-17T10:10:47.001Z</time>
      </trkpt>
      <trkpt lat="47.35403" lon="0.0687">
        <ele>80</ele>
        <time>2013-02-17T10:10:51.001Z</time>
      </trkpt>
      <trkpt lat="47.35404" lon="0.0687">
        <ele>80</ele>
        <time>2013-02-17T10:10:52.001Z</time>
      </trkpt>
      <trkpt lat="47.35406" lon="0.06875">
        <ele>80</ele>
        <time>2013-02-17T10:10:57.001Z</time>
      </trkpt>
      <trkpt lat="47.35407" lon="0.06876">
        <ele>80</ele>
        <time>2013-02-17T10:10:58.001Z</time>
      </trkpt>
      <trkpt lat="47.35409" lon="0.06881">
        <ele>80</ele>
        <time>2013-02-17T10:11:01.001Z</time>
      </trkpt>
      <trkpt lat="47.3541" lon="0.06882">
        <ele>80</ele>
        <time>2013-02-17T10:11:02.001Z</time>
      </trkpt>
      <trkpt lat="47.35411" lon="0.06887">
        <ele>80</ele>
        <time>2013-02-17T10:11:06.001Z</time>
      </trkpt>
      <trkpt lat="47.35412" lon="0.06888">
        <ele>80</ele>
        <time>2013-02-17T10:11:07.001Z</time>
      </trkpt>
      <trkpt lat="47.35414" lon="0.06893">
        <ele>81</ele>
        <time>2013-02-17T10:11:10.001Z</time>
      </trkpt>
      <trkpt lat="47.35414" lon="0.06894">
        <ele>81</ele>
        <time>2013-02-17T10:11:11.001Z</time>
      </trkpt>
      <trkpt lat="47.35416" lon="0.069">
        <ele>81</ele>
        <time>2013-02-17T10:11:15.001Z</time>
      </trkpt>
      <trkpt lat="47.35417" lon="0.06901">
        <ele>81</ele>
        <time>2013-02-17T10:11:16.001Z</time>
      </trkpt>
      <trkpt lat="47.35419" lon="0.06906">
        <ele>81</ele>
        <time>2013-02-17T10:11:19.001Z</time>
      </trkpt>
      <trkpt lat="47.35419" lon="0.06907">
        <ele>81</ele>
        <time>2013-02-17T10:11:20.001Z</time>
      </trkpt>
      <trkpt lat="47.3542" lon="0.06912">
        <ele>81</ele>
        <time>2013-02-17T10:11:23.001Z</time>
      </trkpt>
      <trkpt lat="47.35421" lon="0.06914">
        <ele>81</ele>
        <time>2013-02-17T10:11:24.001Z</time>
      </trkpt>
      <trkpt lat="47.35423" lon="0.0692">
        <ele>81</ele>
        <time>2013-02-17T10:11:28.001Z</time>
      </trkpt>
      <trkpt lat="47.35424" lon="0.06921">
        <ele>81</ele>
        <time>2013-02-17T10:11:29.001Z</time>
      </trkpt>
      <trkpt lat="47.35426" lon="0.06927">
        <ele>81</ele>
        <time>2013-02-17T10:11:34.001Z</time>
      </trkpt>
      <trkpt lat="47.35426" lon="0.06928">
        <ele>81</ele>
        <time>2013-02-17T10:11:35.001Z</time>
      </trkpt>
      <trkpt lat="47.35426" lon="0.06934">
        <ele>81</ele>
        <time>2013-02-17T10:11:42.001Z</time>
      </trkpt>
      <trkpt lat="47.35428" lon="0.06935">
        <ele>81</ele>
        <time>2013-02-17T10:11:43.001Z</time>
      </trkpt>
      <trkpt lat="47.35431" lon="0.06938">
        <ele>81</ele>
        <time>2013-02-17T10:11:45.001Z</time>
      </trkpt>
      <trkpt lat="47.35432" lon="0.0694">
        <ele>81</ele>
        <time>2013-02-17T10:11:46.001Z</time>
      </trkpt>
      <trkpt lat="47.35434" lon="0.06945">
        <ele>81</ele>
        <time>2013-02-17T10:11:49.001Z</time>
      </trkpt>
      <trkpt lat="47.35435" lon="0.06947">
        <ele>81</ele>
        <time>2013-02-17T10:11:50.001Z</time>
      </trkpt>
      <trkpt lat="47.35436" lon="0.06952">
        <ele>81</ele>
        <time>2013-02-17T10:11:54.001Z</time>
      </trkpt>
      <trkpt lat="47.35437" lon="0.06954">
        <ele>81</ele>
        <time>2013-02-17T10:11:55.001Z</time>
      </trkpt>
      <trkpt lat="47.35438" lon="0.06959">
        <ele>82</ele>
        <time>2013-02-17T10:11:58.001Z</time>
      </trkpt>
      <trkpt lat="47.35439" lon="0.06961">
        <ele>82</ele>
        <time>2013-02-17T10:11:59.001Z</time>
      </trkpt>
      <trkpt lat="47.3544" lon="0.06966">
        <ele>82</ele>
        <time>2013-02-17T10:12:03.001Z</time>
      </trkpt>
      <trkpt lat="47.35441" lon="0.06967">
        <ele>82</ele>
        <time>2013-02-17T10:12:04.001Z</time>
      </trkpt>
      <trkpt lat="47.35443" lon="0.0697">
        <ele>82</ele>
        <time>2013-02-17T10:12:07.001Z</time>
      </trkpt>
      <trkpt lat="47.35445" lon="0.06974">
        <ele>82</ele>
        <time>2013-02-17T10:12:08.001Z</time>
      </trkpt>
      <trkpt lat="47.35447" lon="0.06977">
        <ele>82</ele>
        <time>2013-02-17T10:12:10.001Z</time>
      </trkpt>
      <trkpt lat="47.35449" lon="0.0698">
        <ele>82</ele>
        <time>2013-02-17T10:12:11.001Z</time>
      </trkpt>
      <trkpt lat="47.3545" lon="0.06982">
        <ele>82</ele>
        <time>2013-02-17T10:12:12.001Z</time>
      </trkpt>
      <trkpt lat="47.35452" lon="0.06984">
        <ele>82</ele>
        <time>2013-02-17T10:12:13.001Z</time>
      </trkpt>
      <trkpt lat="47.35454" lon="0.06988">
        <ele>82</ele>
        <time>2013-02-17T10:12:17.001Z</time>
      </trkpt>
      <trkpt lat="47.35455" lon="0.0699">
        <ele>82</ele>
        <time>2013-02-17T10:12:18.001Z</time>
      </trkpt>
      <trkpt lat="47.35456" lon="0.06995">
        <ele>82</ele>
        <time>2013-02-17T10:12:21.001Z</time>
      </trkpt>
      <trkpt lat="47.35457" lon="0.06996">
        <ele>82</ele>
        <time>2013-02-17T10:12:22.001Z</time>
      </trkpt>
      <trkpt lat="47.35458" lon="0.07002">
        <ele>83</ele>
        <time>2013-02-17T10:12:25.001Z</time>
      </trkpt>
      <trkpt lat="47.35459" lon="0.07004">
        <ele>83</ele>
        <time>2013-02-17T10:12:26.001Z</time>
      </trkpt>
      <trkpt lat="47.35461" lon="0.07009">
        <ele>83</ele>
        <time>2013-02-17T10:12:31.001Z</time>
      </trkpt>
      <trkpt lat="47.35462" lon="0.07011">
        <ele>83</ele>
        <time>2013-02-17T10:12:32.001Z</time>
      </trkpt>
      <trkpt lat="47.35463" lon="0.07016">
        <ele>83</ele>
        <time>2013-02-17T10:12:36.001Z</time>
      </trkpt>
      <trkpt lat="47.35464" lon="0.07018">
        <ele>83</ele>
        <time>2013-02-17T10:12:37.001Z</time>
      </trkpt>
      <trkpt lat="47.35465" lon="0.07023">
        <ele>83</ele>
        <time>2013-02-17T10:12:40.001Z</time>
      </trkpt>
      <trkpt lat="47.35467" lon="0.07025">
        <ele>83</ele>
        <time>2013-02-17T10:12:41.001Z</time>
      </trkpt>
      <trkpt lat="47.35469" lon="0.0703">
        <ele>83</ele>
        <time>2013-02-17T10:12:44.001Z</time>
      </trkpt>
      <trkpt lat="47.3547" lon="0.07032">
        <ele>83</ele>
        <time>2013-02-17T10:12:45.001Z</time>
      </trkpt>
      <trkpt lat="47.35471" lon="0.07038">
        <ele>83</ele>
        <time>2013-02-17T10:12:48.001Z</time>
      </trkpt>
      <trkpt lat="47.35471" lon="0.0704">
        <ele>83</ele>
        <time>2013-02-17T10:12:49.001Z</time>
      </trkpt>
      <trkpt lat="47.35473" lon="0.07045">
        <ele>83</ele>
        <time>2013-02-17T10:12:52.001Z</time>
      </trkpt>
      <trkpt lat="47.35473" lon="0.07047">
        <ele>83</ele>
        <time>2013-02-17T10:12:53.001Z</time>
      </trkpt>
      <trkpt lat="47.35475" lon="0.07052">
        <ele>84</ele>
        <time>2013-02-17T10:12:57.001Z</time>
      </trkpt>
      <trkpt lat="47.35475" lon="0.07053">
        <ele>84</ele>
        <time>2013-02-17T10:12:58.001Z</time>
      </trkpt>
      <trkpt lat="47.35476" lon="0.07058">
        <ele>84</ele>
        <time>2013-02-17T10:13:01.001Z</time>
      </trkpt>
      <trkpt lat="47.35477" lon="0.0706">
        <ele>84</ele>
        <time>2013-02-17T10:13:02.001Z</time>
      </trkpt>
      <trkpt lat="47.3548" lon="0.07065">
        <ele>84</ele>
        <time>2013-02-17T10:13:04.001Z</time>
      </trkpt>
      <trkpt lat="47.3548" lon="0.07066">
        <ele>84</ele>
        <time>2013-02-17T10:13:05.001Z</time>
      </trkpt>
      <trkpt lat="47.35481" lon="0.0707">
        <ele>84</ele>
        <time>2013-02-17T10:13:08.001Z</time>
      </trkpt>
      <trkpt lat="47.35482" lon="0.07073">
        <ele>84</ele>
        <time>2013-02-17T10:13:09.001Z</time>
      </trkpt>
      <trkpt lat="47.35484" lon="0.07079">
        <ele>83</ele>
        <time>2013-02-17T10:13:13.001Z</time>
      </trkpt>
      <trkpt lat="47.35485" lon="0.0708">
        <ele>83</ele>
        <time>2013-02-17T10:13:14.001Z</time>
      </trkpt>
      <trkpt lat="47.35485" lon="0.07086">
        <ele>84</ele>
        <time>2013-02-17T10:13:19.001Z</time>
      </trkpt>
      <trkpt lat="47.35484" lon="0.07087">
        <ele>85</ele>
        <time>2013-02-17T10:13:20.001Z</time>
      </trkpt>
      <trkpt lat="47.35485" lon="0.07092">
        <ele>85</ele>
        <time>2013-02-17T10:13:23.001Z</time>
      </trkpt>
      <trkpt lat="47.35486" lon="0.07094">
        <ele>85</ele>
        <time>2013-02-17T10:13:24.001Z</time>
      </trkpt>
      <trkpt lat="47.35487" lon="0.07098">
        <ele>85</ele>
        <time>2013-02-17T10:13:26.001Z</time>
      </trkpt>
      <trkpt lat="47.35488" lon="0.071">
        <ele>85</ele>
        <time>2013-02-17T10:13:27.001Z</time>
      </trkpt>
      <trkpt lat="47.35488" lon="0.07105">
        <ele>85</ele>
        <time>2013-02-17T10:13:30.001Z</time>
      </trkpt>
      <trkpt lat="47.35488" lon="0.07107">
        <ele>85</ele>
        <time>2013-02-17T10:13:31.001Z</time>
      </trkpt>
      <trkpt lat="47.35488" lon="0.07112">
        <ele>85</ele>
        <time>2013-02-17T10:13:34.001Z</time>
      </trkpt>
      <trkpt lat="47.35488" lon="0.07114">
        <ele>85</ele>
        <time>2013-02-17T10:13:35.001Z</time>
      </trkpt>
      <trkpt lat="47.35489" lon="0.07119">
        <ele>85</ele>
        <time>2013-02-17T10:13:38.001Z</time>
      </trkpt>
      <trkpt lat="47.35489" lon="0.07122">
        <ele>85</ele>
        <time>2013-02-17T10:13:39.001Z</time>
      </trkpt>
      <trkpt lat="47.35489" lon="0.07128">
        <ele>85</ele>
        <time>2013-02-17T10:13:42.001Z</time>
      </trkpt>
      <trkpt lat="47.3549" lon="0.0713">
        <ele>85</ele>
        <time>2013-02-17T10:13:43.001Z</time>
      </trkpt>
      <trkpt lat="47.35491" lon="0.07135">
        <ele>85</ele>
        <time>2013-02-17T10:13:47.001Z</time>
      </trkpt>
      <trkpt lat="47.35491" lon="0.07136">
        <ele>85</ele>
        <time>2013-02-17T10:13:48.001Z</time>
      </trkpt>
      <trkpt lat="47.3549" lon="0.07142">
        <ele>85</ele>
        <time>2013-02-17T10:13:51.001Z</time>
      </trkpt>
      <trkpt lat="47.35489" lon="0.07143">
        <ele>85</ele>
        <time>2013-02-17T10:13:52.001Z</time>
      </trkpt>
      <trkpt lat="47.35491" lon="0.07148">
        <ele>85</ele>
        <time>2013-02-17T10:13:55.001Z</time>
      </trkpt>
      <trkpt lat="47.35491" lon="0.0715">
        <ele>85</ele>
        <time>2013-02-17T10:13:56.001Z</time>
      </trkpt>
      <trkpt lat="47.35493" lon="0.07156">
        <ele>84</ele>
        <time>2013-02-17T10:14:00.001Z</time>
      </trkpt>
      <trkpt lat="47.35494" lon="0.07157">
        <ele>84</ele>
        <time>2013-02-17T10:14:01.001Z</time>
      </trkpt>
      <trkpt lat="47.35496" lon="0.07161">
        <ele>84</ele>
        <time>2013-02-17T10:14:04.001Z</time>
      </trkpt>
      <trkpt lat="47.35496" lon="0.07162">
        <ele>84</ele>
        <time>2013-02-17T10:14:05.001Z</time>
      </trkpt>
      <trkpt lat="47.35499" lon="0.07167">
        <ele>83</ele>
        <time>2013-02-17T10:14:09.001Z</time>
      </trkpt>
      <trkpt lat="47.355" lon="0.07168">
        <ele>83</ele>
        <time>2013-02-17T10:14:10.001Z</time>
      </trkpt>
      <trkpt lat="47.35502" lon="0.07172">
        <ele>84</ele>
        <time>2013-02-17T10:14:14.001Z</time>
      </trkpt>
      <trkpt lat="47.35503" lon="0.07174">
        <ele>84</ele>
        <time>2013-02-17T10:14:15.001Z</time>
      </trkpt>
      <trkpt lat="47.35504" lon="0.07178">
        <ele>84</ele>
        <time>2013-02-17T10:14:18.001Z</time>
      </trkpt>
      <trkpt lat="47.35504" lon="0.0718">
        <ele>84</ele>
        <time>2013-02-17T10:14:19.001Z</time>
      </trkpt>
      <trkpt lat="47.35505" lon="0.07185">
        <ele>85</ele>
        <time>2013-02-17T10:14:21.001Z</time>
      </trkpt>
      <trkpt lat="47.35505" lon="0.07187">
        <ele>85</ele>
        <time>2013-02-17T10:14:22.001Z</time>
      </trkpt>
      <trkpt lat="47.35508" lon="0.07192">
        <ele>85</ele>
        <time>2013-02-17T10:14:25.001Z</time>
      </trkpt>
      <trkpt lat="47.35508" lon="0.07194">
        <ele>85</ele>
        <time>2013-02-17T10:14:26.001Z</time>
      </trkpt>
      <trkpt lat="47.35509" lon="0.072">
        <ele>85</ele>
        <time>2013-02-17T10:14:30.001Z</time>
      </trkpt>
      <trkpt lat="47.35509" lon="0.07202">
        <ele>85</ele>
        <time>2013-02-17T10:14:31.001Z</time>
      </trkpt>
      <trkpt lat="47.3551" lon="0.07208">
        <ele>86</ele>
        <time>2013-02-17T10:14:35.001Z</time>
      </trkpt>
      <trkpt lat="47.3551" lon="0.07211">
        <ele>86</ele>
        <time>2013-02-17T10:14:36.001Z</time>
      </trkpt>
      <trkpt lat="47.35509" lon="0.07217">
        <ele>86</ele>
        <time>2013-02-17T10:14:39.001Z</time>
      </trkpt>
      <trkpt lat="47.3551" lon="0.07218">
        <ele>86</ele>
        <time>2013-02-17T10:14:40.001Z</time>
      </trkpt>
      <trkpt lat="47.35513" lon="0.07222">
        <ele>86</ele>
        <time>2013-02-17T10:14:43.001Z</time>
      </trkpt>
      <trkpt lat="47.35513" lon="0.07224">
        <ele>86</ele>
        <time>2013-02-17T10:14:44.001Z</time>
      </trkpt>
      <trkpt lat="47.35514" lon="0.07229">
        <ele>86</ele>
        <time>2013-02-17T10:14:48.001Z</time>
      </trkpt>
      <trkpt lat="47.35514" lon="0.0723">
        <ele>86</ele>
        <time>2013-02-17T10:14:49.001Z</time>
      </trkpt>
      <trkpt lat="47.35515" lon="0.07236">
        <ele>86</ele>
        <time>2013-02-17T10:14:52.001Z</time>
      </trkpt>
      <trkpt lat="47.35516" lon="0.07238">
        <ele>86</ele>
        <time>2013-02-17T10:14:53.001Z</time>
      </trkpt>
      <trkpt lat="47.35518" lon="0.07243">
        <ele>86</ele>
        <time>2013-02-17T10:14:56.001Z</time>
      </trkpt>
      <trkpt lat="47.35518" lon="0.07244">
        <ele>86</ele>
        <time>2013-02-17T10:14:57.001Z</time>
      </trkpt>
      <trkpt lat="47.3552" lon="0.07249">
        <ele>86</ele>
        <time>2013-02-17T10:15:00.001Z</time>
      </trkpt>
      <trkpt lat="47.3552" lon="0.07251">
        <ele>86</ele>
        <time>2013-02-17T10:15:01.001Z</time>
      </trkpt>
      <trkpt lat="47.35522" lon="0.07256">
        <ele>86</ele>
        <time>2013-02-17T10:15:06.001Z</time>
      </trkpt>
      <trkpt lat="47.35522" lon="0.07258">
        <ele>86</ele>
        <time>2013-02-17T10:15:07.001Z</time>
      </trkpt>
      <trkpt lat="47.35522" lon="0.07264">
        <ele>86</ele>
        <time>2013-02-17T10:15:11.001Z</time>
      </trkpt>
      <trkpt lat="47.35521" lon="0.07266">
        <ele>86</ele>
        <time>2013-02-17T10:15:12.001Z</time>
      </trkpt>
      <trkpt lat="47.35523" lon="0.07271">
        <ele>87</ele>
        <time>2013-02-17T10:15:17.001Z</time>
      </trkpt>
      <trkpt lat="47.35524" lon="0.07273">
        <ele>87</ele>
        <time>2013-02-17T10:15:18.001Z</time>
      </trkpt>
      <trkpt lat="47.35526" lon="0.07278">
        <ele>87</ele>
        <time>2013-02-17T10:15:20.001Z</time>
      </trkpt>
      <trkpt lat="47.35527" lon="0.07279">
        <ele>87</ele>
        <time>2013-02-17T10:15:21.001Z</time>
      </trkpt>
      <trkpt lat="47.35529" lon="0.07285">
        <ele>87</ele>
        <time>2013-02-17T10:15:24.001Z</time>
      </trkpt>
      <trkpt lat="47.35532" lon="0.07286">
        <ele>87</ele>
        <time>2013-02-17T10:15:25.001Z</time>
      </trkpt>
      <trkpt lat="47.35535" lon="0.0729">
        <ele>87</ele>
        <time>2013-02-17T10:15:28.001Z</time>
      </trkpt>
      <trkpt lat="47.35536" lon="0.07291">
        <ele>87</ele>
        <time>2013-02-17T10:15:29.001Z</time>
      </trkpt>
      <trkpt lat="47.3554" lon="0.07295">
        <ele>87</ele>
        <time>2013-02-17T10:15:32.001Z</time>
      </trkpt>
      <trkpt lat="47.35541" lon="0.07296">
        <ele>87</ele>
        <time>2013-02-17T10:15:33.001Z</time>
      </trkpt>
      <trkpt lat="47.35544" lon="0.07299">
        <ele>86</ele>
        <time>2013-02-17T10:15:36.001Z</time>
      </trkpt>
      <trkpt lat="47.35545" lon="0.07301">
        <ele>86</ele>
        <time>2013-02-17T10:15:37.001Z</time>
      </trkpt>
      <trkpt lat="47.35548" lon="0.07305">
        <ele>86</ele>
        <time>2013-02-17T10:15:41.001Z</time>
      </trkpt>
      <trkpt lat="47.35549" lon="0.07306">
        <ele>86</ele>
        <time>2013-02-17T10:15:42.001Z</time>
      </trkpt>
      <trkpt lat="47.35551" lon="0.07312">
        <ele>86</ele>
        <time>2013-02-17T10:15:46.001Z</time>
      </trkpt>
      <trkpt lat="47.35551" lon="0.07313">
        <ele>86</ele>
        <time>2013-02-17T10:15:47.001Z</time>
      </trkpt>
      <trkpt lat="47.35553" lon="0.07318">
        <ele>86</ele>
        <time>2013-02-17T10:15:51.001Z</time>
      </trkpt>
      <trkpt lat="47.35554" lon="0.07319">
        <ele>86</ele>
        <time>2013-02-17T10:15:52.001Z</time>
      </trkpt>
      <trkpt lat="47.35556" lon="0.07323">
        <ele>86</ele>
        <time>2013-02-17T10:15:56.001Z</time>
      </trkpt>
      <trkpt lat="47.35557" lon="0.07325">
        <ele>86</ele>
        <time>2013-02-17T10:15:57.001Z</time>
      </trkpt>
      <trkpt lat="47.3556" lon="0.07328">
        <ele>86</ele>
        <time>2013-02-17T10:16:01.001Z</time>
      </trkpt>
      <trkpt lat="47.3556" lon="0.0733">
        <ele>86</ele>
        <time>2013-02-17T10:16:02.001Z</time>
      </trkpt>
      <trkpt lat="47.35561" lon="0.07335">
        <ele>86</ele>
        <time>2013-02-17T10:16:07.001Z</time>
      </trkpt>
      <trkpt lat="47.35562" lon="0.07336">
        <ele>86</ele>
        <time>2013-02-17T10:16:08.001Z</time>
      </trkpt>
      <trkpt lat="47.35565" lon="0.07337">
        <ele>86</ele>
        <time>2013-02-17T10:16:12.001Z</time>
      </trkpt>
      <trkpt lat="47.35566" lon="0.0734">
        <ele>86</ele>
        <time>2013-02-17T10:16:13.001Z</time>
      </trkpt>
      <trkpt lat="47.35568" lon="0.07345">
        <ele>86</ele>
        <time>2013-02-17T10:16:17.001Z</time>
      </trkpt>
      <trkpt lat="47.35569" lon="0.07346">
        <ele>86</ele>
        <time>2013-02-17T10:16:18.001Z</time>
      </trkpt>
      <trkpt lat="47.35573" lon="0.0735">
        <ele>86</ele>
        <time>2013-02-17T10:16:23.001Z</time>
      </trkpt>
      <trkpt lat="47.35574" lon="0.07351">
        <ele>86</ele>
        <time>2013-02-17T10:16:24.001Z</time>
      </trkpt>
      <trkpt lat="47.35577" lon="0.07353">
        <ele>86</ele>
        <time>2013-02-17T10:16:26.001Z</time>
      </trkpt>
      <trkpt lat="47.35578" lon="0.07354">
        <ele>86</ele>
        <time>2013-02-17T10:16:27.001Z</time>
      </trkpt>
      <trkpt lat="47.35581" lon="0.07358">
        <ele>86</ele>
        <time>2013-02-17T10:16:29.001Z</time>
      </trkpt>
      <trkpt lat="47.35583" lon="0.0736">
        <ele>86</ele>
        <time>2013-02-17T10:16:30.001Z</time>
      </trkpt>
      <trkpt lat="47.35585" lon="0.07364">
        <ele>85</ele>
        <time>2013-02-17T10:16:35.001Z</time>
      </trkpt>
      <trkpt lat="47.35586" lon="0.07366">
        <ele>85</ele>
        <time>2013-02-17T10:16:36.001Z</time>
      </trkpt>
      <trkpt lat="47.3559" lon="0.0737">
        <ele>85</ele>
        <time>2013-02-17T10:16:39.001Z</time>
      </trkpt>
      <trkpt lat="47.3559" lon="0.07371">
        <ele>85</ele>
        <time>2013-02-17T10:16:40.001Z</time>
      </trkpt>
      <trkpt lat="47.35593" lon="0.07376">
        <ele>85</ele>
        <time>2013-02-17T10:16:43.001Z</time>
      </trkpt>
      <trkpt lat="47.35593" lon="0.07379">
        <ele>85</ele>
        <time>2013-02-17T10:16:44.001Z</time>
      </trkpt>
      <trkpt lat="47.35594" lon="0.07384">
        <ele>85</ele>
        <time>2013-02-17T10:16:47.001Z</time>
      </trkpt>
      <trkpt lat="47.35594" lon="0.07385">
        <ele>85</ele>
        <time>2013-02-17T10:16:48.001Z</time>
      </trkpt>
      <trkpt lat="47.35597" lon="0.07388">
        <ele>85</ele>
        <time>2013-02-17T10:16:51.001Z</time>
      </trkpt>
      <trkpt lat="47.35599" lon="0.07388">
        <ele>85</ele>
        <time>2013-02-17T10:16:52.001Z</time>
      </trkpt>
      <trkpt lat="47.35601" lon="0.07393">
        <ele>85</ele>
        <time>2013-02-17T10:16:55.001Z</time>
      </trkpt>
      <trkpt lat="47.35602" lon="0.07394">
        <ele>85</ele>
        <time>2013-02-17T10:16:56.001Z</time>
      </trkpt>
      <trkpt lat="47.35603" lon="0.07399">
        <ele>85</ele>
        <time>2013-02-17T10:17:03.001Z</time>
      </trkpt>
      <trkpt lat="47.35605" lon="0.074">
        <ele>85</ele>
        <time>2013-02-17T10:17:04.001Z</time>
      </trkpt>
      <trkpt lat="47.35609" lon="0.07402">
        <ele>85</ele>
        <time>2013-02-17T10:17:08.001Z</time>
      </trkpt>
      <trkpt lat="47.3561" lon="0.07403">
        <ele>85</ele>
        <time>2013-02-17T10:17:09.001Z</time>
      </trkpt>
      <trkpt lat="47.35613" lon="0.07407">
        <ele>85</ele>
        <time>2013-02-17T10:17:12.001Z</time>
      </trkpt>
      <trkpt lat="47.35614" lon="0.07408">
        <ele>85</ele>
        <time>2013-02-17T10:17:13.001Z</time>
      </trkpt>
      <trkpt lat="47.35615" lon="0.07413">
        <ele>85</ele>
        <time>2013-02-17T10:17:15.001Z</time>
      </trkpt>
      <trkpt lat="47.35615" lon="0.07416">
        <ele>85</ele>
        <time>2013-02-17T10:17:16.001Z</time>
      </trkpt>
      <trkpt lat="47.35617" lon="0.0742">
        <ele>86</ele>
        <time>2013-02-17T10:17:19.001Z</time>
      </trkpt>
      <trkpt lat="47.35618" lon="0.07421">
        <ele>86</ele>
        <time>2013-02-17T10:17:20.001Z</time>
      </trkpt>
      <trkpt lat="47.3562" lon="0.07425">
        <ele>86</ele>
        <time>2013-02-17T10:17:23.001Z</time>
      </trkpt>
      <trkpt lat="47.35622" lon="0.07426">
        <ele>86</ele>
        <time>2013-02-17T10:17:24.001Z</time>
      </trkpt>
      <trkpt lat="47.35625" lon="0.07429">
        <ele>86</ele>
        <time>2013-02-17T10:17:26.001Z</time>
      </trkpt>
      <trkpt lat="47.35626" lon="0.0743">
        <ele>86</ele>
        <time>2013-02-17T10:17:27.001Z</time>
      </trkpt>
      <trkpt lat="47.35628" lon="0.07434">
        <ele>86</ele>
        <time>2013-02-17T10:17:30.001Z</time>
      </trkpt>
      <trkpt lat="47.3563" lon="0.07435">
        <ele>86</ele>
        <time>2013-02-17T10:17:31.001Z</time>
      </trkpt>
      <trkpt lat="47.35632" lon="0.0744">
        <ele>86</ele>
        <time>2013-02-17T10:17:35.001Z</time>
      </trkpt>
      <trkpt lat="47.35633" lon="0.07442">
        <ele>86</ele>
        <time>2013-02-17T10:17:36.001Z</time>
      </trkpt>
      <trkpt lat="47.35635" lon="0.07448">
        <ele>86</ele>
        <time>2013-02-17T10:17:40.001Z</time>
      </trkpt>
      <trkpt lat="47.35635" lon="0.0745">
        <ele>86</ele>
        <time>2013-02-17T10:17:41.001Z</time>
      </trkpt>
      <trkpt lat="47.35637" lon="0.07455">
        <ele>86</ele>
        <time>2013-02-17T10:17:44.001Z</time>
      </trkpt>
      <trkpt lat="47.35637" lon="0.07456">
        <ele>86</ele>
        <time>2013-02-17T10:17:45.001Z</time>
      </trkpt>
      <trkpt lat="47.35639" lon="0.07462">
        <ele>86</ele>
        <time>2013-02-17T10:17:48.001Z</time>
      </trkpt>
      <trkpt lat="47.35639" lon="0.07463">
        <ele>86</ele>
        <time>2013-02-17T10:17:49.001Z</time>
      </trkpt>
      <trkpt lat="47.35641" lon="0.07467">
        <ele>86</ele>
        <time>2013-02-17T10:17:52.001Z</time>
      </trkpt>
      <trkpt lat="47.35642" lon="0.07468">
        <ele>86</ele>
        <time>2013-02-17T10:17:53.001Z</time>
      </trkpt>
      <trkpt lat="47.35644" lon="0.0747">
        <ele>86</ele>
        <time>2013-02-17T10:17:55.001Z</time>
      </trkpt>
      <trkpt lat="47.35645" lon="0.07472">
        <ele>86</ele>
        <time>2013-02-17T10:17:56.001Z</time>
      </trkpt>
      <trkpt lat="47.35648" lon="0.07476">
        <ele>86</ele>
        <time>2013-02-17T10:18:00.001Z</time>
      </trkpt>
      <trkpt lat="47.35649" lon="0.07477">
        <ele>86</ele>
        <time>2013-02-17T10:18:01.001Z</time>
      </trkpt>
      <trkpt lat="47.35653" lon="0.07479">
        <ele>86</ele>
        <time>2013-02-17T10:18:04.001Z</time>
      </trkpt>
      <trkpt lat="47.35653" lon="0.07481">
        <ele>86</ele>
        <time>2013-02-17T10:18:05.001Z</time>
      </trkpt>
      <trkpt lat="47.35654" lon="0.07486">
        <ele>86</ele>
        <time>2013-02-17T10:18:10.001Z</time>
      </trkpt>
      <trkpt lat="47.35655" lon="0.07487">
        <ele>86</ele>
        <time>2013-02-17T10:18:11.001Z</time>
      </trkpt>
      <trkpt lat="47.35656" lon="0.07493">
        <ele>86</ele>
        <time>2013-02-17T10:18:16.001Z</time>
      </trkpt>
      <trkpt lat="47.35657" lon="0.07494">
        <ele>86</ele>
        <time>2013-02-17T10:18:17.001Z</time>
      </trkpt>
      <trkpt lat="47.3566" lon="0.07498">
        <ele>86</ele>
        <time>2013-02-17T10:18:21.001Z</time>
      </trkpt>
      <trkpt lat="47.3566" lon="0.07498">
        <ele>86</ele>
        <time>2013-02-17T10:18:22.001Z</time>
      </trkpt>
      <trkpt lat="47.35663" lon="0.075">
        <ele>86</ele>
        <time>2013-02-17T10:18:27.001Z</time>
      </trkpt>
      <trkpt lat="47.35665" lon="0.07502">
        <ele>86</ele>
        <time>2013-02-17T10:18:28.001Z</time>
      </trkpt>
      <trkpt lat="47.35668" lon="0.07504">
        <ele>86</ele>
        <time>2013-02-17T10:18:30.001Z</time>
      </trkpt>
      <trkpt lat="47.35669" lon="0.07506">
        <ele>86</ele>
        <time>2013-02-17T10:18:31.001Z</time>
      </trkpt>
      <trkpt lat="47.35672" lon="0.07509">
        <ele>87</ele>
        <time>2013-02-17T10:18:36.001Z</time>
      </trkpt>
      <trkpt lat="47.35673" lon="0.0751">
        <ele>87</ele>
        <time>2013-02-17T10:18:37.001Z</time>
      </trkpt>
      <trkpt lat="47.35676" lon="0.07515">
        <ele>87</ele>
        <time>2013-02-17T10:18:44.001Z</time>
      </trkpt>
      <trkpt lat="47.35676" lon="0.07516">
        <ele>87</ele>
        <time>2013-02-17T10:18:45.001Z</time>
      </trkpt>
      <trkpt lat="47.35678" lon="0.07522">
        <ele>87</ele>
        <time>2013-02-17T10:18:48.001Z</time>
      </trkpt>
      <trkpt lat="47.35679" lon="0.07524">
        <ele>87</ele>
        <time>2013-02-17T10:18:49.001Z</time>
      </trkpt>
      <trkpt lat="47.3568" lon="0.07527">
        <ele>87</ele>
        <time>2013-02-17T10:18:51.001Z</time>
      </trkpt>
      <trkpt lat="47.3568" lon="0.07532">
        <ele>88</ele>
        <time>2013-02-17T10:18:52.001Z</time>
      </trkpt>
      <trkpt lat="47.35681" lon="0.07536">
        <ele>88</ele>
        <time>2013-02-17T10:18:53.001Z</time>
      </trkpt>
      <trkpt lat="47.35682" lon="0.07538">
        <ele>88</ele>
        <time>2013-02-17T10:18:54.001Z</time>
      </trkpt>
      <trkpt lat="47.35683" lon="0.07544">
        <ele>88</ele>
        <time>2013-02-17T10:18:58.001Z</time>
      </trkpt>
      <trkpt lat="47.35683" lon="0.07546">
        <ele>88</ele>
        <time>2013-02-17T10:18:59.001Z</time>
      </trkpt>
      <trkpt lat="47.35685" lon="0.07551">
        <ele>88</ele>
        <time>2013-02-17T10:19:02.001Z</time>
      </trkpt>
      <trkpt lat="47.35685" lon="0.07553">
        <ele>88</ele>
        <time>2013-02-17T10:19:03.001Z</time>
      </trkpt>
      <trkpt lat="47.35685" lon="0.07557">
        <ele>88</ele>
        <time>2013-02-17T10:19:08.001Z</time>
      </trkpt>
      <trkpt lat="47.35685" lon="0.07561">
        <ele>88</ele>
        <time>2013-02-17T10:19:09.001Z</time>
      </trkpt>
      <trkpt lat="47.35687" lon="0.07564">
        <ele>88</ele>
        <time>2013-02-17T10:19:10.001Z</time>
      </trkpt>
      <trkpt lat="47.35689" lon="0.07567">
        <ele>88</ele>
        <time>2013-02-17T10:19:11.001Z</time>
      </trkpt>
      <trkpt lat="47.35691" lon="0.07571">
        <ele>88</ele>
        <time>2013-02-17T10:19:17.001Z</time>
      </trkpt>
      <trkpt lat="47.35692" lon="0.07573">
        <ele>88</ele>
        <time>2013-02-17T10:19:18.001Z</time>
      </trkpt>
      <trkpt lat="47.35693" lon="0.07578">
        <ele>88</ele>
        <time>2013-02-17T10:19:22.001Z</time>
      </trkpt>
      <trkpt lat="47.35693" lon="0.0758">
        <ele>88</ele>
        <time>2013-02-17T10:19:23.001Z</time>
      </trkpt>
      <trkpt lat="47.35692" lon="0.07586">
        <ele>89</ele>
        <time>2013-02-17T10:19:29.001Z</time>
      </trkpt>
      <trkpt lat="47.35692" lon="0.07587">
        <ele>89</ele>
        <time>2013-02-17T10:19:30.001Z</time>
      </trkpt>
      <trkpt lat="47.35693" lon="0.0759">
        <ele>89</ele>
        <time>2013-02-17T10:19:31.001Z</time>
      </trkpt>
      <trkpt lat="47.35695" lon="0.07594">
        <ele>89</ele>
        <time>2013-02-17T10:19:32.001Z</time>
      </trkpt>
      <trkpt lat="47.35697" lon="0.07596">
        <ele>89</ele>
        <time>2013-02-17T10:19:36.001Z</time>
      </trkpt>
      <trkpt lat="47.35699" lon="0.07598">
        <ele>89</ele>
        <time>2013-02-17T10:19:37.001Z</time>
      </trkpt>
      <trkpt lat="47.357" lon="0.07601">
        <ele>89</ele>
        <time>2013-02-17T10:19:38.001Z</time>
      </trkpt>
      <trkpt lat="47.35701" lon="0.07604">
        <ele>89</ele>
        <time>2013-02-17T10:19:39.001Z</time>
      </trkpt>
      <trkpt lat="47.35703" lon="0.07607">
        <ele>89</ele>
        <time>2013-02-17T10:19:41.001Z</time>
      </trkpt>
      <trkpt lat="47.35704" lon="0.07609">
        <ele>89</ele>
        <time>2013-02-17T10:19:42.001Z</time>
      </trkpt>
      <trkpt lat="47.35706" lon="0.07612">
        <ele>89</ele>
        <time>2013-02-17T10:19:43.001Z</time>
      </trkpt>
      <trkpt lat="47.35707" lon="0.07615">
        <ele>89</ele>
        <time>2013-02-17T10:19:44.001Z</time>
      </trkpt>
      <trkpt lat="47.3571" lon="0.07619">
        <ele>89</ele>
        <time>2013-02-17T10:19:46.001Z</time>
      </trkpt>
      <trkpt lat="47.3571" lon="0.07621">
        <ele>89</ele>
        <time>2013-02-17T10:19:47.001Z</time>
      </trkpt>
      <trkpt lat="47.35712" lon="0.07625">
        <ele>89</ele>
        <time>2013-02-17T10:19:49.001Z</time>
      </trkpt>
      <trkpt lat="47.35712" lon="0.07627">
        <ele>89</ele>
        <time>2013-02-17T10:19:50.001Z</time>
      </trkpt>
      <trkpt lat="47.35713" lon="0.07632">
        <ele>89</ele>
        <time>2013-02-17T10:19:52.001Z</time>
      </trkpt>
      <trkpt lat="47.35714" lon="0.07634">
        <ele>89</ele>
        <time>2013-02-17T10:19:53.001Z</time>
      </trkpt>
      <trkpt lat="47.35715" lon="0.07638">
        <ele>89</ele>
        <time>2013-02-17T10:19:56.001Z</time>
      </trkpt>
      <trkpt lat="47.35716" lon="0.0764">
        <ele>89</ele>
        <time>2013-02-17T10:19:57.001Z</time>
      </trkpt>
      <trkpt lat="47.35718" lon="0.07643">
        <ele>89</ele>
        <time>2013-02-17T10:19:59.001Z</time>
      </trkpt>
      <trkpt lat="47.35719" lon="0.07645">
        <ele>89</ele>
        <time>2013-02-17T10:20:00.001Z</time>
      </trkpt>
      <trkpt lat="47.3572" lon="0.0765">
        <ele>89</ele>
        <time>2013-02-17T10:20:03.001Z</time>
      </trkpt>
      <trkpt lat="47.35721" lon="0.07652">
        <ele>89</ele>
        <time>2013-02-17T10:20:04.001Z</time>
      </trkpt>
      <trkpt lat="47.35722" lon="0.07656">
        <ele>89</ele>
        <time>2013-02-17T10:20:06.001Z</time>
      </trkpt>
      <trkpt lat="47.35723" lon="0.07658">
        <ele>89</ele>
        <time>2013-02-17T10:20:07.001Z</time>
      </trkpt>
      <trkpt lat="47.35724" lon="0.07663">
        <ele>89</ele>
        <time>2013-02-17T10:20:10.001Z</time>
      </trkpt>
      <trkpt lat="47.35724" lon="0.07665">
        <ele>89</ele>
        <time>2013-02-17T10:20:11.001Z</time>
      </trkpt>
      <trkpt lat="47.35726" lon="0.0767">
        <ele>89</ele>
        <time>2013-02-17T10:20:15.001Z</time>
      </trkpt>
      <trkpt lat="47.35727" lon="0.0767">
        <ele>89</ele>
        <time>2013-02-17T10:20:16.001Z</time>
      </trkpt>
      <trkpt lat="47.35729" lon="0.07676">
        <ele>89</ele>
        <time>2013-02-17T10:20:22.001Z</time>
      </trkpt>
      <trkpt lat="47.35729" lon="0.07677">
        <ele>89</ele>
        <time>2013-02-17T10:20:23.001Z</time>
      </trkpt>
      <trkpt lat="47.35731" lon="0.07683">
        <ele>89</ele>
        <time>2013-02-17T10:20:26.001Z</time>
      </trkpt>
      <trkpt lat="47.35732" lon="0.07684">
        <ele>89</ele>
        <time>2013-02-17T10:20:27.001Z</time>
      </trkpt>
      <trkpt lat="47.35733" lon="0.07689">
        <ele>89</ele>
        <time>2013-02-17T10:20:30.001Z</time>
      </trkpt>
      <trkpt lat="47.35733" lon="0.07691">
        <ele>89</ele>
        <time>2013-02-17T10:20:31.001Z</time>
      </trkpt>
      <trkpt lat="47.35734" lon="0.07697">
        <ele>89</ele>
        <time>2013-02-17T10:20:36.001Z</time>
      </trkpt>
      <trkpt lat="47.35734" lon="0.07698">
        <ele>89</ele>
        <time>2013-02-17T10:20:37.001Z</time>
      </trkpt>
      <trkpt lat="47.35735" lon="0.07704">
        <ele>89</ele>
        <time>2013-02-17T10:20:43.001Z</time>
      </trkpt>
      <trkpt lat="47.35735" lon="0.07705">
        <ele>89</ele>
        <time>2013-02-17T10:20:44.001Z</time>
      </trkpt>
      <trkpt lat="47.35735" lon="0.07711">
        <ele>89</ele>
        <time>2013-02-17T10:20:48.001Z</time>
      </trkpt>
      <trkpt lat="47.35735" lon="0.07712">
        <ele>89</ele>
        <time>2013-02-17T10:20:49.001Z</time>
      </trkpt>
      <trkpt lat="47.35735" lon="0.07717">
        <ele>89</ele>
        <time>2013-02-17T10:20:53.001Z</time>
      </trkpt>
      <trkpt lat="47.35736" lon="0.0772">
        <ele>89</ele>
        <time>2013-02-17T10:20:54.001Z</time>
      </trkpt>
      <trkpt lat="47.35737" lon="0.07725">
        <ele>89</ele>
        <time>2013-02-17T10:20:57.001Z</time>
      </trkpt>
      <trkpt lat="47.35737" lon="0.07727">
        <ele>89</ele>
        <time>2013-02-17T10:20:58.001Z</time>
      </trkpt>
      <trkpt lat="47.35737" lon="0.07733">
        <ele>89</ele>
        <time>2013-02-17T10:21:02.001Z</time>
      </trkpt>
      <trkpt lat="47.35737" lon="0.07735">
        <ele>89</ele>
        <time>2013-02-17T10:21:03.001Z</time>
      </trkpt>
      <trkpt lat="47.35736" lon="0.07741">
        <ele>89</ele>
        <time>2013-02-17T10:21:06.001Z</time>
      </trkpt>
      <trkpt lat="47.35736" lon="0.07742">
        <ele>89</ele>
        <time>2013-02-17T10:21:07.001Z</time>
      </trkpt>
      <trkpt lat="47.35737" lon="0.07746">
        <ele>89</ele>
        <time>2013-02-17T10:21:09.001Z</time>
      </trkpt>
      <trkpt lat="47.35737" lon="0.07748">
        <ele>89</ele>
        <time>2013-02-17T10:21:10.001Z</time>
      </trkpt>
      <trkpt lat="47.35739" lon="0.07752">
        <ele>89</ele>
        <time>2013-02-17T10:21:13.000Z</time>
      </trkpt>
      <trkpt lat="47.3574" lon="0.07754">
        <ele>89</ele>
        <time>2013-02-17T10:21:14.000Z</time>
      </trkpt>
      <trkpt lat="47.3574" lon="0.07759">
        <ele>89</ele>
        <time>2013-02-17T10:21:17.000Z</time>
      </trkpt>
      <trkpt lat="47.35741" lon="0.07761">
        <ele>89</ele>
        <time>2013-02-17T10:21:18.000Z</time>
      </trkpt>
      <trkpt lat="47.35743" lon="0.07766">
        <ele>90</ele>
        <time>2013-02-17T10:21:21.000Z</time>
      </trkpt>
      <trkpt lat="47.35743" lon="0.07767">
        <ele>90</ele>
        <time>2013-02-17T10:21:22.000Z</time>
      </trkpt>
      <trkpt lat="47.35744" lon="0.07773">
        <ele>90</ele>
        <time>2013-02-17T10:22:00.000Z</time>
      </trkpt>
      <trkpt lat="47.35744" lon="0.07773">
        <ele>90</ele>
        <time>2013-02-17T10:22:01.000Z</time>
      </trkpt>
      <trkpt lat="47.35746" lon="0.07778">
        <ele>90</ele>
        <time>2013-02-17T10:24:17.000Z</time>
      </trkpt>
      <trkpt lat="47.35747" lon="0.07779">
        <ele>90</ele>
        <time>2013-02-17T10:24:18.000Z</time>
      </trkpt>
      <trkpt lat="47.35749" lon="0.07783">
        <ele>90</ele>
        <time>2013-02-17T10:24:23.000Z</time>
      </trkpt>
      <trkpt lat="47.3575" lon="0.07784">
        <ele>90</ele>
        <time>2013-02-17T10:24:24.000Z</time>
      </trkpt>
      <trkpt lat="47.3575" lon="0.07789">
        <ele>89</ele>
        <time>2013-02-17T10:24:27.000Z</time>
      </trkpt>
      <trkpt lat="47.35751" lon="0.07791">
        <ele>90</ele>
        <time>2013-02-17T10:24:28.000Z</time>
      </trkpt>
      <trkpt lat="47.35753" lon="0.07796">
        <ele>90</ele>
        <time>2013-02-17T10:24:30.000Z</time>
      </trkpt>
      <trkpt lat="47.35753" lon="0.07798">
        <ele>90</ele>
        <time>2013-02-17T10:24:31.000Z</time>
      </trkpt>
      <trkpt lat="47.35754" lon="0.07802">
        <ele>90</ele>
        <time>2013-02-17T10:24:35.000Z</time>
      </trkpt>
      <trkpt lat="47.35756" lon="0.07804">
        <ele>90</ele>
        <time>2013-02-17T10:24:36.000Z</time>
      </trkpt>
      <trkpt lat="47.35759" lon="0.07807">
        <ele>90</ele>
        <time>2013-02-17T10:24:39.000Z</time>
      </trkpt>
      <trkpt lat="47.3576" lon="0.07809">
        <ele>90</ele>
        <time>2013-02-17T10:24:40.000Z</time>
      </trkpt>
      <trkpt lat="47.35763" lon="0.07811">
        <ele>90</ele>
        <time>2013-02-17T10:24:42.000Z</time>
      </trkpt>
      <trkpt lat="47.35764" lon="0.07813">
        <ele>90</ele>
        <time>2013-02-17T10:24:43.000Z</time>
      </trkpt>
      <trkpt lat="47.35767" lon="0.07815">
        <ele>90</ele>
        <time>2013-02-17T10:24:45.000Z</time>
      </trkpt>
      <trkpt lat="47.35768" lon="0.07817">
        <ele>90</ele>
        <time>2013-02-17T10:24:46.000Z</time>
      </trkpt>
      <trkpt lat="47.35771" lon="0.07821">
        <ele>90</ele>
        <time>2013-02-17T10:24:51.000Z</time>
      </trkpt>
      <trkpt lat="47.35771" lon="0.07822">
        <ele>90</ele>
        <time>2013-02-17T10:24:52.000Z</time>
      </trkpt>
      <trkpt lat="47.35773" lon="0.07827">
        <ele>90</ele>
        <time>2013-02-17T10:24:56.000Z</time>
      </trkpt>
      <trkpt lat="47.35774" lon="0.07828">
        <ele>90</ele>
        <time>2013-02-17T10:24:57.000Z</time>
      </trkpt>
      <trkpt lat="47.35776" lon="0.07831">
        <ele>90</ele>
        <time>2013-02-17T10:24:59.000Z</time>
      </trkpt>
      <trkpt lat="47.35777" lon="0.07833">
        <ele>90</ele>
        <time>2013-02-17T10:25:00.000Z</time>
      </trkpt>
      <trkpt lat="47.3578" lon="0.07838">
        <ele>93</ele>
        <time>2013-02-17T10:25:03.000Z</time>
      </trkpt>
      <trkpt lat="47.35781" lon="0.07839">
        <ele>93</ele>
        <time>2013-02-17T10:25:04.000Z</time>
      </trkpt>
      <trkpt lat="47.35782" lon="0.07843">
        <ele>93</ele>
        <time>2013-02-17T10:25:06.000Z</time>
      </trkpt>
      <trkpt lat="47.35783" lon="0.07844">
        <ele>93</ele>
        <time>2013-02-17T10:25:07.000Z</time>
      </trkpt>
      <trkpt lat="47.35785" lon="0.07849">
        <ele>93</ele>
        <time>2013-02-17T10:25:10.000Z</time>
      </trkpt>
      <trkpt lat="47.35786" lon="0.0785">
        <ele>93</ele>
        <time>2013-02-17T10:25:11.000Z</time>
      </trkpt>
      <trkpt lat="47.35789" lon="0.07853">
        <ele>93</ele>
        <time>2013-02-17T10:25:13.000Z</time>
      </trkpt>
      <trkpt lat="47.3579" lon="0.07855">
        <ele>93</ele>
        <time>2013-02-17T10:25:14.000Z</time>
      </trkpt>
      <trkpt lat="47.35792" lon="0.0786">
        <ele>93</ele>
        <time>2013-02-17T10:25:18.000Z</time>
      </trkpt>
      <trkpt lat="47.35792" lon="0.07861">
        <ele>93</ele>
        <time>2013-02-17T10:25:19.000Z</time>
      </trkpt>
      <trkpt lat="47.35795" lon="0.07866">
        <ele>93</ele>
        <time>2013-02-17T10:25:23.000Z</time>
      </trkpt>
      <trkpt lat="47.35796" lon="0.07867">
        <ele>93</ele>
        <time>2013-02-17T10:25:24.000Z</time>
      </trkpt>
      <trkpt lat="47.35799" lon="0.07871">
        <ele>93</ele>
        <time>2013-02-17T10:25:27.000Z</time>
      </trkpt>
      <trkpt lat="47.35799" lon="0.07872">
        <ele>93</ele>
        <time>2013-02-17T10:25:28.000Z</time>
      </trkpt>
      <trkpt lat="47.35801" lon="0.07876">
        <ele>94</ele>
        <time>2013-02-17T10:25:31.000Z</time>
      </trkpt>
      <trkpt lat="47.35802" lon="0.07878">
        <ele>94</ele>
        <time>2013-02-17T10:25:32.000Z</time>
      </trkpt>
      <trkpt lat="47.35804" lon="0.07882">
        <ele>94</ele>
        <time>2013-02-17T10:25:35.000Z</time>
      </trkpt>
      <trkpt lat="47.35805" lon="0.07884">
        <ele>94</ele>
        <time>2013-02-17T10:25:36.000Z</time>
      </trkpt>
      <trkpt lat="47.35808" lon="0.07888">
        <ele>94</ele>
        <time>2013-02-17T10:25:40.000Z</time>
      </trkpt>
      <trkpt lat="47.35808" lon="0.07889">
        <ele>94</ele>
        <time>2013-02-17T10:25:41.000Z</time>
      </trkpt>
      <trkpt lat="47.3581" lon="0.07894">
        <ele>94</ele>
        <time>2013-02-17T10:25:45.000Z</time>
      </trkpt>
      <trkpt lat="47.35811" lon="0.07895">
        <ele>94</ele>
        <time>2013-02-17T10:25:46.000Z</time>
      </trkpt>
      <trkpt lat="47.35813" lon="0.079">
        <ele>94</ele>
        <time>2013-02-17T10:25:50.000Z</time>
      </trkpt>
      <trkpt lat="47.35814" lon="0.07901">
        <ele>94</ele>
        <time>2013-02-17T10:25:51.000Z</time>
      </trkpt>
      <trkpt lat="47.35817" lon="0.07906">
        <ele>94</ele>
        <time>2013-02-17T10:25:54.000Z</time>
      </trkpt>
      <trkpt lat="47.35818" lon="0.07907">
        <ele>94</ele>
        <time>2013-02-17T10:25:55.000Z</time>
      </trkpt>
      <trkpt lat="47.3582" lon="0.0791">
        <ele>95</ele>
        <time>2013-02-17T10:25:58.000Z</time>
      </trkpt>
      <trkpt lat="47.35822" lon="0.07911">
        <ele>95</ele>
        <time>2013-02-17T10:25:59.000Z</time>
      </trkpt>
      <trkpt lat="47.35825" lon="0.07916">
        <ele>95</ele>
        <time>2013-02-17T10:26:03.000Z</time>
      </trkpt>
      <trkpt lat="47.35826" lon="0.07917">
        <ele>95</ele>
        <time>2013-02-17T10:26:04.000Z</time>
      </trkpt>
      <trkpt lat="47.35827" lon="0.07921">
        <ele>96</ele>
        <time>2013-02-17T10:26:07.000Z</time>
      </trkpt>
      <trkpt lat="47.35828" lon="0.07923">
        <ele>96</ele>
        <time>2013-02-17T10:26:08.000Z</time>
      </trkpt>
      <trkpt lat="47.3583" lon="0.07928">
        <ele>96</ele>
        <time>2013-02-17T10:26:12.000Z</time>
      </trkpt>
      <trkpt lat="47.35831" lon="0.07929">
        <ele>96</ele>
        <time>2013-02-17T10:26:13.000Z</time>
      </trkpt>
      <trkpt lat="47.35834" lon="0.07933">
        <ele>96</ele>
        <time>2013-02-17T10:26:17.000Z</time>
      </trkpt>
      <trkpt lat="47.35835" lon="0.07934">
        <ele>96</ele>
        <time>2013-02-17T10:26:18.000Z</time>
      </trkpt>
      <trkpt lat="47.35838" lon="0.07939">
        <ele>96</ele>
        <time>2013-02-17T10:26:21.000Z</time>
      </trkpt>
      <trkpt lat="47.35839" lon="0.0794">
        <ele>96</ele>
        <time>2013-02-17T10:26:22.000Z</time>
      </trkpt>
      <trkpt lat="47.35841" lon="0.07945">
        <ele>96</ele>
        <time>2013-02-17T10:26:27.000Z</time>
      </trkpt>
      <trkpt lat="47.35841" lon="0.07946">
        <ele>96</ele>
        <time>2013-02-17T10:26:28.000Z</time>
      </trkpt>
      <trkpt lat="47.35844" lon="0.07951">
        <ele>96</ele>
        <time>2013-02-17T10:26:32.000Z</time>
      </trkpt>
      <trkpt lat="47.35844" lon="0.07953">
        <ele>96</ele>
        <time>2013-02-17T10:26:33.000Z</time>
      </trkpt>
      <trkpt lat="47.35847" lon="0.07956">
        <ele>96</ele>
        <time>2013-02-17T10:26:37.000Z</time>
      </trkpt>
      <trkpt lat="47.35848" lon="0.07957">
        <ele>96</ele>
        <time>2013-02-17T10:26:38.000Z</time>
      </trkpt>
      <trkpt lat="47.3585" lon="0.07962">
        <ele>96</ele>
        <time>2013-02-17T10:26:41.000Z</time>
      </trkpt>
      <trkpt lat="47.35851" lon="0.07963">
        <ele>96</ele>
        <time>2013-02-17T10:26:42.000Z</time>
      </trkpt>
      <trkpt lat="47.35854" lon="0.07967">
        <ele>96</ele>
        <time>2013-02-17T10:26:45.000Z</time>
      </trkpt>
      <trkpt lat="47.35854" lon="0.07969">
        <ele>96</ele>
        <time>2013-02-17T10:26:46.000Z</time>
      </trkpt>
      <trkpt lat="47.35856" lon="0.07975">
        <ele>96</ele>
        <time>2013-02-17T10:26:51.000Z</time>
      </trkpt>
      <trkpt lat="47.35857" lon="0.07976">
        <ele>96</ele>
        <time>2013-02-17T10:26:52.000Z</time>
      </trkpt>
      <trkpt lat="47.35857" lon="0.07981">
        <ele>96</ele>
        <time>2013-02-17T10:26:56.000Z</time>
      </trkpt>
      <trkpt lat="47.35858" lon="0.07983">
        <ele>96</ele>
        <time>2013-02-17T10:26:57.000Z</time>
      </trkpt>
      <trkpt lat="47.3586" lon="0.07988">
        <ele>96</ele>
        <time>2013-02-17T10:27:02.000Z</time>
      </trkpt>
      <trkpt lat="47.35861" lon="0.07989">
        <ele>96</ele>
        <time>2013-02-17T10:27:03.000Z</time>
      </trkpt>
      <trkpt lat="47.35862" lon="0.07994">
        <ele>96</ele>
        <time>2013-02-17T10:27:06.000Z</time>
      </trkpt>
      <trkpt lat="47.35863" lon="0.07995">
        <ele>96</ele>
        <time>2013-02-17T10:27:07.000Z</time>
      </trkpt>
      <trkpt lat="47.35865" lon="0.08">
        <ele>96</ele>
        <time>2013-02-17T10:27:10.000Z</time>
      </trkpt>
      <trkpt lat="47.35866" lon="0.08001">
        <ele>96</ele>
        <time>2013-02-17T10:27:11.000Z</time>
      </trkpt>
      <trkpt lat="47.35868" lon="0.08006">
        <ele>96</ele>
        <time>2013-02-17T10:27:17.000Z</time>
      </trkpt>
      <trkpt lat="47.35869" lon="0.08007">
        <ele>96</ele>
        <time>2013-02-17T10:27:18.000Z</time>
      </trkpt>
      <trkpt lat="47.35871" lon="0.08011">
        <ele>96</ele>
        <time>2013-02-17T10:27:21.000Z</time>
      </trkpt>
      <trkpt lat="47.35872" lon="0.08012">
        <ele>96</ele>
        <time>2013-02-17T10:27:22.000Z</time>
      </trkpt>
      <trkpt lat="47.35872" lon="0.08018">
        <ele>96</ele>
        <time>2013-02-17T10:27:26.000Z</time>
      </trkpt>
      <trkpt lat="47.35872" lon="0.0802">
        <ele>96</ele>
        <time>2013-02-17T10:27:27.000Z</time>
      </trkpt>
      <trkpt lat="47.35875" lon="0.08023">
        <ele>96</ele>
        <time>2013-02-17T10:27:28.000Z</time>
      </trkpt>
      <trkpt lat="47.35877" lon="0.08026">
        <ele>96</ele>
        <time>2013-02-17T10:27:29.000Z</time>
      </trkpt>
      <trkpt lat="47.35878" lon="0.08028">
        <ele>96</ele>
        <time>2013-02-17T10:27:30.000Z</time>
      </trkpt>
      <trkpt lat="47.3588" lon="0.0803">
        <ele>96</ele>
        <time>2013-02-17T10:27:31.000Z</time>
      </trkpt>
      <trkpt lat="47.35882" lon="0.08031">
        <ele>96</ele>
        <time>2013-02-17T10:27:32.000Z</time>
      </trkpt>
      <trkpt lat="47.35884" lon="0.08033">
        <ele>96</ele>
        <time>2013-02-17T10:27:33.000Z</time>
      </trkpt>
      <trkpt lat="47.35886" lon="0.08037">
        <ele>96</ele>
        <time>2013-02-17T10:27:36.000Z</time>
      </trkpt>
      <trkpt lat="47.35887" lon="0.08038">
        <ele>96</ele>
        <time>2013-02-17T10:27:37.000Z</time>
      </trkpt>
      <trkpt lat="47.35891" lon="0.08041">
        <ele>96</ele>
        <time>2013-02-17T10:27:41.000Z</time>
      </trkpt>
      <trkpt lat="47.35892" lon="0.08042">
        <ele>96</ele>
        <time>2013-02-17T10:27:42.000Z</time>
      </trkpt>
      <trkpt lat="47.35895" lon="0.08046">
        <ele>96</ele>
        <time>2013-02-17T10:27:45.000Z</time>
      </trkpt>
      <trkpt lat="47.35896" lon="0.08047">
        <ele>96</ele>
        <time>2013-02-17T10:27:46.000Z</time>
      </trkpt>
      <trkpt lat="47.35897" lon="0.08051">
        <ele>95</ele>
        <time>2013-02-17T10:27:50.000Z</time>
      </trkpt>
      <trkpt lat="47.35899" lon="0.08053">
        <ele>95</ele>
        <time>2013-02-17T10:27:51.000Z</time>
      </trkpt>
      <trkpt lat="47.35902" lon="0.08056">
        <ele>95</ele>
        <time>2013-02-17T10:27:53.000Z</time>
      </trkpt>
      <trkpt lat="47.35902" lon="0.08057">
        <ele>95</ele>
        <time>2013-02-17T10:27:54.000Z</time>
      </trkpt>
      <trkpt lat="47.35904" lon="0.08061">
        <ele>95</ele>
        <time>2013-02-17T10:27:58.000Z</time>
      </trkpt>
      <trkpt lat="47.35905" lon="0.08062">
        <ele>95</ele>
        <time>2013-02-17T10:27:59.000Z</time>
      </trkpt>
      <trkpt lat="47.35907" lon="0.08066">
        <ele>95</ele>
        <time>2013-02-17T10:28:03.000Z</time>
      </trkpt>
      <trkpt lat="47.35907" lon="0.08068">
        <ele>95</ele>
        <time>2013-02-17T10:28:04.000Z</time>
      </trkpt>
      <trkpt lat="47.35909" lon="0.08072">
        <ele>95</ele>
        <time>2013-02-17T10:28:07.000Z</time>
      </trkpt>
      <trkpt lat="47.3591" lon="0.08074">
        <ele>95</ele>
        <time>2013-02-17T10:28:08.000Z</time>
      </trkpt>
      <trkpt lat="47.35913" lon="0.08077">
        <ele>94</ele>
        <time>2013-02-17T10:28:12.000Z</time>
      </trkpt>
      <trkpt lat="47.35914" lon="0.08078">
        <ele>94</ele>
        <time>2013-02-17T10:28:13.000Z</time>
      </trkpt>
      <trkpt lat="47.35917" lon="0.08081">
        <ele>94</ele>
        <time>2013-02-17T10:28:16.000Z</time>
      </trkpt>
      <trkpt lat="47.35919" lon="0.08083">
        <ele>94</ele>
        <time>2013-02-17T10:28:17.000Z</time>
      </trkpt>
      <trkpt lat="47.3592" lon="0.08088">
        <ele>95</ele>
        <time>2013-02-17T10:28:20.000Z</time>
      </trkpt>
      <trkpt lat="47.35921" lon="0.0809">
        <ele>95</ele>
        <time>2013-02-17T10:28:21.000Z</time>
      </trkpt>
      <trkpt lat="47.35924" lon="0.08095">
        <ele>95</ele>
        <time>2013-02-17T10:28:24.000Z</time>
      </trkpt>
      <trkpt lat="47.35925" lon="0.08096">
        <ele>95</ele>
        <time>2013-02-17T10:28:25.000Z</time>
      </trkpt>
      <trkpt lat="47.35928" lon="0.081">
        <ele>95</ele>
        <time>2013-02-17T10:28:28.000Z</time>
      </trkpt>
      <trkpt lat="47.35929" lon="0.08102">
        <ele>95</ele>
        <time>2013-02-17T10:28:29.000Z</time>
      </trkpt>
      <trkpt lat="47.35932" lon="0.08104">
        <ele>96</ele>
        <time>2013-02-17T10:28:34.000Z</time>
      </trkpt>
      <trkpt lat="47.35934" lon="0.08106">
        <ele>96</ele>
        <time>2013-02-17T10:28:35.000Z</time>
      </trkpt>
      <trkpt lat="47.35936" lon="0.08109">
        <ele>96</ele>
        <time>2013-02-17T10:28:38.000Z</time>
      </trkpt>
      <trkpt lat="47.35938" lon="0.0811">
        <ele>96</ele>
        <time>2013-02-17T10:28:39.000Z</time>
      </trkpt>
      <trkpt lat="47.3594" lon="0.08113">
        <ele>96</ele>
        <time>2013-02-17T10:28:41.000Z</time>
      </trkpt>
      <trkpt lat="47.35942" lon="0.08114">
        <ele>96</ele>
        <time>2013-02-17T10:28:42.000Z</time>
      </trkpt>
      <trkpt lat="47.35945" lon="0.08116">
        <ele>96</ele>
        <time>2013-02-17T10:28:45.000Z</time>
      </trkpt>
      <trkpt lat="47.35946" lon="0.08117">
        <ele>96</ele>
        <time>2013-02-17T10:28:46.000Z</time>
      </trkpt>
      <trkpt lat="47.35949" lon="0.08121">
        <ele>96</ele>
        <time>2013-02-17T10:28:51.000Z</time>
      </trkpt>
      <trkpt lat="47.3595" lon="0.08122">
        <ele>96</ele>
        <time>2013-02-17T10:28:52.000Z</time>
      </trkpt>
      <trkpt lat="47.35953" lon="0.08126">
        <ele>96</ele>
        <time>2013-02-17T10:28:56.000Z</time>
      </trkpt>
      <trkpt lat="47.35953" lon="0.08127">
        <ele>96</ele>
        <time>2013-02-17T10:28:57.000Z</time>
      </trkpt>
      <trkpt lat="47.35955" lon="0.08131">
        <ele>96</ele>
        <time>2013-02-17T10:29:00.000Z</time>
      </trkpt>
      <trkpt lat="47.35957" lon="0.08133">
        <ele>96</ele>
        <time>2013-02-17T10:29:01.000Z</time>
      </trkpt>
      <trkpt lat="47.35961" lon="0.08136">
        <ele>97</ele>
        <time>2013-02-17T10:29:04.000Z</time>
      </trkpt>
      <trkpt lat="47.35962" lon="0.08137">
        <ele>97</ele>
        <time>2013-02-17T10:29:05.000Z</time>
      </trkpt>
      <trkpt lat="47.35964" lon="0.08141">
        <ele>97</ele>
        <time>2013-02-17T10:29:08.000Z</time>
      </trkpt>
      <trkpt lat="47.35965" lon="0.08143">
        <ele>97</ele>
        <time>2013-02-17T10:29:09.000Z</time>
      </trkpt>
      <trkpt lat="47.35967" lon="0.08146">
        <ele>97</ele>
        <time>2013-02-17T10:29:11.000Z</time>
      </trkpt>
      <trkpt lat="47.35968" lon="0.08147">
        <ele>97</ele>
        <time>2013-02-17T10:29:12.000Z</time>
      </trkpt>
      <trkpt lat="47.35971" lon="0.0815">
        <ele>97</ele>
        <time>2013-02-17T10:29:15.000Z</time>
      </trkpt>
      <trkpt lat="47.35972" lon="0.08152">
        <ele>97</ele>
        <time>2013-02-17T10:29:16.000Z</time>
      </trkpt>
      <trkpt lat="47.35975" lon="0.08157">
        <ele>97</ele>
        <time>2013-02-17T10:29:21.000Z</time>
      </trkpt>
      <trkpt lat="47.35975" lon="0.08157">
        <ele>97</ele>
        <time>2013-02-17T10:29:22.000Z</time>
      </trkpt>
      <trkpt lat="47.35977" lon="0.08162">
        <ele>97</ele>
        <time>2013-02-17T10:29:27.000Z</time>
      </trkpt>
      <trkpt lat="47.35978" lon="0.08164">
        <ele>97</ele>
        <time>2013-02-17T10:29:28.000Z</time>
      </trkpt>
      <trkpt lat="47.35981" lon="0.08167">
        <ele>97</ele>
        <time>2013-02-17T10:29:30.000Z</time>
      </trkpt>
      <trkpt lat="47.35982" lon="0.08169">
        <ele>97</ele>
        <time>2013-02-17T10:29:31.000Z</time>
      </trkpt>
      <trkpt lat="47.35984" lon="0.08172">
        <ele>97</ele>
        <time>2013-02-17T10:29:34.000Z</time>
      </trkpt>
      <trkpt lat="47.35985" lon="0.08173">
        <ele>97</ele>
        <time>2013-02-17T10:29:35.000Z</time>
      </trkpt>
      <trkpt lat="47.35988" lon="0.08178">
        <ele>97</ele>
        <time>2013-02-17T10:29:40.000Z</time>
      </trkpt>
      <trkpt lat="47.35988" lon="0.08179">
        <ele>97</ele>
        <time>2013-02-17T10:29:41.000Z</time>
      </trkpt>
      <trkpt lat="47.3599" lon="0.08183">
        <ele>97</ele>
        <time>2013-02-17T10:29:44.000Z</time>
      </trkpt>
      <trkpt lat="47.3599" lon="0.08185">
        <ele>97</ele>
        <time>2013-02-17T10:29:45.000Z</time>
      </trkpt>
      <trkpt lat="47.35992" lon="0.08191">
        <ele>97</ele>
        <time>2013-02-17T10:29:49.000Z</time>
      </trkpt>
      <trkpt lat="47.35992" lon="0.08192">
        <ele>97</ele>
        <time>2013-02-17T10:29:50.000Z</time>
      </trkpt>
      <trkpt lat="47.35994" lon="0.08196">
        <ele>97</ele>
        <time>2013-02-17T10:29:53.000Z</time>
      </trkpt>
      <trkpt lat="47.35995" lon="0.08197">
        <ele>97</ele>
        <time>2013-02-17T10:29:54.000Z</time>
      </trkpt>
      <trkpt lat="47.35998" lon="0.08199">
        <ele>97</ele>
        <time>2013-02-17T10:29:57.000Z</time>
      </trkpt>
      <trkpt lat="47.35999" lon="0.08201">
        <ele>97</ele>
        <time>2013-02-17T10:29:58.000Z</time>
      </trkpt>
      <trkpt lat="47.36002" lon="0.08205">
        <ele>100</ele>
        <time>2013-02-17T10:30:02.000Z</time>
      </trkpt>
      <trkpt lat="47.36002" lon="0.08206">
        <ele>100</ele>
        <time>2013-02-17T10:30:03.000Z</time>
      </trkpt>
      <trkpt lat="47.36004" lon="0.08211">
        <ele>100</ele>
        <time>2013-02-17T10:30:05.000Z</time>
      </trkpt>
      <trkpt lat="47.36005" lon="0.08212">
        <ele>100</ele>
        <time>2013-02-17T10:30:06.000Z</time>
      </trkpt>
      <trkpt lat="47.36008" lon="0.08215">
        <ele>100</ele>
        <time>2013-02-17T10:30:09.000Z</time>
      </trkpt>
      <trkpt lat="47.36009" lon="0.08215">
        <ele>100</ele>
        <time>2013-02-17T10:30:10.000Z</time>
      </trkpt>
      <trkpt lat="47.36012" lon="0.08219">
        <ele>100</ele>
        <time>2013-02-17T10:30:14.000Z</time>
      </trkpt>
      <trkpt lat="47.36013" lon="0.08221">
        <ele>100</ele>
        <time>2013-02-17T10:30:15.000Z</time>
      </trkpt>
      <trkpt lat="47.36015" lon="0.08224">
        <ele>99</ele>
        <time>2013-02-17T10:30:17.000Z</time>
      </trkpt>
      <trkpt lat="47.36016" lon="0.08225">
        <ele>99</ele>
        <time>2013-02-17T10:30:18.000Z</time>
      </trkpt>
      <trkpt lat="47.36018" lon="0.0823">
        <ele>99</ele>
        <time>2013-02-17T10:30:21.000Z</time>
      </trkpt>
      <trkpt lat="47.36019" lon="0.08232">
        <ele>99</ele>
        <time>2013-02-17T10:30:22.000Z</time>
      </trkpt>
      <trkpt lat="47.36023" lon="0.08235">
        <ele>99</ele>
        <time>2013-02-17T10:30:25.000Z</time>
      </trkpt>
      <trkpt lat="47.36023" lon="0.08236">
        <ele>99</ele>
        <time>2013-02-17T10:30:26.000Z</time>
      </trkpt>
      <trkpt lat="47.36026" lon="0.08241">
        <ele>99</ele>
        <time>2013-02-17T10:30:31.000Z</time>
      </trkpt>
      <trkpt lat="47.36026" lon="0.08242">
        <ele>100</ele>
        <time>2013-02-17T10:30:32.000Z</time>
      </trkpt>
      <trkpt lat="47.36027" lon="0.08246">
        <ele>100</ele>
        <time>2013-02-17T10:30:36.000Z</time>
      </trkpt>
      <trkpt lat="47.36028" lon="0.08248">
        <ele>100</ele>
        <time>2013-02-17T10:30:37.000Z</time>
      </trkpt>
      <trkpt lat="47.36031" lon="0.08252">
        <ele>99</ele>
        <time>2013-02-17T10:30:41.000Z</time>
      </trkpt>
      <trkpt lat="47.36032" lon="0.08254">
        <ele>99</ele>
        <time>2013-02-17T10:30:42.000Z</time>
      </trkpt>
      <trkpt lat="47.36034" lon="0.08258">
        <ele>99</ele>
        <time>2013-02-17T10:30:45.000Z</time>
      </trkpt>
      <trkpt lat="47.36036" lon="0.08259">
        <ele>99</ele>
        <time>2013-02-17T10:30:46.000Z</time>
      </trkpt>
      <trkpt lat="47.36038" lon="0.08263">
        <ele>99</ele>
        <time>2013-02-17T10:30:49.000Z</time>
      </trkpt>
      <trkpt lat="47.36039" lon="0.08265">
        <ele>99</ele>
        <time>2013-02-17T10:30:50.000Z</time>
      </trkpt>
      <trkpt lat="47.36042" lon="0.08267">
        <ele>99</ele>
        <time>2013-02-17T10:30:52.000Z</time>
      </trkpt>
      <trkpt lat="47.36044" lon="0.08268">
        <ele>100</ele>
        <time>2013-02-17T10:30:53.000Z</time>
      </trkpt>
      <trkpt lat="47.36048" lon="0.0827">
        <ele>100</ele>
        <time>2013-02-17T10:30:55.000Z</time>
      </trkpt>
      <trkpt lat="47.36049" lon="0.08271">
        <ele>100</ele>
        <time>2013-02-17T10:30:56.000Z</time>
      </trkpt>
      <trkpt lat="47.36052" lon="0.08275">
        <ele>100</ele>
        <time>2013-02-17T10:30:59.000Z</time>
      </trkpt>
      <trkpt lat="47.36053" lon="0.08276">
        <ele>100</ele>
        <time>2013-02-17T10:31:00.000Z</time>
      </trkpt>
      <trkpt lat="47.36054" lon="0.0828">
        <ele>100</ele>
        <time>2013-02-17T10:31:03.000Z</time>
      </trkpt>
      <trkpt lat="47.36055" lon="0.08282">
        <ele>100</ele>
        <time>2013-02-17T10:31:04.000Z</time>
      </trkpt>
      <trkpt lat="47.36058" lon="0.08286">
        <ele>100</ele>
        <time>2013-02-17T10:31:08.000Z</time>
      </trkpt>
      <trkpt lat="47.36059" lon="0.08287">
        <ele>100</ele>
        <time>2013-02-17T10:31:09.000Z</time>
      </trkpt>
      <trkpt lat="47.36062" lon="0.08292">
        <ele>100</ele>
        <time>2013-02-17T10:31:13.000Z</time>
      </trkpt>
      <trkpt lat="47.36062" lon="0.08293">
        <ele>100</ele>
        <time>2013-02-17T10:31:14.000Z</time>
      </trkpt>
      <trkpt lat="47.36064" lon="0.08299">
        <ele>100</ele>
        <time>2013-02-17T10:31:19.000Z</time>
      </trkpt>
      <trkpt lat="47.36064" lon="0.08301">
        <ele>100</ele>
        <time>2013-02-17T10:31:20.000Z</time>
      </trkpt>
      <trkpt lat="47.36066" lon="0.08306">
        <ele>100</ele>
        <time>2013-02-17T10:31:25.000Z</time>
      </trkpt>
      <trkpt lat="47.36067" lon="0.08307">
        <ele>100</ele>
        <time>2013-02-17T10:31:26.000Z</time>
      </trkpt>
      <trkpt lat="47.36068" lon="0.08311">
        <ele>100</ele>
        <time>2013-02-17T10:31:29.000Z</time>
      </trkpt>
      <trkpt lat="47.36069" lon="0.08312">
        <ele>100</ele>
        <time>2013-02-17T10:31:30.000Z</time>
      </trkpt>
      <trkpt lat="47.3607" lon="0.08318">
        <ele>100</ele>
        <time>2013-02-17T10:31:34.000Z</time>
      </trkpt>
      <trkpt lat="47.36071" lon="0.0832">
        <ele>100</ele>
        <time>2013-02-17T10:31:35.000Z</time>
      </trkpt>
      <trkpt lat="47.36072" lon="0.08326">
        <ele>100</ele>
        <time>2013-02-17T10:31:39.000Z</time>
      </trkpt>
      <trkpt lat="47.36072" lon="0.08327">
        <ele>100</ele>
        <time>2013-02-17T10:31:40.000Z</time>
      </trkpt>
      <trkpt lat="47.36074" lon="0.08331">
        <ele>100</ele>
        <time>2013-02-17T10:31:44.000Z</time>
      </trkpt>
      <trkpt lat="47.36076" lon="0.08334">
        <ele>100</ele>
        <time>2013-02-17T10:31:45.000Z</time>
      </trkpt>
      <trkpt lat="47.36078" lon="0.08339">
        <ele>100</ele>
        <time>2013-02-17T10:31:48.000Z</time>
      </trkpt>
      <trkpt lat="47.36079" lon="0.08341">
        <ele>100</ele>
        <time>2013-02-17T10:31:49.000Z</time>
      </trkpt>
      <trkpt lat="47.3608" lon="0.08345">
        <ele>100</ele>
        <time>2013-02-17T10:31:52.000Z</time>
      </trkpt>
      <trkpt lat="47.36081" lon="0.08347">
        <ele>100</ele>
        <time>2013-02-17T10:31:53.000Z</time>
      </trkpt>
      <trkpt lat="47.36081" lon="0.08353">
        <ele>100</ele>
        <time>2013-02-17T10:31:57.000Z</time>
      </trkpt>
      <trkpt lat="47.36082" lon="0.08354">
        <ele>100</ele>
        <time>2013-02-17T10:31:58.000Z</time>
      </trkpt>
      <trkpt lat="47.36084" lon="0.08359">
        <ele>102</ele>
        <time>2013-02-17T10:32:02.000Z</time>
      </trkpt>
      <trkpt lat="47.36084" lon="0.0836">
        <ele>102</ele>
        <time>2013-02-17T10:32:03.000Z</time>
      </trkpt>
      <trkpt lat="47.36086" lon="0.08366">
        <ele>102</ele>
        <time>2013-02-17T10:32:06.000Z</time>
      </trkpt>
      <trkpt lat="47.36086" lon="0.08367">
        <ele>102</ele>
        <time>2013-02-17T10:32:07.000Z</time>
      </trkpt>
      <trkpt lat="47.36087" lon="0.08372">
        <ele>102</ele>
        <time>2013-02-17T10:32:11.000Z</time>
      </trkpt>
      <trkpt lat="47.36088" lon="0.08374">
        <ele>102</ele>
        <time>2013-02-17T10:32:12.000Z</time>
      </trkpt>
      <trkpt lat="47.36089" lon="0.0838">
        <ele>102</ele>
        <time>2013-02-17T10:32:16.000Z</time>
      </trkpt>
      <trkpt lat="47.3609" lon="0.08381">
        <ele>102</ele>
        <time>2013-02-17T10:32:17.000Z</time>
      </trkpt>
      <trkpt lat="47.36091" lon="0.08385">
        <ele>102</ele>
        <time>2013-02-17T10:32:19.000Z</time>
      </trkpt>
      <trkpt lat="47.36092" lon="0.08388">
        <ele>102</ele>
        <time>2013-02-17T10:32:20.000Z</time>
      </trkpt>
      <trkpt lat="47.36092" lon="0.08392">
        <ele>102</ele>
        <time>2013-02-17T10:32:23.000Z</time>
      </trkpt>
      <trkpt lat="47.36093" lon="0.08395">
        <ele>102</ele>
        <time>2013-02-17T10:32:24.000Z</time>
      </trkpt>
      <trkpt lat="47.36094" lon="0.08401">
        <ele>101</ele>
        <time>2013-02-17T10:32:27.000Z</time>
      </trkpt>
      <trkpt lat="47.36095" lon="0.08402">
        <ele>101</ele>
        <time>2013-02-17T10:32:28.000Z</time>
      </trkpt>
      <trkpt lat="47.36097" lon="0.08407">
        <ele>101</ele>
        <time>2013-02-17T10:32:31.000Z</time>
      </trkpt>
      <trkpt lat="47.36098" lon="0.08408">
        <ele>101</ele>
        <time>2013-02-17T10:32:32.000Z</time>
      </trkpt>
      <trkpt lat="47.36099" lon="0.08414">
        <ele>101</ele>
        <time>2013-02-17T10:32:38.000Z</time>
      </trkpt>
      <trkpt lat="47.36099" lon="0.08415">
        <ele>101</ele>
        <time>2013-02-17T10:32:39.000Z</time>
      </trkpt>
      <trkpt lat="47.36099" lon="0.0842">
        <ele>100</ele>
        <time>2013-02-17T10:32:44.000Z</time>
      </trkpt>
      <trkpt lat="47.36099" lon="0.08423">
        <ele>101</ele>
        <time>2013-02-17T10:32:45.000Z</time>
      </trkpt>
      <trkpt lat="47.361" lon="0.08428">
        <ele>101</ele>
        <time>2013-02-17T10:32:47.000Z</time>
      </trkpt>
      <trkpt lat="47.36101" lon="0.0843">
        <ele>101</ele>
        <time>2013-02-17T10:32:48.000Z</time>
      </trkpt>
      <trkpt lat="47.36102" lon="0.08435">
        <ele>101</ele>
        <time>2013-02-17T10:32:50.000Z</time>
      </trkpt>
      <trkpt lat="47.36102" lon="0.08437">
        <ele>101</ele>
        <time>2013-02-17T10:32:51.000Z</time>
      </trkpt>
      <trkpt lat="47.36101" lon="0.08442">
        <ele>101</ele>
        <time>2013-02-17T10:32:54.000Z</time>
      </trkpt>
      <trkpt lat="47.36101" lon="0.08444">
        <ele>101</ele>
        <time>2013-02-17T10:32:55.000Z</time>
      </trkpt>
      <trkpt lat="47.36101" lon="0.0845">
        <ele>101</ele>
        <time>2013-02-17T10:32:59.000Z</time>
      </trkpt>
      <trkpt lat="47.36102" lon="0.08451">
        <ele>101</ele>
        <time>2013-02-17T10:33:00.000Z</time>
      </trkpt>
      <trkpt lat="47.36102" lon="0.08457">
        <ele>101</ele>
        <time>2013-02-17T10:33:03.000Z</time>
      </trkpt>
      <trkpt lat="47.36103" lon="0.08458">
        <ele>101</ele>
        <time>2013-02-17T10:33:04.000Z</time>
      </trkpt>
      <trkpt lat="47.36104" lon="0.08464">
        <ele>101</ele>
        <time>2013-02-17T10:33:07.000Z</time>
      </trkpt>
      <trkpt lat="47.36104" lon="0.08466">
        <ele>101</ele>
        <time>2013-02-17T10:33:08.000Z</time>
      </trkpt>
      <trkpt lat="47.36105" lon="0.08472">
        <ele>101</ele>
        <time>2013-02-17T10:33:11.000Z</time>
      </trkpt>
      <trkpt lat="47.36105" lon="0.08474">
        <ele>101</ele>
        <time>2013-02-17T10:33:12.000Z</time>
      </trkpt>
      <trkpt lat="47.36107" lon="0.0848">
        <ele>101</ele>
        <time>2013-02-17T10:33:18.000Z</time>
      </trkpt>
      <trkpt lat="47.36107" lon="0.08482">
        <ele>101</ele>
        <time>2013-02-17T10:33:19.000Z</time>
      </trkpt>
      <trkpt lat="47.36108" lon="0.08487">
        <ele>101</ele>
        <time>2013-02-17T10:33:21.000Z</time>
      </trkpt>
      <trkpt lat="47.36108" lon="0.08489">
        <ele>100</ele>
        <time>2013-02-17T10:33:22.000Z</time>
      </trkpt>
      <trkpt lat="47.36107" lon="0.08496">
        <ele>100</ele>
        <time>2013-02-17T10:33:25.000Z</time>
      </trkpt>
      <trkpt lat="47.36107" lon="0.08497">
        <ele>100</ele>
        <time>2013-02-17T10:33:26.000Z</time>
      </trkpt>
      <trkpt lat="47.36107" lon="0.08503">
        <ele>101</ele>
        <time>2013-02-17T10:33:31.000Z</time>
      </trkpt>
      <trkpt lat="47.36107" lon="0.08505">
        <ele>101</ele>
        <time>2013-02-17T10:33:32.000Z</time>
      </trkpt>
      <trkpt lat="47.36107" lon="0.0851">
        <ele>101</ele>
        <time>2013-02-17T10:33:36.000Z</time>
      </trkpt>
      <trkpt lat="47.36106" lon="0.08512">
        <ele>101</ele>
        <time>2013-02-17T10:33:37.000Z</time>
      </trkpt>
      <trkpt lat="47.36106" lon="0.08517">
        <ele>101</ele>
        <time>2013-02-17T10:33:40.000Z</time>
      </trkpt>
      <trkpt lat="47.36106" lon="0.08519">
        <ele>101</ele>
        <time>2013-02-17T10:33:41.000Z</time>
      </trkpt>
      <trkpt lat="47.36105" lon="0.08525">
        <ele>101</ele>
        <time>2013-02-17T10:33:46.000Z</time>
      </trkpt>
      <trkpt lat="47.36105" lon="0.08527">
        <ele>102</ele>
        <time>2013-02-17T10:33:47.000Z</time>
      </trkpt>
      <trkpt lat="47.36105" lon="0.08532">
        <ele>102</ele>
        <time>2013-02-17T10:33:50.000Z</time>
      </trkpt>
      <trkpt lat="47.36105" lon="0.08533">
        <ele>102</ele>
        <time>2013-02-17T10:33:51.000Z</time>
      </trkpt>
      <trkpt lat="47.36106" lon="0.08538">
        <ele>102</ele>
        <time>2013-02-17T10:33:55.000Z</time>
      </trkpt>
      <trkpt lat="47.36105" lon="0.08542">
        <ele>102</ele>
        <time>2013-02-17T10:33:56.000Z</time>
      </trkpt>
      <trkpt lat="47.36104" lon="0.08546">
        <ele>102</ele>
        <time>2013-02-17T10:33:58.000Z</time>
      </trkpt>
      <trkpt lat="47.36104" lon="0.08548">
        <ele>102</ele>
        <time>2013-02-17T10:33:59.000Z</time>
      </trkpt>
      <trkpt lat="47.36102" lon="0.08553">
        <ele>102</ele>
        <time>2013-02-17T10:34:03.000Z</time>
      </trkpt>
      <trkpt lat="47.36102" lon="0.08554">
        <ele>102</ele>
        <time>2013-02-17T10:34:04.000Z</time>
      </trkpt>
      <trkpt lat="47.36103" lon="0.0856">
        <ele>102</ele>
        <time>2013-02-17T10:34:21.000Z</time>
      </trkpt>
      <trkpt lat="47.36103" lon="0.08561">
        <ele>102</ele>
        <time>2013-02-17T10:34:22.000Z</time>
      </trkpt>
      <trkpt lat="47.36104" lon="0.08566">
        <ele>102</ele>
        <time>2013-02-17T10:34:39.000Z</time>
      </trkpt>
      <trkpt lat="47.36104" lon="0.08567">
        <ele>102</ele>
        <time>2013-02-17T10:34:40.000Z</time>
      </trkpt>
      <trkpt lat="47.36108" lon="0.0857">
        <ele>102</ele>
        <time>2013-02-17T10:37:21.000Z</time>
      </trkpt>
      <trkpt lat="47.36108" lon="0.08571">
        <ele>102</ele>
        <time>2013-02-17T10:37:22.000Z</time>
      </trkpt>
      <trkpt lat="47.36108" lon="0.08577">
        <ele>102</ele>
        <time>2013-02-17T10:37:27.000Z</time>
      </trkpt>
      <trkpt lat="47.36109" lon="0.08579">
        <ele>102</ele>
        <time>2013-02-17T10:37:28.000Z</time>
      </trkpt>
      <trkpt lat="47.36111" lon="0.08584">
        <ele>104</ele>
        <time>2013-02-17T10:37:31.000Z</time>
      </trkpt>
      <trkpt lat="47.36112" lon="0.08586">
        <ele>104</ele>
        <time>2013-02-17T10:37:32.000Z</time>
      </trkpt>
      <trkpt lat="47.36113" lon="0.08592">
        <ele>104</ele>
        <time>2013-02-17T10:37:36.000Z</time>
      </trkpt>
      <trkpt lat="47.36113" lon="0.08593">
        <ele>104</ele>
        <time>2013-02-17T10:37:37.000Z</time>
      </trkpt>
      <trkpt lat="47.36114" lon="0.08598">
        <ele>105</ele>
        <time>2013-02-17T10:37:42.000Z</time>
      </trkpt>
      <trkpt lat="47.36114" lon="0.086">
        <ele>105</ele>
        <time>2013-02-17T10:37:43.000Z</time>
      </trkpt>
      <trkpt lat="47.36115" lon="0.08606">
        <ele>105</ele>
        <time>2013-02-17T10:37:48.000Z</time>
      </trkpt>
      <trkpt lat="47.36115" lon="0.08607">
        <ele>105</ele>
        <time>2013-02-17T10:37:49.000Z</time>
      </trkpt>
      <trkpt lat="47.36115" lon="0.08613">
        <ele>105</ele>
        <time>2013-02-17T10:37:52.000Z</time>
      </trkpt>
      <trkpt lat="47.36116" lon="0.08615">
        <ele>105</ele>
        <time>2013-02-17T10:37:53.000Z</time>
      </trkpt>
      <trkpt lat="47.36116" lon="0.0862">
        <ele>105</ele>
        <time>2013-02-17T10:37:55.000Z</time>
      </trkpt>
      <trkpt lat="47.36116" lon="0.08622">
        <ele>105</ele>
        <time>2013-02-17T10:37:56.000Z</time>
      </trkpt>
      <trkpt lat="47.36117" lon="0.08628">
        <ele>105</ele>
        <time>2013-02-17T10:37:59.000Z</time>
      </trkpt>
      <trkpt lat="47.36116" lon="0.08631">
        <ele>105</ele>
        <time>2013-02-17T10:38:00.000Z</time>
      </trkpt>
      <trkpt lat="47.36116" lon="0.08637">
        <ele>106</ele>
        <time>2013-02-17T10:38:03.000Z</time>
      </trkpt>
      <trkpt lat="47.36116" lon="0.08639">
        <ele>106</ele>
        <time>2013-02-17T10:38:04.000Z</time>
      </trkpt>
      <trkpt lat="47.36116" lon="0.08644">
        <ele>106</ele>
        <time>2013-02-17T10:38:07.000Z</time>
      </trkpt>
      <trkpt lat="47.36116" lon="0.08646">
        <ele>106</ele>
        <time>2013-02-17T10:38:08.000Z</time>
      </trkpt>
      <trkpt lat="47.36116" lon="0.08651">
        <ele>106</ele>
        <time>2013-02-17T10:38:11.000Z</time>
      </trkpt>
      <trkpt lat="47.36117" lon="0.08653">
        <ele>106</ele>
        <time>2013-02-17T10:38:12.000Z</time>
      </trkpt>
      <trkpt lat="47.36119" lon="0.08658">
        <ele>106</ele>
        <time>2013-02-17T10:38:15.000Z</time>
      </trkpt>
      <trkpt lat="47.36119" lon="0.08659">
        <ele>106</ele>
        <time>2013-02-17T10:38:16.000Z</time>
      </trkpt>
      <trkpt lat="47.36121" lon="0.08664">
        <ele>106</ele>
        <time>2013-02-17T10:38:19.000Z</time>
      </trkpt>
      <trkpt lat="47.36121" lon="0.08665">
        <ele>106</ele>
        <time>2013-02-17T10:38:20.000Z</time>
      </trkpt>
      <trkpt lat="47.36119" lon="0.08668">
        <ele>107</ele>
        <time>2013-02-17T10:38:25.000Z</time>
      </trkpt>
      <trkpt lat="47.36118" lon="0.0867">
        <ele>107</ele>
        <time>2013-02-17T10:38:26.000Z</time>
      </trkpt>
      <trkpt lat="47.36117" lon="0.08676">
        <ele>107</ele>
        <time>2013-02-17T10:38:29.000Z</time>
      </trkpt>
      <trkpt lat="47.36118" lon="0.08678">
        <ele>107</ele>
        <time>2013-02-17T10:38:30.000Z</time>
      </trkpt>
      <trkpt lat="47.36119" lon="0.08682">
        <ele>107</ele>
        <time>2013-02-17T10:38:32.000Z</time>
      </trkpt>
      <trkpt lat="47.3612" lon="0.08684">
        <ele>107</ele>
        <time>2013-02-17T10:38:33.000Z</time>
      </trkpt>
      <trkpt lat="47.36121" lon="0.08689">
        <ele>107</ele>
        <time>2013-02-17T10:38:37.000Z</time>
      </trkpt>
      <trkpt lat="47.36122" lon="0.08691">
        <ele>107</ele>
        <time>2013-02-17T10:38:38.000Z</time>
      </trkpt>
      <trkpt lat="47.3612" lon="0.08697">
        <ele>107</ele>
        <time>2013-02-17T10:38:42.000Z</time>
      </trkpt>
      <trkpt lat="47.3612" lon="0.08697">
        <ele>107</ele>
        <time>2013-02-17T10:38:43.000Z</time>
      </trkpt>
      <trkpt lat="47.36121" lon="0.08703">
        <ele>107</ele>
        <time>2013-02-17T10:38:46.000Z</time>
      </trkpt>
      <trkpt lat="47.36121" lon="0.08704">
        <ele>107</ele>
        <time>2013-02-17T10:38:47.000Z</time>
      </trkpt>
      <trkpt lat="47.36122" lon="0.0871">
        <ele>107</ele>
        <time>2013-02-17T10:38:50.000Z</time>
      </trkpt>
      <trkpt lat="47.36121" lon="0.08711">
        <ele>107</ele>
        <time>2013-02-17T10:38:51.000Z</time>
      </trkpt>
      <trkpt lat="47.36122" lon="0.08717">
        <ele>107</ele>
        <time>2013-02-17T10:38:55.000Z</time>
      </trkpt>
      <trkpt lat="47.36123" lon="0.08719">
        <ele>107</ele>
        <time>2013-02-17T10:38:56.000Z</time>
      </trkpt>
      <trkpt lat="47.36124" lon="0.08725">
        <ele>107</ele>
        <time>2013-02-17T10:38:59.000Z</time>
      </trkpt>
      <trkpt lat="47.36125" lon="0.08727">
        <ele>107</ele>
        <time>2013-02-17T10:39:00.000Z</time>
      </trkpt>
      <trkpt lat="47.36126" lon="0.08733">
        <ele>107</ele>
        <time>2013-02-17T10:39:03.000Z</time>
      </trkpt>
      <trkpt lat="47.36126" lon="0.08734">
        <ele>107</ele>
        <time>2013-02-17T10:39:04.000Z</time>
      </trkpt>
      <trkpt lat="47.36127" lon="0.0874">
        <ele>107</ele>
        <time>2013-02-17T10:39:07.000Z</time>
      </trkpt>
      <trkpt lat="47.36128" lon="0.08743">
        <ele>107</ele>
        <time>2013-02-17T10:39:08.000Z</time>
      </trkpt>
      <trkpt lat="47.36129" lon="0.08748">
        <ele>107</ele>
        <time>2013-02-17T10:39:11.000Z</time>
      </trkpt>
      <trkpt lat="47.3613" lon="0.08751">
        <ele>108</ele>
        <time>2013-02-17T10:39:12.000Z</time>
      </trkpt>
      <trkpt lat="47.36133" lon="0.08754">
        <ele>108</ele>
        <time>2013-02-17T10:39:15.000Z</time>
      </trkpt>
      <trkpt lat="47.36134" lon="0.08756">
        <ele>108</ele>
        <time>2013-02-17T10:39:16.000Z</time>
      </trkpt>
      <trkpt lat="47.36135" lon="0.08761">
        <ele>108</ele>
        <time>2013-02-17T10:39:21.000Z</time>
      </trkpt>
      <trkpt lat="47.36136" lon="0.08763">
        <ele>108</ele>
        <time>2013-02-17T10:39:22.000Z</time>
      </trkpt>
      <trkpt lat="47.36138" lon="0.08767">
        <ele>108</ele>
        <time>2013-02-17T10:39:25.000Z</time>
      </trkpt>
      <trkpt lat="47.36139" lon="0.08769">
        <ele>108</ele>
        <time>2013-02-17T10:39:26.000Z</time>
      </trkpt>
      <trkpt lat="47.36141" lon="0.08774">
        <ele>108</ele>
        <time>2013-02-17T10:39:30.000Z</time>
      </trkpt>
      <trkpt lat="47.36142" lon="0.08776">
        <ele>108</ele>
        <time>2013-02-17T10:39:31.000Z</time>
      </trkpt>
      <trkpt lat="47.36144" lon="0.08779">
        <ele>108</ele>
        <time>2013-02-17T10:39:33.000Z</time>
      </trkpt>
      <trkpt lat="47.36145" lon="0.08781">
        <ele>108</ele>
        <time>2013-02-17T10:39:34.000Z</time>
      </trkpt>
      <trkpt lat="47.36147" lon="0.08787">
        <ele>108</ele>
        <time>2013-02-17T10:39:38.000Z</time>
      </trkpt>
      <trkpt lat="47.36147" lon="0.08789">
        <ele>108</ele>
        <time>2013-02-17T10:39:39.000Z</time>
      </trkpt>
      <trkpt lat="47.3615" lon="0.08793">
        <ele>108</ele>
        <time>2013-02-17T10:39:43.000Z</time>
      </trkpt>
      <trkpt lat="47.36151" lon="0.08795">
        <ele>108</ele>
        <time>2013-02-17T10:39:44.000Z</time>
      </trkpt>
      <trkpt lat="47.36154" lon="0.08798">
        <ele>108</ele>
        <time>2013-02-17T10:39:47.000Z</time>
      </trkpt>
      <trkpt lat="47.36155" lon="0.08799">
        <ele>108</ele>
        <time>2013-02-17T10:39:48.000Z</time>
      </trkpt>
      <trkpt lat="47.36157" lon="0.08804">
        <ele>109</ele>
        <time>2013-02-17T10:39:52.000Z</time>
      </trkpt>
      <trkpt lat="47.36157" lon="0.08805">
        <ele>109</ele>
        <time>2013-02-17T10:39:53.000Z</time>
      </trkpt>
      <trkpt lat="47.36157" lon="0.08811">
        <ele>109</ele>
        <time>2013-02-17T10:39:58.000Z</time>
      </trkpt>
      <trkpt lat="47.36158" lon="0.08812">
        <ele>109</ele>
        <time>2013-02-17T10:39:59.000Z</time>
      </trkpt>
      <trkpt lat="47.36159" lon="0.08817">
        <ele>109</ele>
        <time>2013-02-17T10:40:02.000Z</time>
      </trkpt>
      <trkpt lat="47.36159" lon="0.08819">
        <ele>109</ele>
        <time>2013-02-17T10:40:03.000Z</time>
      </trkpt>
      <trkpt lat="47.3616" lon="0.08822">
        <ele>109</ele>
        <time>2013-02-17T10:40:06.000Z</time>
      </trkpt>
      <trkpt lat="47.36161" lon="0.08826">
        <ele>109</ele>
        <time>2013-02-17T10:40:07.000Z</time>
      </trkpt>
      <trkpt lat="47.36164" lon="0.0883">
        <ele>110</ele>
        <time>2013-02-17T10:40:10.000Z</time>
      </trkpt>
      <trkpt lat="47.36165" lon="0.08831">
        <ele>110</ele>
        <time>2013-02-17T10:40:11.000Z</time>
      </trkpt>
      <trkpt lat="47.36167" lon="0.08835">
        <ele>110</ele>
        <time>2013-02-17T10:40:14.000Z</time>
      </trkpt>
      <trkpt lat="47.36168" lon="0.08836">
        <ele>110</ele>
        <time>2013-02-17T10:40:15.000Z</time>
      </trkpt>
      <trkpt lat="47.36171" lon="0.0884">
        <ele>111</ele>
        <time>2013-02-17T10:40:18.000Z</time>
      </trkpt>
      <trkpt lat="47.36171" lon="0.08843">
        <ele>111</ele>
        <time>2013-02-17T10:40:19.000Z</time>
      </trkpt>
      <trkpt lat="47.36171" lon="0.08849">
        <ele>111</ele>
        <time>2013-02-17T10:40:23.000Z</time>
      </trkpt>
      <trkpt lat="47.36171" lon="0.08851">
        <ele>112</ele>
        <time>2013-02-17T10:40:24.000Z</time>
      </trkpt>
      <trkpt lat="47.36172" lon="0.08857">
        <ele>112</ele>
        <time>2013-02-17T10:40:27.000Z</time>
      </trkpt>
      <trkpt lat="47.36172" lon="0.08858">
        <ele>112</ele>
        <time>2013-02-17T10:40:28.000Z</time>
      </trkpt>
      <trkpt lat="47.36175" lon="0.08864">
        <ele>112</ele>
        <time>2013-02-17T10:40:31.000Z</time>
      </trkpt>
      <trkpt lat="47.36176" lon="0.08865">
        <ele>112</ele>
        <time>2013-02-17T10:40:32.000Z</time>
      </trkpt>
      <trkpt lat="47.36179" lon="0.0887">
        <ele>112</ele>
        <time>2013-02-17T10:40:35.000Z</time>
      </trkpt>
      <trkpt lat="47.3618" lon="0.08871">
        <ele>112</ele>
        <time>2013-02-17T10:40:36.000Z</time>
      </trkpt>
      <trkpt lat="47.36182" lon="0.08877">
        <ele>112</ele>
        <time>2013-02-17T10:40:40.000Z</time>
      </trkpt>
      <trkpt lat="47.36183" lon="0.08878">
        <ele>112</ele>
        <time>2013-02-17T10:40:41.000Z</time>
      </trkpt>
      <trkpt lat="47.36184" lon="0.08884">
        <ele>112</ele>
        <time>2013-02-17T10:40:46.000Z</time>
      </trkpt>
      <trkpt lat="47.36185" lon="0.08885">
        <ele>112</ele>
        <time>2013-02-17T10:40:47.000Z</time>
      </trkpt>
      <trkpt lat="47.36188" lon="0.08888">
        <ele>112</ele>
        <time>2013-02-17T10:40:51.000Z</time>
      </trkpt>
      <trkpt lat="47.36189" lon="0.08889">
        <ele>112</ele>
        <time>2013-02-17T10:40:52.000Z</time>
      </trkpt>
      <trkpt lat="47.36191" lon="0.08893">
        <ele>112</ele>
        <time>2013-02-17T10:40:56.000Z</time>
      </trkpt>
      <trkpt lat="47.36192" lon="0.08895">
        <ele>112</ele>
        <time>2013-02-17T10:40:57.000Z</time>
      </trkpt>
      <trkpt lat="47.36194" lon="0.089">
        <ele>112</ele>
        <time>2013-02-17T10:41:01.000Z</time>
      </trkpt>
      <trkpt lat="47.36194" lon="0.08902">
        <ele>112</ele>
        <time>2013-02-17T10:41:02.000Z</time>
      </trkpt>
      <trkpt lat="47.36194" lon="0.08907">
        <ele>112</ele>
        <time>2013-02-17T10:41:06.000Z</time>
      </trkpt>
      <trkpt lat="47.36195" lon="0.08909">
        <ele>112</ele>
        <time>2013-02-17T10:41:07.000Z</time>
      </trkpt>
      <trkpt lat="47.36196" lon="0.08914">
        <ele>112</ele>
        <time>2013-02-17T10:41:11.000Z</time>
      </trkpt>
      <trkpt lat="47.36197" lon="0.08915">
        <ele>112</ele>
        <time>2013-02-17T10:41:12.000Z</time>
      </trkpt>
      <trkpt lat="47.36199" lon="0.08921">
        <ele>111</ele>
        <time>2013-02-17T10:41:17.000Z</time>
      </trkpt>
      <trkpt lat="47.362" lon="0.08923">
        <ele>111</ele>
        <time>2013-02-17T10:41:18.000Z</time>
      </trkpt>
      <trkpt lat="47.36202" lon="0.08928">
        <ele>111</ele>
        <time>2013-02-17T10:41:22.000Z</time>
      </trkpt>
      <trkpt lat="47.36203" lon="0.0893">
        <ele>111</ele>
        <time>2013-02-17T10:41:23.000Z</time>
      </trkpt>
      <trkpt lat="47.36206" lon="0.08934">
        <ele>111</ele>
        <time>2013-02-17T10:41:25.000Z</time>
      </trkpt>
      <trkpt lat="47.36207" lon="0.08936">
        <ele>111</ele>
        <time>2013-02-17T10:41:26.000Z</time>
      </trkpt>
      <trkpt lat="47.36209" lon="0.08942">
        <ele>111</ele>
        <time>2013-02-17T10:41:30.000Z</time>
      </trkpt>
      <trkpt lat="47.36209" lon="0.08944">
        <ele>111</ele>
        <time>2013-02-17T10:41:31.000Z</time>
      </trkpt>
      <trkpt lat="47.3621" lon="0.0895">
        <ele>111</ele>
        <time>2013-02-17T10:41:35.000Z</time>
      </trkpt>
      <trkpt lat="47.3621" lon="0.08951">
        <ele>111</ele>
        <time>2013-02-17T10:41:36.000Z</time>
      </trkpt>
      <trkpt lat="47.36211" lon="0.08957">
        <ele>111</ele>
        <time>2013-02-17T10:41:40.000Z</time>
      </trkpt>
      <trkpt lat="47.36212" lon="0.08958">
        <ele>111</ele>
        <time>2013-02-17T10:41:41.000Z</time>
      </trkpt>
      <trkpt lat="47.36215" lon="0.0896">
        <ele>111</ele>
        <time>2013-02-17T10:41:43.000Z</time>
      </trkpt>
      <trkpt lat="47.36216" lon="0.08962">
        <ele>111</ele>
        <time>2013-02-17T10:41:44.000Z</time>
      </trkpt>
      <trkpt lat="47.36219" lon="0.08966">
        <ele>111</ele>
        <time>2013-02-17T10:41:47.000Z</time>
      </trkpt>
      <trkpt lat="47.36219" lon="0.08967">
        <ele>111</ele>
        <time>2013-02-17T10:41:48.000Z</time>
      </trkpt>
      <trkpt lat="47.36222" lon="0.08969">
        <ele>111</ele>
        <time>2013-02-17T10:41:50.000Z</time>
      </trkpt>
      <trkpt lat="47.36224" lon="0.08971">
        <ele>111</ele>
        <time>2013-02-17T10:41:51.000Z</time>
      </trkpt>
      <trkpt lat="47.36228" lon="0.08974">
        <ele>111</ele>
        <time>2013-02-17T10:41:53.000Z</time>
      </trkpt>
      <trkpt lat="47.36229" lon="0.08976">
        <ele>111</ele>
        <time>2013-02-17T10:41:54.000Z</time>
      </trkpt>
      <trkpt lat="47.36231" lon="0.0898">
        <ele>110</ele>
        <time>2013-02-17T10:41:57.000Z</time>
      </trkpt>
      <trkpt lat="47.36232" lon="0.08981">
        <ele>110</ele>
        <time>2013-02-17T10:41:58.000Z</time>
      </trkpt>
      <trkpt lat="47.36233" lon="0.08986">
        <ele>110</ele>
        <time>2013-02-17T10:42:01.000Z</time>
      </trkpt>
      <trkpt lat="47.36233" lon="0.08988">
        <ele>110</ele>
        <time>2013-02-17T10:42:02.000Z</time>
      </trkpt>
      <trkpt lat="47.36234" lon="0.08994">
        <ele>110</ele>
        <time>2013-02-17T10:42:08.000Z</time>
      </trkpt>
      <trkpt lat="47.36235" lon="0.08995">
        <ele>110</ele>
        <time>2013-02-17T10:42:09.000Z</time>
      </trkpt>
      <trkpt lat="47.36236" lon="0.09001">
        <ele>110</ele>
        <time>2013-02-17T10:42:14.000Z</time>
      </trkpt>
      <trkpt lat="47.36235" lon="0.09002">
        <ele>110</ele>
        <time>2013-02-17T10:42:15.000Z</time>
      </trkpt>
      <trkpt lat="47.36236" lon="0.09008">
        <ele>110</ele>
        <time>2013-02-17T10:42:27.000Z</time>
      </trkpt>
      <trkpt lat="47.36236" lon="0.0901">
        <ele>110</ele>
        <time>2013-02-17T10:42:28.000Z</time>
      </trkpt>
      <trkpt lat="47.36237" lon="0.09016">
        <ele>110</ele>
        <time>2013-02-17T10:42:31.000Z</time>
      </trkpt>
      <trkpt lat="47.36237" lon="0.09018">
        <ele>110</ele>
        <time>2013-02-17T10:42:32.000Z</time>
      </trkpt>
      <trkpt lat="47.36239" lon="0.09021">
        <ele>110</ele>
        <time>2013-02-17T10:42:34.000Z</time>
      </trkpt>
      <trkpt lat="47.3624" lon="0.09024">
        <ele>110</ele>
        <time>2013-02-17T10:42:35.000Z</time>
      </trkpt>
      <trkpt lat="47.36241" lon="0.09028">
        <ele>110</ele>
        <time>2013-02-17T10:42:39.000Z</time>
      </trkpt>
      <trkpt lat="47.36242" lon="0.0903">
        <ele>110</ele>
        <time>2013-02-17T10:42:40.000Z</time>
      </trkpt>
      <trkpt lat="47.36244" lon="0.09035">
        <ele>110</ele>
        <time>2013-02-17T10:42:44.000Z</time>
      </trkpt>
      <trkpt lat="47.36245" lon="0.09036">
        <ele>110</ele>
        <time>2013-02-17T10:42:45.000Z</time>
      </trkpt>
      <trkpt lat="47.36247" lon="0.09041">
        <ele>110</ele>
        <time>2013-02-17T10:42:49.000Z</time>
      </trkpt>
      <trkpt lat="47.36247" lon="0.09043">
        <ele>110</ele>
        <time>2013-02-17T10:42:50.000Z</time>
      </trkpt>
      <trkpt lat="47.36249" lon="0.09047">
        <ele>110</ele>
        <time>2013-02-17T10:42:53.000Z</time>
      </trkpt>
      <trkpt lat="47.3625" lon="0.09048">
        <ele>110</ele>
        <time>2013-02-17T10:42:54.000Z</time>
      </trkpt>
      <trkpt lat="47.36252" lon="0.09053">
        <ele>109</ele>
        <time>2013-02-17T10:42:57.000Z</time>
      </trkpt>
      <trkpt lat="47.36252" lon="0.09055">
        <ele>109</ele>
        <time>2013-02-17T10:42:58.000Z</time>
      </trkpt>
      <trkpt lat="47.36254" lon="0.09058">
        <ele>109</ele>
        <time>2013-02-17T10:43:01.000Z</time>
      </trkpt>
      <trkpt lat="47.36255" lon="0.0906">
        <ele>109</ele>
        <time>2013-02-17T10:43:02.000Z</time>
      </trkpt>
      <trkpt lat="47.36258" lon="0.09064">
        <ele>109</ele>
        <time>2013-02-17T10:43:05.000Z</time>
      </trkpt>
      <trkpt lat="47.3626" lon="0.09064">
        <ele>109</ele>
        <time>2013-02-17T10:43:06.000Z</time>
      </trkpt>
      <trkpt lat="47.36262" lon="0.09068">
        <ele>109</ele>
        <time>2013-02-17T10:43:09.000Z</time>
      </trkpt>
      <trkpt lat="47.36263" lon="0.09069">
        <ele>109</ele>
        <time>2013-02-17T10:43:10.000Z</time>
      </trkpt>
      <trkpt lat="47.36265" lon="0.09073">
        <ele>109</ele>
        <time>2013-02-17T10:43:13.000Z</time>
      </trkpt>
      <trkpt lat="47.36267" lon="0.09075">
        <ele>109</ele>
        <time>2013-02-17T10:43:14.000Z</time>
      </trkpt>
      <trkpt lat="47.36269" lon="0.0908">
        <ele>109</ele>
        <time>2013-02-17T10:43:17.000Z</time>
      </trkpt>
      <trkpt lat="47.36269" lon="0.09081">
        <ele>109</ele>
        <time>2013-02-17T10:43:18.000Z</time>
      </trkpt>
      <trkpt lat="47.36271" lon="0.09086">
        <ele>109</ele>
        <time>2013-02-17T10:43:22.000Z</time>
      </trkpt>
      <trkpt lat="47.36272" lon="0.09087">
        <ele>109</ele>
        <time>2013-02-17T10:43:23.000Z</time>
      </trkpt>
      <trkpt lat="47.36274" lon="0.09091">
        <ele>108</ele>
        <time>2013-02-17T10:43:26.000Z</time>
      </trkpt>
      <trkpt lat="47.36275" lon="0.09093">
        <ele>108</ele>
        <time>2013-02-17T10:43:27.000Z</time>
      </trkpt>
      <trkpt lat="47.36278" lon="0.09097">
        <ele>108</ele>
        <time>2013-02-17T10:43:31.000Z</time>
      </trkpt>
      <trkpt lat="47.3628" lon="0.09098">
        <ele>108</ele>
        <time>2013-02-17T10:43:32.000Z</time>
      </trkpt>
      <trkpt lat="47.36282" lon="0.09103">
        <ele>108</ele>
        <time>2013-02-17T10:43:35.000Z</time>
      </trkpt>
      <trkpt lat="47.36282" lon="0.09104">
        <ele>108</ele>
        <time>2013-02-17T10:43:36.000Z</time>
      </trkpt>
      <trkpt lat="47.36283" lon="0.09109">
        <ele>108</ele>
        <time>2013-02-17T10:43:40.000Z</time>
      </trkpt>
      <trkpt lat="47.36283" lon="0.09111">
        <ele>108</ele>
        <time>2013-02-17T10:43:41.000Z</time>
      </trkpt>
      <trkpt lat="47.36285" lon="0.09115">
        <ele>108</ele>
        <time>2013-02-17T10:43:45.000Z</time>
      </trkpt>
      <trkpt lat="47.36286" lon="0.09117">
        <ele>108</ele>
        <time>2013-02-17T10:43:46.000Z</time>
      </trkpt>
      <trkpt lat="47.36288" lon="0.09121">
        <ele>108</ele>
        <time>2013-02-17T10:43:49.000Z</time>
      </trkpt>
      <trkpt lat="47.36288" lon="0.09123">
        <ele>108</ele>
        <time>2013-02-17T10:43:50.000Z</time>
      </trkpt>
      <trkpt lat="47.36291" lon="0.09126">
        <ele>108</ele>
        <time>2013-02-17T10:43:54.000Z</time>
      </trkpt>
      <trkpt lat="47.36291" lon="0.09128">
        <ele>108</ele>
        <time>2013-02-17T10:43:55.000Z</time>
      </trkpt>
      <trkpt lat="47.36291" lon="0.09133">
        <ele>108</ele>
        <time>2013-02-17T10:43:57.000Z</time>
      </trkpt>
      <trkpt lat="47.3629" lon="0.09135">
        <ele>108</ele>
        <time>2013-02-17T10:43:58.000Z</time>
      </trkpt>
      <trkpt lat="47.36293" lon="0.0914">
        <ele>108</ele>
        <time>2013-02-17T10:44:02.000Z</time>
      </trkpt>
      <trkpt lat="47.36293" lon="0.09141">
        <ele>108</ele>
        <time>2013-02-17T10:44:03.000Z</time>
      </trkpt>
      <trkpt lat="47.36294" lon="0.09146">
        <ele>108</ele>
        <time>2013-02-17T10:44:11.000Z</time>
      </trkpt>
      <trkpt lat="47.36295" lon="0.09148">
        <ele>108</ele>
        <time>2013-02-17T10:44:12.000Z</time>
      </trkpt>
      <trkpt lat="47.36299" lon="0.09149">
        <ele>108</ele>
        <time>2013-02-17T10:44:19.000Z</time>
      </trkpt>
      <trkpt lat="47.363" lon="0.09151">
        <ele>108</ele>
        <time>2013-02-17T10:44:20.000Z</time>
      </trkpt>
      <trkpt lat="47.363" lon="0.09157">
        <ele>108</ele>
        <time>2013-02-17T10:44:23.000Z</time>
      </trkpt>
      <trkpt lat="47.363" lon="0.0916">
        <ele>108</ele>
        <time>2013-02-17T10:44:24.000Z</time>
      </trkpt>
      <trkpt lat="47.36301" lon="0.09165">
        <ele>108</ele>
        <time>2013-02-17T10:44:26.000Z</time>
      </trkpt>
      <trkpt lat="47.36302" lon="0.09168">
        <ele>108</ele>
        <time>2013-02-17T10:44:27.000Z</time>
      </trkpt>
      <trkpt lat="47.36303" lon="0.09173">
        <ele>108</ele>
        <time>2013-02-17T10:44:30.000Z</time>
      </trkpt>
      <trkpt lat="47.36303" lon="0.09175">
        <ele>108</ele>
        <time>2013-02-17T10:44:31.000Z</time>
      </trkpt>
      <trkpt lat="47.36305" lon="0.09179">
        <ele>108</ele>
        <time>2013-02-17T10:44:33.000Z</time>
      </trkpt>
      <trkpt lat="47.36305" lon="0.09182">
        <ele>108</ele>
        <time>2013-02-17T10:44:34.000Z</time>
      </trkpt>
      <trkpt lat="47.36309" lon="0.09186">
        <ele>108</ele>
        <time>2013-02-17T10:44:36.000Z</time>
      </trkpt>
      <trkpt lat="47.36311" lon="0.09188">
        <ele>108</ele>
        <time>2013-02-17T10:44:37.000Z</time>
      </trkpt>
      <trkpt lat="47.36313" lon="0.09189">
        <ele>108</ele>
        <time>2013-02-17T10:44:38.000Z</time>
      </trkpt>
      <trkpt lat="47.36315" lon="0.09191">
        <ele>108</ele>
        <time>2013-02-17T10:44:39.000Z</time>
      </trkpt>
      <trkpt lat="47.36318" lon="0.09196">
        <ele>108</ele>
        <time>2013-02-17T10:44:42.000Z</time>
      </trkpt>
      <trkpt lat="47.36319" lon="0.09197">
        <ele>108</ele>
        <time>2013-02-17T10:44:43.000Z</time>
      </trkpt>
      <trkpt lat="47.36322" lon="0.09201">
        <ele>109</ele>
        <time>2013-02-17T10:44:47.000Z</time>
      </trkpt>
      <trkpt lat="47.36323" lon="0.09203">
        <ele>109</ele>
        <time>2013-02-17T10:44:48.000Z</time>
      </trkpt>
      <trkpt lat="47.36326" lon="0.09207">
        <ele>109</ele>
        <time>2013-02-17T10:44:52.000Z</time>
      </trkpt>
      <trkpt lat="47.36327" lon="0.09208">
        <ele>109</ele>
        <time>2013-02-17T10:44:53.000Z</time>
      </trkpt>
      <trkpt lat="47.3633" lon="0.09212">
        <ele>109</ele>
        <time>2013-02-17T10:44:55.000Z</time>
      </trkpt>
      <trkpt lat="47.36332" lon="0.09213">
        <ele>109</ele>
        <time>2013-02-17T10:44:56.000Z</time>
      </trkpt>
      <trkpt lat="47.36336" lon="0.09215">
        <ele>110</ele>
        <time>2013-02-17T10:44:58.000Z</time>
      </trkpt>
      <trkpt lat="47.36337" lon="0.09217">
        <ele>110</ele>
        <time>2013-02-17T10:44:59.000Z</time>
      </trkpt>
      <trkpt lat="47.3634" lon="0.0922">
        <ele>110</ele>
        <time>2013-02-17T10:45:01.000Z</time>
      </trkpt>
      <trkpt lat="47.3634" lon="0.09221">
        <ele>110</ele>
        <time>2013-02-17T10:45:02.000Z</time>
      </trkpt>
      <trkpt lat="47.36341" lon="0.09228">
        <ele>110</ele>
        <time>2013-02-17T10:45:07.000Z</time>
      </trkpt>
      <trkpt lat="47.36341" lon="0.09228">
        <ele>110</ele>
        <time>2013-02-17T10:45:08.000Z</time>
      </trkpt>
      <trkpt lat="47.36342" lon="0.09234">
        <ele>110</ele>
        <time>2013-02-17T10:45:13.000Z</time>
      </trkpt>
      <trkpt lat="47.36343" lon="0.09235">
        <ele>110</ele>
        <time>2013-02-17T10:45:14.000Z</time>
      </trkpt>
      <trkpt lat="47.36345" lon="0.09239">
        <ele>110</ele>
        <time>2013-02-17T10:45:18.000Z</time>
      </trkpt>
      <trkpt lat="47.36346" lon="0.0924">
        <ele>110</ele>
        <time>2013-02-17T10:45:19.000Z</time>
      </trkpt>
      <trkpt lat="47.36349" lon="0.09245">
        <ele>110</ele>
        <time>2013-02-17T10:45:22.000Z</time>
      </trkpt>
      <trkpt lat="47.3635" lon="0.09246">
        <ele>110</ele>
        <time>2013-02-17T10:45:23.000Z</time>
      </trkpt>
      <trkpt lat="47.36352" lon="0.0925">
        <ele>111</ele>
        <time>2013-02-17T10:45:26.000Z</time>
      </trkpt>
      <trkpt lat="47.36352" lon="0.09253">
        <ele>111</ele>
        <time>2013-02-17T10:45:27.000Z</time>
      </trkpt>
      <trkpt lat="47.36354" lon="0.09259">
        <ele>111</ele>
        <time>2013-02-17T10:45:32.000Z</time>
      </trkpt>
      <trkpt lat="47.36355" lon="0.0926">
        <ele>111</ele>
        <time>2013-02-17T10:45:33.000Z</time>
      </trkpt>
      <trkpt lat="47.36356" lon="0.09265">
        <ele>111</ele>
        <time>2013-02-17T10:45:35.000Z</time>
      </trkpt>
      <trkpt lat="47.36357" lon="0.09267">
        <ele>111</ele>
        <time>2013-02-17T10:45:36.000Z</time>
      </trkpt>
      <trkpt lat="47.36359" lon="0.09272">
        <ele>111</ele>
        <time>2013-02-17T10:45:40.000Z</time>
      </trkpt>
      <trkpt lat="47.36359" lon="0.09273">
        <ele>111</ele>
        <time>2013-02-17T10:45:41.000Z</time>
      </trkpt>
      <trkpt lat="47.36361" lon="0.09277">
        <ele>111</ele>
        <time>2013-02-17T10:45:45.000Z</time>
      </trkpt>
      <trkpt lat="47.36362" lon="0.09279">
        <ele>111</ele>
        <time>2013-02-17T10:45:46.000Z</time>
      </trkpt>
      <trkpt lat="47.36364" lon="0.09283">
        <ele>111</ele>
        <time>2013-02-17T10:45:48.000Z</time>
      </trkpt>
      <trkpt lat="47.36365" lon="0.09285">
        <ele>111</ele>
        <time>2013-02-17T10:45:49.000Z</time>
      </trkpt>
      <trkpt lat="47.36367" lon="0.09289">
        <ele>111</ele>
        <time>2013-02-17T10:45:51.000Z</time>
      </trkpt>
      <trkpt lat="47.36367" lon="0.09291">
        <ele>111</ele>
        <time>2013-02-17T10:45:52.000Z</time>
      </trkpt>
      <trkpt lat="47.3637" lon="0.09294">
        <ele>111</ele>
        <time>2013-02-17T10:45:54.000Z</time>
      </trkpt>
      <trkpt lat="47.36371" lon="0.09296">
        <ele>111</ele>
        <time>2013-02-17T10:45:55.000Z</time>
      </trkpt>
      <trkpt lat="47.36374" lon="0.09299">
        <ele>111</ele>
        <time>2013-02-17T10:45:57.000Z</time>
      </trkpt>
      <trkpt lat="47.36374" lon="0.09301">
        <ele>111</ele>
        <time>2013-02-17T10:45:58.000Z</time>
      </trkpt>
      <trkpt lat="47.36376" lon="0.09305">
        <ele>111</ele>
        <time>2013-02-17T10:46:01.000Z</time>
      </trkpt>
      <trkpt lat="47.36377" lon="0.09307">
        <ele>111</ele>
        <time>2013-02-17T10:46:02.000Z</time>
      </trkpt>
      <trkpt lat="47.36378" lon="0.09311">
        <ele>111</ele>
        <time>2013-02-17T10:46:08.000Z</time>
      </trkpt>
      <trkpt lat="47.36379" lon="0.09313">
        <ele>111</ele>
        <time>2013-02-17T10:46:09.000Z</time>
      </trkpt>
      <trkpt lat="47.36382" lon="0.09318">
        <ele>111</ele>
        <time>2013-02-17T10:46:21.000Z</time>
      </trkpt>
      <trkpt lat="47.36382" lon="0.09319">
        <ele>111</ele>
        <time>2013-02-17T10:46:22.000Z</time>
      </trkpt>
      <trkpt lat="47.36385" lon="0.09322">
        <ele>112</ele>
        <time>2013-02-17T10:46:25.000Z</time>
      </trkpt>
      <trkpt lat="47.36386" lon="0.09323">
        <ele>112</ele>
        <time>2013-02-17T10:46:26.000Z</time>
      </trkpt>
      <trkpt lat="47.36389" lon="0.09328">
        <ele>112</ele>
        <time>2013-02-17T10:46:29.000Z</time>
      </trkpt>
      <trkpt lat="47.36389" lon="0.0933">
        <ele>112</ele>
        <time>2013-02-17T10:46:30.000Z</time>
      </trkpt>
      <trkpt lat="47.36392" lon="0.09335">
        <ele>112</ele>
        <time>2013-02-17T10:46:34.000Z</time>
      </trkpt>
      <trkpt lat="47.36392" lon="0.09337">
        <ele>112</ele>
        <time>2013-02-17T10:46:35.000Z</time>
      </trkpt>
      <trkpt lat="47.36394" lon="0.09342">
        <ele>112</ele>
        <time>2013-02-17T10:46:40.000Z</time>
      </trkpt>
      <trkpt lat="47.36394" lon="0.09343">
        <ele>112</ele>
        <time>2013-02-17T10:46:41.000Z</time>
      </trkpt>
      <trkpt lat="47.36397" lon="0.09347">
        <ele>112</ele>
        <time>2013-02-17T10:46:53.000Z</time>
      </trkpt>
      <trkpt lat="47.36398" lon="0.09348">
        <ele>112</ele>
        <time>2013-02-17T10:46:54.000Z</time>
      </trkpt>
      <trkpt lat="47.36395" lon="0.09353">
        <ele>112</ele>
        <time>2013-02-17T10:49:14.000Z</time>
      </trkpt>
      <trkpt lat="47.36395" lon="0.09355">
        <ele>112</ele>
        <time>2013-02-17T10:49:15.000Z</time>
      </trkpt>
      <trkpt lat="47.36399" lon="0.09354">
        <ele>112</ele>
        <time>2013-02-17T10:49:36.000Z</time>
      </trkpt>
      <trkpt lat="47.364" lon="0.09354">
        <ele>112</ele>
        <time>2013-02-17T10:49:37.000Z</time>
      </trkpt>
      <trkpt lat="47.36404" lon="0.09357">
        <ele>112</ele>
        <time>2013-02-17T10:49:41.000Z</time>
      </trkpt>
      <trkpt lat="47.36405" lon="0.09358">
        <ele>112</ele>
        <time>2013-02-17T10:49:42.000Z</time>
      </trkpt>
      <trkpt lat="47.36408" lon="0.09361">
        <ele>112</ele>
        <time>2013-02-17T10:49:45.000Z</time>
      </trkpt>
      <trkpt lat="47.36409" lon="0.09363">
        <ele>112</ele>
        <time>2013-02-17T10:49:46.000Z</time>
      </trkpt>
      <trkpt lat="47.36412" lon="0.09366">
        <ele>112</ele>
        <time>2013-02-17T10:49:48.000Z</time>
      </trkpt>
      <trkpt lat="47.36414" lon="0.09368">
        <ele>112</ele>
        <time>2013-02-17T10:49:49.000Z</time>
      </trkpt>
      <trkpt lat="47.36417" lon="0.09371">
        <ele>113</ele>
        <time>2013-02-17T10:49:52.000Z</time>
      </trkpt>
      <trkpt lat="47.36417" lon="0.09372">
        <ele>113</ele>
        <time>2013-02-17T10:49:53.000Z</time>
      </trkpt>
      <trkpt lat="47.36422" lon="0.09373">
        <ele>113</ele>
        <time>2013-02-17T10:49:59.000Z</time>
      </trkpt>
      <trkpt lat="47.36423" lon="0.09373">
        <ele>113</ele>
        <time>2013-02-17T10:50:00.000Z</time>
      </trkpt>
      <trkpt lat="47.36427" lon="0.09376">
        <ele>113</ele>
        <time>2013-02-17T10:50:04.000Z</time>
      </trkpt>
      <trkpt lat="47.36428" lon="0.09377">
        <ele>113</ele>
        <time>2013-02-17T10:50:05.000Z</time>
      </trkpt>
      <trkpt lat="47.36431" lon="0.0938">
        <ele>113</ele>
        <time>2013-02-17T10:50:08.000Z</time>
      </trkpt>
      <trkpt lat="47.36432" lon="0.09381">
        <ele>113</ele>
        <time>2013-02-17T10:50:09.000Z</time>
      </trkpt>
      <trkpt lat="47.36435" lon="0.09384">
        <ele>113</ele>
        <time>2013-02-17T10:50:12.000Z</time>
      </trkpt>
      <trkpt lat="47.36436" lon="0.09386">
        <ele>113</ele>
        <time>2013-02-17T10:50:13.000Z</time>
      </trkpt>
      <trkpt lat="47.36439" lon="0.09388">
        <ele>113</ele>
        <time>2013-02-17T10:50:18.000Z</time>
      </trkpt>
      <trkpt lat="47.3644" lon="0.09389">
        <ele>113</ele>
        <time>2013-02-17T10:50:19.000Z</time>
      </trkpt>
      <trkpt lat="47.36443" lon="0.09392">
        <ele>113</ele>
        <time>2013-02-17T10:50:22.000Z</time>
      </trkpt>
      <trkpt lat="47.36444" lon="0.09393">
        <ele>113</ele>
        <time>2013-02-17T10:50:23.000Z</time>
      </trkpt>
      <trkpt lat="47.36447" lon="0.09396">
        <ele>113</ele>
        <time>2013-02-17T10:50:26.000Z</time>
      </trkpt>
      <trkpt lat="47.36448" lon="0.09397">
        <ele>113</ele>
        <time>2013-02-17T10:50:27.000Z</time>
      </trkpt>
      <trkpt lat="47.36451" lon="0.09399">
        <ele>113</ele>
        <time>2013-02-17T10:50:29.000Z</time>
      </trkpt>
      <trkpt lat="47.36453" lon="0.094">
        <ele>113</ele>
        <time>2013-02-17T10:50:30.000Z</time>
      </trkpt>
      <trkpt lat="47.36456" lon="0.09402">
        <ele>113</ele>
        <time>2013-02-17T10:50:34.000Z</time>
      </trkpt>
      <trkpt lat="47.36457" lon="0.09404">
        <ele>113</ele>
        <time>2013-02-17T10:50:35.000Z</time>
      </trkpt>
      <trkpt lat="47.36459" lon="0.09408">
        <ele>113</ele>
        <time>2013-02-17T10:50:42.000Z</time>
      </trkpt>
      <trkpt lat="47.36461" lon="0.09409">
        <ele>113</ele>
        <time>2013-02-17T10:50:43.000Z</time>
      </trkpt>
      <trkpt lat="47.36464" lon="0.09412">
        <ele>113</ele>
        <time>2013-02-17T10:50:45.000Z</time>
      </trkpt>
      <trkpt lat="47.36465" lon="0.09414">
        <ele>113</ele>
        <time>2013-02-17T10:50:46.000Z</time>
      </trkpt>
      <trkpt lat="47.36468" lon="0.09418">
        <ele>113</ele>
        <time>2013-02-17T10:50:49.000Z</time>
      </trkpt>
      <trkpt lat="47.36469" lon="0.09419">
        <ele>113</ele>
        <time>2013-02-17T10:50:50.000Z</time>
      </trkpt>
      <trkpt lat="47.36473" lon="0.09422">
        <ele>114</ele>
        <time>2013-02-17T10:50:55.000Z</time>
      </trkpt>
      <trkpt lat="47.36474" lon="0.09424">
        <ele>114</ele>
        <time>2013-02-17T10:50:56.000Z</time>
      </trkpt>
      <trkpt lat="47.36477" lon="0.09426">
        <ele>114</ele>
        <time>2013-02-17T10:50:58.000Z</time>
      </trkpt>
      <trkpt lat="47.36479" lon="0.09427">
        <ele>114</ele>
        <time>2013-02-17T10:50:59.000Z</time>
      </trkpt>
      <trkpt lat="47.36481" lon="0.09428">
        <ele>114</ele>
        <time>2013-02-17T10:51:00.000Z</time>
      </trkpt>
      <trkpt lat="47.36483" lon="0.09429">
        <ele>114</ele>
        <time>2013-02-17T10:51:01.000Z</time>
      </trkpt>
      <trkpt lat="47.36487" lon="0.09432">
        <ele>114</ele>
        <time>2013-02-17T10:51:06.000Z</time>
      </trkpt>
      <trkpt lat="47.36488" lon="0.09433">
        <ele>114</ele>
        <time>2013-02-17T10:51:07.000Z</time>
      </trkpt>
      <trkpt lat="47.3649" lon="0.09437">
        <ele>114</ele>
        <time>2013-02-17T10:51:12.000Z</time>
      </trkpt>
      <trkpt lat="47.36491" lon="0.09438">
        <ele>114</ele>
        <time>2013-02-17T10:51:13.000Z</time>
      </trkpt>
      <trkpt lat="47.36495" lon="0.0944">
        <ele>114</ele>
        <time>2013-02-17T10:51:17.000Z</time>
      </trkpt>
      <trkpt lat="47.36496" lon="0.09441">
        <ele>114</ele>
        <time>2013-02-17T10:51:18.000Z</time>
      </trkpt>
      <trkpt lat="47.36498" lon="0.09446">
        <ele>114</ele>
        <time>2013-02-17T10:51:26.000Z</time>
      </trkpt>
      <trkpt lat="47.365" lon="0.09447">
        <ele>114</ele>
        <time>2013-02-17T10:51:27.000Z</time>
      </trkpt>
      <trkpt lat="47.36503" lon="0.0945">
        <ele>116</ele>
        <time>2013-02-17T10:51:31.000Z</time>
      </trkpt>
      <trkpt lat="47.36504" lon="0.09451">
        <ele>116</ele>
        <time>2013-02-17T10:51:32.000Z</time>
      </trkpt>
      <trkpt lat="47.36506" lon="0.09454">
        <ele>116</ele>
        <time>2013-02-17T10:51:34.000Z</time>
      </trkpt>
      <trkpt lat="47.36508" lon="0.09455">
        <ele>116</ele>
        <time>2013-02-17T10:51:35.000Z</time>
      </trkpt>
      <trkpt lat="47.3651" lon="0.09458">
        <ele>116</ele>
        <time>2013-02-17T10:51:37.000Z</time>
      </trkpt>
      <trkpt lat="47.36511" lon="0.0946">
        <ele>116</ele>
        <time>2013-02-17T10:51:38.000Z</time>
      </trkpt>
      <trkpt lat="47.36515" lon="0.09461">
        <ele>116</ele>
        <time>2013-02-17T10:51:41.000Z</time>
      </trkpt>
      <trkpt lat="47.36517" lon="0.09462">
        <ele>116</ele>
        <time>2013-02-17T10:51:42.000Z</time>
      </trkpt>
      <trkpt lat="47.3652" lon="0.09464">
        <ele>116</ele>
        <time>2013-02-17T10:51:44.000Z</time>
      </trkpt>
      <trkpt lat="47.36521" lon="0.09464">
        <ele>116</ele>
        <time>2013-02-17T10:51:45.000Z</time>
      </trkpt>
      <trkpt lat="47.36525" lon="0.09467">
        <ele>116</ele>
        <time>2013-02-17T10:51:48.000Z</time>
      </trkpt>
      <trkpt lat="47.36526" lon="0.09468">
        <ele>116</ele>
        <time>2013-02-17T10:51:49.000Z</time>
      </trkpt>
      <trkpt lat="47.36529" lon="0.09472">
        <ele>116</ele>
        <time>2013-02-17T10:51:52.000Z</time>
      </trkpt>
      <trkpt lat="47.3653" lon="0.09473">
        <ele>117</ele>
        <time>2013-02-17T10:51:53.000Z</time>
      </trkpt>
      <trkpt lat="47.36533" lon="0.09475">
        <ele>117</ele>
        <time>2013-02-17T10:51:54.000Z</time>
      </trkpt>
      <trkpt lat="47.36535" lon="0.09476">
        <ele>117</ele>
        <time>2013-02-17T10:51:55.000Z</time>
      </trkpt>
      <trkpt lat="47.36538" lon="0.09478">
        <ele>117</ele>
        <time>2013-02-17T10:51:59.000Z</time>
      </trkpt>
      <trkpt lat="47.36539" lon="0.09479">
        <ele>117</ele>
        <time>2013-02-17T10:52:00.000Z</time>
      </trkpt>
      <trkpt lat="47.36543" lon="0.09481">
        <ele>117</ele>
        <time>2013-02-17T10:52:06.000Z</time>
      </trkpt>
      <trkpt lat="47.36544" lon="0.09482">
        <ele>117</ele>
        <time>2013-02-17T10:52:07.000Z</time>
      </trkpt>
      <trkpt lat="47.36547" lon="0.09486">
        <ele>117</ele>
        <time>2013-02-17T10:52:09.000Z</time>
      </trkpt>
      <trkpt lat="47.36548" lon="0.09487">
        <ele>117</ele>
        <time>2013-02-17T10:52:10.000Z</time>
      </trkpt>
      <trkpt lat="47.36551" lon="0.0949">
        <ele>117</ele>
        <time>2013-02-17T10:52:16.000Z</time>
      </trkpt>
      <trkpt lat="47.36552" lon="0.09491">
        <ele>117</ele>
        <time>2013-02-17T10:52:17.000Z</time>
      </trkpt>
      <trkpt lat="47.36555" lon="0.09495">
        <ele>118</ele>
        <time>2013-02-17T10:52:21.000Z</time>
      </trkpt>
      <trkpt lat="47.36556" lon="0.09496">
        <ele>118</ele>
        <time>2013-02-17T10:52:22.000Z</time>
      </trkpt>
      <trkpt lat="47.36559" lon="0.095">
        <ele>118</ele>
        <time>2013-02-17T10:52:26.000Z</time>
      </trkpt>
      <trkpt lat="47.3656" lon="0.09501">
        <ele>119</ele>
        <time>2013-02-17T10:52:27.000Z</time>
      </trkpt>
      <trkpt lat="47.36563" lon="0.09504">
        <ele>120</ele>
        <time>2013-02-17T10:52:30.000Z</time>
      </trkpt>
      <trkpt lat="47.36565" lon="0.09505">
        <ele>120</ele>
        <time>2013-02-17T10:52:31.000Z</time>
      </trkpt>
      <trkpt lat="47.36568" lon="0.09506">
        <ele>120</ele>
        <time>2013-02-17T10:52:32.000Z</time>
      </trkpt>
      <trkpt lat="47.36569" lon="0.09507">
        <ele>120</ele>
        <time>2013-02-17T10:52:33.000Z</time>
      </trkpt>
      <trkpt lat="47.36572" lon="0.0951">
        <ele>120</ele>
        <time>2013-02-17T10:52:39.000Z</time>
      </trkpt>
      <trkpt lat="47.36574" lon="0.09511">
        <ele>120</ele>
        <time>2013-02-17T10:52:40.000Z</time>
      </trkpt>
      <trkpt lat="47.36577" lon="0.09514">
        <ele>120</ele>
        <time>2013-02-17T10:52:43.000Z</time>
      </trkpt>
      <trkpt lat="47.36579" lon="0.09515">
        <ele>120</ele>
        <time>2013-02-17T10:52:44.000Z</time>
      </trkpt>
      <trkpt lat="47.36581" lon="0.09519">
        <ele>120</ele>
        <time>2013-02-17T10:52:49.000Z</time>
      </trkpt>
      <trkpt lat="47.36582" lon="0.0952">
        <ele>120</ele>
        <time>2013-02-17T10:52:50.000Z</time>
      </trkpt>
      <trkpt lat="47.36586" lon="0.09523">
        <ele>121</ele>
        <time>2013-02-17T10:52:54.000Z</time>
      </trkpt>
      <trkpt lat="47.36587" lon="0.09524">
        <ele>121</ele>
        <time>2013-02-17T10:52:55.000Z</time>
      </trkpt>
      <trkpt lat="47.36589" lon="0.09527">
        <ele>121</ele>
        <time>2013-02-17T10:52:58.000Z</time>
      </trkpt>
      <trkpt lat="47.36591" lon="0.09528">
        <ele>121</ele>
        <time>2013-02-17T10:52:59.000Z</time>
      </trkpt>
      <trkpt lat="47.36594" lon="0.09531">
        <ele>121</ele>
        <time>2013-02-17T10:53:04.000Z</time>
      </trkpt>
      <trkpt lat="47.36595" lon="0.09532">
        <ele>121</ele>
        <time>2013-02-17T10:53:05.000Z</time>
      </trkpt>
      <trkpt lat="47.36598" lon="0.09535">
        <ele>121</ele>
        <time>2013-02-17T10:53:08.000Z</time>
      </trkpt>
      <trkpt lat="47.36599" lon="0.09536">
        <ele>121</ele>
        <time>2013-02-17T10:53:09.000Z</time>
      </trkpt>
      <trkpt lat="47.36601" lon="0.09539">
        <ele>121</ele>
        <time>2013-02-17T10:53:12.000Z</time>
      </trkpt>
      <trkpt lat="47.36603" lon="0.0954">
        <ele>121</ele>
        <time>2013-02-17T10:53:13.000Z</time>
      </trkpt>
      <trkpt lat="47.36606" lon="0.09543">
        <ele>121</ele>
        <time>2013-02-17T10:53:20.000Z</time>
      </trkpt>
      <trkpt lat="47.36607" lon="0.09545">
        <ele>121</ele>
        <time>2013-02-17T10:53:21.000Z</time>
      </trkpt>
      <trkpt lat="47.3661" lon="0.09549">
        <ele>122</ele>
        <time>2013-02-17T10:53:23.000Z</time>
      </trkpt>
      <trkpt lat="47.36611" lon="0.0955">
        <ele>122</ele>
        <time>2013-02-17T10:53:24.000Z</time>
      </trkpt>
      <trkpt lat="47.36614" lon="0.09555">
        <ele>122</ele>
        <time>2013-02-17T10:53:28.000Z</time>
      </trkpt>
      <trkpt lat="47.36615" lon="0.09557">
        <ele>122</ele>
        <time>2013-02-17T10:53:29.000Z</time>
      </trkpt>
      <trkpt lat="47.36618" lon="0.0956">
        <ele>122</ele>
        <time>2013-02-17T10:53:33.000Z</time>
      </trkpt>
      <trkpt lat="47.3662" lon="0.09561">
        <ele>122</ele>
        <time>2013-02-17T10:53:34.000Z</time>
      </trkpt>
      <trkpt lat="47.36622" lon="0.09566">
        <ele>122</ele>
        <time>2013-02-17T10:53:37.000Z</time>
      </trkpt>
      <trkpt lat="47.36623" lon="0.09567">
        <ele>122</ele>
        <time>2013-02-17T10:53:38.000Z</time>
      </trkpt>
      <trkpt lat="47.36626" lon="0.09571">
        <ele>122</ele>
        <time>2013-02-17T10:53:41.000Z</time>
      </trkpt>
      <trkpt lat="47.36627" lon="0.09571">
        <ele>122</ele>
        <time>2013-02-17T10:53:42.000Z</time>
      </trkpt>
      <trkpt lat="47.3663" lon="0.09574">
        <ele>122</ele>
        <time>2013-02-17T10:53:44.000Z</time>
      </trkpt>
      <trkpt lat="47.36632" lon="0.09574">
        <ele>122</ele>
        <time>2013-02-17T10:53:45.000Z</time>
      </trkpt>
      <trkpt lat="47.36634" lon="0.09575">
        <ele>121</ele>
        <time>2013-02-17T10:53:47.000Z</time>
      </trkpt>
      <trkpt lat="47.36636" lon="0.09576">
        <ele>121</ele>
        <time>2013-02-17T10:53:48.000Z</time>
      </trkpt>
      <trkpt lat="47.36639" lon="0.09579">
        <ele>121</ele>
        <time>2013-02-17T10:53:51.000Z</time>
      </trkpt>
      <trkpt lat="47.3664" lon="0.09579">
        <ele>121</ele>
        <time>2013-02-17T10:53:52.000Z</time>
      </trkpt>
      <trkpt lat="47.36643" lon="0.09583">
        <ele>121</ele>
        <time>2013-02-17T10:53:57.000Z</time>
      </trkpt>
      <trkpt lat="47.36644" lon="0.09585">
        <ele>122</ele>
        <time>2013-02-17T10:53:58.000Z</time>
      </trkpt>
      <trkpt lat="47.36646" lon="0.09589">
        <ele>122</ele>
        <time>2013-02-17T10:54:01.000Z</time>
      </trkpt>
      <trkpt lat="47.36647" lon="0.0959">
        <ele>122</ele>
        <time>2013-02-17T10:54:02.000Z</time>
      </trkpt>
      <trkpt lat="47.36651" lon="0.09594">
        <ele>121</ele>
        <time>2013-02-17T10:54:05.000Z</time>
      </trkpt>
      <trkpt lat="47.36652" lon="0.09595">
        <ele>121</ele>
        <time>2013-02-17T10:54:06.000Z</time>
      </trkpt>
      <trkpt lat="47.36655" lon="0.09598">
        <ele>121</ele>
        <time>2013-02-17T10:54:09.000Z</time>
      </trkpt>
      <trkpt lat="47.36657" lon="0.09599">
        <ele>121</ele>
        <time>2013-02-17T10:54:10.000Z</time>
      </trkpt>
      <trkpt lat="47.36659" lon="0.09602">
        <ele>121</ele>
        <time>2013-02-17T10:54:14.000Z</time>
      </trkpt>
      <trkpt lat="47.3666" lon="0.09603">
        <ele>121</ele>
        <time>2013-02-17T10:54:15.000Z</time>
      </trkpt>
      <trkpt lat="47.36664" lon="0.09605">
        <ele>121</ele>
        <time>2013-02-17T10:54:21.000Z</time>
      </trkpt>
      <trkpt lat="47.36666" lon="0.09606">
        <ele>121</ele>
        <time>2013-02-17T10:54:22.000Z</time>
      </trkpt>
      <trkpt lat="47.36668" lon="0.09609">
        <ele>120</ele>
        <time>2013-02-17T10:54:25.000Z</time>
      </trkpt>
      <trkpt lat="47.36669" lon="0.0961">
        <ele>120</ele>
        <time>2013-02-17T10:54:26.000Z</time>
      </trkpt>
      <trkpt lat="47.36673" lon="0.09613">
        <ele>120</ele>
        <time>2013-02-17T10:54:28.000Z</time>
      </trkpt>
      <trkpt lat="47.36674" lon="0.09614">
        <ele>120</ele>
        <time>2013-02-17T10:54:29.000Z</time>
      </trkpt>
      <trkpt lat="47.36677" lon="0.09618">
        <ele>120</ele>
        <time>2013-02-17T10:54:32.000Z</time>
      </trkpt>
      <trkpt lat="47.36678" lon="0.09619">
        <ele>120</ele>
        <time>2013-02-17T10:54:33.000Z</time>
      </trkpt>
      <trkpt lat="47.3668" lon="0.09625">
        <ele>120</ele>
        <time>2013-02-17T10:54:37.000Z</time>
      </trkpt>
      <trkpt lat="47.36681" lon="0.09627">
        <ele>120</ele>
        <time>2013-02-17T10:54:38.000Z</time>
      </trkpt>
      <trkpt lat="47.36682" lon="0.0963">
        <ele>120</ele>
        <time>2013-02-17T10:54:40.000Z</time>
      </trkpt>
      <trkpt lat="47.36683" lon="0.09632">
        <ele>120</ele>
        <time>2013-02-17T10:54:41.000Z</time>
      </trkpt>
      <trkpt lat="47.36686" lon="0.09636">
        <ele>120</ele>
        <time>2013-02-17T10:54:43.000Z</time>
      </trkpt>
      <trkpt lat="47.36687" lon="0.09637">
        <ele>120</ele>
        <time>2013-02-17T10:54:44.000Z</time>
      </trkpt>
      <trkpt lat="47.3669" lon="0.0964">
        <ele>120</ele>
        <time>2013-02-17T10:54:47.000Z</time>
      </trkpt>
      <trkpt lat="47.36691" lon="0.09641">
        <ele>120</ele>
        <time>2013-02-17T10:54:48.000Z</time>
      </trkpt>
      <trkpt lat="47.36694" lon="0.09645">
        <ele>120</ele>
        <time>2013-02-17T10:54:53.000Z</time>
      </trkpt>
      <trkpt lat="47.36695" lon="0.09646">
        <ele>120</ele>
        <time>2013-02-17T10:54:54.000Z</time>
      </trkpt>
      <trkpt lat="47.36697" lon="0.09647">
        <ele>120</ele>
        <time>2013-02-17T10:54:56.000Z</time>
      </trkpt>
      <trkpt lat="47.36699" lon="0.09649">
        <ele>120</ele>
        <time>2013-02-17T10:54:57.000Z</time>
      </trkpt>
      <trkpt lat="47.36703" lon="0.0965">
        <ele>120</ele>
        <time>2013-02-17T10:55:00.000Z</time>
      </trkpt>
      <trkpt lat="47.36704" lon="0.09651">
        <ele>120</ele>
        <time>2013-02-17T10:55:01.000Z</time>
      </trkpt>
      <trkpt lat="47.36705" lon="0.09655">
        <ele>120</ele>
        <time>2013-02-17T10:55:03.000Z</time>
      </trkpt>
      <trkpt lat="47.36706" lon="0.09657">
        <ele>120</ele>
        <time>2013-02-17T10:55:04.000Z</time>
      </trkpt>
      <trkpt lat="47.36708" lon="0.09663">
        <ele>120</ele>
        <time>2013-02-17T10:55:09.000Z</time>
      </trkpt>
      <trkpt lat="47.36708" lon="0.09665">
        <ele>120</ele>
        <time>2013-02-17T10:55:10.000Z</time>
      </trkpt>
      <trkpt lat="47.36711" lon="0.09669">
        <ele>120</ele>
        <time>2013-02-17T10:55:13.000Z</time>
      </trkpt>
      <trkpt lat="47.36712" lon="0.0967">
        <ele>120</ele>
        <time>2013-02-17T10:55:14.000Z</time>
      </trkpt>
      <trkpt lat="47.36715" lon="0.09673">
        <ele>120</ele>
        <time>2013-02-17T10:55:17.000Z</time>
      </trkpt>
      <trkpt lat="47.36716" lon="0.09674">
        <ele>120</ele>
        <time>2013-02-17T10:55:18.000Z</time>
      </trkpt>
      <trkpt lat="47.36718" lon="0.09677">
        <ele>120</ele>
        <time>2013-02-17T10:55:20.000Z</time>
      </trkpt>
      <trkpt lat="47.36719" lon="0.09678">
        <ele>120</ele>
        <time>2013-02-17T10:55:21.000Z</time>
      </trkpt>
      <trkpt lat="47.36721" lon="0.09684">
        <ele>120</ele>
        <time>2013-02-17T10:55:29.000Z</time>
      </trkpt>
      <trkpt lat="47.36722" lon="0.09685">
        <ele>120</ele>
        <time>2013-02-17T10:55:30.000Z</time>
      </trkpt>
      <trkpt lat="47.36725" lon="0.09689">
        <ele>120</ele>
        <time>2013-02-17T10:55:32.000Z</time>
      </trkpt>
      <trkpt lat="47.36726" lon="0.09691">
        <ele>120</ele>
        <time>2013-02-17T10:55:33.000Z</time>
      </trkpt>
      <trkpt lat="47.36729" lon="0.09694">
        <ele>120</ele>
        <time>2013-02-17T10:55:37.000Z</time>
      </trkpt>
      <trkpt lat="47.3673" lon="0.09696">
        <ele>120</ele>
        <time>2013-02-17T10:55:38.000Z</time>
      </trkpt>
      <trkpt lat="47.36733" lon="0.097">
        <ele>120</ele>
        <time>2013-02-17T10:55:46.000Z</time>
      </trkpt>
      <trkpt lat="47.36733" lon="0.09701">
        <ele>120</ele>
        <time>2013-02-17T10:55:47.000Z</time>
      </trkpt>
      <trkpt lat="47.36735" lon="0.09705">
        <ele>121</ele>
        <time>2013-02-17T10:55:55.000Z</time>
      </trkpt>
      <trkpt lat="47.36735" lon="0.09707">
        <ele>121</ele>
        <time>2013-02-17T10:55:56.000Z</time>
      </trkpt>
      <trkpt lat="47.36738" lon="0.0971">
        <ele>121</ele>
        <time>2013-02-17T10:55:59.000Z</time>
      </trkpt>
      <trkpt lat="47.3674" lon="0.09712">
        <ele>121</ele>
        <time>2013-02-17T10:56:00.000Z</time>
      </trkpt>
      <trkpt lat="47.36742" lon="0.09714">
        <ele>121</ele>
        <time>2013-02-17T10:56:01.000Z</time>
      </trkpt>
      <trkpt lat="47.36744" lon="0.09717">
        <ele>121</ele>
        <time>2013-02-17T10:56:02.000Z</time>
      </trkpt>
      <trkpt lat="47.36747" lon="0.0972">
        <ele>121</ele>
        <time>2013-02-17T10:56:04.000Z</time>
      </trkpt>
      <trkpt lat="47.36749" lon="0.09721">
        <ele>121</ele>
        <time>2013-02-17T10:56:05.000Z</time>
      </trkpt>
      <trkpt lat="47.36752" lon="0.09724">
        <ele>120</ele>
        <time>2013-02-17T10:56:07.000Z</time>
      </trkpt>
      <trkpt lat="47.36753" lon="0.09725">
        <ele>120</ele>
        <time>2013-02-17T10:56:08.000Z</time>
      </trkpt>
      <trkpt lat="47.36756" lon="0.09727">
        <ele>120</ele>
        <time>2013-02-17T10:56:10.000Z</time>
      </trkpt>
      <trkpt lat="47.36758" lon="0.09728">
        <ele>120</ele>
        <time>2013-02-17T10:56:11.000Z</time>
      </trkpt>
      <trkpt lat="47.36762" lon="0.09731">
        <ele>120</ele>
        <time>2013-02-17T10:56:14.000Z</time>
      </trkpt>
      <trkpt lat="47.36763" lon="0.09731">
        <ele>120</ele>
        <time>2013-02-17T10:56:15.000Z</time>
      </trkpt>
      <trkpt lat="47.36766" lon="0.09734">
        <ele>120</ele>
        <time>2013-02-17T10:56:18.000Z</time>
      </trkpt>
      <trkpt lat="47.36768" lon="0.09735">
        <ele>120</ele>
        <time>2013-02-17T10:56:19.000Z</time>
      </trkpt>
      <trkpt lat="47.36771" lon="0.09739">
        <ele>120</ele>
        <time>2013-02-17T10:56:24.000Z</time>
      </trkpt>
      <trkpt lat="47.36772" lon="0.09739">
        <ele>120</ele>
        <time>2013-02-17T10:56:25.000Z</time>
      </trkpt>
      <trkpt lat="47.36775" lon="0.09742">
        <ele>120</ele>
        <time>2013-02-17T10:56:28.000Z</time>
      </trkpt>
      <trkpt lat="47.36777" lon="0.09743">
        <ele>120</ele>
        <time>2013-02-17T10:56:29.000Z</time>
      </trkpt>
      <trkpt lat="47.3678" lon="0.09747">
        <ele>120</ele>
        <time>2013-02-17T10:56:35.000Z</time>
      </trkpt>
      <trkpt lat="47.3678" lon="0.09747">
        <ele>120</ele>
        <time>2013-02-17T10:56:36.000Z</time>
      </trkpt>
      <trkpt lat="47.36784" lon="0.09746">
        <ele>119</ele>
        <time>2013-02-17T10:56:42.000Z</time>
      </trkpt>
      <trkpt lat="47.36786" lon="0.09746">
        <ele>119</ele>
        <time>2013-02-17T10:56:43.000Z</time>
      </trkpt>
      <trkpt lat="47.36788" lon="0.09749">
        <ele>119</ele>
        <time>2013-02-17T10:56:49.000Z</time>
      </trkpt>
      <trkpt lat="47.3679" lon="0.0975">
        <ele>121</ele>
        <time>2013-02-17T10:56:50.000Z</time>
      </trkpt>
      <trkpt lat="47.36794" lon="0.09753">
        <ele>120</ele>
        <time>2013-02-17T10:56:54.000Z</time>
      </trkpt>
      <trkpt lat="47.36795" lon="0.09754">
        <ele>120</ele>
        <time>2013-02-17T10:56:55.000Z</time>
      </trkpt>
      <trkpt lat="47.36798" lon="0.09755">
        <ele>120</ele>
        <time>2013-02-17T10:57:01.000Z</time>
      </trkpt>
      <trkpt lat="47.36801" lon="0.09758">
        <ele>120</ele>
        <time>2013-02-17T10:57:02.000Z</time>
      </trkpt>
      <trkpt lat="47.36805" lon="0.0976">
        <ele>120</ele>
        <time>2013-02-17T10:57:04.000Z</time>
      </trkpt>
      <trkpt lat="47.36806" lon="0.09761">
        <ele>120</ele>
        <time>2013-02-17T10:57:05.000Z</time>
      </trkpt>
      <trkpt lat="47.3681" lon="0.09762">
        <ele>120</ele>
        <time>2013-02-17T10:57:09.000Z</time>
      </trkpt>
      <trkpt lat="47.36811" lon="0.09763">
        <ele>120</ele>
        <time>2013-02-17T10:57:10.000Z</time>
      </trkpt>
      <trkpt lat="47.36814" lon="0.09765">
        <ele>119</ele>
        <time>2013-02-17T10:57:15.000Z</time>
      </trkpt>
      <trkpt lat="47.36816" lon="0.09766">
        <ele>119</ele>
        <time>2013-02-17T10:57:16.000Z</time>
      </trkpt>
      <trkpt lat="47.3682" lon="0.09769">
        <ele>119</ele>
        <time>2013-02-17T10:57:19.000Z</time>
      </trkpt>
      <trkpt lat="47.36822" lon="0.0977">
        <ele>119</ele>
        <time>2013-02-17T10:57:20.000Z</time>
      </trkpt>
      <trkpt lat="47.36824" lon="0.09771">
        <ele>119</ele>
        <time>2013-02-17T10:57:21.000Z</time>
      </trkpt>
      <trkpt lat="47.36826" lon="0.09771">
        <ele>119</ele>
        <time>2013-02-17T10:57:22.000Z</time>
      </trkpt>
      <trkpt lat="47.36829" lon="0.09772">
        <ele>119</ele>
        <time>2013-02-17T10:57:23.000Z</time>
      </trkpt>
      <trkpt lat="47.36832" lon="0.09773">
        <ele>119</ele>
        <time>2013-02-17T10:57:24.000Z</time>
      </trkpt>
      <trkpt lat="47.36834" lon="0.09774">
        <ele>116</ele>
        <time>2013-02-17T10:57:25.000Z</time>
      </trkpt>
      <trkpt lat="47.36837" lon="0.09775">
        <ele>116</ele>
        <time>2013-02-17T10:57:26.000Z</time>
      </trkpt>
      <trkpt lat="47.36839" lon="0.09777">
        <ele>116</ele>
        <time>2013-02-17T10:57:27.000Z</time>
      </trkpt>
      <trkpt lat="47.36841" lon="0.09778">
        <ele>116</ele>
        <time>2013-02-17T10:57:28.000Z</time>
      </trkpt>
      <trkpt lat="47.36843" lon="0.09779">
        <ele>116</ele>
        <time>2013-02-17T10:57:29.000Z</time>
      </trkpt>
      <trkpt lat="47.36846" lon="0.09781">
        <ele>116</ele>
        <time>2013-02-17T10:57:30.000Z</time>
      </trkpt>
      <trkpt lat="47.3685" lon="0.09783">
        <ele>116</ele>
        <time>2013-02-17T10:57:34.000Z</time>
      </trkpt>
      <trkpt lat="47.36851" lon="0.09784">
        <ele>116</ele>
        <time>2013-02-17T10:57:35.000Z</time>
      </trkpt>
      <trkpt lat="47.36855" lon="0.09785">
        <ele>116</ele>
        <time>2013-02-17T10:57:38.000Z</time>
      </trkpt>
      <trkpt lat="47.36857" lon="0.09785">
        <ele>116</ele>
        <time>2013-02-17T10:57:39.000Z</time>
      </trkpt>
      <trkpt lat="47.36861" lon="0.09788">
        <ele>116</ele>
        <time>2013-02-17T10:57:43.000Z</time>
      </trkpt>
      <trkpt lat="47.36862" lon="0.09788">
        <ele>116</ele>
        <time>2013-02-17T10:57:44.000Z</time>
      </trkpt>
      <trkpt lat="47.36866" lon="0.09791">
        <ele>116</ele>
        <time>2013-02-17T10:57:48.000Z</time>
      </trkpt>
      <trkpt lat="47.36866" lon="0.09792">
        <ele>116</ele>
        <time>2013-02-17T10:57:49.000Z</time>
      </trkpt>
      <trkpt lat="47.36869" lon="0.09794">
        <ele>116</ele>
        <time>2013-02-17T10:57:52.000Z</time>
      </trkpt>
      <trkpt lat="47.3687" lon="0.09796">
        <ele>116</ele>
        <time>2013-02-17T10:57:53.000Z</time>
      </trkpt>
      <trkpt lat="47.36873" lon="0.09797">
        <ele>116</ele>
        <time>2013-02-17T10:57:55.000Z</time>
      </trkpt>
      <trkpt lat="47.36875" lon="0.09798">
        <ele>116</ele>
        <time>2013-02-17T10:57:56.000Z</time>
      </trkpt>
      <trkpt lat="47.36878" lon="0.09801">
        <ele>116</ele>
        <time>2013-02-17T10:57:58.000Z</time>
      </trkpt>
      <trkpt lat="47.36879" lon="0.09802">
        <ele>116</ele>
        <time>2013-02-17T10:57:59.000Z</time>
      </trkpt>
      <trkpt lat="47.36883" lon="0.09805">
        <ele>115</ele>
        <time>2013-02-17T10:58:03.000Z</time>
      </trkpt>
      <trkpt lat="47.36884" lon="0.09805">
        <ele>115</ele>
        <time>2013-02-17T10:58:04.000Z</time>
      </trkpt>
      <trkpt lat="47.36886" lon="0.09808">
        <ele>115</ele>
        <time>2013-02-17T10:58:07.000Z</time>
      </trkpt>
      <trkpt lat="47.36887" lon="0.09811">
        <ele>115</ele>
        <time>2013-02-17T10:58:08.000Z</time>
      </trkpt>
      <trkpt lat="47.36889" lon="0.09816">
        <ele>115</ele>
        <time>2013-02-17T10:58:11.000Z</time>
      </trkpt>
      <trkpt lat="47.3689" lon="0.09816">
        <ele>115</ele>
        <time>2013-02-17T10:58:12.000Z</time>
      </trkpt>
      <trkpt lat="47.36892" lon="0.0982">
        <ele>115</ele>
        <time>2013-02-17T10:58:17.000Z</time>
      </trkpt>
      <trkpt lat="47.36893" lon="0.09821">
        <ele>115</ele>
        <time>2013-02-17T10:58:18.000Z</time>
      </trkpt>
      <trkpt lat="47.36897" lon="0.09824">
        <ele>115</ele>
        <time>2013-02-17T10:58:24.000Z</time>
      </trkpt>
      <trkpt lat="47.36898" lon="0.09825">
        <ele>115</ele>
        <time>2013-02-17T10:58:25.000Z</time>
      </trkpt>
      <trkpt lat="47.36901" lon="0.09827">
        <ele>114</ele>
        <time>2013-02-17T10:58:27.000Z</time>
      </trkpt>
      <trkpt lat="47.36902" lon="0.09827">
        <ele>114</ele>
        <time>2013-02-17T10:58:28.000Z</time>
      </trkpt>
      <trkpt lat="47.36904" lon="0.09832">
        <ele>114</ele>
        <time>2013-02-17T10:58:54.001Z</time>
      </trkpt>
      <trkpt lat="47.36905" lon="0.09834">
        <ele>114</ele>
        <time>2013-02-17T10:58:55.001Z</time>
      </trkpt>
      <trkpt lat="47.36909" lon="0.09836">
        <ele>114</ele>
        <time>2013-02-17T10:58:57.001Z</time>
      </trkpt>
      <trkpt lat="47.36912" lon="0.09837">
        <ele>113</ele>
        <time>2013-02-17T10:58:58.001Z</time>
      </trkpt>
      <trkpt lat="47.36915" lon="0.09838">
        <ele>113</ele>
        <time>2013-02-17T10:58:59.001Z</time>
      </trkpt>
      <trkpt lat="47.36918" lon="0.09839">
        <ele>113</ele>
        <time>2013-02-17T10:59:00.001Z</time>
      </trkpt>
      <trkpt lat="47.36921" lon="0.09839">
        <ele>113</ele>
        <time>2013-02-17T10:59:01.001Z</time>
      </trkpt>
      <trkpt lat="47.36924" lon="0.09839">
        <ele>114</ele>
        <time>2013-02-17T10:59:02.001Z</time>
      </trkpt>
      <trkpt lat="47.36924" lon="0.09832">
        <ele>113</ele>
        <time>2013-02-17T10:59:24.001Z</time>
      </trkpt>
      <trkpt lat="47.36923" lon="0.09831">
        <ele>113</ele>
        <time>2013-02-17T10:59:25.001Z</time>
      </trkpt>
      <trkpt lat="47.36925" lon="0.09826">
        <ele>114</ele>
        <time>2013-02-17T10:59:34.001Z</time>
      </trkpt>
      <trkpt lat="47.36926" lon="0.09825">
        <ele>114</ele>
        <time>2013-02-17T10:59:35.001Z</time>
      </trkpt>
      <trkpt lat="47.36929" lon="0.09822">
        <ele>114</ele>
        <time>2013-02-17T10:59:41.001Z</time>
      </trkpt>
      <trkpt lat="47.3693" lon="0.0982">
        <ele>114</ele>
        <time>2013-02-17T10:59:42.001Z</time>
      </trkpt>
      <trkpt lat="47.36933" lon="0.09817">
        <ele>114</ele>
        <time>2013-02-17T10:59:45.001Z</time>
      </trkpt>
      <trkpt lat="47.36934" lon="0.09815">
        <ele>114</ele>
        <time>2013-02-17T10:59:46.001Z</time>
      </trkpt>
      <trkpt lat="47.36937" lon="0.0981">
        <ele>114</ele>
        <time>2013-02-17T10:59:50.001Z</time>
      </trkpt>
      <trkpt lat="47.36937" lon="0.09809">
        <ele>114</ele>
        <time>2013-02-17T10:59:51.001Z</time>
      </trkpt>
      <trkpt lat="47.3694" lon="0.09808">
        <ele>115</ele>
        <time>2013-02-17T10:59:54.001Z</time>
      </trkpt>
      <trkpt lat="47.36942" lon="0.09806">
        <ele>115</ele>
        <time>2013-02-17T10:59:55.001Z</time>
      </trkpt>
      <trkpt lat="47.36946" lon="0.09805">
        <ele>115</ele>
        <time>2013-02-17T10:59:59.001Z</time>
      </trkpt>
      <trkpt lat="47.36947" lon="0.09805">
        <ele>115</ele>
        <time>2013-02-17T11:00:00.001Z</time>
      </trkpt>
      <trkpt lat="47.36951" lon="0.09801">
        <ele>115</ele>
        <time>2013-02-17T11:00:04.001Z</time>
      </trkpt>
      <trkpt lat="47.36951" lon="0.09801">
        <ele>115</ele>
        <time>2013-02-17T11:00:05.001Z</time>
      </trkpt>
      <trkpt lat="47.36954" lon="0.09798">
        <ele>115</ele>
        <time>2013-02-17T11:00:09.001Z</time>
      </trkpt>
      <trkpt lat="47.36955" lon="0.09797">
        <ele>115</ele>
        <time>2013-02-17T11:00:10.001Z</time>
      </trkpt>
      <trkpt lat="47.36959" lon="0.09794">
        <ele>115</ele>
        <time>2013-02-17T11:00:14.001Z</time>
      </trkpt>
      <trkpt lat="47.3696" lon="0.09793">
        <ele>115</ele>
        <time>2013-02-17T11:00:15.001Z</time>
      </trkpt>
      <trkpt lat="47.36962" lon="0.09788">
        <ele>115</ele>
        <time>2013-02-17T11:00:17.001Z</time>
      </trkpt>
      <trkpt lat="47.36962" lon="0.09786">
        <ele>115</ele>
        <time>2013-02-17T11:00:18.001Z</time>
      </trkpt>
      <trkpt lat="47.36963" lon="0.09781">
        <ele>115</ele>
        <time>2013-02-17T11:00:21.001Z</time>
      </trkpt>
      <trkpt lat="47.36965" lon="0.0978">
        <ele>115</ele>
        <time>2013-02-17T11:00:22.001Z</time>
      </trkpt>
      <trkpt lat="47.36968" lon="0.0978">
        <ele>115</ele>
        <time>2013-02-17T11:00:25.001Z</time>
      </trkpt>
      <trkpt lat="47.36969" lon="0.09779">
        <ele>115</ele>
        <time>2013-02-17T11:00:26.001Z</time>
      </trkpt>
      <trkpt lat="47.36973" lon="0.09778">
        <ele>115</ele>
        <time>2013-02-17T11:00:29.001Z</time>
      </trkpt>
      <trkpt lat="47.36974" lon="0.09778">
        <ele>115</ele>
        <time>2013-02-17T11:00:30.001Z</time>
      </trkpt>
      <trkpt lat="47.36978" lon="0.09776">
        <ele>115</ele>
        <time>2013-02-17T11:00:34.001Z</time>
      </trkpt>
      <trkpt lat="47.36979" lon="0.09776">
        <ele>115</ele>
        <time>2013-02-17T11:00:35.001Z</time>
      </trkpt>
      <trkpt lat="47.36983" lon="0.09775">
        <ele>116</ele>
        <time>2013-02-17T11:00:39.001Z</time>
      </trkpt>
      <trkpt lat="47.36984" lon="0.09775">
        <ele>116</ele>
        <time>2013-02-17T11:00:40.001Z</time>
      </trkpt>
      <trkpt lat="47.36988" lon="0.09773">
        <ele>116</ele>
        <time>2013-02-17T11:00:45.001Z</time>
      </trkpt>
      <trkpt lat="47.36988" lon="0.09773">
        <ele>116</ele>
        <time>2013-02-17T11:00:46.001Z</time>
      </trkpt>
      <trkpt lat="47.36992" lon="0.09772">
        <ele>116</ele>
        <time>2013-02-17T11:00:50.001Z</time>
      </trkpt>
      <trkpt lat="47.36993" lon="0.09771">
        <ele>116</ele>
        <time>2013-02-17T11:00:51.001Z</time>
      </trkpt>
      <trkpt lat="47.36996" lon="0.09767">
        <ele>116</ele>
        <time>2013-02-17T11:00:54.001Z</time>
      </trkpt>
      <trkpt lat="47.36997" lon="0.09766">
        <ele>116</ele>
        <time>2013-02-17T11:00:55.001Z</time>
      </trkpt>
      <trkpt lat="47.37001" lon="0.09764">
        <ele>116</ele>
        <time>2013-02-17T11:00:59.001Z</time>
      </trkpt>
      <trkpt lat="47.37002" lon="0.09763">
        <ele>116</ele>
        <time>2013-02-17T11:01:00.001Z</time>
      </trkpt>
      <trkpt lat="47.37005" lon="0.09762">
        <ele>116</ele>
        <time>2013-02-17T11:01:04.001Z</time>
      </trkpt>
      <trkpt lat="47.37007" lon="0.09762">
        <ele>116</ele>
        <time>2013-02-17T11:01:05.001Z</time>
      </trkpt>
      <trkpt lat="47.3701" lon="0.09761">
        <ele>116</ele>
        <time>2013-02-17T11:01:07.001Z</time>
      </trkpt>
      <trkpt lat="47.37011" lon="0.09761">
        <ele>116</ele>
        <time>2013-02-17T11:01:08.001Z</time>
      </trkpt>
      <trkpt lat="47.37014" lon="0.09762">
        <ele>116</ele>
        <time>2013-02-17T11:01:16.001Z</time>
      </trkpt>
      <trkpt lat="47.37016" lon="0.09761">
        <ele>116</ele>
        <time>2013-02-17T11:01:17.001Z</time>
      </trkpt>
      <trkpt lat="47.37019" lon="0.09759">
        <ele>116</ele>
        <time>2013-02-17T11:01:20.001Z</time>
      </trkpt>
      <trkpt lat="47.3702" lon="0.09759">
        <ele>116</ele>
        <time>2013-02-17T11:01:21.001Z</time>
      </trkpt>
      <trkpt lat="47.37022" lon="0.09759">
        <ele>116</ele>
        <time>2013-02-17T11:01:23.001Z</time>
      </trkpt>
      <trkpt lat="47.37024" lon="0.09757">
        <ele>116</ele>
        <time>2013-02-17T11:01:24.001Z</time>
      </trkpt>
      <trkpt lat="47.37028" lon="0.09757">
        <ele>116</ele>
        <time>2013-02-17T11:01:28.001Z</time>
      </trkpt>
      <trkpt lat="47.3703" lon="0.09756">
        <ele>116</ele>
        <time>2013-02-17T11:01:29.001Z</time>
      </trkpt>
      <trkpt lat="47.37033" lon="0.09753">
        <ele>116</ele>
        <time>2013-02-17T11:01:31.001Z</time>
      </trkpt>
      <trkpt lat="47.37035" lon="0.09752">
        <ele>116</ele>
        <time>2013-02-17T11:01:32.001Z</time>
      </trkpt>
      <trkpt lat="47.37039" lon="0.0975">
        <ele>117</ele>
        <time>2013-02-17T11:01:37.001Z</time>
      </trkpt>
      <trkpt lat="47.37039" lon="0.09749">
        <ele>117</ele>
        <time>2013-02-17T11:01:38.001Z</time>
      </trkpt>
      <trkpt lat="47.37043" lon="0.09747">
        <ele>117</ele>
        <time>2013-02-17T11:01:43.001Z</time>
      </trkpt>
      <trkpt lat="47.37045" lon="0.09745">
        <ele>117</ele>
        <time>2013-02-17T11:01:44.001Z</time>
      </trkpt>
      <trkpt lat="47.37049" lon="0.09745">
        <ele>117</ele>
        <time>2013-02-17T11:01:48.001Z</time>
      </trkpt>
      <trkpt lat="47.37049" lon="0.09743">
        <ele>117</ele>
        <time>2013-02-17T11:01:49.001Z</time>
      </trkpt>
      <trkpt lat="47.37052" lon="0.09739">
        <ele>117</ele>
        <time>2013-02-17T11:01:51.001Z</time>
      </trkpt>
      <trkpt lat="47.37053" lon="0.09736">
        <ele>117</ele>
        <time>2013-02-17T11:01:52.001Z</time>
      </trkpt>
      <trkpt lat="47.37056" lon="0.09733">
        <ele>117</ele>
        <time>2013-02-17T11:01:54.001Z</time>
      </trkpt>
      <trkpt lat="47.37057" lon="0.09731">
        <ele>117</ele>
        <time>2013-02-17T11:01:55.001Z</time>
      </trkpt>
      <trkpt lat="47.37061" lon="0.09728">
        <ele>117</ele>
        <time>2013-02-17T11:01:57.001Z</time>
      </trkpt>
      <trkpt lat="47.37062" lon="0.09727">
        <ele>117</ele>
        <time>2013-02-17T11:01:58.001Z</time>
      </trkpt>
      <trkpt lat="47.37066" lon="0.09725">
        <ele>117</ele>
        <time>2013-02-17T11:02:02.001Z</time>
      </trkpt>
      <trkpt lat="47.37067" lon="0.09726">
        <ele>117</ele>
        <time>2013-02-17T11:02:03.001Z</time>
      </trkpt>
      <trkpt lat="47.3707" lon="0.09727">
        <ele>117</ele>
        <time>2013-02-17T11:02:07.001Z</time>
      </trkpt>
      <trkpt lat="47.37072" lon="0.09725">
        <ele>117</ele>
        <time>2013-02-17T11:02:08.001Z</time>
      </trkpt>
      <trkpt lat="47.37073" lon="0.09725">
        <ele>117</ele>
        <time>2013-02-17T11:02:09.001Z</time>
      </trkpt>
      <trkpt lat="47.37076" lon="0.09722">
        <ele>117</ele>
        <time>2013-02-17T11:02:10.001Z</time>
      </trkpt>
      <trkpt lat="47.37079" lon="0.0972">
        <ele>117</ele>
        <time>2013-02-17T11:02:12.001Z</time>
      </trkpt>
      <trkpt lat="47.37081" lon="0.0972">
        <ele>117</ele>
        <time>2013-02-17T11:02:13.001Z</time>
      </trkpt>
      <trkpt lat="47.37085" lon="0.09717">
        <ele>115</ele>
        <time>2013-02-17T11:02:17.001Z</time>
      </trkpt>
      <trkpt lat="47.37086" lon="0.09717">
        <ele>115</ele>
        <time>2013-02-17T11:02:18.001Z</time>
      </trkpt>
      <trkpt lat="47.37089" lon="0.09714">
        <ele>115</ele>
        <time>2013-02-17T11:02:22.001Z</time>
      </trkpt>
      <trkpt lat="47.3709" lon="0.09714">
        <ele>115</ele>
        <time>2013-02-17T11:02:23.001Z</time>
      </trkpt>
      <trkpt lat="47.37093" lon="0.09712">
        <ele>115</ele>
        <time>2013-02-17T11:02:27.001Z</time>
      </trkpt>
      <trkpt lat="47.37094" lon="0.09712">
        <ele>115</ele>
        <time>2013-02-17T11:02:28.001Z</time>
      </trkpt>
      <trkpt lat="47.37098" lon="0.09711">
        <ele>115</ele>
        <time>2013-02-17T11:02:32.001Z</time>
      </trkpt>
      <trkpt lat="47.37099" lon="0.0971">
        <ele>115</ele>
        <time>2013-02-17T11:02:33.001Z</time>
      </trkpt>
      <trkpt lat="47.37103" lon="0.09707">
        <ele>115</ele>
        <time>2013-02-17T11:02:39.001Z</time>
      </trkpt>
      <trkpt lat="47.37104" lon="0.09706">
        <ele>115</ele>
        <time>2013-02-17T11:02:40.001Z</time>
      </trkpt>
      <trkpt lat="47.37107" lon="0.09704">
        <ele>115</ele>
        <time>2013-02-17T11:02:43.001Z</time>
      </trkpt>
      <trkpt lat="47.37108" lon="0.09702">
        <ele>115</ele>
        <time>2013-02-17T11:02:44.001Z</time>
      </trkpt>
      <trkpt lat="47.37111" lon="0.09701">
        <ele>114</ele>
        <time>2013-02-17T11:02:48.001Z</time>
      </trkpt>
      <trkpt lat="47.37113" lon="0.097">
        <ele>114</ele>
        <time>2013-02-17T11:02:49.001Z</time>
      </trkpt>
      <trkpt lat="47.37115" lon="0.09697">
        <ele>114</ele>
        <time>2013-02-17T11:02:52.001Z</time>
      </trkpt>
      <trkpt lat="47.37116" lon="0.09696">
        <ele>114</ele>
        <time>2013-02-17T11:02:53.001Z</time>
      </trkpt>
      <trkpt lat="47.3712" lon="0.09695">
        <ele>114</ele>
        <time>2013-02-17T11:02:56.001Z</time>
      </trkpt>
      <trkpt lat="47.37122" lon="0.09694">
        <ele>114</ele>
        <time>2013-02-17T11:02:57.001Z</time>
      </trkpt>
      <trkpt lat="47.37126" lon="0.09693">
        <ele>114</ele>
        <time>2013-02-17T11:03:00.001Z</time>
      </trkpt>
      <trkpt lat="47.37127" lon="0.09692">
        <ele>114</ele>
        <time>2013-02-17T11:03:01.001Z</time>
      </trkpt>
      <trkpt lat="47.37129" lon="0.09689">
        <ele>114</ele>
        <time>2013-02-17T11:03:03.001Z</time>
      </trkpt>
      <trkpt lat="47.37131" lon="0.09688">
        <ele>114</ele>
        <time>2013-02-17T11:03:04.001Z</time>
      </trkpt>
      <trkpt lat="47.37135" lon="0.09686">
        <ele>114</ele>
        <time>2013-02-17T11:03:06.001Z</time>
      </trkpt>
      <trkpt lat="47.37136" lon="0.09685">
        <ele>114</ele>
        <time>2013-02-17T11:03:07.001Z</time>
      </trkpt>
      <trkpt lat="47.37138" lon="0.09681">
        <ele>114</ele>
        <time>2013-02-17T11:03:10.001Z</time>
      </trkpt>
      <trkpt lat="47.37139" lon="0.09679">
        <ele>114</ele>
        <time>2013-02-17T11:03:11.001Z</time>
      </trkpt>
      <trkpt lat="47.37142" lon="0.09675">
        <ele>114</ele>
        <time>2013-02-17T11:03:13.001Z</time>
      </trkpt>
      <trkpt lat="47.37143" lon="0.09675">
        <ele>114</ele>
        <time>2013-02-17T11:03:14.001Z</time>
      </trkpt>
      <trkpt lat="47.37146" lon="0.09674">
        <ele>114</ele>
        <time>2013-02-17T11:03:20.001Z</time>
      </trkpt>
      <trkpt lat="47.37148" lon="0.09674">
        <ele>114</ele>
        <time>2013-02-17T11:03:21.001Z</time>
      </trkpt>
      <trkpt lat="47.37151" lon="0.09669">
        <ele>114</ele>
        <time>2013-02-17T11:03:24.001Z</time>
      </trkpt>
      <trkpt lat="47.37152" lon="0.09667">
        <ele>114</ele>
        <time>2013-02-17T11:03:25.001Z</time>
      </trkpt>
      <trkpt lat="47.37156" lon="0.09665">
        <ele>114</ele>
        <time>2013-02-17T11:03:28.001Z</time>
      </trkpt>
      <trkpt lat="47.37157" lon="0.09664">
        <ele>114</ele>
        <time>2013-02-17T11:03:29.001Z</time>
      </trkpt>
      <trkpt lat="47.3716" lon="0.09661">
        <ele>114</ele>
        <time>2013-02-17T11:03:31.001Z</time>
      </trkpt>
      <trkpt lat="47.37161" lon="0.09659">
        <ele>114</ele>
        <time>2013-02-17T11:03:32.001Z</time>
      </trkpt>
      <trkpt lat="47.37165" lon="0.09657">
        <ele>114</ele>
        <time>2013-02-17T11:03:35.001Z</time>
      </trkpt>
      <trkpt lat="47.37166" lon="0.09656">
        <ele>114</ele>
        <time>2013-02-17T11:03:36.001Z</time>
      </trkpt>
      <trkpt lat="47.37168" lon="0.09654">
        <ele>113</ele>
        <time>2013-02-17T11:03:38.001Z</time>
      </trkpt>
      <trkpt lat="47.3717" lon="0.09652">
        <ele>113</ele>
        <time>2013-02-17T11:03:39.001Z</time>
      </trkpt>
      <trkpt lat="47.37173" lon="0.09649">
        <ele>113</ele>
        <time>2013-02-17T11:03:42.001Z</time>
      </trkpt>
      <trkpt lat="47.37174" lon="0.09648">
        <ele>113</ele>
        <time>2013-02-17T11:03:43.001Z</time>
      </trkpt>
      <trkpt lat="47.37178" lon="0.09647">
        <ele>113</ele>
        <time>2013-02-17T11:03:47.001Z</time>
      </trkpt>
      <trkpt lat="47.37179" lon="0.09648">
        <ele>113</ele>
        <time>2013-02-17T11:03:48.001Z</time>
      </trkpt>
      <trkpt lat="47.37183" lon="0.09647">
        <ele>113</ele>
        <time>2013-02-17T11:03:52.001Z</time>
      </trkpt>
      <trkpt lat="47.37184" lon="0.09647">
        <ele>113</ele>
        <time>2013-02-17T11:03:53.001Z</time>
      </trkpt>
      <trkpt lat="47.37188" lon="0.09646">
        <ele>113</ele>
        <time>2013-02-17T11:03:56.001Z</time>
      </trkpt>
      <trkpt lat="47.37189" lon="0.09646">
        <ele>113</ele>
        <time>2013-02-17T11:03:57.001Z</time>
      </trkpt>
      <trkpt lat="47.37193" lon="0.09645">
        <ele>113</ele>
        <time>2013-02-17T11:04:00.001Z</time>
      </trkpt>
      <trkpt lat="47.37194" lon="0.09645">
        <ele>113</ele>
        <time>2013-02-17T11:04:01.001Z</time>
      </trkpt>
      <trkpt lat="47.37197" lon="0.09645">
        <ele>113</ele>
        <time>2013-02-17T11:04:03.001Z</time>
      </trkpt>
      <trkpt lat="47.37199" lon="0.09644">
        <ele>113</ele>
        <time>2013-02-17T11:04:04.001Z</time>
      </trkpt>
      <trkpt lat="47.37202" lon="0.09645">
        <ele>113</ele>
        <time>2013-02-17T11:04:06.001Z</time>
      </trkpt>
      <trkpt lat="47.37203" lon="0.09645">
        <ele>113</ele>
        <time>2013-02-17T11:04:07.001Z</time>
      </trkpt>
      <trkpt lat="47.37207" lon="0.09645">
        <ele>113</ele>
        <time>2013-02-17T11:04:10.001Z</time>
      </trkpt>
      <trkpt lat="47.37208" lon="0.09645">
        <ele>113</ele>
        <time>2013-02-17T11:04:11.001Z</time>
      </trkpt>
      <trkpt lat="47.37211" lon="0.09644">
        <ele>113</ele>
        <time>2013-02-17T11:04:13.001Z</time>
      </trkpt>
      <trkpt lat="47.37213" lon="0.09644">
        <ele>113</ele>
        <time>2013-02-17T11:04:14.001Z</time>
      </trkpt>
      <trkpt lat="47.37217" lon="0.09643">
        <ele>113</ele>
        <time>2013-02-17T11:04:19.001Z</time>
      </trkpt>
      <trkpt lat="47.37218" lon="0.09643">
        <ele>113</ele>
        <time>2013-02-17T11:04:20.001Z</time>
      </trkpt>
      <trkpt lat="47.37222" lon="0.09641">
        <ele>113</ele>
        <time>2013-02-17T11:04:24.001Z</time>
      </trkpt>
      <trkpt lat="47.37222" lon="0.0964">
        <ele>113</ele>
        <time>2013-02-17T11:04:25.001Z</time>
      </trkpt>
      <trkpt lat="47.37226" lon="0.0964">
        <ele>113</ele>
        <time>2013-02-17T11:04:28.001Z</time>
      </trkpt>
      <trkpt lat="47.37227" lon="0.0964">
        <ele>113</ele>
        <time>2013-02-17T11:04:29.001Z</time>
      </trkpt>
      <trkpt lat="47.37231" lon="0.0964">
        <ele>113</ele>
        <time>2013-02-17T11:04:34.001Z</time>
      </trkpt>
      <trkpt lat="47.37233" lon="0.0964">
        <ele>113</ele>
        <time>2013-02-17T11:04:35.001Z</time>
      </trkpt>
      <trkpt lat="47.37237" lon="0.09639">
        <ele>113</ele>
        <time>2013-02-17T11:04:37.001Z</time>
      </trkpt>
      <trkpt lat="47.37238" lon="0.09639">
        <ele>113</ele>
        <time>2013-02-17T11:04:38.001Z</time>
      </trkpt>
      <trkpt lat="47.37242" lon="0.09639">
        <ele>113</ele>
        <time>2013-02-17T11:04:45.001Z</time>
      </trkpt>
      <trkpt lat="47.37244" lon="0.0964">
        <ele>113</ele>
        <time>2013-02-17T11:04:46.001Z</time>
      </trkpt>
      <trkpt lat="47.37246" lon="0.0964">
        <ele>113</ele>
        <time>2013-02-17T11:04:49.001Z</time>
      </trkpt>
      <trkpt lat="47.37248" lon="0.0964">
        <ele>113</ele>
        <time>2013-02-17T11:04:50.001Z</time>
      </trkpt>
      <trkpt lat="47.37252" lon="0.09639">
        <ele>112</ele>
        <time>2013-02-17T11:04:57.001Z</time>
      </trkpt>
      <trkpt lat="47.37253" lon="0.09639">
        <ele>112</ele>
        <time>2013-02-17T11:04:58.001Z</time>
      </trkpt>
      <trkpt lat="47.37257" lon="0.09638">
        <ele>112</ele>
        <time>2013-02-17T11:05:00.001Z</time>
      </trkpt>
      <trkpt lat="47.37258" lon="0.09638">
        <ele>112</ele>
        <time>2013-02-17T11:05:01.001Z</time>
      </trkpt>
      <trkpt lat="47.37262" lon="0.09636">
        <ele>112</ele>
        <time>2013-02-17T11:05:06.001Z</time>
      </trkpt>
      <trkpt lat="47.37264" lon="0.09636">
        <ele>112</ele>
        <time>2013-02-17T11:05:07.001Z</time>
      </trkpt>
      <trkpt lat="47.37267" lon="0.09635">
        <ele>112</ele>
        <time>2013-02-17T11:05:09.001Z</time>
      </trkpt>
      <trkpt lat="47.37269" lon="0.09635">
        <ele>112</ele>
        <time>2013-02-17T11:05:10.001Z</time>
      </trkpt>
      <trkpt lat="47.37273" lon="0.09633">
        <ele>112</ele>
        <time>2013-02-17T11:05:12.001Z</time>
      </trkpt>
      <trkpt lat="47.37274" lon="0.09633">
        <ele>112</ele>
        <time>2013-02-17T11:05:13.001Z</time>
      </trkpt>
      <trkpt lat="47.37278" lon="0.09631">
        <ele>112</ele>
        <time>2013-02-17T11:05:16.001Z</time>
      </trkpt>
      <trkpt lat="47.3728" lon="0.09631">
        <ele>112</ele>
        <time>2013-02-17T11:05:17.001Z</time>
      </trkpt>
      <trkpt lat="47.37284" lon="0.0963">
        <ele>112</ele>
        <time>2013-02-17T11:05:21.001Z</time>
      </trkpt>
      <trkpt lat="47.37285" lon="0.0963">
        <ele>112</ele>
        <time>2013-02-17T11:05:22.001Z</time>
      </trkpt>
      <trkpt lat="47.37288" lon="0.09629">
        <ele>111</ele>
        <time>2013-02-17T11:05:25.001Z</time>
      </trkpt>
      <trkpt lat="47.37289" lon="0.09628">
        <ele>111</ele>
        <time>2013-02-17T11:05:26.001Z</time>
      </trkpt>
      <trkpt lat="47.37293" lon="0.09628">
        <ele>111</ele>
        <time>2013-02-17T11:05:31.001Z</time>
      </trkpt>
      <trkpt lat="47.37294" lon="0.09627">
        <ele>111</ele>
        <time>2013-02-17T11:05:32.001Z</time>
      </trkpt>
      <trkpt lat="47.37299" lon="0.09626">
        <ele>111</ele>
        <time>2013-02-17T11:05:38.001Z</time>
      </trkpt>
      <trkpt lat="47.37301" lon="0.09626">
        <ele>111</ele>
        <time>2013-02-17T11:05:39.001Z</time>
      </trkpt>
      <trkpt lat="47.37303" lon="0.09626">
        <ele>111</ele>
        <time>2013-02-17T11:05:40.001Z</time>
      </trkpt>
      <trkpt lat="47.37306" lon="0.09626">
        <ele>111</ele>
        <time>2013-02-17T11:05:41.001Z</time>
      </trkpt>
      <trkpt lat="47.3731" lon="0.09625">
        <ele>111</ele>
        <time>2013-02-17T11:05:43.001Z</time>
      </trkpt>
      <trkpt lat="47.37311" lon="0.09625">
        <ele>111</ele>
        <time>2013-02-17T11:05:44.001Z</time>
      </trkpt>
      <trkpt lat="47.37314" lon="0.09621">
        <ele>111</ele>
        <time>2013-02-17T11:05:47.001Z</time>
      </trkpt>
      <trkpt lat="47.37315" lon="0.0962">
        <ele>111</ele>
        <time>2013-02-17T11:05:48.001Z</time>
      </trkpt>
      <trkpt lat="47.37319" lon="0.09618">
        <ele>111</ele>
        <time>2013-02-17T11:05:56.001Z</time>
      </trkpt>
      <trkpt lat="47.3732" lon="0.09618">
        <ele>111</ele>
        <time>2013-02-17T11:05:57.001Z</time>
      </trkpt>
      <trkpt lat="47.37323" lon="0.09616">
        <ele>111</ele>
        <time>2013-02-17T11:06:02.001Z</time>
      </trkpt>
      <trkpt lat="47.37325" lon="0.09616">
        <ele>111</ele>
        <time>2013-02-17T11:06:03.001Z</time>
      </trkpt>
      <trkpt lat="47.37329" lon="0.09616">
        <ele>111</ele>
        <time>2013-02-17T11:06:11.001Z</time>
      </trkpt>
      <trkpt lat="47.3733" lon="0.09615">
        <ele>111</ele>
        <time>2013-02-17T11:06:12.001Z</time>
      </trkpt>
      <trkpt lat="47.37334" lon="0.09614">
        <ele>110</ele>
        <time>2013-02-17T11:06:16.001Z</time>
      </trkpt>
      <trkpt lat="47.37336" lon="0.09615">
        <ele>110</ele>
        <time>2013-02-17T11:06:17.001Z</time>
      </trkpt>
      <trkpt lat="47.3734" lon="0.09615">
        <ele>110</ele>
        <time>2013-02-17T11:06:20.001Z</time>
      </trkpt>
      <trkpt lat="47.37342" lon="0.09615">
        <ele>110</ele>
        <time>2013-02-17T11:06:21.001Z</time>
      </trkpt>
      <trkpt lat="47.37345" lon="0.09615">
        <ele>110</ele>
        <time>2013-02-17T11:06:23.001Z</time>
      </trkpt>
      <trkpt lat="47.37347" lon="0.09614">
        <ele>110</ele>
        <time>2013-02-17T11:06:24.001Z</time>
      </trkpt>
      <trkpt lat="47.37351" lon="0.09614">
        <ele>110</ele>
        <time>2013-02-17T11:06:34.001Z</time>
      </trkpt>
      <trkpt lat="47.37353" lon="0.09613">
        <ele>110</ele>
        <time>2013-02-17T11:06:35.001Z</time>
      </trkpt>
      <trkpt lat="47.37355" lon="0.09612">
        <ele>110</ele>
        <time>2013-02-17T11:06:36.001Z</time>
      </trkpt>
      <trkpt lat="47.37357" lon="0.09611">
        <ele>110</ele>
        <time>2013-02-17T11:06:37.001Z</time>
      </trkpt>
      <trkpt lat="47.37359" lon="0.09611">
        <ele>110</ele>
        <time>2013-02-17T11:06:38.001Z</time>
      </trkpt>
      <trkpt lat="47.37362" lon="0.09609">
        <ele>110</ele>
        <time>2013-02-17T11:06:39.001Z</time>
      </trkpt>
      <trkpt lat="47.37364" lon="0.09608">
        <ele>110</ele>
        <time>2013-02-17T11:06:40.001Z</time>
      </trkpt>
      <trkpt lat="47.37366" lon="0.09607">
        <ele>110</ele>
        <time>2013-02-17T11:06:41.001Z</time>
      </trkpt>
      <trkpt lat="47.37371" lon="0.09605">
        <ele>110</ele>
        <time>2013-02-17T11:06:43.001Z</time>
      </trkpt>
      <trkpt lat="47.37373" lon="0.09605">
        <ele>110</ele>
        <time>2013-02-17T11:06:44.001Z</time>
      </trkpt>
      <trkpt lat="47.37376" lon="0.09605">
        <ele>110</ele>
        <time>2013-02-17T11:06:46.001Z</time>
      </trkpt>
      <trkpt lat="47.37378" lon="0.09606">
        <ele>110</ele>
        <time>2013-02-17T11:06:47.001Z</time>
      </trkpt>
      <trkpt lat="47.37382" lon="0.09606">
        <ele>110</ele>
        <time>2013-02-17T11:06:49.001Z</time>
      </trkpt>
      <trkpt lat="47.37384" lon="0.09606">
        <ele>110</ele>
        <time>2013-02-17T11:06:50.001Z</time>
      </trkpt>
      <trkpt lat="47.37388" lon="0.09606">
        <ele>109</ele>
        <time>2013-02-17T11:06:53.001Z</time>
      </trkpt>
      <trkpt lat="47.37389" lon="0.09606">
        <ele>109</ele>
        <time>2013-02-17T11:06:54.001Z</time>
      </trkpt>
      <trkpt lat="47.37392" lon="0.09606">
        <ele>109</ele>
        <time>2013-02-17T11:06:57.001Z</time>
      </trkpt>
      <trkpt lat="47.37394" lon="0.09607">
        <ele>109</ele>
        <time>2013-02-17T11:06:58.001Z</time>
      </trkpt>
      <trkpt lat="47.37398" lon="0.09607">
        <ele>109</ele>
        <time>2013-02-17T11:07:02.001Z</time>
      </trkpt>
      <trkpt lat="47.374" lon="0.09607">
        <ele>109</ele>
        <time>2013-02-17T11:07:03.001Z</time>
      </trkpt>
      <trkpt lat="47.37404" lon="0.09607">
        <ele>109</ele>
        <time>2013-02-17T11:07:06.001Z</time>
      </trkpt>
      <trkpt lat="47.37405" lon="0.09607">
        <ele>109</ele>
        <time>2013-02-17T11:07:07.001Z</time>
      </trkpt>
      <trkpt lat="47.37409" lon="0.09606">
        <ele>109</ele>
        <time>2013-02-17T11:07:15.001Z</time>
      </trkpt>
      <trkpt lat="47.37411" lon="0.09606">
        <ele>109</ele>
        <time>2013-02-17T11:07:16.001Z</time>
      </trkpt>
      <trkpt lat="47.37414" lon="0.09605">
        <ele>109</ele>
        <time>2013-02-17T11:07:18.001Z</time>
      </trkpt>
      <trkpt lat="47.37416" lon="0.09604">
        <ele>109</ele>
        <time>2013-02-17T11:07:19.001Z</time>
      </trkpt>
      <trkpt lat="47.37419" lon="0.09602">
        <ele>108</ele>
        <time>2013-02-17T11:07:21.001Z</time>
      </trkpt>
      <trkpt lat="47.3742" lon="0.09601">
        <ele>108</ele>
        <time>2013-02-17T11:07:22.001Z</time>
      </trkpt>
      <trkpt lat="47.37423" lon="0.09597">
        <ele>108</ele>
        <time>2013-02-17T11:07:25.001Z</time>
      </trkpt>
      <trkpt lat="47.37425" lon="0.09596">
        <ele>108</ele>
        <time>2013-02-17T11:07:26.001Z</time>
      </trkpt>
      <trkpt lat="47.37428" lon="0.09594">
        <ele>108</ele>
        <time>2013-02-17T11:07:28.001Z</time>
      </trkpt>
      <trkpt lat="47.37429" lon="0.09594">
        <ele>108</ele>
        <time>2013-02-17T11:07:29.001Z</time>
      </trkpt>
      <trkpt lat="47.37434" lon="0.09593">
        <ele>108</ele>
        <time>2013-02-17T11:07:33.001Z</time>
      </trkpt>
      <trkpt lat="47.37434" lon="0.09595">
        <ele>108</ele>
        <time>2013-02-17T11:07:34.001Z</time>
      </trkpt>
      <trkpt lat="47.37439" lon="0.09596">
        <ele>108</ele>
        <time>2013-02-17T11:07:39.001Z</time>
      </trkpt>
      <trkpt lat="47.3744" lon="0.09597">
        <ele>108</ele>
        <time>2013-02-17T11:07:40.001Z</time>
      </trkpt>
      <trkpt lat="47.37444" lon="0.09597">
        <ele>108</ele>
        <time>2013-02-17T11:07:44.001Z</time>
      </trkpt>
      <trkpt lat="47.37445" lon="0.09597">
        <ele>108</ele>
        <time>2013-02-17T11:07:45.001Z</time>
      </trkpt>
      <trkpt lat="47.37449" lon="0.09594">
        <ele>108</ele>
        <time>2013-02-17T11:07:49.001Z</time>
      </trkpt>
      <trkpt lat="47.37451" lon="0.09593">
        <ele>108</ele>
        <time>2013-02-17T11:07:50.001Z</time>
      </trkpt>
      <trkpt lat="47.37454" lon="0.09593">
        <ele>107</ele>
        <time>2013-02-17T11:07:53.001Z</time>
      </trkpt>
      <trkpt lat="47.37456" lon="0.09592">
        <ele>107</ele>
        <time>2013-02-17T11:07:54.001Z</time>
      </trkpt>
      <trkpt lat="47.3746" lon="0.09591">
        <ele>107</ele>
        <time>2013-02-17T11:07:58.001Z</time>
      </trkpt>
      <trkpt lat="47.37461" lon="0.0959">
        <ele>107</ele>
        <time>2013-02-17T11:07:59.001Z</time>
      </trkpt>
      <trkpt lat="47.37465" lon="0.09588">
        <ele>107</ele>
        <time>2013-02-17T11:08:02.001Z</time>
      </trkpt>
      <trkpt lat="47.37466" lon="0.09587">
        <ele>107</ele>
        <time>2013-02-17T11:08:03.001Z</time>
      </trkpt>
      <trkpt lat="47.3747" lon="0.09585">
        <ele>107</ele>
        <time>2013-02-17T11:08:09.001Z</time>
      </trkpt>
      <trkpt lat="47.37472" lon="0.09585">
        <ele>107</ele>
        <time>2013-02-17T11:08:10.001Z</time>
      </trkpt>
      <trkpt lat="47.37476" lon="0.09584">
        <ele>106</ele>
        <time>2013-02-17T11:08:13.001Z</time>
      </trkpt>
      <trkpt lat="47.37477" lon="0.09584">
        <ele>106</ele>
        <time>2013-02-17T11:08:14.001Z</time>
      </trkpt>
      <trkpt lat="47.3748" lon="0.09584">
        <ele>106</ele>
        <time>2013-02-17T11:08:17.001Z</time>
      </trkpt>
      <trkpt lat="47.37482" lon="0.09583">
        <ele>105</ele>
        <time>2013-02-17T11:08:18.001Z</time>
      </trkpt>
      <trkpt lat="47.37486" lon="0.09582">
        <ele>105</ele>
        <time>2013-02-17T11:08:20.001Z</time>
      </trkpt>
      <trkpt lat="47.37487" lon="0.09582">
        <ele>104</ele>
        <time>2013-02-17T11:08:21.001Z</time>
      </trkpt>
      <trkpt lat="47.3749" lon="0.09581">
        <ele>104</ele>
        <time>2013-02-17T11:08:23.001Z</time>
      </trkpt>
      <trkpt lat="47.37491" lon="0.09579">
        <ele>104</ele>
        <time>2013-02-17T11:08:24.001Z</time>
      </trkpt>
      <trkpt lat="47.37494" lon="0.09577">
        <ele>104</ele>
        <time>2013-02-17T11:08:27.001Z</time>
      </trkpt>
      <trkpt lat="47.37495" lon="0.09577">
        <ele>104</ele>
        <time>2013-02-17T11:08:28.001Z</time>
      </trkpt>
      <trkpt lat="47.37498" lon="0.09574">
        <ele>104</ele>
        <time>2013-02-17T11:08:30.001Z</time>
      </trkpt>
      <trkpt lat="47.375" lon="0.09573">
        <ele>104</ele>
        <time>2013-02-17T11:08:31.001Z</time>
      </trkpt>
      <trkpt lat="47.37504" lon="0.09573">
        <ele>103</ele>
        <time>2013-02-17T11:08:36.001Z</time>
      </trkpt>
      <trkpt lat="47.37505" lon="0.09572">
        <ele>103</ele>
        <time>2013-02-17T11:08:37.001Z</time>
      </trkpt>
      <trkpt lat="47.37509" lon="0.09571">
        <ele>103</ele>
        <time>2013-02-17T11:08:40.001Z</time>
      </trkpt>
      <trkpt lat="47.3751" lon="0.09571">
        <ele>103</ele>
        <time>2013-02-17T11:08:41.001Z</time>
      </trkpt>
      <trkpt lat="47.37513" lon="0.09571">
        <ele>102</ele>
        <time>2013-02-17T11:08:45.001Z</time>
      </trkpt>
      <trkpt lat="47.37514" lon="0.09571">
        <ele>102</ele>
        <time>2013-02-17T11:08:46.001Z</time>
      </trkpt>
      <trkpt lat="47.37518" lon="0.0957">
        <ele>102</ele>
        <time>2013-02-17T11:08:49.001Z</time>
      </trkpt>
      <trkpt lat="47.37519" lon="0.09569">
        <ele>102</ele>
        <time>2013-02-17T11:08:50.001Z</time>
      </trkpt>
      <trkpt lat="47.37522" lon="0.09568">
        <ele>102</ele>
        <time>2013-02-17T11:08:54.001Z</time>
      </trkpt>
      <trkpt lat="47.37523" lon="0.09568">
        <ele>102</ele>
        <time>2013-02-17T11:08:55.001Z</time>
      </trkpt>
      <trkpt lat="47.37526" lon="0.09567">
        <ele>102</ele>
        <time>2013-02-17T11:09:00.001Z</time>
      </trkpt>
      <trkpt lat="47.37528" lon="0.09565">
        <ele>102</ele>
        <time>2013-02-17T11:09:01.001Z</time>
      </trkpt>
      <trkpt lat="47.37531" lon="0.09563">
        <ele>102</ele>
        <time>2013-02-17T11:09:07.001Z</time>
      </trkpt>
      <trkpt lat="47.37533" lon="0.09563">
        <ele>102</ele>
        <time>2013-02-17T11:09:08.001Z</time>
      </trkpt>
      <trkpt lat="47.37537" lon="0.09561">
        <ele>101</ele>
        <time>2013-02-17T11:09:12.001Z</time>
      </trkpt>
      <trkpt lat="47.37537" lon="0.09561">
        <ele>101</ele>
        <time>2013-02-17T11:09:13.001Z</time>
      </trkpt>
      <trkpt lat="47.37541" lon="0.0956">
        <ele>101</ele>
        <time>2013-02-17T11:09:16.001Z</time>
      </trkpt>
      <trkpt lat="47.37542" lon="0.0956">
        <ele>101</ele>
        <time>2013-02-17T11:09:17.001Z</time>
      </trkpt>
      <trkpt lat="47.37546" lon="0.09559">
        <ele>101</ele>
        <time>2013-02-17T11:09:21.001Z</time>
      </trkpt>
      <trkpt lat="47.37548" lon="0.09559">
        <ele>101</ele>
        <time>2013-02-17T11:09:22.001Z</time>
      </trkpt>
      <trkpt lat="47.37551" lon="0.09557">
        <ele>101</ele>
        <time>2013-02-17T11:09:26.001Z</time>
      </trkpt>
      <trkpt lat="47.37552" lon="0.09557">
        <ele>101</ele>
        <time>2013-02-17T11:09:27.001Z</time>
      </trkpt>
      <trkpt lat="47.37557" lon="0.09556">
        <ele>101</ele>
        <time>2013-02-17T11:09:31.001Z</time>
      </trkpt>
      <trkpt lat="47.37558" lon="0.09556">
        <ele>101</ele>
        <time>2013-02-17T11:09:32.001Z</time>
      </trkpt>
      <trkpt lat="47.37561" lon="0.09554">
        <ele>101</ele>
        <time>2013-02-17T11:09:35.001Z</time>
      </trkpt>
      <trkpt lat="47.37562" lon="0.09553">
        <ele>101</ele>
        <time>2013-02-17T11:09:36.001Z</time>
      </trkpt>
      <trkpt lat="47.37566" lon="0.09553">
        <ele>101</ele>
        <time>2013-02-17T11:09:39.001Z</time>
      </trkpt>
      <trkpt lat="47.37567" lon="0.09552">
        <ele>101</ele>
        <time>2013-02-17T11:09:40.001Z</time>
      </trkpt>
      <trkpt lat="47.3757" lon="0.09553">
        <ele>101</ele>
        <time>2013-02-17T11:09:43.001Z</time>
      </trkpt>
      <trkpt lat="47.37572" lon="0.09554">
        <ele>101</ele>
        <time>2013-02-17T11:09:44.001Z</time>
      </trkpt>
      <trkpt lat="47.37576" lon="0.09553">
        <ele>101</ele>
        <time>2013-02-17T11:09:46.001Z</time>
      </trkpt>
      <trkpt lat="47.37577" lon="0.09553">
        <ele>101</ele>
        <time>2013-02-17T11:09:47.001Z</time>
      </trkpt>
      <trkpt lat="47.3758" lon="0.0955">
        <ele>101</ele>
        <time>2013-02-17T11:09:50.001Z</time>
      </trkpt>
      <trkpt lat="47.37582" lon="0.0955">
        <ele>101</ele>
        <time>2013-02-17T11:09:51.001Z</time>
      </trkpt>
      <trkpt lat="47.37585" lon="0.09548">
        <ele>98</ele>
        <time>2013-02-17T11:09:54.001Z</time>
      </trkpt>
      <trkpt lat="47.37587" lon="0.09547">
        <ele>98</ele>
        <time>2013-02-17T11:09:55.001Z</time>
      </trkpt>
      <trkpt lat="47.37591" lon="0.09547">
        <ele>98</ele>
        <time>2013-02-17T11:09:58.001Z</time>
      </trkpt>
      <trkpt lat="47.37592" lon="0.09546">
        <ele>98</ele>
        <time>2013-02-17T11:09:59.001Z</time>
      </trkpt>
      <trkpt lat="47.37596" lon="0.09545">
        <ele>98</ele>
        <time>2013-02-17T11:10:03.001Z</time>
      </trkpt>
      <trkpt lat="47.37598" lon="0.09545">
        <ele>98</ele>
        <time>2013-02-17T11:10:04.001Z</time>
      </trkpt>
      <trkpt lat="47.376" lon="0.09545">
        <ele>98</ele>
        <time>2013-02-17T11:10:06.001Z</time>
      </trkpt>
      <trkpt lat="47.37602" lon="0.09545">
        <ele>98</ele>
        <time>2013-02-17T11:10:07.001Z</time>
      </trkpt>
      <trkpt lat="47.37606" lon="0.09547">
        <ele>98</ele>
        <time>2013-02-17T11:10:12.001Z</time>
      </trkpt>
      <trkpt lat="47.37607" lon="0.09546">
        <ele>98</ele>
        <time>2013-02-17T11:10:13.001Z</time>
      </trkpt>
      <trkpt lat="47.37611" lon="0.09545">
        <ele>98</ele>
        <time>2013-02-17T11:10:16.001Z</time>
      </trkpt>
      <trkpt lat="47.37612" lon="0.09544">
        <ele>98</ele>
        <time>2013-02-17T11:10:17.001Z</time>
      </trkpt>
      <trkpt lat="47.37616" lon="0.09544">
        <ele>98</ele>
        <time>2013-02-17T11:10:20.001Z</time>
      </trkpt>
      <trkpt lat="47.37617" lon="0.09545">
        <ele>98</ele>
        <time>2013-02-17T11:10:21.001Z</time>
      </trkpt>
      <trkpt lat="47.37621" lon="0.09545">
        <ele>98</ele>
        <time>2013-02-17T11:10:24.001Z</time>
      </trkpt>
      <trkpt lat="47.37623" lon="0.09545">
        <ele>98</ele>
        <time>2013-02-17T11:10:25.001Z</time>
      </trkpt>
      <trkpt lat="47.37627" lon="0.09544">
        <ele>98</ele>
        <time>2013-02-17T11:10:31.001Z</time>
      </trkpt>
      <trkpt lat="47.37628" lon="0.09544">
        <ele>98</ele>
        <time>2013-02-17T11:10:32.001Z</time>
      </trkpt>
      <trkpt lat="47.37631" lon="0.09541">
        <ele>98</ele>
        <time>2013-02-17T11:10:36.001Z</time>
      </trkpt>
      <trkpt lat="47.37632" lon="0.0954">
        <ele>98</ele>
        <time>2013-02-17T11:10:37.001Z</time>
      </trkpt>
      <trkpt lat="47.37635" lon="0.0954">
        <ele>98</ele>
        <time>2013-02-17T11:10:43.001Z</time>
      </trkpt>
      <trkpt lat="47.37637" lon="0.0954">
        <ele>98</ele>
        <time>2013-02-17T11:10:44.001Z</time>
      </trkpt>
      <trkpt lat="47.37641" lon="0.09538">
        <ele>97</ele>
        <time>2013-02-17T11:10:47.001Z</time>
      </trkpt>
      <trkpt lat="47.37642" lon="0.09538">
        <ele>97</ele>
        <time>2013-02-17T11:10:48.001Z</time>
      </trkpt>
      <trkpt lat="47.37645" lon="0.09537">
        <ele>97</ele>
        <time>2013-02-17T11:10:51.001Z</time>
      </trkpt>
      <trkpt lat="47.37647" lon="0.09538">
        <ele>97</ele>
        <time>2013-02-17T11:10:52.001Z</time>
      </trkpt>
      <trkpt lat="47.37651" lon="0.09538">
        <ele>97</ele>
        <time>2013-02-17T11:10:55.001Z</time>
      </trkpt>
      <trkpt lat="47.37652" lon="0.09537">
        <ele>97</ele>
        <time>2013-02-17T11:10:56.001Z</time>
      </trkpt>
      <trkpt lat="47.37656" lon="0.09536">
        <ele>97</ele>
        <time>2013-02-17T11:11:01.001Z</time>
      </trkpt>
      <trkpt lat="47.37657" lon="0.09537">
        <ele>97</ele>
        <time>2013-02-17T11:11:02.001Z</time>
      </trkpt>
      <trkpt lat="47.3766" lon="0.09535">
        <ele>97</ele>
        <time>2013-02-17T11:11:10.001Z</time>
      </trkpt>
      <trkpt lat="47.37662" lon="0.09534">
        <ele>97</ele>
        <time>2013-02-17T11:11:11.001Z</time>
      </trkpt>
      <trkpt lat="47.37665" lon="0.09532">
        <ele>97</ele>
        <time>2013-02-17T11:11:13.001Z</time>
      </trkpt>
      <trkpt lat="47.37667" lon="0.09532">
        <ele>97</ele>
        <time>2013-02-17T11:11:14.001Z</time>
      </trkpt>
      <trkpt lat="47.37669" lon="0.0953">
        <ele>96</ele>
        <time>2013-02-17T11:11:17.001Z</time>
      </trkpt>
      <trkpt lat="47.37671" lon="0.09529">
        <ele>96</ele>
        <time>2013-02-17T11:11:18.001Z</time>
      </trkpt>
      <trkpt lat="47.37673" lon="0.09525">
        <ele>96</ele>
        <time>2013-02-17T11:11:22.001Z</time>
      </trkpt>
      <trkpt lat="47.37675" lon="0.09526">
        <ele>96</ele>
        <time>2013-02-17T11:11:23.001Z</time>
      </trkpt>
      <trkpt lat="47.37678" lon="0.09527">
        <ele>96</ele>
        <time>2013-02-17T11:11:26.001Z</time>
      </trkpt>
      <trkpt lat="47.3768" lon="0.09527">
        <ele>96</ele>
        <time>2013-02-17T11:11:27.001Z</time>
      </trkpt>
      <trkpt lat="47.37683" lon="0.09527">
        <ele>96</ele>
        <time>2013-02-17T11:11:30.001Z</time>
      </trkpt>
      <trkpt lat="47.37684" lon="0.09527">
        <ele>96</ele>
        <time>2013-02-17T11:11:31.001Z</time>
      </trkpt>
      <trkpt lat="47.37689" lon="0.09526">
        <ele>96</ele>
        <time>2013-02-17T11:11:36.001Z</time>
      </trkpt>
      <trkpt lat="47.3769" lon="0.09526">
        <ele>96</ele>
        <time>2013-02-17T11:11:37.001Z</time>
      </trkpt>
      <trkpt lat="47.37694" lon="0.09524">
        <ele>96</ele>
        <time>2013-02-17T11:11:42.001Z</time>
      </trkpt>
      <trkpt lat="47.37696" lon="0.09522">
        <ele>96</ele>
        <time>2013-02-17T11:11:43.001Z</time>
      </trkpt>
      <trkpt lat="47.377" lon="0.09522">
        <ele>96</ele>
        <time>2013-02-17T11:11:46.001Z</time>
      </trkpt>
      <trkpt lat="47.37701" lon="0.09521">
        <ele>96</ele>
        <time>2013-02-17T11:11:47.001Z</time>
      </trkpt>
      <trkpt lat="47.37705" lon="0.09519">
        <ele>96</ele>
        <time>2013-02-17T11:11:50.001Z</time>
      </trkpt>
      <trkpt lat="47.37707" lon="0.09519">
        <ele>96</ele>
        <time>2013-02-17T11:11:51.001Z</time>
      </trkpt>
      <trkpt lat="47.37711" lon="0.0952">
        <ele>96</ele>
        <time>2013-02-17T11:12:00.001Z</time>
      </trkpt>
      <trkpt lat="47.37711" lon="0.0952">
        <ele>96</ele>
        <time>2013-02-17T11:12:01.001Z</time>
      </trkpt>
      <trkpt lat="47.37715" lon="0.09519">
        <ele>96</ele>
        <time>2013-02-17T11:12:05.001Z</time>
      </trkpt>
      <trkpt lat="47.37717" lon="0.09518">
        <ele>96</ele>
        <time>2013-02-17T11:12:06.001Z</time>
      </trkpt>
      <trkpt lat="47.37721" lon="0.09517">
        <ele>96</ele>
        <time>2013-02-17T11:12:18.001Z</time>
      </trkpt>
      <trkpt lat="47.37722" lon="0.09515">
        <ele>96</ele>
        <time>2013-02-17T11:12:19.001Z</time>
      </trkpt>
      <trkpt lat="47.37723" lon="0.09511">
        <ele>95</ele>
        <time>2013-02-17T11:12:28.001Z</time>
      </trkpt>
      <trkpt lat="47.37725" lon="0.09508">
        <ele>95</ele>
        <time>2013-02-17T11:12:29.001Z</time>
      </trkpt>
      <trkpt lat="47.37728" lon="0.0951">
        <ele>95</ele>
        <time>2013-02-17T11:12:45.001Z</time>
      </trkpt>
      <trkpt lat="47.37729" lon="0.09511">
        <ele>95</ele>
        <time>2013-02-17T11:12:46.001Z</time>
      </trkpt>
      <trkpt lat="47.37733" lon="0.09511">
        <ele>95</ele>
        <time>2013-02-17T11:13:03.001Z</time>
      </trkpt>
      <trkpt lat="47.37734" lon="0.0951">
        <ele>95</ele>
        <time>2013-02-17T11:13:04.001Z</time>
      </trkpt>
      <trkpt lat="47.37733" lon="0.09514">
        <ele>95</ele>
        <time>2013-02-17T11:15:27.001Z</time>
      </trkpt>
      <trkpt lat="47.37732" lon="0.09516">
        <ele>95</ele>
        <time>2013-02-17T11:15:28.001Z</time>
      </trkpt>
      <trkpt lat="47.37728" lon="0.09519">
        <ele>96</ele>
        <time>2013-02-17T11:15:37.001Z</time>
      </trkpt>
      <trkpt lat="47.37728" lon="0.09521">
        <ele>96</ele>
        <time>2013-02-17T11:15:38.001Z</time>
      </trkpt>
      <trkpt lat="47.3773" lon="0.09518">
        <ele>96</ele>
        <time>2013-02-17T11:16:01.001Z</time>
      </trkpt>
      <trkpt lat="47.37733" lon="0.09518">
        <ele>95</ele>
        <time>2013-02-17T11:16:02.001Z</time>
      </trkpt>
      <trkpt lat="47.37737" lon="0.09517">
        <ele>95</ele>
        <time>2013-02-17T11:16:07.001Z</time>
      </trkpt>
      <trkpt lat="47.37738" lon="0.09517">
        <ele>95</ele>
        <time>2013-02-17T11:16:08.001Z</time>
      </trkpt>
      <trkpt lat="47.37742" lon="0.09517">
        <ele>95</ele>
        <time>2013-02-17T11:16:14.001Z</time>
      </trkpt>
      <trkpt lat="47.37742" lon="0.09514">
        <ele>95</ele>
        <time>2013-02-17T11:16:15.001Z</time>
      </trkpt>
      <trkpt lat="47.37744" lon="0.09513">
        <ele>95</ele>
        <time>2013-02-17T11:16:22.001Z</time>
      </trkpt>
      <trkpt lat="47.37746" lon="0.09512">
        <ele>95</ele>
        <time>2013-02-17T11:16:23.001Z</time>
      </trkpt>
      <trkpt lat="47.37751" lon="0.09511">
        <ele>95</ele>
        <time>2013-02-17T11:16:28.001Z</time>
      </trkpt>
      <trkpt lat="47.37752" lon="0.09511">
        <ele>95</ele>
        <time>2013-02-17T11:16:29.001Z</time>
      </trkpt>
      <trkpt lat="47.37756" lon="0.09508">
        <ele>95</ele>
        <time>2013-02-17T11:16:32.001Z</time>
      </trkpt>
      <trkpt lat="47.37757" lon="0.09508">
        <ele>95</ele>
        <time>2013-02-17T11:16:33.001Z</time>
      </trkpt>
      <trkpt lat="47.3776" lon="0.09508">
        <ele>95</ele>
        <time>2013-02-17T11:16:37.001Z</time>
      </trkpt>
      <trkpt lat="47.37762" lon="0.09507">
        <ele>95</ele>
        <time>2013-02-17T11:16:38.001Z</time>
      </trkpt>
      <trkpt lat="47.37764" lon="0.09506">
        <ele>96</ele>
        <time>2013-02-17T11:16:42.001Z</time>
      </trkpt>
      <trkpt lat="47.37767" lon="0.09505">
        <ele>96</ele>
        <time>2013-02-17T11:16:43.001Z</time>
      </trkpt>
      <trkpt lat="47.37769" lon="0.09504">
        <ele>96</ele>
        <time>2013-02-17T11:16:44.001Z</time>
      </trkpt>
      <trkpt lat="47.37771" lon="0.09502">
        <ele>96</ele>
        <time>2013-02-17T11:16:45.001Z</time>
      </trkpt>
      <trkpt lat="47.37775" lon="0.095">
        <ele>94</ele>
        <time>2013-02-17T11:16:48.001Z</time>
      </trkpt>
      <trkpt lat="47.37777" lon="0.095">
        <ele>94</ele>
        <time>2013-02-17T11:16:49.001Z</time>
      </trkpt>
      <trkpt lat="47.3778" lon="0.09499">
        <ele>94</ele>
        <time>2013-02-17T11:16:50.001Z</time>
      </trkpt>
      <trkpt lat="47.37781" lon="0.09498">
        <ele>94</ele>
        <time>2013-02-17T11:16:51.001Z</time>
      </trkpt>
      <trkpt lat="47.37784" lon="0.09498">
        <ele>94</ele>
        <time>2013-02-17T11:16:54.001Z</time>
      </trkpt>
      <trkpt lat="47.37786" lon="0.09498">
        <ele>94</ele>
        <time>2013-02-17T11:16:55.001Z</time>
      </trkpt>
      <trkpt lat="47.37791" lon="0.09497">
        <ele>94</ele>
        <time>2013-02-17T11:16:56.001Z</time>
      </trkpt>
      <trkpt lat="47.37792" lon="0.09497">
        <ele>94</ele>
        <time>2013-02-17T11:16:57.001Z</time>
      </trkpt>
      <trkpt lat="47.37796" lon="0.09496">
        <ele>94</ele>
        <time>2013-02-17T11:17:00.001Z</time>
      </trkpt>
      <trkpt lat="47.37797" lon="0.09496">
        <ele>94</ele>
        <time>2013-02-17T11:17:01.001Z</time>
      </trkpt>
      <trkpt lat="47.37801" lon="0.09495">
        <ele>94</ele>
        <time>2013-02-17T11:17:03.001Z</time>
      </trkpt>
      <trkpt lat="47.37803" lon="0.09494">
        <ele>94</ele>
        <time>2013-02-17T11:17:04.001Z</time>
      </trkpt>
      <trkpt lat="47.37807" lon="0.09493">
        <ele>94</ele>
        <time>2013-02-17T11:17:07.001Z</time>
      </trkpt>
      <trkpt lat="47.37808" lon="0.09493">
        <ele>94</ele>
        <time>2013-02-17T11:17:08.001Z</time>
      </trkpt>
      <trkpt lat="47.3781" lon="0.0949">
        <ele>94</ele>
        <time>2013-02-17T11:17:14.001Z</time>
      </trkpt>
      <trkpt lat="47.37811" lon="0.09488">
        <ele>94</ele>
        <time>2013-02-17T11:17:15.001Z</time>
      </trkpt>
      <trkpt lat="47.37814" lon="0.09486">
        <ele>94</ele>
        <time>2013-02-17T11:17:18.001Z</time>
      </trkpt>
      <trkpt lat="47.37815" lon="0.09486">
        <ele>94</ele>
        <time>2013-02-17T11:17:19.001Z</time>
      </trkpt>
      <trkpt lat="47.3782" lon="0.09485">
        <ele>94</ele>
        <time>2013-02-17T11:17:23.001Z</time>
      </trkpt>
      <trkpt lat="47.37821" lon="0.09485">
        <ele>95</ele>
        <time>2013-02-17T11:17:24.001Z</time>
      </trkpt>
      <trkpt lat="47.37824" lon="0.09485">
        <ele>95</ele>
        <time>2013-02-17T11:17:28.001Z</time>
      </trkpt>
      <trkpt lat="47.37825" lon="0.09485">
        <ele>95</ele>
        <time>2013-02-17T11:17:29.001Z</time>
      </trkpt>
      <trkpt lat="47.37828" lon="0.09484">
        <ele>95</ele>
        <time>2013-02-17T11:17:31.001Z</time>
      </trkpt>
      <trkpt lat="47.3783" lon="0.09483">
        <ele>95</ele>
        <time>2013-02-17T11:17:32.001Z</time>
      </trkpt>
      <trkpt lat="47.37834" lon="0.09483">
        <ele>95</ele>
        <time>2013-02-17T11:17:34.001Z</time>
      </trkpt>
      <trkpt lat="47.37835" lon="0.09482">
        <ele>95</ele>
        <time>2013-02-17T11:17:35.001Z</time>
      </trkpt>
      <trkpt lat="47.37839" lon="0.0948">
        <ele>95</ele>
        <time>2013-02-17T11:17:38.001Z</time>
      </trkpt>
      <trkpt lat="47.3784" lon="0.0948">
        <ele>95</ele>
        <time>2013-02-17T11:17:39.001Z</time>
      </trkpt>
      <trkpt lat="47.37843" lon="0.09479">
        <ele>95</ele>
        <time>2013-02-17T11:17:41.001Z</time>
      </trkpt>
      <trkpt lat="47.37845" lon="0.09478">
        <ele>95</ele>
        <time>2013-02-17T11:17:42.001Z</time>
      </trkpt>
      <trkpt lat="47.37847" lon="0.09477">
        <ele>95</ele>
        <time>2013-02-17T11:17:43.001Z</time>
      </trkpt>
      <trkpt lat="47.3785" lon="0.09476">
        <ele>95</ele>
        <time>2013-02-17T11:17:44.001Z</time>
      </trkpt>
      <trkpt lat="47.37853" lon="0.09475">
        <ele>95</ele>
        <time>2013-02-17T11:17:47.001Z</time>
      </trkpt>
      <trkpt lat="47.37854" lon="0.09475">
        <ele>95</ele>
        <time>2013-02-17T11:17:48.001Z</time>
      </trkpt>
      <trkpt lat="47.37858" lon="0.09475">
        <ele>95</ele>
        <time>2013-02-17T11:17:50.001Z</time>
      </trkpt>
      <trkpt lat="47.3786" lon="0.09475">
        <ele>95</ele>
        <time>2013-02-17T11:17:51.001Z</time>
      </trkpt>
      <trkpt lat="47.37864" lon="0.09474">
        <ele>95</ele>
        <time>2013-02-17T11:17:54.001Z</time>
      </trkpt>
      <trkpt lat="47.37865" lon="0.09473">
        <ele>95</ele>
        <time>2013-02-17T11:17:55.001Z</time>
      </trkpt>
      <trkpt lat="47.37869" lon="0.09472">
        <ele>95</ele>
        <time>2013-02-17T11:17:59.001Z</time>
      </trkpt>
      <trkpt lat="47.3787" lon="0.09471">
        <ele>95</ele>
        <time>2013-02-17T11:18:00.001Z</time>
      </trkpt>
      <trkpt lat="47.37874" lon="0.09471">
        <ele>95</ele>
        <time>2013-02-17T11:18:04.001Z</time>
      </trkpt>
      <trkpt lat="47.37875" lon="0.09471">
        <ele>95</ele>
        <time>2013-02-17T11:18:05.001Z</time>
      </trkpt>
      <trkpt lat="47.37879" lon="0.09471">
        <ele>95</ele>
        <time>2013-02-17T11:18:10.001Z</time>
      </trkpt>
      <trkpt lat="47.37881" lon="0.09471">
        <ele>95</ele>
        <time>2013-02-17T11:18:11.001Z</time>
      </trkpt>
      <trkpt lat="47.37884" lon="0.09469">
        <ele>95</ele>
        <time>2013-02-17T11:18:13.001Z</time>
      </trkpt>
      <trkpt lat="47.37886" lon="0.09468">
        <ele>95</ele>
        <time>2013-02-17T11:18:14.001Z</time>
      </trkpt>
      <trkpt lat="47.37889" lon="0.09467">
        <ele>95</ele>
        <time>2013-02-17T11:18:15.001Z</time>
      </trkpt>
      <trkpt lat="47.37891" lon="0.09466">
        <ele>95</ele>
        <time>2013-02-17T11:18:16.001Z</time>
      </trkpt>
      <trkpt lat="47.37895" lon="0.09464">
        <ele>95</ele>
        <time>2013-02-17T11:18:19.001Z</time>
      </trkpt>
      <trkpt lat="47.37897" lon="0.09463">
        <ele>95</ele>
        <time>2013-02-17T11:18:20.001Z</time>
      </trkpt>
      <trkpt lat="47.379" lon="0.09461">
        <ele>95</ele>
        <time>2013-02-17T11:18:23.001Z</time>
      </trkpt>
      <trkpt lat="47.37902" lon="0.09461">
        <ele>95</ele>
        <time>2013-02-17T11:18:24.001Z</time>
      </trkpt>
      <trkpt lat="47.37905" lon="0.0946">
        <ele>95</ele>
        <time>2013-02-17T11:18:27.001Z</time>
      </trkpt>
      <trkpt lat="47.37906" lon="0.09459">
        <ele>95</ele>
        <time>2013-02-17T11:18:28.001Z</time>
      </trkpt>
      <trkpt lat="47.37909" lon="0.09458">
        <ele>95</ele>
        <time>2013-02-17T11:18:31.001Z</time>
      </trkpt>
      <trkpt lat="47.37911" lon="0.09458">
        <ele>95</ele>
        <time>2013-02-17T11:18:32.001Z</time>
      </trkpt>
      <trkpt lat="47.37915" lon="0.09456">
        <ele>95</ele>
        <time>2013-02-17T11:18:35.001Z</time>
      </trkpt>
      <trkpt lat="47.37915" lon="0.09455">
        <ele>95</ele>
        <time>2013-02-17T11:18:36.001Z</time>
      </trkpt>
      <trkpt lat="47.3792" lon="0.09453">
        <ele>94</ele>
        <time>2013-02-17T11:18:41.001Z</time>
      </trkpt>
      <trkpt lat="47.37921" lon="0.09453">
        <ele>94</ele>
        <time>2013-02-17T11:18:42.001Z</time>
      </trkpt>
      <trkpt lat="47.37924" lon="0.09452">
        <ele>94</ele>
        <time>2013-02-17T11:18:44.001Z</time>
      </trkpt>
      <trkpt lat="47.37925" lon="0.09452">
        <ele>94</ele>
        <time>2013-02-17T11:18:45.001Z</time>
      </trkpt>
      <trkpt lat="47.37929" lon="0.0945">
        <ele>94</ele>
        <time>2013-02-17T11:18:48.001Z</time>
      </trkpt>
      <trkpt lat="47.3793" lon="0.0945">
        <ele>94</ele>
        <time>2013-02-17T11:18:49.001Z</time>
      </trkpt>
      <trkpt lat="47.37934" lon="0.09449">
        <ele>94</ele>
        <time>2013-02-17T11:18:54.001Z</time>
      </trkpt>
      <trkpt lat="47.37936" lon="0.09449">
        <ele>94</ele>
        <time>2013-02-17T11:18:55.001Z</time>
      </trkpt>
      <trkpt lat="47.37939" lon="0.09449">
        <ele>94</ele>
        <time>2013-02-17T11:18:59.001Z</time>
      </trkpt>
      <trkpt lat="47.3794" lon="0.09449">
        <ele>94</ele>
        <time>2013-02-17T11:19:00.001Z</time>
      </trkpt>
      <trkpt lat="47.37944" lon="0.09448">
        <ele>94</ele>
        <time>2013-02-17T11:19:04.001Z</time>
      </trkpt>
      <trkpt lat="47.37945" lon="0.09448">
        <ele>94</ele>
        <time>2013-02-17T11:19:05.001Z</time>
      </trkpt>
      <trkpt lat="47.37948" lon="0.09448">
        <ele>94</ele>
        <time>2013-02-17T11:19:08.001Z</time>
      </trkpt>
      <trkpt lat="47.3795" lon="0.09448">
        <ele>94</ele>
        <time>2013-02-17T11:19:09.001Z</time>
      </trkpt>
      <trkpt lat="47.37953" lon="0.09447">
        <ele>94</ele>
        <time>2013-02-17T11:19:13.001Z</time>
      </trkpt>
      <trkpt lat="47.37955" lon="0.09447">
        <ele>94</ele>
        <time>2013-02-17T11:19:14.001Z</time>
      </trkpt>
      <trkpt lat="47.37959" lon="0.09446">
        <ele>93</ele>
        <time>2013-02-17T11:19:17.001Z</time>
      </trkpt>
      <trkpt lat="47.3796" lon="0.09445">
        <ele>93</ele>
        <time>2013-02-17T11:19:18.001Z</time>
      </trkpt>
      <trkpt lat="47.37963" lon="0.09442">
        <ele>93</ele>
        <time>2013-02-17T11:19:20.001Z</time>
      </trkpt>
      <trkpt lat="47.37964" lon="0.09441">
        <ele>93</ele>
        <time>2013-02-17T11:19:21.001Z</time>
      </trkpt>
      <trkpt lat="47.37968" lon="0.09441">
        <ele>93</ele>
        <time>2013-02-17T11:19:25.001Z</time>
      </trkpt>
      <trkpt lat="47.37969" lon="0.0944">
        <ele>93</ele>
        <time>2013-02-17T11:19:26.001Z</time>
      </trkpt>
      <trkpt lat="47.37973" lon="0.0944">
        <ele>93</ele>
        <time>2013-02-17T11:19:28.001Z</time>
      </trkpt>
      <trkpt lat="47.37974" lon="0.0944">
        <ele>93</ele>
        <time>2013-02-17T11:19:29.001Z</time>
      </trkpt>
      <trkpt lat="47.37978" lon="0.09439">
        <ele>93</ele>
        <time>2013-02-17T11:19:32.001Z</time>
      </trkpt>
      <trkpt lat="47.37979" lon="0.09439">
        <ele>92</ele>
        <time>2013-02-17T11:19:33.001Z</time>
      </trkpt>
      <trkpt lat="47.37983" lon="0.09438">
        <ele>92</ele>
        <time>2013-02-17T11:19:36.001Z</time>
      </trkpt>
      <trkpt lat="47.37985" lon="0.09438">
        <ele>92</ele>
        <time>2013-02-17T11:19:37.001Z</time>
      </trkpt>
      <trkpt lat="47.37988" lon="0.09437">
        <ele>92</ele>
        <time>2013-02-17T11:19:40.001Z</time>
      </trkpt>
      <trkpt lat="47.3799" lon="0.09437">
        <ele>92</ele>
        <time>2013-02-17T11:19:41.001Z</time>
      </trkpt>
      <trkpt lat="47.37994" lon="0.09436">
        <ele>92</ele>
        <time>2013-02-17T11:19:45.001Z</time>
      </trkpt>
      <trkpt lat="47.37995" lon="0.09436">
        <ele>92</ele>
        <time>2013-02-17T11:19:46.001Z</time>
      </trkpt>
      <trkpt lat="47.37999" lon="0.09436">
        <ele>92</ele>
        <time>2013-02-17T11:19:50.001Z</time>
      </trkpt>
      <trkpt lat="47.38" lon="0.09436">
        <ele>90</ele>
        <time>2013-02-17T11:19:51.001Z</time>
      </trkpt>
      <trkpt lat="47.38004" lon="0.09434">
        <ele>90</ele>
        <time>2013-02-17T11:19:55.001Z</time>
      </trkpt>
      <trkpt lat="47.38005" lon="0.09434">
        <ele>90</ele>
        <time>2013-02-17T11:19:56.001Z</time>
      </trkpt>
      <trkpt lat="47.38009" lon="0.09434">
        <ele>90</ele>
        <time>2013-02-17T11:20:00.001Z</time>
      </trkpt>
      <trkpt lat="47.38009" lon="0.09434">
        <ele>90</ele>
        <time>2013-02-17T11:20:01.001Z</time>
      </trkpt>
      <trkpt lat="47.38013" lon="0.09436">
        <ele>90</ele>
        <time>2013-02-17T11:20:09.001Z</time>
      </trkpt>
      <trkpt lat="47.38014" lon="0.09437">
        <ele>90</ele>
        <time>2013-02-17T11:20:10.001Z</time>
      </trkpt>
      <trkpt lat="47.38018" lon="0.09439">
        <ele>90</ele>
        <time>2013-02-17T11:20:14.001Z</time>
      </trkpt>
      <trkpt lat="47.38021" lon="0.09439">
        <ele>90</ele>
        <time>2013-02-17T11:20:15.001Z</time>
      </trkpt>
      <trkpt lat="47.38025" lon="0.09439">
        <ele>90</ele>
        <time>2013-02-17T11:20:17.001Z</time>
      </trkpt>
      <trkpt lat="47.38026" lon="0.09439">
        <ele>90</ele>
        <time>2013-02-17T11:20:18.001Z</time>
      </trkpt>
      <trkpt lat="47.3803" lon="0.09443">
        <ele>90</ele>
        <time>2013-02-17T11:20:21.001Z</time>
      </trkpt>
      <trkpt lat="47.38031" lon="0.09444">
        <ele>91</ele>
        <time>2013-02-17T11:20:22.001Z</time>
      </trkpt>
      <trkpt lat="47.38034" lon="0.09448">
        <ele>91</ele>
        <time>2013-02-17T11:20:24.001Z</time>
      </trkpt>
      <trkpt lat="47.38035" lon="0.09449">
        <ele>91</ele>
        <time>2013-02-17T11:20:25.001Z</time>
      </trkpt>
      <trkpt lat="47.38039" lon="0.0945">
        <ele>91</ele>
        <time>2013-02-17T11:20:29.001Z</time>
      </trkpt>
      <trkpt lat="47.3804" lon="0.0945">
        <ele>91</ele>
        <time>2013-02-17T11:20:30.001Z</time>
      </trkpt>
      <trkpt lat="47.38044" lon="0.09451">
        <ele>91</ele>
        <time>2013-02-17T11:20:33.001Z</time>
      </trkpt>
      <trkpt lat="47.38045" lon="0.09451">
        <ele>91</ele>
        <time>2013-02-17T11:20:34.001Z</time>
      </trkpt>
      <trkpt lat="47.38049" lon="0.0945">
        <ele>90</ele>
        <time>2013-02-17T11:20:37.001Z</time>
      </trkpt>
      <trkpt lat="47.38049" lon="0.0945">
        <ele>90</ele>
        <time>2013-02-17T11:20:38.001Z</time>
      </trkpt>
      <trkpt lat="47.38053" lon="0.09453">
        <ele>91</ele>
        <time>2013-02-17T11:20:41.001Z</time>
      </trkpt>
      <trkpt lat="47.38055" lon="0.09453">
        <ele>91</ele>
        <time>2013-02-17T11:20:42.001Z</time>
      </trkpt>
      <trkpt lat="47.38059" lon="0.09453">
        <ele>90</ele>
        <time>2013-02-17T11:20:47.001Z</time>
      </trkpt>
      <trkpt lat="47.38061" lon="0.09453">
        <ele>90</ele>
        <time>2013-02-17T11:20:48.001Z</time>
      </trkpt>
      <trkpt lat="47.38065" lon="0.09453">
        <ele>90</ele>
        <time>2013-02-17T11:20:53.001Z</time>
      </trkpt>
      <trkpt lat="47.38065" lon="0.09453">
        <ele>90</ele>
        <time>2013-02-17T11:20:54.001Z</time>
      </trkpt>
      <trkpt lat="47.38069" lon="0.09452">
        <ele>90</ele>
        <time>2013-02-17T11:20:59.001Z</time>
      </trkpt>
      <trkpt lat="47.38071" lon="0.09452">
        <ele>90</ele>
        <time>2013-02-17T11:21:00.001Z</time>
      </trkpt>
      <trkpt lat="47.38074" lon="0.09452">
        <ele>90</ele>
        <time>2013-02-17T11:21:05.001Z</time>
      </trkpt>
      <trkpt lat="47.38076" lon="0.09452">
        <ele>90</ele>
        <time>2013-02-17T11:21:06.001Z</time>
      </trkpt>
      <trkpt lat="47.38079" lon="0.09453">
        <ele>90</ele>
        <time>2013-02-17T11:21:09.001Z</time>
      </trkpt>
      <trkpt lat="47.3808" lon="0.09453">
        <ele>90</ele>
        <time>2013-02-17T11:21:10.001Z</time>
      </trkpt>
      <trkpt lat="47.38085" lon="0.09454">
        <ele>89</ele>
        <time>2013-02-17T11:21:15.001Z</time>
      </trkpt>
      <trkpt lat="47.38086" lon="0.09454">
        <ele>89</ele>
        <time>2013-02-17T11:21:16.001Z</time>
      </trkpt>
      <trkpt lat="47.3809" lon="0.09455">
        <ele>89</ele>
        <time>2013-02-17T11:21:18.001Z</time>
      </trkpt>
      <trkpt lat="47.38091" lon="0.09455">
        <ele>89</ele>
        <time>2013-02-17T11:21:19.001Z</time>
      </trkpt>
      <trkpt lat="47.38095" lon="0.09456">
        <ele>89</ele>
        <time>2013-02-17T11:21:22.001Z</time>
      </trkpt>
      <trkpt lat="47.38096" lon="0.09456">
        <ele>89</ele>
        <time>2013-02-17T11:21:23.001Z</time>
      </trkpt>
      <trkpt lat="47.381" lon="0.09456">
        <ele>89</ele>
        <time>2013-02-17T11:21:26.001Z</time>
      </trkpt>
      <trkpt lat="47.38101" lon="0.09456">
        <ele>89</ele>
        <time>2013-02-17T11:21:27.001Z</time>
      </trkpt>
      <trkpt lat="47.38104" lon="0.09456">
        <ele>88</ele>
        <time>2013-02-17T11:21:31.001Z</time>
      </trkpt>
      <trkpt lat="47.38106" lon="0.09456">
        <ele>88</ele>
        <time>2013-02-17T11:21:32.001Z</time>
      </trkpt>
      <trkpt lat="47.38109" lon="0.09458">
        <ele>89</ele>
        <time>2013-02-17T11:21:34.001Z</time>
      </trkpt>
      <trkpt lat="47.38111" lon="0.09457">
        <ele>88</ele>
        <time>2013-02-17T11:21:35.001Z</time>
      </trkpt>
      <trkpt lat="47.38114" lon="0.09459">
        <ele>89</ele>
        <time>2013-02-17T11:21:39.001Z</time>
      </trkpt>
      <trkpt lat="47.38115" lon="0.0946">
        <ele>89</ele>
        <time>2013-02-17T11:21:40.001Z</time>
      </trkpt>
      <trkpt lat="47.38119" lon="0.0946">
        <ele>89</ele>
        <time>2013-02-17T11:21:42.001Z</time>
      </trkpt>
      <trkpt lat="47.38121" lon="0.09461">
        <ele>88</ele>
        <time>2013-02-17T11:21:43.001Z</time>
      </trkpt>
      <trkpt lat="47.38125" lon="0.09461">
        <ele>88</ele>
        <time>2013-02-17T11:21:49.001Z</time>
      </trkpt>
      <trkpt lat="47.38126" lon="0.09462">
        <ele>88</ele>
        <time>2013-02-17T11:21:50.001Z</time>
      </trkpt>
      <trkpt lat="47.3813" lon="0.09463">
        <ele>88</ele>
        <time>2013-02-17T11:21:53.001Z</time>
      </trkpt>
      <trkpt lat="47.38132" lon="0.09463">
        <ele>88</ele>
        <time>2013-02-17T11:21:54.001Z</time>
      </trkpt>
      <trkpt lat="47.38135" lon="0.09464">
        <ele>88</ele>
        <time>2013-02-17T11:21:56.001Z</time>
      </trkpt>
      <trkpt lat="47.38136" lon="0.09464">
        <ele>88</ele>
        <time>2013-02-17T11:21:57.001Z</time>
      </trkpt>
      <trkpt lat="47.38141" lon="0.09464">
        <ele>88</ele>
        <time>2013-02-17T11:22:00.001Z</time>
      </trkpt>
      <trkpt lat="47.38142" lon="0.09464">
        <ele>88</ele>
        <time>2013-02-17T11:22:01.001Z</time>
      </trkpt>
      <trkpt lat="47.38145" lon="0.09464">
        <ele>88</ele>
        <time>2013-02-17T11:22:04.001Z</time>
      </trkpt>
      <trkpt lat="47.38147" lon="0.09464">
        <ele>88</ele>
        <time>2013-02-17T11:22:05.001Z</time>
      </trkpt>
      <trkpt lat="47.3815" lon="0.09464">
        <ele>88</ele>
        <time>2013-02-17T11:22:08.001Z</time>
      </trkpt>
      <trkpt lat="47.38152" lon="0.09465">
        <ele>88</ele>
        <time>2013-02-17T11:22:09.001Z</time>
      </trkpt>
      <trkpt lat="47.38156" lon="0.09466">
        <ele>88</ele>
        <time>2013-02-17T11:22:12.001Z</time>
      </trkpt>
      <trkpt lat="47.38157" lon="0.09467">
        <ele>88</ele>
        <time>2013-02-17T11:22:13.001Z</time>
      </trkpt>
      <trkpt lat="47.38159" lon="0.09468">
        <ele>89</ele>
        <time>2013-02-17T11:22:14.001Z</time>
      </trkpt>
      <trkpt lat="47.38162" lon="0.0947">
        <ele>89</ele>
        <time>2013-02-17T11:22:15.001Z</time>
      </trkpt>
      <trkpt lat="47.38166" lon="0.09472">
        <ele>89</ele>
        <time>2013-02-17T11:22:20.001Z</time>
      </trkpt>
      <trkpt lat="47.38166" lon="0.09472">
        <ele>89</ele>
        <time>2013-02-17T11:22:21.001Z</time>
      </trkpt>
      <trkpt lat="47.3817" lon="0.09474">
        <ele>87</ele>
        <time>2013-02-17T11:22:24.001Z</time>
      </trkpt>
      <trkpt lat="47.3817" lon="0.09476">
        <ele>87</ele>
        <time>2013-02-17T11:22:25.001Z</time>
      </trkpt>
      <trkpt lat="47.38173" lon="0.09479">
        <ele>88</ele>
        <time>2013-02-17T11:22:28.001Z</time>
      </trkpt>
      <trkpt lat="47.38174" lon="0.0948">
        <ele>88</ele>
        <time>2013-02-17T11:22:29.001Z</time>
      </trkpt>
      <trkpt lat="47.38177" lon="0.09481">
        <ele>88</ele>
        <time>2013-02-17T11:22:33.001Z</time>
      </trkpt>
      <trkpt lat="47.38178" lon="0.09482">
        <ele>88</ele>
        <time>2013-02-17T11:22:34.001Z</time>
      </trkpt>
      <trkpt lat="47.38182" lon="0.09482">
        <ele>87</ele>
        <time>2013-02-17T11:22:36.001Z</time>
      </trkpt>
      <trkpt lat="47.38183" lon="0.09482">
        <ele>87</ele>
        <time>2013-02-17T11:22:37.001Z</time>
      </trkpt>
      <trkpt lat="47.38186" lon="0.09483">
        <ele>87</ele>
        <time>2013-02-17T11:22:39.001Z</time>
      </trkpt>
      <trkpt lat="47.38188" lon="0.09484">
        <ele>87</ele>
        <time>2013-02-17T11:22:40.001Z</time>
      </trkpt>
      <trkpt lat="47.38192" lon="0.09485">
        <ele>87</ele>
        <time>2013-02-17T11:22:44.001Z</time>
      </trkpt>
      <trkpt lat="47.38193" lon="0.09486">
        <ele>87</ele>
        <time>2013-02-17T11:22:45.001Z</time>
      </trkpt>
      <trkpt lat="47.38197" lon="0.09486">
        <ele>87</ele>
        <time>2013-02-17T11:22:49.001Z</time>
      </trkpt>
      <trkpt lat="47.38198" lon="0.09487">
        <ele>87</ele>
        <time>2013-02-17T11:22:50.001Z</time>
      </trkpt>
      <trkpt lat="47.38202" lon="0.0949">
        <ele>86</ele>
        <time>2013-02-17T11:22:54.001Z</time>
      </trkpt>
      <trkpt lat="47.38203" lon="0.09491">
        <ele>86</ele>
        <time>2013-02-17T11:22:55.001Z</time>
      </trkpt>
      <trkpt lat="47.38206" lon="0.09494">
        <ele>86</ele>
        <time>2013-02-17T11:22:59.001Z</time>
      </trkpt>
      <trkpt lat="47.38207" lon="0.09495">
        <ele>86</ele>
        <time>2013-02-17T11:23:00.001Z</time>
      </trkpt>
      <trkpt lat="47.38211" lon="0.09498">
        <ele>86</ele>
        <time>2013-02-17T11:23:03.001Z</time>
      </trkpt>
      <trkpt lat="47.38212" lon="0.09499">
        <ele>86</ele>
        <time>2013-02-17T11:23:04.001Z</time>
      </trkpt>
      <trkpt lat="47.38215" lon="0.09502">
        <ele>92</ele>
        <time>2013-02-17T11:23:07.001Z</time>
      </trkpt>
      <trkpt lat="47.38216" lon="0.09503">
        <ele>92</ele>
        <time>2013-02-17T11:23:08.001Z</time>
      </trkpt>
      <trkpt lat="47.38219" lon="0.09506">
        <ele>91</ele>
        <time>2013-02-17T11:23:13.001Z</time>
      </trkpt>
      <trkpt lat="47.3822" lon="0.09507">
        <ele>91</ele>
        <time>2013-02-17T11:23:14.001Z</time>
      </trkpt>
      <trkpt lat="47.38224" lon="0.09507">
        <ele>91</ele>
        <time>2013-02-17T11:23:18.001Z</time>
      </trkpt>
      <trkpt lat="47.38225" lon="0.09508">
        <ele>91</ele>
        <time>2013-02-17T11:23:19.001Z</time>
      </trkpt>
      <trkpt lat="47.38229" lon="0.09508">
        <ele>90</ele>
        <time>2013-02-17T11:23:22.001Z</time>
      </trkpt>
      <trkpt lat="47.3823" lon="0.09509">
        <ele>90</ele>
        <time>2013-02-17T11:23:23.001Z</time>
      </trkpt>
      <trkpt lat="47.38234" lon="0.09513">
        <ele>90</ele>
        <time>2013-02-17T11:23:26.001Z</time>
      </trkpt>
      <trkpt lat="47.38234" lon="0.09513">
        <ele>90</ele>
        <time>2013-02-17T11:23:27.001Z</time>
      </trkpt>
      <trkpt lat="47.38238" lon="0.09515">
        <ele>90</ele>
        <time>2013-02-17T11:23:31.001Z</time>
      </trkpt>
      <trkpt lat="47.38239" lon="0.09516">
        <ele>90</ele>
        <time>2013-02-17T11:23:32.001Z</time>
      </trkpt>
      <trkpt lat="47.38242" lon="0.09519">
        <ele>90</ele>
        <time>2013-02-17T11:23:35.001Z</time>
      </trkpt>
      <trkpt lat="47.38243" lon="0.0952">
        <ele>90</ele>
        <time>2013-02-17T11:23:36.001Z</time>
      </trkpt>
      <trkpt lat="47.38247" lon="0.09522">
        <ele>90</ele>
        <time>2013-02-17T11:23:41.001Z</time>
      </trkpt>
      <trkpt lat="47.38247" lon="0.09522">
        <ele>90</ele>
        <time>2013-02-17T11:23:42.001Z</time>
      </trkpt>
      <trkpt lat="47.38251" lon="0.09524">
        <ele>88</ele>
        <time>2013-02-17T11:23:46.001Z</time>
      </trkpt>
      <trkpt lat="47.38252" lon="0.09524">
        <ele>88</ele>
        <time>2013-02-17T11:23:47.001Z</time>
      </trkpt>
      <trkpt lat="47.38254" lon="0.09526">
        <ele>88</ele>
        <time>2013-02-17T11:23:52.001Z</time>
      </trkpt>
      <trkpt lat="47.38256" lon="0.09527">
        <ele>88</ele>
        <time>2013-02-17T11:23:53.001Z</time>
      </trkpt>
      <trkpt lat="47.38259" lon="0.09529">
        <ele>88</ele>
        <time>2013-02-17T11:23:56.001Z</time>
      </trkpt>
      <trkpt lat="47.38261" lon="0.0953">
        <ele>88</ele>
        <time>2013-02-17T11:23:57.001Z</time>
      </trkpt>
      <trkpt lat="47.38265" lon="0.09532">
        <ele>88</ele>
        <time>2013-02-17T11:23:59.001Z</time>
      </trkpt>
      <trkpt lat="47.38266" lon="0.09533">
        <ele>88</ele>
        <time>2013-02-17T11:24:00.001Z</time>
      </trkpt>
      <trkpt lat="47.3827" lon="0.09535">
        <ele>88</ele>
        <time>2013-02-17T11:24:03.001Z</time>
      </trkpt>
      <trkpt lat="47.38271" lon="0.09535">
        <ele>88</ele>
        <time>2013-02-17T11:24:04.001Z</time>
      </trkpt>
      <trkpt lat="47.38275" lon="0.09537">
        <ele>88</ele>
        <time>2013-02-17T11:24:08.001Z</time>
      </trkpt>
      <trkpt lat="47.38276" lon="0.09537">
        <ele>88</ele>
        <time>2013-02-17T11:24:09.001Z</time>
      </trkpt>
      <trkpt lat="47.38279" lon="0.09538">
        <ele>88</ele>
        <time>2013-02-17T11:24:12.001Z</time>
      </trkpt>
      <trkpt lat="47.38281" lon="0.09538">
        <ele>88</ele>
        <time>2013-02-17T11:24:13.001Z</time>
      </trkpt>
      <trkpt lat="47.38284" lon="0.0954">
        <ele>88</ele>
        <time>2013-02-17T11:24:16.001Z</time>
      </trkpt>
      <trkpt lat="47.38286" lon="0.0954">
        <ele>88</ele>
        <time>2013-02-17T11:24:17.001Z</time>
      </trkpt>
      <trkpt lat="47.38289" lon="0.09541">
        <ele>88</ele>
        <time>2013-02-17T11:24:19.001Z</time>
      </trkpt>
      <trkpt lat="47.3829" lon="0.09541">
        <ele>88</ele>
        <time>2013-02-17T11:24:20.001Z</time>
      </trkpt>
      <trkpt lat="47.38295" lon="0.09541">
        <ele>88</ele>
        <time>2013-02-17T11:24:25.001Z</time>
      </trkpt>
      <trkpt lat="47.38295" lon="0.09541">
        <ele>88</ele>
        <time>2013-02-17T11:24:26.001Z</time>
      </trkpt>
      <trkpt lat="47.38299" lon="0.09541">
        <ele>88</ele>
        <time>2013-02-17T11:24:30.001Z</time>
      </trkpt>
      <trkpt lat="47.383" lon="0.09541">
        <ele>88</ele>
        <time>2013-02-17T11:24:31.001Z</time>
      </trkpt>
      <trkpt lat="47.38305" lon="0.09541">
        <ele>88</ele>
        <time>2013-02-17T11:24:34.001Z</time>
      </trkpt>
      <trkpt lat="47.38306" lon="0.09541">
        <ele>88</ele>
        <time>2013-02-17T11:24:35.001Z</time>
      </trkpt>
      <trkpt lat="47.3831" lon="0.09541">
        <ele>88</ele>
        <time>2013-02-17T11:24:37.001Z</time>
      </trkpt>
      <trkpt lat="47.38312" lon="0.09541">
        <ele>88</ele>
        <time>2013-02-17T11:24:38.001Z</time>
      </trkpt>
      <trkpt lat="47.38316" lon="0.0954">
        <ele>87</ele>
        <time>2013-02-17T11:24:42.001Z</time>
      </trkpt>
      <trkpt lat="47.38317" lon="0.0954">
        <ele>87</ele>
        <time>2013-02-17T11:24:43.001Z</time>
      </trkpt>
      <trkpt lat="47.38321" lon="0.09539">
        <ele>87</ele>
        <time>2013-02-17T11:24:49.001Z</time>
      </trkpt>
      <trkpt lat="47.38322" lon="0.09539">
        <ele>87</ele>
        <time>2013-02-17T11:24:50.001Z</time>
      </trkpt>
      <trkpt lat="47.38326" lon="0.09538">
        <ele>87</ele>
        <time>2013-02-17T11:24:53.001Z</time>
      </trkpt>
      <trkpt lat="47.38327" lon="0.09538">
        <ele>87</ele>
        <time>2013-02-17T11:24:54.001Z</time>
      </trkpt>
      <trkpt lat="47.38331" lon="0.09537">
        <ele>87</ele>
        <time>2013-02-17T11:24:58.001Z</time>
      </trkpt>
      <trkpt lat="47.38332" lon="0.09536">
        <ele>87</ele>
        <time>2013-02-17T11:24:59.001Z</time>
      </trkpt>
      <trkpt lat="47.38335" lon="0.09534">
        <ele>84</ele>
        <time>2013-02-17T11:25:05.001Z</time>
      </trkpt>
      <trkpt lat="47.38336" lon="0.09534">
        <ele>84</ele>
        <time>2013-02-17T11:25:06.001Z</time>
      </trkpt>
      <trkpt lat="47.3834" lon="0.09533">
        <ele>84</ele>
        <time>2013-02-17T11:25:10.001Z</time>
      </trkpt>
      <trkpt lat="47.38341" lon="0.09533">
        <ele>84</ele>
        <time>2013-02-17T11:25:11.001Z</time>
      </trkpt>
      <trkpt lat="47.38344" lon="0.09531">
        <ele>84</ele>
        <time>2013-02-17T11:25:14.001Z</time>
      </trkpt>
      <trkpt lat="47.38345" lon="0.0953">
        <ele>84</ele>
        <time>2013-02-17T11:25:15.001Z</time>
      </trkpt>
      <trkpt lat="47.3835" lon="0.09529">
        <ele>84</ele>
        <time>2013-02-17T11:25:18.001Z</time>
      </trkpt>
      <trkpt lat="47.38351" lon="0.09529">
        <ele>84</ele>
        <time>2013-02-17T11:25:19.001Z</time>
      </trkpt>
      <trkpt lat="47.38355" lon="0.09528">
        <ele>84</ele>
        <time>2013-02-17T11:25:23.001Z</time>
      </trkpt>
      <trkpt lat="47.38356" lon="0.09528">
        <ele>84</ele>
        <time>2013-02-17T11:25:24.001Z</time>
      </trkpt>
      <trkpt lat="47.38359" lon="0.09526">
        <ele>84</ele>
        <time>2013-02-17T11:25:27.001Z</time>
      </trkpt>
      <trkpt lat="47.38361" lon="0.09525">
        <ele>84</ele>
        <time>2013-02-17T11:25:28.001Z</time>
      </trkpt>
      <trkpt lat="47.38365" lon="0.09522">
        <ele>84</ele>
        <time>2013-02-17T11:25:30.001Z</time>
      </trkpt>
      <trkpt lat="47.38366" lon="0.09521">
        <ele>84</ele>
        <time>2013-02-17T11:25:31.001Z</time>
      </trkpt>
      <trkpt lat="47.3837" lon="0.0952">
        <ele>84</ele>
        <time>2013-02-17T11:25:33.001Z</time>
      </trkpt>
      <trkpt lat="47.38372" lon="0.09519">
        <ele>84</ele>
        <time>2013-02-17T11:25:34.001Z</time>
      </trkpt>
      <trkpt lat="47.38375" lon="0.09518">
        <ele>84</ele>
        <time>2013-02-17T11:25:36.001Z</time>
      </trkpt>
      <trkpt lat="47.38377" lon="0.09517">
        <ele>83</ele>
        <time>2013-02-17T11:25:37.001Z</time>
      </trkpt>
      <trkpt lat="47.3838" lon="0.09514">
        <ele>83</ele>
        <time>2013-02-17T11:25:41.001Z</time>
      </trkpt>
      <trkpt lat="47.38382" lon="0.09513">
        <ele>83</ele>
        <time>2013-02-17T11:25:42.001Z</time>
      </trkpt>
      <trkpt lat="47.38385" lon="0.09511">
        <ele>83</ele>
        <time>2013-02-17T11:25:45.001Z</time>
      </trkpt>
      <trkpt lat="47.38386" lon="0.09511">
        <ele>83</ele>
        <time>2013-02-17T11:25:46.001Z</time>
      </trkpt>
      <trkpt lat="47.3839" lon="0.0951">
        <ele>83</ele>
        <time>2013-02-17T11:25:49.001Z</time>
      </trkpt>
      <trkpt lat="47.38391" lon="0.09509">
        <ele>83</ele>
        <time>2013-02-17T11:25:50.001Z</time>
      </trkpt>
      <trkpt lat="47.38394" lon="0.09507">
        <ele>83</ele>
        <time>2013-02-17T11:25:54.001Z</time>
      </trkpt>
      <trkpt lat="47.38395" lon="0.09507">
        <ele>83</ele>
        <time>2013-02-17T11:25:55.001Z</time>
      </trkpt>
      <trkpt lat="47.38399" lon="0.09506">
        <ele>82</ele>
        <time>2013-02-17T11:25:59.001Z</time>
      </trkpt>
      <trkpt lat="47.384" lon="0.09505">
        <ele>82</ele>
        <time>2013-02-17T11:26:00.001Z</time>
      </trkpt>
      <trkpt lat="47.38404" lon="0.09504">
        <ele>82</ele>
        <time>2013-02-17T11:26:05.001Z</time>
      </trkpt>
      <trkpt lat="47.38405" lon="0.09504">
        <ele>82</ele>
        <time>2013-02-17T11:26:06.001Z</time>
      </trkpt>
      <trkpt lat="47.38409" lon="0.09505">
        <ele>82</ele>
        <time>2013-02-17T11:26:09.001Z</time>
      </trkpt>
      <trkpt lat="47.38411" lon="0.09506">
        <ele>82</ele>
        <time>2013-02-17T11:26:10.001Z</time>
      </trkpt>
      <trkpt lat="47.38415" lon="0.09506">
        <ele>82</ele>
        <time>2013-02-17T11:26:13.001Z</time>
      </trkpt>
      <trkpt lat="47.38415" lon="0.09506">
        <ele>82</ele>
        <time>2013-02-17T11:26:14.001Z</time>
      </trkpt>
      <trkpt lat="47.3842" lon="0.09506">
        <ele>81</ele>
        <time>2013-02-17T11:26:17.001Z</time>
      </trkpt>
      <trkpt lat="47.3842" lon="0.09506">
        <ele>81</ele>
        <time>2013-02-17T11:26:18.001Z</time>
      </trkpt>
      <trkpt lat="47.38425" lon="0.09505">
        <ele>80</ele>
        <time>2013-02-17T11:26:26.001Z</time>
      </trkpt>
      <trkpt lat="47.38425" lon="0.09506">
        <ele>80</ele>
        <time>2013-02-17T11:26:27.001Z</time>
      </trkpt>
      <trkpt lat="47.38429" lon="0.09502">
        <ele>80</ele>
        <time>2013-02-17T11:26:52.001Z</time>
      </trkpt>
      <trkpt lat="47.38429" lon="0.09502">
        <ele>80</ele>
        <time>2013-02-17T11:26:53.001Z</time>
      </trkpt>
      <trkpt lat="47.38424" lon="0.09504">
        <ele>80</ele>
        <time>2013-02-17T11:27:21.001Z</time>
      </trkpt>
      <trkpt lat="47.38424" lon="0.09504">
        <ele>81</ele>
        <time>2013-02-17T11:27:22.001Z</time>
      </trkpt>
      <trkpt lat="47.38428" lon="0.09501">
        <ele>80</ele>
        <time>2013-02-17T11:27:47.001Z</time>
      </trkpt>
      <trkpt lat="47.38429" lon="0.09501">
        <ele>80</ele>
        <time>2013-02-17T11:27:48.001Z</time>
      </trkpt>
      <trkpt lat="47.38429" lon="0.09496">
        <ele>80</ele>
        <time>2013-02-17T11:28:00.001Z</time>
      </trkpt>
      <trkpt lat="47.3843" lon="0.09495">
        <ele>80</ele>
        <time>2013-02-17T11:28:01.001Z</time>
      </trkpt>
      <trkpt lat="47.38431" lon="0.09491">
        <ele>80</ele>
        <time>2013-02-17T11:28:04.001Z</time>
      </trkpt>
      <trkpt lat="47.38433" lon="0.09489">
        <ele>80</ele>
        <time>2013-02-17T11:28:05.001Z</time>
      </trkpt>
      <trkpt lat="47.38436" lon="0.09485">
        <ele>79</ele>
        <time>2013-02-17T11:28:07.001Z</time>
      </trkpt>
      <trkpt lat="47.38438" lon="0.09484">
        <ele>79</ele>
        <time>2013-02-17T11:28:08.001Z</time>
      </trkpt>
      <trkpt lat="47.38441" lon="0.0948">
        <ele>79</ele>
        <time>2013-02-17T11:28:11.001Z</time>
      </trkpt>
      <trkpt lat="47.38443" lon="0.09478">
        <ele>79</ele>
        <time>2013-02-17T11:28:12.001Z</time>
      </trkpt>
      <trkpt lat="47.38445" lon="0.09474">
        <ele>79</ele>
        <time>2013-02-17T11:28:15.001Z</time>
      </trkpt>
      <trkpt lat="47.38446" lon="0.09472">
        <ele>79</ele>
        <time>2013-02-17T11:28:16.001Z</time>
      </trkpt>
      <trkpt lat="47.38448" lon="0.09467">
        <ele>79</ele>
        <time>2013-02-17T11:28:19.001Z</time>
      </trkpt>
      <trkpt lat="47.38448" lon="0.09465">
        <ele>79</ele>
        <time>2013-02-17T11:28:20.001Z</time>
      </trkpt>
      <trkpt lat="47.38451" lon="0.09461">
        <ele>79</ele>
        <time>2013-02-17T11:28:23.001Z</time>
      </trkpt>
      <trkpt lat="47.38451" lon="0.0946">
        <ele>79</ele>
        <time>2013-02-17T11:28:24.001Z</time>
      </trkpt>
      <trkpt lat="47.38454" lon="0.09454">
        <ele>79</ele>
        <time>2013-02-17T11:28:28.001Z</time>
      </trkpt>
      <trkpt lat="47.38454" lon="0.09453">
        <ele>79</ele>
        <time>2013-02-17T11:28:29.001Z</time>
      </trkpt>
      <trkpt lat="47.38456" lon="0.09447">
        <ele>79</ele>
        <time>2013-02-17T11:28:33.001Z</time>
      </trkpt>
      <trkpt lat="47.38456" lon="0.09445">
        <ele>78</ele>
        <time>2013-02-17T11:28:34.001Z</time>
      </trkpt>
      <trkpt lat="47.38456" lon="0.09441">
        <ele>78</ele>
        <time>2013-02-17T11:28:37.001Z</time>
      </trkpt>
      <trkpt lat="47.38457" lon="0.09439">
        <ele>78</ele>
        <time>2013-02-17T11:28:38.001Z</time>
      </trkpt>
      <trkpt lat="47.38459" lon="0.09434">
        <ele>78</ele>
        <time>2013-02-17T11:28:41.001Z</time>
      </trkpt>
      <trkpt lat="47.3846" lon="0.09433">
        <ele>78</ele>
        <time>2013-02-17T11:28:42.001Z</time>
      </trkpt>
      <trkpt lat="47.38461" lon="0.09428">
        <ele>78</ele>
        <time>2013-02-17T11:28:45.001Z</time>
      </trkpt>
      <trkpt lat="47.38462" lon="0.09427">
        <ele>78</ele>
        <time>2013-02-17T11:28:46.001Z</time>
      </trkpt>
      <trkpt lat="47.38463" lon="0.09421">
        <ele>78</ele>
        <time>2013-02-17T11:28:49.001Z</time>
      </trkpt>
      <trkpt lat="47.38463" lon="0.0942">
        <ele>78</ele>
        <time>2013-02-17T11:28:50.001Z</time>
      </trkpt>
      <trkpt lat="47.38464" lon="0.09414">
        <ele>78</ele>
        <time>2013-02-17T11:28:54.001Z</time>
      </trkpt>
      <trkpt lat="47.38464" lon="0.09412">
        <ele>78</ele>
        <time>2013-02-17T11:28:55.001Z</time>
      </trkpt>
      <trkpt lat="47.38465" lon="0.09407">
        <ele>78</ele>
        <time>2013-02-17T11:28:57.001Z</time>
      </trkpt>
      <trkpt lat="47.38465" lon="0.09405">
        <ele>78</ele>
        <time>2013-02-17T11:28:58.001Z</time>
      </trkpt>
      <trkpt lat="47.38467" lon="0.09399">
        <ele>78</ele>
        <time>2013-02-17T11:29:03.001Z</time>
      </trkpt>
      <trkpt lat="47.38467" lon="0.09399">
        <ele>78</ele>
        <time>2013-02-17T11:29:04.001Z</time>
      </trkpt>
      <trkpt lat="47.38468" lon="0.09393">
        <ele>78</ele>
        <time>2013-02-17T11:29:08.001Z</time>
      </trkpt>
      <trkpt lat="47.38468" lon="0.09391">
        <ele>78</ele>
        <time>2013-02-17T11:29:09.001Z</time>
      </trkpt>
      <trkpt lat="47.38468" lon="0.09385">
        <ele>78</ele>
        <time>2013-02-17T11:29:12.001Z</time>
      </trkpt>
      <trkpt lat="47.38468" lon="0.09383">
        <ele>78</ele>
        <time>2013-02-17T11:29:13.001Z</time>
      </trkpt>
      <trkpt lat="47.38469" lon="0.09377">
        <ele>78</ele>
        <time>2013-02-17T11:29:21.001Z</time>
      </trkpt>
      <trkpt lat="47.38469" lon="0.09375">
        <ele>78</ele>
        <time>2013-02-17T11:29:22.001Z</time>
      </trkpt>
      <trkpt lat="47.3847" lon="0.0937">
        <ele>78</ele>
        <time>2013-02-17T11:29:26.001Z</time>
      </trkpt>
      <trkpt lat="47.38469" lon="0.09368">
        <ele>78</ele>
        <time>2013-02-17T11:29:27.001Z</time>
      </trkpt>
      <trkpt lat="47.3847" lon="0.09363">
        <ele>78</ele>
        <time>2013-02-17T11:29:29.001Z</time>
      </trkpt>
      <trkpt lat="47.3847" lon="0.09361">
        <ele>78</ele>
        <time>2013-02-17T11:29:30.001Z</time>
      </trkpt>
      <trkpt lat="47.38469" lon="0.09356">
        <ele>78</ele>
        <time>2013-02-17T11:29:33.001Z</time>
      </trkpt>
      <trkpt lat="47.38469" lon="0.09355">
        <ele>78</ele>
        <time>2013-02-17T11:29:34.001Z</time>
      </trkpt>
      <trkpt lat="47.38468" lon="0.09349">
        <ele>78</ele>
        <time>2013-02-17T11:29:37.001Z</time>
      </trkpt>
      <trkpt lat="47.38467" lon="0.09347">
        <ele>78</ele>
        <time>2013-02-17T11:29:38.001Z</time>
      </trkpt>
      <trkpt lat="47.38467" lon="0.09341">
        <ele>78</ele>
        <time>2013-02-17T11:29:41.001Z</time>
      </trkpt>
      <trkpt lat="47.38466" lon="0.09339">
        <ele>78</ele>
        <time>2013-02-17T11:29:42.001Z</time>
      </trkpt>
      <trkpt lat="47.38465" lon="0.09334">
        <ele>78</ele>
        <time>2013-02-17T11:29:45.001Z</time>
      </trkpt>
      <trkpt lat="47.38465" lon="0.09332">
        <ele>78</ele>
        <time>2013-02-17T11:29:46.001Z</time>
      </trkpt>
      <trkpt lat="47.38464" lon="0.09325">
        <ele>78</ele>
        <time>2013-02-17T11:29:50.001Z</time>
      </trkpt>
      <trkpt lat="47.38464" lon="0.09324">
        <ele>78</ele>
        <time>2013-02-17T11:29:51.001Z</time>
      </trkpt>
      <trkpt lat="47.38464" lon="0.09319">
        <ele>78</ele>
        <time>2013-02-17T11:29:54.001Z</time>
      </trkpt>
      <trkpt lat="47.38464" lon="0.09317">
        <ele>78</ele>
        <time>2013-02-17T11:29:55.001Z</time>
      </trkpt>
      <trkpt lat="47.38464" lon="0.09311">
        <ele>78</ele>
        <time>2013-02-17T11:29:58.001Z</time>
      </trkpt>
      <trkpt lat="47.38464" lon="0.0931">
        <ele>78</ele>
        <time>2013-02-17T11:29:59.001Z</time>
      </trkpt>
      <trkpt lat="47.38463" lon="0.09305">
        <ele>78</ele>
        <time>2013-02-17T11:30:03.001Z</time>
      </trkpt>
      <trkpt lat="47.38463" lon="0.09303">
        <ele>78</ele>
        <time>2013-02-17T11:30:04.001Z</time>
      </trkpt>
      <trkpt lat="47.38463" lon="0.09297">
        <ele>78</ele>
        <time>2013-02-17T11:30:08.001Z</time>
      </trkpt>
      <trkpt lat="47.38463" lon="0.09296">
        <ele>78</ele>
        <time>2013-02-17T11:30:09.001Z</time>
      </trkpt>
      <trkpt lat="47.38463" lon="0.0929">
        <ele>78</ele>
        <time>2013-02-17T11:30:13.001Z</time>
      </trkpt>
      <trkpt lat="47.38463" lon="0.09288">
        <ele>78</ele>
        <time>2013-02-17T11:30:14.001Z</time>
      </trkpt>
      <trkpt lat="47.38463" lon="0.09283">
        <ele>78</ele>
        <time>2013-02-17T11:30:17.001Z</time>
      </trkpt>
      <trkpt lat="47.38463" lon="0.09281">
        <ele>78</ele>
        <time>2013-02-17T11:30:18.001Z</time>
      </trkpt>
      <trkpt lat="47.38462" lon="0.09275">
        <ele>78</ele>
        <time>2013-02-17T11:30:21.001Z</time>
      </trkpt>
      <trkpt lat="47.38462" lon="0.09274">
        <ele>78</ele>
        <time>2013-02-17T11:30:22.001Z</time>
      </trkpt>
      <trkpt lat="47.38462" lon="0.09267">
        <ele>78</ele>
        <time>2013-02-17T11:30:26.001Z</time>
      </trkpt>
      <trkpt lat="47.38462" lon="0.09265">
        <ele>78</ele>
        <time>2013-02-17T11:30:27.001Z</time>
      </trkpt>
      <trkpt lat="47.38462" lon="0.0926">
        <ele>78</ele>
        <time>2013-02-17T11:30:30.001Z</time>
      </trkpt>
      <trkpt lat="47.38462" lon="0.09259">
        <ele>78</ele>
        <time>2013-02-17T11:30:31.001Z</time>
      </trkpt>
      <trkpt lat="47.38461" lon="0.09253">
        <ele>78</ele>
        <time>2013-02-17T11:30:35.001Z</time>
      </trkpt>
      <trkpt lat="47.38461" lon="0.09251">
        <ele>78</ele>
        <time>2013-02-17T11:30:36.001Z</time>
      </trkpt>
      <trkpt lat="47.38461" lon="0.09245">
        <ele>77</ele>
        <time>2013-02-17T11:30:40.001Z</time>
      </trkpt>
      <trkpt lat="47.38461" lon="0.09244">
        <ele>77</ele>
        <time>2013-02-17T11:30:41.001Z</time>
      </trkpt>
      <trkpt lat="47.38461" lon="0.09239">
        <ele>77</ele>
        <time>2013-02-17T11:30:44.001Z</time>
      </trkpt>
      <trkpt lat="47.38461" lon="0.09237">
        <ele>77</ele>
        <time>2013-02-17T11:30:45.001Z</time>
      </trkpt>
      <trkpt lat="47.38461" lon="0.09232">
        <ele>77</ele>
        <time>2013-02-17T11:30:48.001Z</time>
      </trkpt>
      <trkpt lat="47.38461" lon="0.0923">
        <ele>77</ele>
        <time>2013-02-17T11:30:49.001Z</time>
      </trkpt>
      <trkpt lat="47.38461" lon="0.09225">
        <ele>77</ele>
        <time>2013-02-17T11:30:52.001Z</time>
      </trkpt>
      <trkpt lat="47.38461" lon="0.09223">
        <ele>77</ele>
        <time>2013-02-17T11:30:53.001Z</time>
      </trkpt>
      <trkpt lat="47.38461" lon="0.09216">
        <ele>77</ele>
        <time>2013-02-17T11:30:57.001Z</time>
      </trkpt>
      <trkpt lat="47.3846" lon="0.09215">
        <ele>77</ele>
        <time>2013-02-17T11:30:58.001Z</time>
      </trkpt>
      <trkpt lat="47.38459" lon="0.09209">
        <ele>77</ele>
        <time>2013-02-17T11:31:02.001Z</time>
      </trkpt>
      <trkpt lat="47.38459" lon="0.09208">
        <ele>76</ele>
        <time>2013-02-17T11:31:03.001Z</time>
      </trkpt>
      <trkpt lat="47.3846" lon="0.09202">
        <ele>76</ele>
        <time>2013-02-17T11:31:06.001Z</time>
      </trkpt>
      <trkpt lat="47.3846" lon="0.092">
        <ele>76</ele>
        <time>2013-02-17T11:31:07.001Z</time>
      </trkpt>
      <trkpt lat="47.38461" lon="0.09194">
        <ele>76</ele>
        <time>2013-02-17T11:31:12.001Z</time>
      </trkpt>
      <trkpt lat="47.38461" lon="0.09193">
        <ele>76</ele>
        <time>2013-02-17T11:31:13.001Z</time>
      </trkpt>
      <trkpt lat="47.38462" lon="0.09189">
        <ele>76</ele>
        <time>2013-02-17T11:31:16.001Z</time>
      </trkpt>
      <trkpt lat="47.38462" lon="0.09186">
        <ele>76</ele>
        <time>2013-02-17T11:31:17.001Z</time>
      </trkpt>
      <trkpt lat="47.38463" lon="0.09181">
        <ele>76</ele>
        <time>2013-02-17T11:31:20.001Z</time>
      </trkpt>
      <trkpt lat="47.38463" lon="0.09179">
        <ele>76</ele>
        <time>2013-02-17T11:31:21.001Z</time>
      </trkpt>
      <trkpt lat="47.38464" lon="0.09173">
        <ele>76</ele>
        <time>2013-02-17T11:31:26.001Z</time>
      </trkpt>
      <trkpt lat="47.38465" lon="0.09172">
        <ele>76</ele>
        <time>2013-02-17T11:31:27.001Z</time>
      </trkpt>
      <trkpt lat="47.38466" lon="0.09167">
        <ele>74</ele>
        <time>2013-02-17T11:31:31.001Z</time>
      </trkpt>
      <trkpt lat="47.38466" lon="0.09165">
        <ele>74</ele>
        <time>2013-02-17T11:31:32.001Z</time>
      </trkpt>
      <trkpt lat="47.38467" lon="0.09159">
        <ele>74</ele>
        <time>2013-02-17T11:31:35.001Z</time>
      </trkpt>
      <trkpt lat="47.38469" lon="0.09156">
        <ele>74</ele>
        <time>2013-02-17T11:31:36.001Z</time>
      </trkpt>
      <trkpt lat="47.38469" lon="0.0915">
        <ele>74</ele>
        <time>2013-02-17T11:31:39.001Z</time>
      </trkpt>
      <trkpt lat="47.38469" lon="0.09149">
        <ele>74</ele>
        <time>2013-02-17T11:31:40.001Z</time>
      </trkpt>
      <trkpt lat="47.38469" lon="0.09142">
        <ele>74</ele>
        <time>2013-02-17T11:31:44.001Z</time>
      </trkpt>
      <trkpt lat="47.38469" lon="0.09141">
        <ele>74</ele>
        <time>2013-02-17T11:31:45.001Z</time>
      </trkpt>
      <trkpt lat="47.38469" lon="0.09135">
        <ele>74</ele>
        <time>2013-02-17T11:31:48.001Z</time>
      </trkpt>
      <trkpt lat="47.38468" lon="0.09133">
        <ele>74</ele>
        <time>2013-02-17T11:31:49.001Z</time>
      </trkpt>
      <trkpt lat="47.38467" lon="0.09128">
        <ele>74</ele>
        <time>2013-02-17T11:31:52.001Z</time>
      </trkpt>
      <trkpt lat="47.38466" lon="0.09127">
        <ele>74</ele>
        <time>2013-02-17T11:31:53.001Z</time>
      </trkpt>
      <trkpt lat="47.38465" lon="0.09121">
        <ele>74</ele>
        <time>2013-02-17T11:31:58.001Z</time>
      </trkpt>
      <trkpt lat="47.38464" lon="0.0912">
        <ele>74</ele>
        <time>2013-02-17T11:31:59.001Z</time>
      </trkpt>
      <trkpt lat="47.38463" lon="0.09114">
        <ele>74</ele>
        <time>2013-02-17T11:32:04.001Z</time>
      </trkpt>
      <trkpt lat="47.38463" lon="0.09112">
        <ele>74</ele>
        <time>2013-02-17T11:32:05.001Z</time>
      </trkpt>
      <trkpt lat="47.38463" lon="0.09106">
        <ele>73</ele>
        <time>2013-02-17T11:32:09.001Z</time>
      </trkpt>
      <trkpt lat="47.38463" lon="0.09104">
        <ele>73</ele>
        <time>2013-02-17T11:32:10.001Z</time>
      </trkpt>
      <trkpt lat="47.38463" lon="0.09098">
        <ele>73</ele>
        <time>2013-02-17T11:32:14.001Z</time>
      </trkpt>
      <trkpt lat="47.38463" lon="0.09097">
        <ele>73</ele>
        <time>2013-02-17T11:32:15.001Z</time>
      </trkpt>
      <trkpt lat="47.38463" lon="0.09091">
        <ele>73</ele>
        <time>2013-02-17T11:32:19.001Z</time>
      </trkpt>
      <trkpt lat="47.38464" lon="0.09089">
        <ele>73</ele>
        <time>2013-02-17T11:32:20.001Z</time>
      </trkpt>
      <trkpt lat="47.38464" lon="0.09084">
        <ele>73</ele>
        <time>2013-02-17T11:32:23.001Z</time>
      </trkpt>
      <trkpt lat="47.38464" lon="0.09082">
        <ele>72</ele>
        <time>2013-02-17T11:32:24.001Z</time>
      </trkpt>
      <trkpt lat="47.38463" lon="0.09076">
        <ele>72</ele>
        <time>2013-02-17T11:32:27.001Z</time>
      </trkpt>
      <trkpt lat="47.38463" lon="0.09074">
        <ele>72</ele>
        <time>2013-02-17T11:32:28.001Z</time>
      </trkpt>
      <trkpt lat="47.38462" lon="0.09069">
        <ele>72</ele>
        <time>2013-02-17T11:32:31.001Z</time>
      </trkpt>
      <trkpt lat="47.38462" lon="0.09067">
        <ele>72</ele>
        <time>2013-02-17T11:32:32.001Z</time>
      </trkpt>
      <trkpt lat="47.38462" lon="0.09062">
        <ele>72</ele>
        <time>2013-02-17T11:32:36.001Z</time>
      </trkpt>
      <trkpt lat="47.38462" lon="0.0906">
        <ele>72</ele>
        <time>2013-02-17T11:32:37.001Z</time>
      </trkpt>
      <trkpt lat="47.38461" lon="0.09055">
        <ele>72</ele>
        <time>2013-02-17T11:32:40.001Z</time>
      </trkpt>
      <trkpt lat="47.38461" lon="0.09053">
        <ele>72</ele>
        <time>2013-02-17T11:32:41.001Z</time>
      </trkpt>
      <trkpt lat="47.3846" lon="0.09046">
        <ele>72</ele>
        <time>2013-02-17T11:32:44.001Z</time>
      </trkpt>
      <trkpt lat="47.38461" lon="0.09045">
        <ele>72</ele>
        <time>2013-02-17T11:32:45.001Z</time>
      </trkpt>
      <trkpt lat="47.38462" lon="0.0904">
        <ele>72</ele>
        <time>2013-02-17T11:32:47.001Z</time>
      </trkpt>
      <trkpt lat="47.38462" lon="0.09038">
        <ele>72</ele>
        <time>2013-02-17T11:32:48.001Z</time>
      </trkpt>
      <trkpt lat="47.38462" lon="0.09033">
        <ele>72</ele>
        <time>2013-02-17T11:32:51.001Z</time>
      </trkpt>
      <trkpt lat="47.38462" lon="0.0903">
        <ele>72</ele>
        <time>2013-02-17T11:32:52.001Z</time>
      </trkpt>
      <trkpt lat="47.38461" lon="0.09024">
        <ele>72</ele>
        <time>2013-02-17T11:32:57.001Z</time>
      </trkpt>
      <trkpt lat="47.38461" lon="0.09024">
        <ele>72</ele>
        <time>2013-02-17T11:32:58.001Z</time>
      </trkpt>
      <trkpt lat="47.38461" lon="0.09018">
        <ele>72</ele>
        <time>2013-02-17T11:33:06.001Z</time>
      </trkpt>
      <trkpt lat="47.38461" lon="0.09016">
        <ele>72</ele>
        <time>2013-02-17T11:33:07.001Z</time>
      </trkpt>
      <trkpt lat="47.38461" lon="0.09012">
        <ele>72</ele>
        <time>2013-02-17T11:33:09.001Z</time>
      </trkpt>
      <trkpt lat="47.38461" lon="0.0901">
        <ele>72</ele>
        <time>2013-02-17T11:33:10.001Z</time>
      </trkpt>
      <trkpt lat="47.38463" lon="0.09004">
        <ele>72</ele>
        <time>2013-02-17T11:33:14.001Z</time>
      </trkpt>
      <trkpt lat="47.38463" lon="0.09002">
        <ele>72</ele>
        <time>2013-02-17T11:33:15.001Z</time>
      </trkpt>
      <trkpt lat="47.38463" lon="0.08996">
        <ele>71</ele>
        <time>2013-02-17T11:33:19.001Z</time>
      </trkpt>
      <trkpt lat="47.38463" lon="0.08994">
        <ele>71</ele>
        <time>2013-02-17T11:33:20.001Z</time>
      </trkpt>
      <trkpt lat="47.38463" lon="0.08988">
        <ele>71</ele>
        <time>2013-02-17T11:33:23.001Z</time>
      </trkpt>
      <trkpt lat="47.38463" lon="0.08987">
        <ele>71</ele>
        <time>2013-02-17T11:33:24.001Z</time>
      </trkpt>
      <trkpt lat="47.38464" lon="0.08981">
        <ele>71</ele>
        <time>2013-02-17T11:33:27.001Z</time>
      </trkpt>
      <trkpt lat="47.38463" lon="0.08977">
        <ele>71</ele>
        <time>2013-02-17T11:33:28.001Z</time>
      </trkpt>
      <trkpt lat="47.38462" lon="0.08971">
        <ele>71</ele>
        <time>2013-02-17T11:33:31.001Z</time>
      </trkpt>
      <trkpt lat="47.38462" lon="0.08969">
        <ele>71</ele>
        <time>2013-02-17T11:33:32.001Z</time>
      </trkpt>
      <trkpt lat="47.38462" lon="0.08964">
        <ele>71</ele>
        <time>2013-02-17T11:33:35.001Z</time>
      </trkpt>
      <trkpt lat="47.38462" lon="0.08962">
        <ele>71</ele>
        <time>2013-02-17T11:33:36.001Z</time>
      </trkpt>
      <trkpt lat="47.38463" lon="0.08958">
        <ele>71</ele>
        <time>2013-02-17T11:33:39.001Z</time>
      </trkpt>
      <trkpt lat="47.38464" lon="0.08956">
        <ele>71</ele>
        <time>2013-02-17T11:33:40.001Z</time>
      </trkpt>
      <trkpt lat="47.38465" lon="0.0895">
        <ele>71</ele>
        <time>2013-02-17T11:33:43.001Z</time>
      </trkpt>
      <trkpt lat="47.38466" lon="0.08948">
        <ele>71</ele>
        <time>2013-02-17T11:33:44.001Z</time>
      </trkpt>
      <trkpt lat="47.38467" lon="0.08944">
        <ele>71</ele>
        <time>2013-02-17T11:33:46.001Z</time>
      </trkpt>
      <trkpt lat="47.38467" lon="0.08942">
        <ele>71</ele>
        <time>2013-02-17T11:33:47.001Z</time>
      </trkpt>
      <trkpt lat="47.38469" lon="0.08936">
        <ele>71</ele>
        <time>2013-02-17T11:33:51.001Z</time>
      </trkpt>
      <trkpt lat="47.38469" lon="0.08934">
        <ele>71</ele>
        <time>2013-02-17T11:33:52.001Z</time>
      </trkpt>
      <trkpt lat="47.3847" lon="0.08929">
        <ele>71</ele>
        <time>2013-02-17T11:33:54.001Z</time>
      </trkpt>
      <trkpt lat="47.3847" lon="0.08927">
        <ele>71</ele>
        <time>2013-02-17T11:33:55.001Z</time>
      </trkpt>
      <trkpt lat="47.38471" lon="0.08921">
        <ele>71</ele>
        <time>2013-02-17T11:33:59.001Z</time>
      </trkpt>
      <trkpt lat="47.38472" lon="0.08919">
        <ele>71</ele>
        <time>2013-02-17T11:34:00.001Z</time>
      </trkpt>
      <trkpt lat="47.38474" lon="0.08914">
        <ele>70</ele>
        <time>2013-02-17T11:34:04.001Z</time>
      </trkpt>
      <trkpt lat="47.38474" lon="0.08913">
        <ele>70</ele>
        <time>2013-02-17T11:34:05.001Z</time>
      </trkpt>
      <trkpt lat="47.38474" lon="0.08907">
        <ele>70</ele>
        <time>2013-02-17T11:34:09.001Z</time>
      </trkpt>
      <trkpt lat="47.38474" lon="0.08905">
        <ele>70</ele>
        <time>2013-02-17T11:34:10.001Z</time>
      </trkpt>
      <trkpt lat="47.38474" lon="0.08898">
        <ele>70</ele>
        <time>2013-02-17T11:34:13.001Z</time>
      </trkpt>
      <trkpt lat="47.38474" lon="0.08897">
        <ele>70</ele>
        <time>2013-02-17T11:34:14.001Z</time>
      </trkpt>
      <trkpt lat="47.38477" lon="0.08893">
        <ele>70</ele>
        <time>2013-02-17T11:34:17.001Z</time>
      </trkpt>
      <trkpt lat="47.38478" lon="0.08892">
        <ele>70</ele>
        <time>2013-02-17T11:34:18.001Z</time>
      </trkpt>
      <trkpt lat="47.38476" lon="0.08886">
        <ele>70</ele>
        <time>2013-02-17T11:34:23.001Z</time>
      </trkpt>
      <trkpt lat="47.38477" lon="0.08885">
        <ele>70</ele>
        <time>2013-02-17T11:34:24.001Z</time>
      </trkpt>
      <trkpt lat="47.38475" lon="0.08879">
        <ele>70</ele>
        <time>2013-02-17T11:34:27.001Z</time>
      </trkpt>
      <trkpt lat="47.38474" lon="0.08877">
        <ele>70</ele>
        <time>2013-02-17T11:34:28.001Z</time>
      </trkpt>
      <trkpt lat="47.38471" lon="0.08872">
        <ele>70</ele>
        <time>2013-02-17T11:34:30.001Z</time>
      </trkpt>
      <trkpt lat="47.3847" lon="0.0887">
        <ele>70</ele>
        <time>2013-02-17T11:34:31.001Z</time>
      </trkpt>
      <trkpt lat="47.38469" lon="0.08866">
        <ele>70</ele>
        <time>2013-02-17T11:34:33.001Z</time>
      </trkpt>
      <trkpt lat="47.38468" lon="0.08864">
        <ele>70</ele>
        <time>2013-02-17T11:34:34.001Z</time>
      </trkpt>
      <trkpt lat="47.38466" lon="0.08859">
        <ele>70</ele>
        <time>2013-02-17T11:34:36.001Z</time>
      </trkpt>
      <trkpt lat="47.38465" lon="0.08857">
        <ele>70</ele>
        <time>2013-02-17T11:34:37.001Z</time>
      </trkpt>
      <trkpt lat="47.38463" lon="0.08852">
        <ele>70</ele>
        <time>2013-02-17T11:34:40.001Z</time>
      </trkpt>
      <trkpt lat="47.38463" lon="0.08851">
        <ele>70</ele>
        <time>2013-02-17T11:34:41.001Z</time>
      </trkpt>
      <trkpt lat="47.38461" lon="0.08846">
        <ele>70</ele>
        <time>2013-02-17T11:34:44.001Z</time>
      </trkpt>
      <trkpt lat="47.3846" lon="0.08844">
        <ele>70</ele>
        <time>2013-02-17T11:34:45.001Z</time>
      </trkpt>
      <trkpt lat="47.38458" lon="0.08838">
        <ele>70</ele>
        <time>2013-02-17T11:34:49.001Z</time>
      </trkpt>
      <trkpt lat="47.38458" lon="0.08836">
        <ele>70</ele>
        <time>2013-02-17T11:34:50.001Z</time>
      </trkpt>
      <trkpt lat="47.38456" lon="0.08832">
        <ele>69</ele>
        <time>2013-02-17T11:34:53.001Z</time>
      </trkpt>
      <trkpt lat="47.38456" lon="0.0883">
        <ele>69</ele>
        <time>2013-02-17T11:34:54.001Z</time>
      </trkpt>
      <trkpt lat="47.38453" lon="0.08826">
        <ele>69</ele>
        <time>2013-02-17T11:34:57.001Z</time>
      </trkpt>
      <trkpt lat="47.38452" lon="0.08824">
        <ele>69</ele>
        <time>2013-02-17T11:34:58.001Z</time>
      </trkpt>
      <trkpt lat="47.3845" lon="0.08819">
        <ele>69</ele>
        <time>2013-02-17T11:35:01.001Z</time>
      </trkpt>
      <trkpt lat="47.38449" lon="0.08817">
        <ele>69</ele>
        <time>2013-02-17T11:35:02.001Z</time>
      </trkpt>
      <trkpt lat="47.38446" lon="0.08812">
        <ele>69</ele>
        <time>2013-02-17T11:35:06.001Z</time>
      </trkpt>
      <trkpt lat="47.38446" lon="0.08811">
        <ele>69</ele>
        <time>2013-02-17T11:35:07.001Z</time>
      </trkpt>
      <trkpt lat="47.38444" lon="0.08806">
        <ele>69</ele>
        <time>2013-02-17T11:35:11.001Z</time>
      </trkpt>
      <trkpt lat="47.38444" lon="0.08804">
        <ele>69</ele>
        <time>2013-02-17T11:35:12.001Z</time>
      </trkpt>
      <trkpt lat="47.38442" lon="0.088">
        <ele>69</ele>
        <time>2013-02-17T11:35:15.001Z</time>
      </trkpt>
      <trkpt lat="47.38442" lon="0.08798">
        <ele>69</ele>
        <time>2013-02-17T11:35:16.001Z</time>
      </trkpt>
      <trkpt lat="47.3844" lon="0.08792">
        <ele>69</ele>
        <time>2013-02-17T11:35:19.001Z</time>
      </trkpt>
      <trkpt lat="47.3844" lon="0.08792">
        <ele>69</ele>
        <time>2013-02-17T11:35:20.001Z</time>
      </trkpt>
      <trkpt lat="47.38439" lon="0.08786">
        <ele>69</ele>
        <time>2013-02-17T11:35:24.001Z</time>
      </trkpt>
      <trkpt lat="47.38439" lon="0.08785">
        <ele>69</ele>
        <time>2013-02-17T11:35:25.001Z</time>
      </trkpt>
      <trkpt lat="47.38437" lon="0.0878">
        <ele>69</ele>
        <time>2013-02-17T11:35:30.000Z</time>
      </trkpt>
      <trkpt lat="47.38437" lon="0.08778">
        <ele>69</ele>
        <time>2013-02-17T11:35:31.000Z</time>
      </trkpt>
      <trkpt lat="47.38436" lon="0.08772">
        <ele>69</ele>
        <time>2013-02-17T11:35:35.000Z</time>
      </trkpt>
      <trkpt lat="47.38435" lon="0.08771">
        <ele>69</ele>
        <time>2013-02-17T11:35:36.000Z</time>
      </trkpt>
      <trkpt lat="47.38433" lon="0.08766">
        <ele>69</ele>
        <time>2013-02-17T11:35:39.000Z</time>
      </trkpt>
      <trkpt lat="47.38433" lon="0.08764">
        <ele>69</ele>
        <time>2013-02-17T11:35:40.000Z</time>
      </trkpt>
      <trkpt lat="47.38431" lon="0.08759">
        <ele>69</ele>
        <time>2013-02-17T11:35:43.000Z</time>
      </trkpt>
      <trkpt lat="47.38431" lon="0.08757">
        <ele>69</ele>
        <time>2013-02-17T11:35:44.000Z</time>
      </trkpt>
      <trkpt lat="47.3843" lon="0.08752">
        <ele>69</ele>
        <time>2013-02-17T11:35:47.000Z</time>
      </trkpt>
      <trkpt lat="47.38429" lon="0.08751">
        <ele>69</ele>
        <time>2013-02-17T11:35:48.000Z</time>
      </trkpt>
      <trkpt lat="47.38428" lon="0.08746">
        <ele>69</ele>
        <time>2013-02-17T11:35:51.000Z</time>
      </trkpt>
      <trkpt lat="47.38427" lon="0.08744">
        <ele>69</ele>
        <time>2013-02-17T11:35:52.000Z</time>
      </trkpt>
      <trkpt lat="47.38426" lon="0.08737">
        <ele>69</ele>
        <time>2013-02-17T11:35:56.000Z</time>
      </trkpt>
      <trkpt lat="47.38426" lon="0.08736">
        <ele>69</ele>
        <time>2013-02-17T11:35:57.000Z</time>
      </trkpt>
      <trkpt lat="47.38425" lon="0.08731">
        <ele>69</ele>
        <time>2013-02-17T11:36:02.000Z</time>
      </trkpt>
      <trkpt lat="47.38425" lon="0.08729">
        <ele>69</ele>
        <time>2013-02-17T11:36:03.000Z</time>
      </trkpt>
      <trkpt lat="47.38423" lon="0.08724">
        <ele>69</ele>
        <time>2013-02-17T11:36:07.000Z</time>
      </trkpt>
      <trkpt lat="47.38423" lon="0.08722">
        <ele>69</ele>
        <time>2013-02-17T11:36:08.000Z</time>
      </trkpt>
      <trkpt lat="47.38421" lon="0.08716">
        <ele>69</ele>
        <time>2013-02-17T11:36:13.000Z</time>
      </trkpt>
      <trkpt lat="47.38421" lon="0.08715">
        <ele>69</ele>
        <time>2013-02-17T11:36:14.000Z</time>
      </trkpt>
      <trkpt lat="47.38419" lon="0.0871">
        <ele>69</ele>
        <time>2013-02-17T11:36:17.000Z</time>
      </trkpt>
      <trkpt lat="47.38419" lon="0.08708">
        <ele>69</ele>
        <time>2013-02-17T11:36:18.000Z</time>
      </trkpt>
      <trkpt lat="47.38417" lon="0.08704">
        <ele>69</ele>
        <time>2013-02-17T11:36:21.000Z</time>
      </trkpt>
      <trkpt lat="47.38417" lon="0.08702">
        <ele>69</ele>
        <time>2013-02-17T11:36:22.000Z</time>
      </trkpt>
      <trkpt lat="47.38415" lon="0.08697">
        <ele>70</ele>
        <time>2013-02-17T11:36:24.000Z</time>
      </trkpt>
      <trkpt lat="47.38415" lon="0.08695">
        <ele>70</ele>
        <time>2013-02-17T11:36:25.000Z</time>
      </trkpt>
      <trkpt lat="47.38413" lon="0.08691">
        <ele>70</ele>
        <time>2013-02-17T11:36:27.000Z</time>
      </trkpt>
      <trkpt lat="47.38413" lon="0.08689">
        <ele>70</ele>
        <time>2013-02-17T11:36:28.000Z</time>
      </trkpt>
      <trkpt lat="47.38411" lon="0.08683">
        <ele>69</ele>
        <time>2013-02-17T11:36:31.000Z</time>
      </trkpt>
      <trkpt lat="47.3841" lon="0.08681">
        <ele>69</ele>
        <time>2013-02-17T11:36:32.000Z</time>
      </trkpt>
      <trkpt lat="47.38409" lon="0.08675">
        <ele>69</ele>
        <time>2013-02-17T11:36:35.000Z</time>
      </trkpt>
      <trkpt lat="47.38408" lon="0.08673">
        <ele>69</ele>
        <time>2013-02-17T11:36:36.000Z</time>
      </trkpt>
      <trkpt lat="47.38407" lon="0.08668">
        <ele>69</ele>
        <time>2013-02-17T11:36:38.000Z</time>
      </trkpt>
      <trkpt lat="47.38406" lon="0.08666">
        <ele>70</ele>
        <time>2013-02-17T11:36:39.000Z</time>
      </trkpt>
      <trkpt lat="47.38404" lon="0.0866">
        <ele>70</ele>
        <time>2013-02-17T11:36:42.000Z</time>
      </trkpt>
      <trkpt lat="47.38403" lon="0.08659">
        <ele>70</ele>
        <time>2013-02-17T11:36:43.000Z</time>
      </trkpt>
      <trkpt lat="47.38402" lon="0.08655">
        <ele>71</ele>
        <time>2013-02-17T11:36:45.000Z</time>
      </trkpt>
      <trkpt lat="47.38402" lon="0.08652">
        <ele>71</ele>
        <time>2013-02-17T11:36:46.000Z</time>
      </trkpt>
      <trkpt lat="47.384" lon="0.08646">
        <ele>71</ele>
        <time>2013-02-17T11:36:49.000Z</time>
      </trkpt>
      <trkpt lat="47.384" lon="0.08645">
        <ele>71</ele>
        <time>2013-02-17T11:36:50.000Z</time>
      </trkpt>
      <trkpt lat="47.38398" lon="0.0864">
        <ele>71</ele>
        <time>2013-02-17T11:36:52.000Z</time>
      </trkpt>
      <trkpt lat="47.38397" lon="0.08638">
        <ele>71</ele>
        <time>2013-02-17T11:36:53.000Z</time>
      </trkpt>
      <trkpt lat="47.38395" lon="0.08633">
        <ele>71</ele>
        <time>2013-02-17T11:36:55.000Z</time>
      </trkpt>
      <trkpt lat="47.38395" lon="0.08631">
        <ele>71</ele>
        <time>2013-02-17T11:36:56.000Z</time>
      </trkpt>
      <trkpt lat="47.38394" lon="0.08626">
        <ele>72</ele>
        <time>2013-02-17T11:36:58.000Z</time>
      </trkpt>
      <trkpt lat="47.38394" lon="0.08624">
        <ele>72</ele>
        <time>2013-02-17T11:36:59.000Z</time>
      </trkpt>
      <trkpt lat="47.38393" lon="0.08619">
        <ele>72</ele>
        <time>2013-02-17T11:37:02.000Z</time>
      </trkpt>
      <trkpt lat="47.38392" lon="0.08617">
        <ele>72</ele>
        <time>2013-02-17T11:37:03.000Z</time>
      </trkpt>
      <trkpt lat="47.38391" lon="0.08611">
        <ele>72</ele>
        <time>2013-02-17T11:37:07.000Z</time>
      </trkpt>
      <trkpt lat="47.3839" lon="0.08609">
        <ele>72</ele>
        <time>2013-02-17T11:37:08.000Z</time>
      </trkpt>
      <trkpt lat="47.3839" lon="0.08604">
        <ele>72</ele>
        <time>2013-02-17T11:37:12.000Z</time>
      </trkpt>
      <trkpt lat="47.3839" lon="0.08602">
        <ele>72</ele>
        <time>2013-02-17T11:37:13.000Z</time>
      </trkpt>
      <trkpt lat="47.38389" lon="0.08597">
        <ele>72</ele>
        <time>2013-02-17T11:37:16.000Z</time>
      </trkpt>
      <trkpt lat="47.38389" lon="0.08595">
        <ele>72</ele>
        <time>2013-02-17T11:37:17.000Z</time>
      </trkpt>
      <trkpt lat="47.38388" lon="0.0859">
        <ele>72</ele>
        <time>2013-02-17T11:37:20.000Z</time>
      </trkpt>
      <trkpt lat="47.38388" lon="0.08588">
        <ele>72</ele>
        <time>2013-02-17T11:37:21.000Z</time>
      </trkpt>
      <trkpt lat="47.38388" lon="0.08582">
        <ele>74</ele>
        <time>2013-02-17T11:37:25.000Z</time>
      </trkpt>
      <trkpt lat="47.38388" lon="0.0858">
        <ele>74</ele>
        <time>2013-02-17T11:37:26.000Z</time>
      </trkpt>
      <trkpt lat="47.38388" lon="0.08574">
        <ele>74</ele>
        <time>2013-02-17T11:37:30.000Z</time>
      </trkpt>
      <trkpt lat="47.38388" lon="0.08573">
        <ele>74</ele>
        <time>2013-02-17T11:37:31.000Z</time>
      </trkpt>
      <trkpt lat="47.38388" lon="0.08569">
        <ele>74</ele>
        <time>2013-02-17T11:37:33.000Z</time>
      </trkpt>
      <trkpt lat="47.38389" lon="0.08566">
        <ele>74</ele>
        <time>2013-02-17T11:37:34.000Z</time>
      </trkpt>
      <trkpt lat="47.3839" lon="0.08561">
        <ele>74</ele>
        <time>2013-02-17T11:37:38.000Z</time>
      </trkpt>
      <trkpt lat="47.3839" lon="0.08559">
        <ele>75</ele>
        <time>2013-02-17T11:37:39.000Z</time>
      </trkpt>
      <trkpt lat="47.3839" lon="0.08552">
        <ele>75</ele>
        <time>2013-02-17T11:37:42.000Z</time>
      </trkpt>
      <trkpt lat="47.3839" lon="0.0855">
        <ele>75</ele>
        <time>2013-02-17T11:37:43.000Z</time>
      </trkpt>
      <trkpt lat="47.3839" lon="0.08546">
        <ele>75</ele>
        <time>2013-02-17T11:37:45.000Z</time>
      </trkpt>
      <trkpt lat="47.3839" lon="0.08543">
        <ele>75</ele>
        <time>2013-02-17T11:37:46.000Z</time>
      </trkpt>
      <trkpt lat="47.38391" lon="0.08538">
        <ele>75</ele>
        <time>2013-02-17T11:37:48.000Z</time>
      </trkpt>
      <trkpt lat="47.38391" lon="0.08537">
        <ele>75</ele>
        <time>2013-02-17T11:37:49.000Z</time>
      </trkpt>
      <trkpt lat="47.38391" lon="0.0853">
        <ele>75</ele>
        <time>2013-02-17T11:37:52.000Z</time>
      </trkpt>
      <trkpt lat="47.38391" lon="0.08528">
        <ele>75</ele>
        <time>2013-02-17T11:37:53.000Z</time>
      </trkpt>
      <trkpt lat="47.38391" lon="0.08522">
        <ele>75</ele>
        <time>2013-02-17T11:37:57.000Z</time>
      </trkpt>
      <trkpt lat="47.38391" lon="0.0852">
        <ele>75</ele>
        <time>2013-02-17T11:37:58.000Z</time>
      </trkpt>
      <trkpt lat="47.3839" lon="0.08515">
        <ele>76</ele>
        <time>2013-02-17T11:38:01.000Z</time>
      </trkpt>
      <trkpt lat="47.38391" lon="0.08513">
        <ele>76</ele>
        <time>2013-02-17T11:38:02.000Z</time>
      </trkpt>
      <trkpt lat="47.38392" lon="0.08509">
        <ele>76</ele>
        <time>2013-02-17T11:38:05.000Z</time>
      </trkpt>
      <trkpt lat="47.38393" lon="0.08506">
        <ele>76</ele>
        <time>2013-02-17T11:38:06.000Z</time>
      </trkpt>
      <trkpt lat="47.38393" lon="0.085">
        <ele>76</ele>
        <time>2013-02-17T11:38:09.000Z</time>
      </trkpt>
      <trkpt lat="47.38394" lon="0.08499">
        <ele>77</ele>
        <time>2013-02-17T11:38:10.000Z</time>
      </trkpt>
      <trkpt lat="47.38394" lon="0.08494">
        <ele>77</ele>
        <time>2013-02-17T11:38:13.000Z</time>
      </trkpt>
      <trkpt lat="47.38394" lon="0.08492">
        <ele>77</ele>
        <time>2013-02-17T11:38:14.000Z</time>
      </trkpt>
      <trkpt lat="47.38394" lon="0.08486">
        <ele>77</ele>
        <time>2013-02-17T11:38:19.000Z</time>
      </trkpt>
      <trkpt lat="47.38394" lon="0.08484">
        <ele>77</ele>
        <time>2013-02-17T11:38:20.000Z</time>
      </trkpt>
      <trkpt lat="47.38395" lon="0.08478">
        <ele>77</ele>
        <time>2013-02-17T11:38:25.000Z</time>
      </trkpt>
      <trkpt lat="47.38396" lon="0.08476">
        <ele>77</ele>
        <time>2013-02-17T11:38:26.000Z</time>
      </trkpt>
      <trkpt lat="47.38397" lon="0.08472">
        <ele>77</ele>
        <time>2013-02-17T11:38:28.000Z</time>
      </trkpt>
      <trkpt lat="47.38397" lon="0.08468">
        <ele>77</ele>
        <time>2013-02-17T11:38:29.000Z</time>
      </trkpt>
      <trkpt lat="47.38397" lon="0.08464">
        <ele>77</ele>
        <time>2013-02-17T11:38:31.000Z</time>
      </trkpt>
      <trkpt lat="47.38398" lon="0.08461">
        <ele>77</ele>
        <time>2013-02-17T11:38:32.000Z</time>
      </trkpt>
      <trkpt lat="47.38398" lon="0.08456">
        <ele>78</ele>
        <time>2013-02-17T11:38:34.000Z</time>
      </trkpt>
      <trkpt lat="47.38398" lon="0.08453">
        <ele>78</ele>
        <time>2013-02-17T11:38:35.000Z</time>
      </trkpt>
      <trkpt lat="47.38398" lon="0.08447">
        <ele>78</ele>
        <time>2013-02-17T11:38:39.000Z</time>
      </trkpt>
      <trkpt lat="47.38398" lon="0.08445">
        <ele>78</ele>
        <time>2013-02-17T11:38:40.000Z</time>
      </trkpt>
      <trkpt lat="47.38398" lon="0.0844">
        <ele>78</ele>
        <time>2013-02-17T11:38:42.000Z</time>
      </trkpt>
      <trkpt lat="47.38399" lon="0.08437">
        <ele>78</ele>
        <time>2013-02-17T11:38:43.000Z</time>
      </trkpt>
      <trkpt lat="47.38399" lon="0.08432">
        <ele>78</ele>
        <time>2013-02-17T11:38:46.000Z</time>
      </trkpt>
      <trkpt lat="47.38399" lon="0.0843">
        <ele>78</ele>
        <time>2013-02-17T11:38:47.000Z</time>
      </trkpt>
      <trkpt lat="47.38399" lon="0.08426">
        <ele>78</ele>
        <time>2013-02-17T11:38:50.000Z</time>
      </trkpt>
      <trkpt lat="47.384" lon="0.08424">
        <ele>78</ele>
        <time>2013-02-17T11:38:51.000Z</time>
      </trkpt>
      <trkpt lat="47.38401" lon="0.08418">
        <ele>78</ele>
        <time>2013-02-17T11:38:57.000Z</time>
      </trkpt>
      <trkpt lat="47.38401" lon="0.08417">
        <ele>78</ele>
        <time>2013-02-17T11:38:58.000Z</time>
      </trkpt>
      <trkpt lat="47.384" lon="0.08411">
        <ele>78</ele>
        <time>2013-02-17T11:39:01.000Z</time>
      </trkpt>
      <trkpt lat="47.384" lon="0.0841">
        <ele>78</ele>
        <time>2013-02-17T11:39:02.000Z</time>
      </trkpt>
      <trkpt lat="47.38401" lon="0.08405">
        <ele>78</ele>
        <time>2013-02-17T11:39:06.000Z</time>
      </trkpt>
      <trkpt lat="47.38401" lon="0.08403">
        <ele>78</ele>
        <time>2013-02-17T11:39:07.000Z</time>
      </trkpt>
      <trkpt lat="47.38403" lon="0.08397">
        <ele>78</ele>
        <time>2013-02-17T11:39:10.000Z</time>
      </trkpt>
      <trkpt lat="47.38403" lon="0.08394">
        <ele>78</ele>
        <time>2013-02-17T11:39:11.000Z</time>
      </trkpt>
      <trkpt lat="47.38403" lon="0.08389">
        <ele>78</ele>
        <time>2013-02-17T11:39:13.000Z</time>
      </trkpt>
      <trkpt lat="47.38403" lon="0.08387">
        <ele>78</ele>
        <time>2013-02-17T11:39:14.000Z</time>
      </trkpt>
      <trkpt lat="47.38404" lon="0.08381">
        <ele>78</ele>
        <time>2013-02-17T11:39:17.000Z</time>
      </trkpt>
      <trkpt lat="47.38405" lon="0.08378">
        <ele>78</ele>
        <time>2013-02-17T11:39:18.000Z</time>
      </trkpt>
      <trkpt lat="47.38405" lon="0.08372">
        <ele>78</ele>
        <time>2013-02-17T11:39:22.000Z</time>
      </trkpt>
      <trkpt lat="47.38405" lon="0.08371">
        <ele>77</ele>
        <time>2013-02-17T11:39:23.000Z</time>
      </trkpt>
      <trkpt lat="47.38405" lon="0.08365">
        <ele>77</ele>
        <time>2013-02-17T11:39:29.000Z</time>
      </trkpt>
      <trkpt lat="47.38405" lon="0.08363">
        <ele>77</ele>
        <time>2013-02-17T11:39:30.000Z</time>
      </trkpt>
      <trkpt lat="47.38406" lon="0.08357">
        <ele>77</ele>
        <time>2013-02-17T11:39:35.000Z</time>
      </trkpt>
      <trkpt lat="47.38406" lon="0.08355">
        <ele>77</ele>
        <time>2013-02-17T11:39:36.000Z</time>
      </trkpt>
      <trkpt lat="47.38407" lon="0.0835">
        <ele>77</ele>
        <time>2013-02-17T11:39:40.000Z</time>
      </trkpt>
      <trkpt lat="47.38407" lon="0.08349">
        <ele>77</ele>
        <time>2013-02-17T11:39:41.000Z</time>
      </trkpt>
      <trkpt lat="47.38407" lon="0.08342">
        <ele>77</ele>
        <time>2013-02-17T11:39:45.000Z</time>
      </trkpt>
      <trkpt lat="47.38407" lon="0.0834">
        <ele>77</ele>
        <time>2013-02-17T11:39:46.000Z</time>
      </trkpt>
      <trkpt lat="47.38407" lon="0.08334">
        <ele>77</ele>
        <time>2013-02-17T11:39:51.000Z</time>
      </trkpt>
      <trkpt lat="47.38407" lon="0.08333">
        <ele>77</ele>
        <time>2013-02-17T11:39:52.000Z</time>
      </trkpt>
      <trkpt lat="47.38409" lon="0.08327">
        <ele>77</ele>
        <time>2013-02-17T11:40:05.000Z</time>
      </trkpt>
      <trkpt lat="47.38409" lon="0.08327">
        <ele>77</ele>
        <time>2013-02-17T11:40:06.000Z</time>
      </trkpt>
      <trkpt lat="47.38412" lon="0.08324">
        <ele>77</ele>
        <time>2013-02-17T11:40:30.000Z</time>
      </trkpt>
      <trkpt lat="47.38413" lon="0.08324">
        <ele>77</ele>
        <time>2013-02-17T11:40:31.000Z</time>
      </trkpt>
      <trkpt lat="47.38416" lon="0.08321">
        <ele>77</ele>
        <time>2013-02-17T11:40:35.000Z</time>
      </trkpt>
      <trkpt lat="47.38417" lon="0.08321">
        <ele>76</ele>
        <time>2013-02-17T11:40:36.000Z</time>
      </trkpt>
      <trkpt lat="47.38419" lon="0.08317">
        <ele>75</ele>
        <time>2013-02-17T11:40:38.000Z</time>
      </trkpt>
      <trkpt lat="47.3842" lon="0.08316">
        <ele>75</ele>
        <time>2013-02-17T11:40:39.000Z</time>
      </trkpt>
      <trkpt lat="47.38423" lon="0.08311">
        <ele>75</ele>
        <time>2013-02-17T11:40:43.000Z</time>
      </trkpt>
      <trkpt lat="47.38424" lon="0.0831">
        <ele>75</ele>
        <time>2013-02-17T11:40:44.000Z</time>
      </trkpt>
      <trkpt lat="47.38427" lon="0.08307">
        <ele>75</ele>
        <time>2013-02-17T11:40:48.000Z</time>
      </trkpt>
      <trkpt lat="47.38428" lon="0.08306">
        <ele>75</ele>
        <time>2013-02-17T11:40:49.000Z</time>
      </trkpt>
      <trkpt lat="47.38431" lon="0.08303">
        <ele>75</ele>
        <time>2013-02-17T11:40:52.000Z</time>
      </trkpt>
      <trkpt lat="47.38432" lon="0.08302">
        <ele>75</ele>
        <time>2013-02-17T11:40:53.000Z</time>
      </trkpt>
      <trkpt lat="47.38434" lon="0.08299">
        <ele>75</ele>
        <time>2013-02-17T11:40:57.000Z</time>
      </trkpt>
      <trkpt lat="47.38436" lon="0.08297">
        <ele>75</ele>
        <time>2013-02-17T11:40:58.000Z</time>
      </trkpt>
      <trkpt lat="47.38439" lon="0.08293">
        <ele>75</ele>
        <time>2013-02-17T11:41:01.000Z</time>
      </trkpt>
      <trkpt lat="47.3844" lon="0.08293">
        <ele>75</ele>
        <time>2013-02-17T11:41:02.000Z</time>
      </trkpt>
      <trkpt lat="47.38444" lon="0.08289">
        <ele>75</ele>
        <time>2013-02-17T11:41:05.000Z</time>
      </trkpt>
      <trkpt lat="47.38445" lon="0.08288">
        <ele>75</ele>
        <time>2013-02-17T11:41:06.000Z</time>
      </trkpt>
      <trkpt lat="47.38448" lon="0.08284">
        <ele>75</ele>
        <time>2013-02-17T11:41:09.000Z</time>
      </trkpt>
      <trkpt lat="47.38449" lon="0.08283">
        <ele>75</ele>
        <time>2013-02-17T11:41:10.000Z</time>
      </trkpt>
      <trkpt lat="47.38451" lon="0.08281">
        <ele>75</ele>
        <time>2013-02-17T11:41:12.000Z</time>
      </trkpt>
      <trkpt lat="47.38453" lon="0.0828">
        <ele>75</ele>
        <time>2013-02-17T11:41:13.000Z</time>
      </trkpt>
      <trkpt lat="47.38456" lon="0.08277">
        <ele>75</ele>
        <time>2013-02-17T11:41:16.000Z</time>
      </trkpt>
      <trkpt lat="47.38457" lon="0.08276">
        <ele>75</ele>
        <time>2013-02-17T11:41:17.000Z</time>
      </trkpt>
      <trkpt lat="47.3846" lon="0.08273">
        <ele>75</ele>
        <time>2013-02-17T11:41:21.000Z</time>
      </trkpt>
      <trkpt lat="47.38461" lon="0.08272">
        <ele>75</ele>
        <time>2013-02-17T11:41:22.000Z</time>
      </trkpt>
      <trkpt lat="47.38463" lon="0.08269">
        <ele>74</ele>
        <time>2013-02-17T11:41:25.000Z</time>
      </trkpt>
      <trkpt lat="47.38464" lon="0.08267">
        <ele>74</ele>
        <time>2013-02-17T11:41:26.000Z</time>
      </trkpt>
      <trkpt lat="47.38468" lon="0.08264">
        <ele>74</ele>
        <time>2013-02-17T11:41:30.000Z</time>
      </trkpt>
      <trkpt lat="47.38469" lon="0.08264">
        <ele>74</ele>
        <time>2013-02-17T11:41:31.000Z</time>
      </trkpt>
      <trkpt lat="47.38472" lon="0.08262">
        <ele>74</ele>
        <time>2013-02-17T11:41:36.000Z</time>
      </trkpt>
      <trkpt lat="47.38473" lon="0.08261">
        <ele>74</ele>
        <time>2013-02-17T11:41:37.000Z</time>
      </trkpt>
      <trkpt lat="47.38476" lon="0.08258">
        <ele>74</ele>
        <time>2013-02-17T11:41:40.000Z</time>
      </trkpt>
      <trkpt lat="47.38477" lon="0.08257">
        <ele>74</ele>
        <time>2013-02-17T11:41:41.000Z</time>
      </trkpt>
      <trkpt lat="47.3848" lon="0.08255">
        <ele>74</ele>
        <time>2013-02-17T11:41:45.000Z</time>
      </trkpt>
      <trkpt lat="47.38481" lon="0.08254">
        <ele>73</ele>
        <time>2013-02-17T11:41:46.000Z</time>
      </trkpt>
      <trkpt lat="47.38485" lon="0.08253">
        <ele>73</ele>
        <time>2013-02-17T11:41:49.000Z</time>
      </trkpt>
      <trkpt lat="47.38486" lon="0.08253">
        <ele>73</ele>
        <time>2013-02-17T11:41:50.000Z</time>
      </trkpt>
      <trkpt lat="47.38489" lon="0.08248">
        <ele>73</ele>
        <time>2013-02-17T11:41:56.000Z</time>
      </trkpt>
      <trkpt lat="47.3849" lon="0.08247">
        <ele>73</ele>
        <time>2013-02-17T11:41:57.000Z</time>
      </trkpt>
      <trkpt lat="47.38493" lon="0.08243">
        <ele>73</ele>
        <time>2013-02-17T11:42:01.000Z</time>
      </trkpt>
      <trkpt lat="47.38494" lon="0.08242">
        <ele>73</ele>
        <time>2013-02-17T11:42:02.000Z</time>
      </trkpt>
      <trkpt lat="47.38496" lon="0.08238">
        <ele>73</ele>
        <time>2013-02-17T11:42:04.000Z</time>
      </trkpt>
      <trkpt lat="47.38498" lon="0.08237">
        <ele>73</ele>
        <time>2013-02-17T11:42:05.000Z</time>
      </trkpt>
      <trkpt lat="47.38501" lon="0.08233">
        <ele>71</ele>
        <time>2013-02-17T11:42:09.000Z</time>
      </trkpt>
      <trkpt lat="47.38502" lon="0.08232">
        <ele>71</ele>
        <time>2013-02-17T11:42:10.000Z</time>
      </trkpt>
      <trkpt lat="47.38506" lon="0.08228">
        <ele>71</ele>
        <time>2013-02-17T11:42:13.000Z</time>
      </trkpt>
      <trkpt lat="47.38506" lon="0.08227">
        <ele>71</ele>
        <time>2013-02-17T11:42:14.000Z</time>
      </trkpt>
      <trkpt lat="47.3851" lon="0.08223">
        <ele>71</ele>
        <time>2013-02-17T11:42:18.000Z</time>
      </trkpt>
      <trkpt lat="47.38511" lon="0.08223">
        <ele>71</ele>
        <time>2013-02-17T11:42:19.000Z</time>
      </trkpt>
      <trkpt lat="47.38515" lon="0.0822">
        <ele>71</ele>
        <time>2013-02-17T11:42:23.000Z</time>
      </trkpt>
      <trkpt lat="47.38516" lon="0.0822">
        <ele>71</ele>
        <time>2013-02-17T11:42:24.000Z</time>
      </trkpt>
      <trkpt lat="47.3852" lon="0.08219">
        <ele>70</ele>
        <time>2013-02-17T11:42:28.000Z</time>
      </trkpt>
      <trkpt lat="47.38521" lon="0.08218">
        <ele>70</ele>
        <time>2013-02-17T11:42:29.000Z</time>
      </trkpt>
      <trkpt lat="47.38524" lon="0.08215">
        <ele>70</ele>
        <time>2013-02-17T11:42:32.000Z</time>
      </trkpt>
      <trkpt lat="47.38525" lon="0.08213">
        <ele>70</ele>
        <time>2013-02-17T11:42:33.000Z</time>
      </trkpt>
      <trkpt lat="47.38527" lon="0.08208">
        <ele>70</ele>
        <time>2013-02-17T11:42:35.000Z</time>
      </trkpt>
      <trkpt lat="47.38528" lon="0.08207">
        <ele>70</ele>
        <time>2013-02-17T11:42:36.000Z</time>
      </trkpt>
      <trkpt lat="47.38531" lon="0.08203">
        <ele>70</ele>
        <time>2013-02-17T11:42:39.000Z</time>
      </trkpt>
      <trkpt lat="47.38532" lon="0.08203">
        <ele>70</ele>
        <time>2013-02-17T11:42:40.000Z</time>
      </trkpt>
      <trkpt lat="47.38535" lon="0.08199">
        <ele>70</ele>
        <time>2013-02-17T11:42:43.000Z</time>
      </trkpt>
      <trkpt lat="47.38536" lon="0.08198">
        <ele>70</ele>
        <time>2013-02-17T11:42:44.000Z</time>
      </trkpt>
      <trkpt lat="47.38538" lon="0.08195">
        <ele>70</ele>
        <time>2013-02-17T11:42:47.000Z</time>
      </trkpt>
      <trkpt lat="47.3854" lon="0.08194">
        <ele>70</ele>
        <time>2013-02-17T11:42:48.000Z</time>
      </trkpt>
      <trkpt lat="47.38542" lon="0.08191">
        <ele>70</ele>
        <time>2013-02-17T11:42:51.000Z</time>
      </trkpt>
      <trkpt lat="47.38543" lon="0.0819">
        <ele>70</ele>
        <time>2013-02-17T11:42:52.000Z</time>
      </trkpt>
      <trkpt lat="47.38546" lon="0.08185">
        <ele>70</ele>
        <time>2013-02-17T11:42:55.000Z</time>
      </trkpt>
      <trkpt lat="47.38546" lon="0.08184">
        <ele>70</ele>
        <time>2013-02-17T11:42:56.000Z</time>
      </trkpt>
      <trkpt lat="47.38549" lon="0.08181">
        <ele>69</ele>
        <time>2013-02-17T11:42:59.000Z</time>
      </trkpt>
      <trkpt lat="47.3855" lon="0.08179">
        <ele>69</ele>
        <time>2013-02-17T11:43:00.000Z</time>
      </trkpt>
      <trkpt lat="47.38553" lon="0.08174">
        <ele>69</ele>
        <time>2013-02-17T11:43:03.000Z</time>
      </trkpt>
      <trkpt lat="47.38554" lon="0.08173">
        <ele>69</ele>
        <time>2013-02-17T11:43:04.000Z</time>
      </trkpt>
      <trkpt lat="47.38556" lon="0.08169">
        <ele>69</ele>
        <time>2013-02-17T11:43:06.000Z</time>
      </trkpt>
      <trkpt lat="47.38557" lon="0.08168">
        <ele>69</ele>
        <time>2013-02-17T11:43:07.000Z</time>
      </trkpt>
      <trkpt lat="47.3856" lon="0.08164">
        <ele>69</ele>
        <time>2013-02-17T11:43:10.000Z</time>
      </trkpt>
      <trkpt lat="47.38561" lon="0.08163">
        <ele>69</ele>
        <time>2013-02-17T11:43:11.000Z</time>
      </trkpt>
      <trkpt lat="47.38565" lon="0.08159">
        <ele>69</ele>
        <time>2013-02-17T11:43:15.000Z</time>
      </trkpt>
      <trkpt lat="47.38565" lon="0.08158">
        <ele>69</ele>
        <time>2013-02-17T11:43:16.000Z</time>
      </trkpt>
      <trkpt lat="47.38565" lon="0.08154">
        <ele>69</ele>
        <time>2013-02-17T11:43:25.000Z</time>
      </trkpt>
      <trkpt lat="47.38565" lon="0.08151">
        <ele>69</ele>
        <time>2013-02-17T11:43:26.000Z</time>
      </trkpt>
      <trkpt lat="47.38566" lon="0.08146">
        <ele>69</ele>
        <time>2013-02-17T11:43:34.000Z</time>
      </trkpt>
      <trkpt lat="47.38567" lon="0.08145">
        <ele>69</ele>
        <time>2013-02-17T11:43:35.000Z</time>
      </trkpt>
      <trkpt lat="47.38567" lon="0.08139">
        <ele>70</ele>
        <time>2013-02-17T11:43:40.000Z</time>
      </trkpt>
      <trkpt lat="47.38567" lon="0.08138">
        <ele>70</ele>
        <time>2013-02-17T11:43:41.000Z</time>
      </trkpt>
      <trkpt lat="47.38569" lon="0.08132">
        <ele>70</ele>
        <time>2013-02-17T11:43:45.000Z</time>
      </trkpt>
      <trkpt lat="47.38569" lon="0.08131">
        <ele>70</ele>
        <time>2013-02-17T11:43:46.000Z</time>
      </trkpt>
      <trkpt lat="47.3857" lon="0.08125">
        <ele>70</ele>
        <time>2013-02-17T11:43:51.000Z</time>
      </trkpt>
      <trkpt lat="47.3857" lon="0.08124">
        <ele>70</ele>
        <time>2013-02-17T11:43:52.000Z</time>
      </trkpt>
      <trkpt lat="47.38572" lon="0.08119">
        <ele>70</ele>
        <time>2013-02-17T11:43:58.000Z</time>
      </trkpt>
      <trkpt lat="47.38573" lon="0.08118">
        <ele>70</ele>
        <time>2013-02-17T11:43:59.000Z</time>
      </trkpt>
      <trkpt lat="47.38573" lon="0.08111">
        <ele>70</ele>
        <time>2013-02-17T11:44:03.000Z</time>
      </trkpt>
      <trkpt lat="47.38573" lon="0.0811">
        <ele>70</ele>
        <time>2013-02-17T11:44:04.000Z</time>
      </trkpt>
      <trkpt lat="47.38573" lon="0.08104">
        <ele>70</ele>
        <time>2013-02-17T11:44:07.000Z</time>
      </trkpt>
      <trkpt lat="47.38573" lon="0.08103">
        <ele>70</ele>
        <time>2013-02-17T11:44:08.000Z</time>
      </trkpt>
      <trkpt lat="47.38573" lon="0.08097">
        <ele>70</ele>
        <time>2013-02-17T11:44:12.000Z</time>
      </trkpt>
      <trkpt lat="47.38574" lon="0.08096">
        <ele>70</ele>
        <time>2013-02-17T11:44:13.000Z</time>
      </trkpt>
      <trkpt lat="47.38574" lon="0.0809">
        <ele>70</ele>
        <time>2013-02-17T11:44:17.000Z</time>
      </trkpt>
      <trkpt lat="47.38573" lon="0.08086">
        <ele>70</ele>
        <time>2013-02-17T11:44:18.000Z</time>
      </trkpt>
      <trkpt lat="47.38573" lon="0.08081">
        <ele>70</ele>
        <time>2013-02-17T11:44:20.000Z</time>
      </trkpt>
      <trkpt lat="47.38572" lon="0.08078">
        <ele>70</ele>
        <time>2013-02-17T11:44:21.000Z</time>
      </trkpt>
      <trkpt lat="47.38572" lon="0.08072">
        <ele>70</ele>
        <time>2013-02-17T11:44:24.000Z</time>
      </trkpt>
      <trkpt lat="47.38572" lon="0.08071">
        <ele>70</ele>
        <time>2013-02-17T11:44:25.000Z</time>
      </trkpt>
      <trkpt lat="47.38572" lon="0.08067">
        <ele>70</ele>
        <time>2013-02-17T11:44:27.000Z</time>
      </trkpt>
      <trkpt lat="47.3857" lon="0.08064">
        <ele>70</ele>
        <time>2013-02-17T11:44:28.000Z</time>
      </trkpt>
      <trkpt lat="47.38569" lon="0.08059">
        <ele>70</ele>
        <time>2013-02-17T11:44:30.000Z</time>
      </trkpt>
      <trkpt lat="47.38569" lon="0.08057">
        <ele>71</ele>
        <time>2013-02-17T11:44:31.000Z</time>
      </trkpt>
      <trkpt lat="47.38569" lon="0.08053">
        <ele>71</ele>
        <time>2013-02-17T11:44:33.000Z</time>
      </trkpt>
      <trkpt lat="47.38569" lon="0.0805">
        <ele>71</ele>
        <time>2013-02-17T11:44:34.000Z</time>
      </trkpt>
      <trkpt lat="47.3857" lon="0.08045">
        <ele>71</ele>
        <time>2013-02-17T11:44:36.000Z</time>
      </trkpt>
      <trkpt lat="47.3857" lon="0.08043">
        <ele>71</ele>
        <time>2013-02-17T11:44:37.000Z</time>
      </trkpt>
      <trkpt lat="47.3857" lon="0.08036">
        <ele>71</ele>
        <time>2013-02-17T11:44:42.000Z</time>
      </trkpt>
      <trkpt lat="47.3857" lon="0.08035">
        <ele>71</ele>
        <time>2013-02-17T11:44:43.000Z</time>
      </trkpt>
      <trkpt lat="47.38571" lon="0.08031">
        <ele>71</ele>
        <time>2013-02-17T11:44:46.000Z</time>
      </trkpt>
      <trkpt lat="47.38571" lon="0.08028">
        <ele>71</ele>
        <time>2013-02-17T11:44:47.000Z</time>
      </trkpt>
      <trkpt lat="47.3857" lon="0.08022">
        <ele>71</ele>
        <time>2013-02-17T11:44:50.000Z</time>
      </trkpt>
      <trkpt lat="47.38571" lon="0.08021">
        <ele>71</ele>
        <time>2013-02-17T11:44:51.000Z</time>
      </trkpt>
      <trkpt lat="47.38574" lon="0.08017">
        <ele>71</ele>
        <time>2013-02-17T11:45:06.000Z</time>
      </trkpt>
      <trkpt lat="47.38575" lon="0.08016">
        <ele>71</ele>
        <time>2013-02-17T11:45:07.000Z</time>
      </trkpt>
      <trkpt lat="47.38578" lon="0.08012">
        <ele>70</ele>
        <time>2013-02-17T11:45:10.000Z</time>
      </trkpt>
      <trkpt lat="47.38579" lon="0.08011">
        <ele>70</ele>
        <time>2013-02-17T11:45:11.000Z</time>
      </trkpt>
      <trkpt lat="47.38578" lon="0.08006">
        <ele>70</ele>
        <time>2013-02-17T11:45:13.000Z</time>
      </trkpt>
      <trkpt lat="47.38577" lon="0.08004">
        <ele>70</ele>
        <time>2013-02-17T11:45:14.000Z</time>
      </trkpt>
      <trkpt lat="47.38579" lon="0.07998">
        <ele>70</ele>
        <time>2013-02-17T11:45:17.000Z</time>
      </trkpt>
      <trkpt lat="47.38579" lon="0.07996">
        <ele>70</ele>
        <time>2013-02-17T11:45:18.000Z</time>
      </trkpt>
      <trkpt lat="47.38578" lon="0.07991">
        <ele>71</ele>
        <time>2013-02-17T11:45:21.000Z</time>
      </trkpt>
      <trkpt lat="47.38577" lon="0.07989">
        <ele>71</ele>
        <time>2013-02-17T11:45:22.000Z</time>
      </trkpt>
      <trkpt lat="47.38576" lon="0.07985">
        <ele>71</ele>
        <time>2013-02-17T11:45:25.000Z</time>
      </trkpt>
      <trkpt lat="47.38575" lon="0.07983">
        <ele>71</ele>
        <time>2013-02-17T11:45:26.000Z</time>
      </trkpt>
      <trkpt lat="47.38572" lon="0.07978">
        <ele>71</ele>
        <time>2013-02-17T11:45:29.000Z</time>
      </trkpt>
      <trkpt lat="47.38572" lon="0.07976">
        <ele>71</ele>
        <time>2013-02-17T11:45:30.000Z</time>
      </trkpt>
      <trkpt lat="47.38576" lon="0.07972">
        <ele>71</ele>
        <time>2013-02-17T11:45:35.000Z</time>
      </trkpt>
      <trkpt lat="47.38576" lon="0.07971">
        <ele>71</ele>
        <time>2013-02-17T11:45:36.000Z</time>
      </trkpt>
      <trkpt lat="47.3858" lon="0.0797">
        <ele>71</ele>
        <time>2013-02-17T11:45:39.000Z</time>
      </trkpt>
      <trkpt lat="47.38582" lon="0.0797">
        <ele>71</ele>
        <time>2013-02-17T11:45:40.000Z</time>
      </trkpt>
      <trkpt lat="47.38586" lon="0.07969">
        <ele>70</ele>
        <time>2013-02-17T11:45:43.000Z</time>
      </trkpt>
      <trkpt lat="47.38588" lon="0.07969">
        <ele>70</ele>
        <time>2013-02-17T11:45:44.000Z</time>
      </trkpt>
      <trkpt lat="47.38592" lon="0.07969">
        <ele>70</ele>
        <time>2013-02-17T11:45:47.000Z</time>
      </trkpt>
      <trkpt lat="47.38593" lon="0.07969">
        <ele>70</ele>
        <time>2013-02-17T11:45:48.000Z</time>
      </trkpt>
      <trkpt lat="47.38597" lon="0.07969">
        <ele>69</ele>
        <time>2013-02-17T11:45:50.000Z</time>
      </trkpt>
      <trkpt lat="47.38598" lon="0.07969">
        <ele>69</ele>
        <time>2013-02-17T11:45:51.000Z</time>
      </trkpt>
      <trkpt lat="47.38602" lon="0.07969">
        <ele>69</ele>
        <time>2013-02-17T11:45:55.000Z</time>
      </trkpt>
      <trkpt lat="47.38604" lon="0.07969">
        <ele>69</ele>
        <time>2013-02-17T11:45:56.000Z</time>
      </trkpt>
      <trkpt lat="47.38608" lon="0.07968">
        <ele>69</ele>
        <time>2013-02-17T11:46:01.000Z</time>
      </trkpt>
      <trkpt lat="47.38609" lon="0.07967">
        <ele>69</ele>
        <time>2013-02-17T11:46:02.000Z</time>
      </trkpt>
      <trkpt lat="47.38613" lon="0.07967">
        <ele>69</ele>
        <time>2013-02-17T11:46:09.000Z</time>
      </trkpt>
      <trkpt lat="47.38613" lon="0.07967">
        <ele>69</ele>
        <time>2013-02-17T11:46:10.000Z</time>
      </trkpt>
      <trkpt lat="47.38617" lon="0.07968">
        <ele>69</ele>
        <time>2013-02-17T11:46:15.000Z</time>
      </trkpt>
      <trkpt lat="47.38619" lon="0.07968">
        <ele>69</ele>
        <time>2013-02-17T11:46:16.000Z</time>
      </trkpt>
      <trkpt lat="47.38623" lon="0.07972">
        <ele>69</ele>
        <time>2013-02-17T11:46:20.000Z</time>
      </trkpt>
      <trkpt lat="47.38623" lon="0.07972">
        <ele>69</ele>
        <time>2013-02-17T11:46:21.000Z</time>
      </trkpt>
      <trkpt lat="47.38626" lon="0.07972">
        <ele>69</ele>
        <time>2013-02-17T11:46:26.000Z</time>
      </trkpt>
      <trkpt lat="47.38628" lon="0.07971">
        <ele>69</ele>
        <time>2013-02-17T11:46:27.000Z</time>
      </trkpt>
      <trkpt lat="47.38626" lon="0.07966">
        <ele>69</ele>
        <time>2013-02-17T11:46:31.000Z</time>
      </trkpt>
      <trkpt lat="47.38626" lon="0.07963">
        <ele>69</ele>
        <time>2013-02-17T11:46:32.000Z</time>
      </trkpt>
      <trkpt lat="47.38625" lon="0.07957">
        <ele>69</ele>
        <time>2013-02-17T11:46:34.000Z</time>
      </trkpt>
      <trkpt lat="47.38626" lon="0.07956">
        <ele>69</ele>
        <time>2013-02-17T11:46:35.000Z</time>
      </trkpt>
      <trkpt lat="47.38628" lon="0.0795">
        <ele>69</ele>
        <time>2013-02-17T11:46:39.000Z</time>
      </trkpt>
      <trkpt lat="47.3863" lon="0.07948">
        <ele>69</ele>
        <time>2013-02-17T11:46:40.000Z</time>
      </trkpt>
      <trkpt lat="47.38633" lon="0.07944">
        <ele>69</ele>
        <time>2013-02-17T11:46:44.000Z</time>
      </trkpt>
      <trkpt lat="47.38634" lon="0.07943">
        <ele>69</ele>
        <time>2013-02-17T11:46:45.000Z</time>
      </trkpt>
      <trkpt lat="47.38636" lon="0.07939">
        <ele>69</ele>
        <time>2013-02-17T11:46:48.000Z</time>
      </trkpt>
      <trkpt lat="47.38637" lon="0.07938">
        <ele>69</ele>
        <time>2013-02-17T11:46:49.000Z</time>
      </trkpt>
      <trkpt lat="47.38639" lon="0.07933">
        <ele>69</ele>
        <time>2013-02-17T11:46:52.000Z</time>
      </trkpt>
      <trkpt lat="47.3864" lon="0.07932">
        <ele>69</ele>
        <time>2013-02-17T11:46:53.000Z</time>
      </trkpt>
      <trkpt lat="47.38643" lon="0.07928">
        <ele>69</ele>
        <time>2013-02-17T11:46:57.000Z</time>
      </trkpt>
      <trkpt lat="47.38645" lon="0.07927">
        <ele>69</ele>
        <time>2013-02-17T11:46:58.000Z</time>
      </trkpt>
      <trkpt lat="47.38648" lon="0.07923">
        <ele>69</ele>
        <time>2013-02-17T11:47:02.000Z</time>
      </trkpt>
      <trkpt lat="47.38649" lon="0.07922">
        <ele>69</ele>
        <time>2013-02-17T11:47:03.000Z</time>
      </trkpt>
      <trkpt lat="47.38649" lon="0.07916">
        <ele>69</ele>
        <time>2013-02-17T11:47:06.000Z</time>
      </trkpt>
      <trkpt lat="47.38649" lon="0.07914">
        <ele>69</ele>
        <time>2013-02-17T11:47:07.000Z</time>
      </trkpt>
      <trkpt lat="47.38648" lon="0.07907">
        <ele>69</ele>
        <time>2013-02-17T11:47:10.000Z</time>
      </trkpt>
      <trkpt lat="47.38649" lon="0.07906">
        <ele>69</ele>
        <time>2013-02-17T11:47:11.000Z</time>
      </trkpt>
      <trkpt lat="47.3865" lon="0.07901">
        <ele>69</ele>
        <time>2013-02-17T11:47:13.000Z</time>
      </trkpt>
      <trkpt lat="47.3865" lon="0.07899">
        <ele>69</ele>
        <time>2013-02-17T11:47:14.000Z</time>
      </trkpt>
      <trkpt lat="47.38651" lon="0.07894">
        <ele>70</ele>
        <time>2013-02-17T11:47:16.000Z</time>
      </trkpt>
      <trkpt lat="47.38652" lon="0.07893">
        <ele>70</ele>
        <time>2013-02-17T11:47:17.000Z</time>
      </trkpt>
      <trkpt lat="47.38652" lon="0.07887">
        <ele>70</ele>
        <time>2013-02-17T11:47:21.000Z</time>
      </trkpt>
      <trkpt lat="47.38652" lon="0.07886">
        <ele>70</ele>
        <time>2013-02-17T11:47:22.000Z</time>
      </trkpt>
      <trkpt lat="47.38651" lon="0.0788">
        <ele>70</ele>
        <time>2013-02-17T11:47:27.000Z</time>
      </trkpt>
      <trkpt lat="47.38651" lon="0.07879">
        <ele>70</ele>
        <time>2013-02-17T11:47:28.000Z</time>
      </trkpt>
      <trkpt lat="47.38651" lon="0.07874">
        <ele>70</ele>
        <time>2013-02-17T11:47:31.000Z</time>
      </trkpt>
      <trkpt lat="47.38652" lon="0.07871">
        <ele>70</ele>
        <time>2013-02-17T11:47:32.000Z</time>
      </trkpt>
      <trkpt lat="47.38652" lon="0.07866">
        <ele>70</ele>
        <time>2013-02-17T11:47:34.000Z</time>
      </trkpt>
      <trkpt lat="47.38652" lon="0.07864">
        <ele>70</ele>
        <time>2013-02-17T11:47:35.000Z</time>
      </trkpt>
      <trkpt lat="47.38652" lon="0.07857">
        <ele>70</ele>
        <time>2013-02-17T11:47:38.000Z</time>
      </trkpt>
      <trkpt lat="47.38652" lon="0.07855">
        <ele>70</ele>
        <time>2013-02-17T11:47:39.000Z</time>
      </trkpt>
      <trkpt lat="47.38651" lon="0.0785">
        <ele>70</ele>
        <time>2013-02-17T11:47:43.000Z</time>
      </trkpt>
      <trkpt lat="47.38651" lon="0.07848">
        <ele>70</ele>
        <time>2013-02-17T11:47:44.000Z</time>
      </trkpt>
      <trkpt lat="47.38649" lon="0.07843">
        <ele>70</ele>
        <time>2013-02-17T11:47:48.000Z</time>
      </trkpt>
      <trkpt lat="47.38649" lon="0.07841">
        <ele>70</ele>
        <time>2013-02-17T11:47:49.000Z</time>
      </trkpt>
      <trkpt lat="47.3865" lon="0.07835">
        <ele>70</ele>
        <time>2013-02-17T11:47:54.000Z</time>
      </trkpt>
      <trkpt lat="47.38651" lon="0.07834">
        <ele>70</ele>
        <time>2013-02-17T11:47:55.000Z</time>
      </trkpt>
      <trkpt lat="47.38653" lon="0.07829">
        <ele>70</ele>
        <time>2013-02-17T11:47:59.000Z</time>
      </trkpt>
      <trkpt lat="47.38653" lon="0.07828">
        <ele>70</ele>
        <time>2013-02-17T11:48:00.000Z</time>
      </trkpt>
      <trkpt lat="47.38653" lon="0.07822">
        <ele>70</ele>
        <time>2013-02-17T11:48:05.000Z</time>
      </trkpt>
      <trkpt lat="47.38654" lon="0.07821">
        <ele>70</ele>
        <time>2013-02-17T11:48:06.000Z</time>
      </trkpt>
      <trkpt lat="47.38654" lon="0.07819">
        <ele>70</ele>
        <time>2013-02-17T11:48:08.000Z</time>
      </trkpt>
    </trkseg>
  </trk>
</gpx>